# Wetter Temperatur Luftdruck Luftfeuchtigkeit Sichtweite Windgeschwindigkeit Windrichtung Zeit
1 Clouds 30 1008 60 10000 1.88 93 13:41 22.04.2021
2 Clouds 31 1009 53 10000 1.72 103 13:22 22.04.2021
3 Clouds 31 1009 53 10000 1.72 103 12:52 22.04.2021
4 Clouds 30 1013 66 10000 3.09 250 12:30 22.04.2021
5 Clouds 32 1011 49 10000 1.86 121 11:50 22.04.2021
6 Clouds 31 1012 54 10000 1.79 123 11:26 22.04.2021
7 Clouds 31 1012 54 10000 1.79 123 10:48 22.04.2021
8 Clouds 31 1012 54 10000 1.79 123 10:30 22.04.2021
9 Clouds 29 1012 58 10000 1.62 138 09:59 22.04.2021
10 Clouds 29 1012 58 10000 1.62 138 09:34 22.04.2021
11 Clouds 27 1013 69 10000 1.5 146 08:48 22.04.2021
12 Clouds 24 1013 80 10000 1.05 143 08:23 22.04.2021
13 Clouds 24 1012 79 10000 1.27 143 07:49 22.04.2021
14 Clouds 24 1012 79 10000 1.27 143 07:30 22.04.2021
15 Clouds 22 1012 92 10000 0.69 119 06:43 22.04.2021
16 Clouds 21 1011 97 10000 0.82 127 06:18 22.04.2021
17 Clouds 21 1011 95 10000 0.96 116 05:21 22.04.2021
18 Clouds 21 1010 97 10000 0.62 92 02:24 22.04.2021
19 Clouds 21 1011 94 10000 0.8 98 23:55 21.04.2021
20 Clouds 21 1011 94 10000 0.8 98 23:37 21.04.2021
21 Clouds 21 1012 93 10000 1.1 129 22:59 21.04.2021
22 Clouds 21 1012 93 10000 1.1 129 22:38 21.04.2021
23 Clouds 22 1012 92 10000 0.65 113 22:18 21.04.2021
24 Clouds 22 1012 92 10000 0.65 113 21:41 21.04.2021
25 Clouds 23 1011 94 8000 0.99 153 21:19 21.04.2021
26 Clouds 23 1011 94 8000 1.18 141 20:27 21.04.2021
27 Clouds 23 1011 87 10000 1.18 141 19:49 21.04.2021
28 Clouds 25 1010 83 10000 0.99 141 19:27 21.04.2021
29 Clouds 25 1010 83 10000 0.99 141 18:52 21.04.2021
30 Clouds 25 1010 83 10000 0.99 141 18:34 21.04.2021
31 Clouds 26 1010 73 10000 0.42 149 17:59 21.04.2021
32 Clouds 26 1010 73 10000 0.42 149 17:40 21.04.2021
33 Clouds 28 1011 74 10000 4.12 140 17:22 21.04.2021
34 Clouds 25 1009 78 10000 0.17 306 16:40 21.04.2021
35 Clouds 27 1012 69 10000 2.06 30 15:52 21.04.2021
36 Clouds 29 1010 61 10000 1.09 308 15:25 21.04.2021
37 Clouds 29 1010 61 10000 1.09 308 14:45 21.04.2021
38 Clouds 26 1014 78 10000 4.12 90 14:27 21.04.2021
39 Clouds 26 1014 78 10000 4.12 90 13:50 21.04.2021
40 Clouds 27 1012 68 10000 0.97 68 13:22 21.04.2021
41 Clouds 27 1012 68 10000 0.97 68 12:47 21.04.2021
42 Clouds 24 1015 88 10000 1.53 91 12:23 21.04.2021
43 Clouds 28 1013 62 10000 1.53 91 11:46 21.04.2021
44 Clouds 27 1014 65 10000 1.53 102 11:23 21.04.2021
45 Clouds 27 1014 65 10000 1.53 102 10:40 21.04.2021
46 Clouds 27 1014 68 10000 1.13 110 09:57 21.04.2021
47 Clouds 24 1015 79 10000 0.3 122 09:26 21.04.2021
48 Clouds 24 1015 79 10000 0.3 122 08:50 21.04.2021
49 Clouds 21 1012 94 6000 0.42 168 08:24 21.04.2021
50 Clouds 21 1012 94 6000 0.42 168 07:54 21.04.2021
51 Clouds 21 1012 94 6000 0.24 323 07:28 21.04.2021
52 Clouds 21 1011 94 6000 2.06 190 06:22 21.04.2021
53 Clouds 21 1012 96 10000 0.27 140 02:28 21.04.2021
54 Clouds 21 1012 99 10000 0.79 128 00:20 21.04.2021
55 Clouds 21 1012 99 10000 0.79 128 23:40 20.04.2021
56 Clouds 21 1012 98 10000 1.04 173 22:49 20.04.2021
57 Clouds 22 1012 94 10000 0.92 226 22:24 20.04.2021
58 Clouds 22 1012 94 10000 0.92 226 21:59 20.04.2021
59 Clouds 22 1012 94 10000 0.92 226 21:40 20.04.2021
60 Clouds 22 1011 94 10000 0.51 252 21:22 20.04.2021
61 Clouds 22 1011 94 10000 0.51 252 20:40 20.04.2021
62 Clouds 22 1011 94 10000 1.01 278 20:21 20.04.2021
63 Clouds 22 1010 96 10000 1.08 267 19:49 20.04.2021
64 Rain 23 1010 94 6000 2.06 320 19:29 20.04.2021
65 Rain 23 1010 94 6000 2.06 320 18:47 20.04.2021
66 Rain 23 1010 94 6000 2.06 320 18:29 20.04.2021
67 Clouds 23 1008 92 10000 1.13 267 17:41 20.04.2021
68 Rain 23 1008 94 2000 2.06 340 16:53 20.04.2021
69 Clouds 24 1009 88 10000 0.63 281 16:34 20.04.2021
70 Clouds 24 1009 84 10000 0.74 311 15:40 20.04.2021
71 Clouds 25 1009 75 10000 1.12 258 15:19 20.04.2021
72 Clouds 25 1009 75 10000 1.12 258 14:45 20.04.2021
73 Clouds 25 1010 77 10000 1.46 238 14:22 20.04.2021
74 Clouds 24 1012 81 10000 1.77 223 13:28 20.04.2021
75 Clouds 24 1012 81 10000 1.77 223 12:55 20.04.2021
76 Rain 29 1013 74 10000 1.54 0 12:27 20.04.2021
77 Rain 29 1013 74 10000 1.54 0 11:47 20.04.2021
78 Rain 28 1013 74 10000 2.06 180 11:25 20.04.2021
79 Rain 28 1013 74 10000 2.06 180 10:48 20.04.2021
80 Rain 28 1013 74 10000 2.06 180 10:24 20.04.2021
81 Rain 22 1014 97 10000 0.68 192 09:50 20.04.2021
82 Rain 22 1013 97 10000 0.97 211 09:18 20.04.2021
83 Rain 22 1013 97 10000 0.97 211 08:42 20.04.2021
84 Rain 23 1011 94 6000 1 205 07:58 20.04.2021
85 Rain 23 1011 94 6000 1 205 07:31 20.04.2021
86 Rain 22 1010 99 10000 1.94 251 05:42 20.04.2021
87 Rain 22 1010 99 2115 2.07 257 04:57 20.04.2021
88 Rain 22 1010 99 2228 1.7 251 03:41 20.04.2021
89 Rain 21 1010 97 10000 0.58 113 00:51 20.04.2021
90 Rain 22 1010 97 10000 0.51 205 23:54 19.04.2021
91 Rain 22 1010 97 10000 0.51 205 23:31 19.04.2021
92 Clouds 22 1010 97 10000 1.08 260 22:43 19.04.2021
93 Rain 22 1011 96 10000 0.98 350 22:22 19.04.2021
94 Rain 22 1011 96 10000 0.98 350 21:42 19.04.2021
95 Clouds 28 1009 78 8000 1.52 289 21:20 19.04.2021
96 Clouds 28 1009 78 8000 1.52 289 20:41 19.04.2021
97 Clouds 28 1009 83 10000 2.27 250 20:20 19.04.2021
98 Clouds 28 1009 83 10000 1.97 229 19:48 19.04.2021
99 Clouds 28 1009 83 10000 1.87 230 19:26 19.04.2021
100 Clouds 30 1009 70 10000 1.87 230 18:56 19.04.2021
101 Clouds 30 1009 70 10000 1.87 230 18:37 19.04.2021
102 Clouds 32 1008 58 10000 1.56 232 18:18 19.04.2021
103 Clouds 32 1008 58 10000 1.56 232 17:40 19.04.2021
104 Clouds 32 1008 58 10000 1.38 226 17:22 19.04.2021
105 Clouds 29 1006 63 10000 1.38 226 16:41 19.04.2021
106 Clouds 32 1008 58 10000 2.06 180 16:22 19.04.2021
107 Clouds 32 1008 58 10000 2.06 180 15:40 19.04.2021
108 Clouds 32 1008 58 10000 2.06 180 15:22 19.04.2021
109 Clouds 31 1009 66 10000 4.12 250 14:41 19.04.2021
110 Clouds 31 1009 66 10000 4.12 250 14:23 19.04.2021
111 Clouds 30 1011 66 10000 2.06 180 13:48 19.04.2021
112 Clouds 30 1011 66 10000 2.06 180 13:25 19.04.2021
113 Clouds 30 1011 66 10000 1.25 222 12:45 19.04.2021
114 Clouds 29 1012 70 10000 3.09 280 12:24 19.04.2021
115 Clouds 29 1012 70 10000 3.09 280 11:54 19.04.2021
116 Rain 29 1012 70 10000 3.09 280 11:26 19.04.2021
117 Rain 29 1012 70 10000 3.09 280 11:26 19.04.2021
118 Rain 27 1013 78 10000 3.09 280 10:51 19.04.2021
119 Rain 26 1012 83 10000 1.87 251 10:26 19.04.2021
120 Rain 26 1012 83 10000 1.88 251 09:57 19.04.2021
121 Rain 26 1012 83 10000 1.87 251 09:36 19.04.2021
122 Rain 23 1012 94 8000 1.5 262 09:18 19.04.2021
123 Rain 23 1012 94 8000 1.04 278 08:29 19.04.2021
124 Clouds 23 1012 94 6000 3.09 30 07:49 19.04.2021
125 Rain 22 1012 100 6000 3.09 250 07:20 19.04.2021
126 Rain 22 1012 100 6000 3.09 250 06:37 19.04.2021
127 Rain 21 1009 99 10000 0.61 53 02:36 19.04.2021
128 Rain 22 1010 98 10000 1.19 59 01:29 19.04.2021
129 Rain 22 1010 96 10000 1.88 29 00:23 19.04.2021
130 Clouds 23 1009 89 10000 0.62 170 23:19 18.04.2021
131 Clouds 23 1009 89 10000 0.62 170 22:49 18.04.2021
132 Clouds 23 1009 89 10000 0.62 170 22:30 18.04.2021
133 Clouds 23 1009 90 10000 1.11 176 21:41 18.04.2021
134 Clouds 23 1008 90 10000 0.55 150 21:20 18.04.2021
135 Clouds 24 1008 78 10000 1.16 194 20:40 18.04.2021
136 Clouds 25 1007 75 10000 0.95 218 20:20 18.04.2021
137 Clouds 25 1007 75 10000 0.95 218 19:49 18.04.2021
138 Clouds 27 1006 69 10000 1.23 218 19:29 18.04.2021
139 Clouds 27 1006 69 10000 1.23 218 18:54 18.04.2021
140 Clouds 33 1007 52 10000 3.09 180 18:31 18.04.2021
141 Clouds 33 1007 52 10000 3.09 180 17:55 18.04.2021
142 Clouds 33 1007 52 10000 3.09 180 17:37 18.04.2021
143 Clouds 30 1005 57 10000 1.56 169 17:18 18.04.2021
144 Clouds 30 1005 57 10000 1.56 169 16:41 18.04.2021
145 Clouds 29 1005 58 10000 1.61 182 15:59 18.04.2021
146 Clouds 26 1019 61 10000 3.09 180 15:38 18.04.2021
147 Clouds 26 1019 61 10000 3.09 180 15:18 18.04.2021
148 Clouds 26 1019 61 10000 3.09 180 14:41 18.04.2021
149 Clouds 32 1010 62 10000 3.09 330 14:19 18.04.2021
150 Clouds 32 1010 62 10000 3.09 330 13:49 18.04.2021
151 Clouds 32 1010 62 10000 3.09 330 13:49 18.04.2021
152 Clouds 32 1010 62 10000 3.09 330 13:29 18.04.2021
153 Clouds 34 1008 40 10000 1.97 196 12:39 18.04.2021
154 Clouds 33 1009 44 10000 2.08 195 11:59 18.04.2021
155 Clouds 33 1009 44 10000 2.08 195 11:40 18.04.2021
156 Clouds 32 1010 50 10000 2.03 183 11:20 18.04.2021
157 Clouds 32 1010 50 10000 2.03 183 10:44 18.04.2021
158 Clouds 29 1011 60 10000 1.7 180 10:19 18.04.2021
159 Clouds 29 1011 60 10000 1.7 180 09:39 18.04.2021
160 Clouds 25 1011 82 10000 1.65 182 09:21 18.04.2021
161 Clouds 25 1011 82 10000 1.65 182 08:46 18.04.2021
162 Clouds 23 1011 96 10000 1.59 177 08:26 18.04.2021
163 Clouds 23 1011 96 10000 1.59 177 07:40 18.04.2021
164 Rain 22 1011 99 10000 0.64 142 06:54 18.04.2021
165 Clouds 21 1009 98 10000 0.83 147 05:27 18.04.2021
166 Clouds 21 1009 98 10000 0.83 147 04:44 18.04.2021
167 Rain 21 1009 98 10000 0.82 123 02:23 18.04.2021
168 Rain 22 1009 97 10000 1.57 138 00:58 18.04.2021
169 Rain 22 1009 93 10000 1.37 192 23:57 17.04.2021
170 Clouds 24 1009 84 10000 0.86 205 23:24 17.04.2021
171 Clouds 24 1009 84 10000 0.86 205 22:44 17.04.2021
172 Rain 24 1008 83 10000 0.47 249 22:22 17.04.2021
173 Rain 24 1008 83 10000 0.47 249 21:43 17.04.2021
174 Rain 27 1008 83 7000 2.06 70 21:22 17.04.2021
175 Rain 27 1008 83 7000 2.06 70 20:37 17.04.2021
176 Clouds 29 1007 79 8000 0.48 164 20:19 17.04.2021
177 Clouds 29 1007 79 8000 0.48 164 19:39 17.04.2021
178 Clouds 27 1005 65 10000 1.09 195 19:19 17.04.2021
179 Clouds 27 1005 65 10000 1.09 195 18:46 17.04.2021
180 Clouds 29 1004 64 10000 1.01 166 18:21 17.04.2021
181 Clouds 29 1004 64 10000 1.01 166 17:41 17.04.2021
182 Clouds 32 1003 51 10000 1.31 188 16:56 17.04.2021
183 Clouds 32 1003 51 10000 1.31 188 16:37 17.04.2021
184 Clouds 35 1003 40 10000 0.91 175 16:18 17.04.2021
185 Clouds 36 1004 33 10000 0.99 118 15:19 17.04.2021
186 Clouds 36 1004 33 10000 0.99 118 14:42 17.04.2021
187 Clouds 36 1006 35 10000 1.21 127 14:19 17.04.2021
188 Clouds 36 1006 35 10000 1.21 127 13:41 17.04.2021
189 Clouds 35 1007 37 10000 1.43 143 12:47 17.04.2021
190 Clouds 34 1008 41 10000 1.5 154 12:22 17.04.2021
191 Clouds 34 1008 41 10000 1.5 154 11:50 17.04.2021
192 Clouds 34 1008 41 10000 1.5 154 11:31 17.04.2021
193 Clouds 33 1009 48 10000 1.49 163 10:48 17.04.2021
194 Clouds 30 1010 56 10000 1.66 163 10:29 17.04.2021
195 Clouds 30 1010 56 10000 1.66 163 09:45 17.04.2021
196 Clouds 27 1010 67 10000 1.86 161 08:42 17.04.2021
197 Clouds 21 1011 100 6000 1.76 168 08:24 17.04.2021
198 Clouds 21 1011 100 6000 1.76 168 07:42 17.04.2021
199 Clouds 22 1007 92 10000 0.63 221 03:59 17.04.2021
200 Clouds 22 1007 92 10000 0.63 221 03:39 17.04.2021
201 Rain 21 1009 96 10000 0.64 175 00:51 17.04.2021
202 Clouds 23 1008 85 10000 0.96 194 00:29 17.04.2021
203 Clouds 23 1008 85 10000 0.96 194 23:52 16.04.2021
204 Clouds 23 1009 83 10000 1.27 181 23:29 16.04.2021
205 Clouds 23 1009 83 10000 1.27 181 22:51 16.04.2021
206 Clouds 24 1008 78 10000 1.37 168 22:22 16.04.2021
207 Clouds 24 1008 78 10000 1.37 168 21:51 16.04.2021
208 Clouds 24 1008 78 10000 1.37 168 21:30 16.04.2021
209 Clear 24 1008 77 10000 0.79 98 20:50 16.04.2021
210 Clouds 28 1008 83 8000 0.44 105 20:27 16.04.2021
211 Clouds 28 1008 83 8000 0.44 105 19:55 16.04.2021
212 Clouds 28 1008 83 8000 0.44 105 19:30 16.04.2021
213 Clouds 31 1007 66 10000 0.6 349 18:43 16.04.2021
214 Clouds 31 1007 66 10000 1.17 12 18:20 16.04.2021
215 Clouds 31 1007 66 10000 1.17 12 17:45 16.04.2021
216 Clouds 31 1007 66 10000 1.32 12 17:19 16.04.2021
217 Clouds 31 1007 66 10000 1.32 12 16:43 16.04.2021
218 Clouds 34 1004 41 10000 0.94 46 16:24 16.04.2021
219 Clouds 34 1004 41 10000 0.94 46 15:48 16.04.2021
220 Clouds 30 1010 70 10000 2.06 320 15:21 16.04.2021
221 Clouds 30 1010 70 10000 2.06 320 14:42 16.04.2021
222 Clouds 33 1007 46 10000 1.74 182 14:19 16.04.2021
223 Clouds 33 1007 46 10000 1.74 182 13:46 16.04.2021
224 Clouds 27 1012 74 10000 1.93 187 13:20 16.04.2021
225 Clouds 27 1012 74 10000 1.93 187 12:48 16.04.2021
226 Clouds 28 1010 65 10000 1.23 201 12:29 16.04.2021
227 Clouds 28 1010 65 10000 1.23 201 11:55 16.04.2021
228 Clouds 24 1012 88 10000 1.27 175 11:27 16.04.2021
229 Clouds 28 1011 64 10000 1.27 175 10:56 16.04.2021
230 Clouds 28 1011 64 10000 1.27 175 10:35 16.04.2021
231 Clouds 26 1012 77 10000 1.35 151 09:53 16.04.2021
232 Clouds 24 1012 87 10000 1.26 133 09:25 16.04.2021
233 Clouds 24 1012 87 10000 1.26 133 09:25 16.04.2021
234 Clouds 24 1012 87 10000 1.26 133 08:55 16.04.2021
235 Clouds 24 1012 87 10000 1.26 133 08:36 16.04.2021
236 Clouds 22 1011 95 10000 1.38 161 08:18 16.04.2021
237 Clouds 22 1011 95 10000 1.38 161 07:35 16.04.2021
238 Clouds 22 1011 95 10000 1.38 161 07:35 16.04.2021
239 Clouds 21 1011 98 10000 0.99 153 06:58 16.04.2021
240 Clouds 20 1011 99 10000 1.05 151 05:34 16.04.2021
241 Clouds 20 1010 99 10000 0.88 123 04:20 16.04.2021
242 Rain 22 1009 92 10000 1.48 49 00:55 16.04.2021
243 Rain 22 1009 92 10000 1.48 49 00:37 16.04.2021
244 Clouds 22 1009 89 10000 0.69 76 00:18 16.04.2021
245 Clouds 22 1009 89 10000 0.69 76 23:37 15.04.2021
246 Clouds 22 1010 88 10000 0.96 60 22:54 15.04.2021
247 Clouds 22 1010 88 10000 0.96 60 22:35 15.04.2021
248 Rain 23 1009 87 10000 0.27 137 21:59 15.04.2021
249 Rain 23 1009 87 10000 0.27 137 21:41 15.04.2021
250 Clouds 27 1010 83 7000 2.06 330 21:20 15.04.2021
251 Clouds 27 1010 83 7000 2.06 330 20:42 15.04.2021
252 Clouds 27 1010 83 7000 2.06 330 20:21 15.04.2021
253 Clouds 30 1009 70 7000 2.06 330 19:44 15.04.2021
254 Clouds 25 1006 79 10000 1.15 213 19:24 15.04.2021
255 Clouds 25 1006 79 10000 1.15 213 18:42 15.04.2021
256 Clouds 33 1007 52 10000 2.06 180 18:21 15.04.2021
257 Clouds 33 1007 52 10000 2.06 180 17:55 15.04.2021
258 Clouds 33 1008 49 10000 1.04 234 17:36 15.04.2021
259 Clouds 33 1008 49 10000 1.04 234 17:36 15.04.2021
260 Clouds 33 1008 49 10000 1.28 254 16:58 15.04.2021
261 Clouds 30 1006 59 10000 1.28 254 16:40 15.04.2021
262 Clouds 32 1009 55 10000 1.15 255 16:21 15.04.2021
263 Clouds 31 1006 51 10000 1.15 255 15:44 15.04.2021
264 Clouds 32 1010 48 10000 2.06 180 15:25 15.04.2021
265 Clouds 32 1010 48 10000 2.06 180 14:41 15.04.2021
266 Clouds 31 1011 62 10000 2.06 180 14:22 15.04.2021
267 Clouds 34 1007 38 10000 1.02 127 13:42 15.04.2021
268 Clouds 34 1008 41 10000 1.16 140 13:18 15.04.2021
269 Clouds 34 1008 41 10000 1.16 140 12:40 15.04.2021
270 Clouds 24 1020 69 10000 1.15 152 12:21 15.04.2021
271 Clouds 24 1020 69 10000 1.15 152 11:45 15.04.2021
272 Clouds 29 1011 58 10000 1.33 175 11:23 15.04.2021
273 Clouds 29 1011 58 10000 1.33 175 10:50 15.04.2021
274 Clouds 27 1012 71 10000 1.81 170 10:28 15.04.2021
275 Clouds 27 1012 71 10000 1.81 170 09:49 15.04.2021
276 Clouds 21 1012 100 7000 2.06 168 09:25 15.04.2021
277 Clouds 21 1012 100 7000 2.06 168 08:49 15.04.2021
278 Clouds 22 1012 97 10000 1.68 172 08:21 15.04.2021
279 Clouds 21 1012 99 10000 1.58 174 07:24 15.04.2021
280 Clouds 21 1012 99 10000 1.58 174 06:49 15.04.2021
281 Clouds 21 1012 99 10000 1.58 174 06:30 15.04.2021
282 Rain 21 1011 99 10000 0.83 124 04:52 15.04.2021
283 Clouds 22 1010 90 10000 1.24 134 01:58 15.04.2021
284 Clouds 21 1011 89 10000 1.46 165 23:44 14.04.2021
285 Clouds 25 1012 88 7000 2.06 0 23:25 14.04.2021
286 Clouds 25 1012 88 7000 2.06 0 22:47 14.04.2021
287 Clouds 25 1012 88 7000 2.06 0 22:26 14.04.2021
288 Clouds 23 1010 82 10000 1.57 168 21:51 14.04.2021
289 Clouds 26 1011 89 8000 1.57 168 21:32 14.04.2021
290 Clouds 26 1011 89 8000 1.27 192 20:58 14.04.2021
291 Clouds 26 1011 89 8000 1.27 192 20:34 14.04.2021
292 Clouds 23 1009 80 10000 1.29 205 19:55 14.04.2021
293 Clouds 30 1009 62 10000 1.17 222 19:21 14.04.2021
294 Clouds 30 1009 62 10000 1.17 222 18:57 14.04.2021
295 Clouds 30 1009 62 10000 1.17 222 18:36 14.04.2021
296 Clouds 31 1009 62 10000 0.17 300 18:18 14.04.2021
297 Clouds 31 1009 62 10000 0.6 4 17:29 14.04.2021
298 Clouds 32 1009 58 10000 0.6 4 16:58 14.04.2021
299 Clouds 32 1009 58 10000 0.34 309 16:29 14.04.2021
300 Clouds 31 1010 66 10000 2.06 190 15:47 14.04.2021
301 Clouds 31 1010 66 10000 2.06 190 15:28 14.04.2021
302 Clouds 31 1011 62 10000 1.54 0 14:56 14.04.2021
303 Clouds 31 1011 62 10000 1.54 0 14:38 14.04.2021
304 Clouds 31 1009 49 10000 0.63 220 14:19 14.04.2021
305 Clouds 29 1009 56 10000 0.65 236 13:45 14.04.2021
306 Clouds 29 1013 70 10000 0.18 265 12:41 14.04.2021
307 Clouds 29 1012 54 10000 0.92 200 12:18 14.04.2021
308 Clouds 29 1012 54 10000 0.92 200 11:39 14.04.2021
309 Clouds 27 1013 63 10000 1.23 197 11:21 14.04.2021
310 Clouds 27 1013 63 10000 1.23 197 10:34 14.04.2021
311 Clouds 25 1014 70 10000 1.37 171 09:43 14.04.2021
312 Clouds 22 1014 87 10000 1.15 162 09:23 14.04.2021
313 Clouds 22 1014 87 10000 1.15 162 08:48 14.04.2021
314 Rain 20 1014 97 10000 0.54 133 08:23 14.04.2021
315 Clouds 20 1013 97 10000 1.03 169 07:28 14.04.2021
316 Clouds 19 1013 98 10000 1.09 155 06:28 14.04.2021
317 Clouds 19 1012 98 10000 0.9 126 05:24 14.04.2021
318 Clouds 19 1013 99 10000 1.01 72 02:24 14.04.2021
319 Clouds 19 1013 99 10000 0.83 57 00:50 14.04.2021
320 Clouds 20 1014 99 10000 1.1 62 00:27 14.04.2021
321 Clouds 20 1014 99 10000 1.1 62 23:31 13.04.2021
322 Clouds 19 1014 99 10000 0.86 79 22:44 13.04.2021
323 Clouds 19 1014 99 10000 0.86 79 22:44 13.04.2021
324 Clouds 19 1013 99 10000 1.07 120 22:20 13.04.2021
325 Clouds 19 1013 99 10000 1.07 120 21:48 13.04.2021
326 Clouds 19 1013 99 10000 1.07 120 21:30 13.04.2021
327 Clouds 20 1012 98 10000 0.85 95 20:48 13.04.2021
328 Clouds 20 1012 99 10000 0.58 78 20:24 13.04.2021
329 Clouds 20 1012 99 10000 0.58 78 19:57 13.04.2021
330 Clouds 26 1012 78 10000 1.16 307 19:25 13.04.2021
331 Clouds 26 1012 78 10000 1.16 307 18:48 13.04.2021
332 Clouds 26 1012 78 10000 2.06 360 18:30 13.04.2021
333 Clouds 26 1012 78 10000 2.06 360 18:30 13.04.2021
334 Clouds 26 1012 78 10000 2.06 360 17:40 13.04.2021
335 Clouds 21 1013 98 10000 1.38 285 17:21 13.04.2021
336 Clouds 21 1013 98 10000 1.38 285 16:45 13.04.2021
337 Clouds 21 1013 98 10000 1.14 258 16:26 13.04.2021
338 Clouds 21 1013 98 10000 1.14 258 15:55 13.04.2021
339 Clouds 25 1015 83 10000 1.14 258 15:37 13.04.2021
340 Rain 25 1015 83 10000 1.1 251 14:58 13.04.2021
341 Rain 25 1015 83 10000 1.22 255 14:24 13.04.2021
342 Rain 24 1015 94 8000 1.22 255 13:53 13.04.2021
343 Rain 24 1015 94 8000 1.14 257 13:27 13.04.2021
344 Rain 23 1016 94 8000 4.12 340 12:59 13.04.2021
345 Rain 23 1016 94 8000 4.12 340 12:41 13.04.2021
346 Rain 23 1016 94 8000 4.12 340 12:22 13.04.2021
347 Rain 22 1017 100 7000 0.81 263 11:36 13.04.2021
348 Rain 22 1017 100 7000 0.17 351 10:57 13.04.2021
349 Rain 22 1017 100 7000 0.17 351 10:57 13.04.2021
350 Rain 22 1017 100 7000 0.17 351 10:39 13.04.2021
351 Rain 22 1017 100 6000 2.06 130 10:18 13.04.2021
352 Rain 22 1017 100 6000 2.06 130 09:42 13.04.2021
353 Rain 21 1016 100 6000 1.32 47 09:18 13.04.2021
354 Rain 21 1016 100 6000 1.04 46 08:43 13.04.2021
355 Rain 21 1016 100 6000 1.35 37 08:21 13.04.2021
356 Rain 21 1015 99 6983 1.35 37 07:37 13.04.2021
357 Rain 21 1014 99 4859 1.47 33 07:19 13.04.2021
358 Rain 21 1014 99 7593 1.14 30 06:18 13.04.2021
359 Rain 21 1012 99 10000 1.32 89 02:52 13.04.2021
360 Rain 20 1013 98 10000 2.12 31 01:28 13.04.2021
361 Rain 21 1012 93 10000 0.19 267 23:49 12.04.2021
362 Rain 24 1013 83 7000 2.06 330 23:29 12.04.2021
363 Rain 21 1012 92 10000 1.03 200 22:43 12.04.2021
364 Rain 28 1010 69 8000 3.09 210 22:25 12.04.2021
365 Rain 28 1010 69 8000 3.09 210 21:47 12.04.2021
366 Clouds 28 1010 69 8000 3.09 210 21:23 12.04.2021
367 Rain 28 1010 69 8000 3.09 270 20:45 12.04.2021
368 Clouds 28 1009 69 8000 3.09 210 20:26 12.04.2021
369 Clouds 24 1009 76 10000 0.86 192 19:58 12.04.2021
370 Clouds 24 1009 76 10000 0.86 192 19:38 12.04.2021
371 Clouds 25 1007 72 10000 1.33 208 19:19 12.04.2021
372 Clouds 25 1007 72 10000 1.33 208 18:47 12.04.2021
373 Clouds 27 1007 69 10000 0.91 233 18:27 12.04.2021
374 Clouds 27 1007 69 10000 0.91 233 17:46 12.04.2021
375 Clouds 32 1010 51 8000 3.09 180 17:24 12.04.2021
376 Clouds 31 1006 54 10000 0.98 236 16:49 12.04.2021
377 Clouds 32 1007 45 10000 1.15 209 16:28 12.04.2021
378 Clouds 32 1007 45 10000 1.15 209 16:28 12.04.2021
379 Clouds 32 1007 45 10000 1.15 209 15:54 12.04.2021
380 Clouds 32 1007 45 10000 1.15 209 15:33 12.04.2021
381 Clouds 33 1007 43 10000 1.39 203 14:55 12.04.2021
382 Clouds 33 1007 43 10000 1.39 203 14:36 12.04.2021
383 Clouds 32 1009 46 10000 1.23 235 13:53 12.04.2021
384 Clouds 30 1013 66 10000 2.06 300 13:31 12.04.2021
385 Clouds 30 1013 66 10000 2.06 300 12:59 12.04.2021
386 Clouds 30 1013 66 10000 2.06 300 12:38 12.04.2021
387 Clouds 29 1014 65 10000 4.12 170 12:19 12.04.2021
388 Clouds 30 1013 55 10000 0.88 15 11:26 12.04.2021
389 Clouds 30 1013 55 10000 0.88 15 10:51 12.04.2021
390 Clouds 27 1014 64 10000 1.28 30 10:27 12.04.2021
391 Clouds 27 1014 64 10000 1.28 30 09:51 12.04.2021
392 Clouds 23 1014 94 6000 2.06 120 09:23 12.04.2021
393 Clouds 23 1014 94 6000 2.06 120 08:44 12.04.2021
394 Rain 21 1014 96 10000 1.07 56 07:45 12.04.2021
395 Rain 20 1013 97 10000 0.93 89 07:22 12.04.2021
396 Clouds 20 1012 98 10000 1.11 98 06:28 12.04.2021
397 Clouds 20 1012 98 10000 1.11 98 05:45 12.04.2021
398 Clouds 20 1011 99 10000 0.53 49 01:42 12.04.2021
399 Clouds 20 1012 98 10000 0.67 301 00:27 12.04.2021
400 Clouds 20 1012 98 10000 0.67 301 23:51 11.04.2021
401 Clouds 20 1012 98 10000 0.67 301 23:31 11.04.2021
402 Clouds 21 1012 98 10000 0.73 287 22:49 11.04.2021
403 Clouds 21 1012 95 10000 0.99 198 22:27 11.04.2021
404 Clouds 21 1012 95 10000 0.99 198 21:52 11.04.2021
405 Clouds 21 1012 95 10000 0.99 198 21:32 11.04.2021
406 Clouds 21 1012 94 10000 0.43 202 20:59 11.04.2021
407 Clouds 24 1009 94 8000 1 178 20:39 11.04.2021
408 Clouds 24 1009 94 8000 0.86 168 20:20 11.04.2021
409 Clouds 24 1009 94 8000 0.86 168 19:40 11.04.2021
410 Clouds 25 1009 88 10000 0.2 163 19:19 11.04.2021
411 Clouds 25 1009 88 10000 0.2 163 19:19 11.04.2021
412 Clouds 25 1009 88 10000 0.2 163 18:47 11.04.2021
413 Clouds 25 1009 88 10000 0.45 189 18:26 11.04.2021
414 Clouds 25 1009 88 10000 0.45 189 17:50 11.04.2021
415 Clouds 25 1009 88 10000 0.45 189 17:30 11.04.2021
416 Clouds 25 1009 88 10000 0.45 189 17:30 11.04.2021
417 Clouds 25 1009 88 10000 0.45 189 17:30 11.04.2021
418 Clouds 25 1008 75 10000 0.61 227 16:59 11.04.2021
419 Clouds 25 1008 75 10000 0.61 227 16:40 11.04.2021
420 Clouds 26 1010 78 10000 0.34 167 16:20 11.04.2021
421 Clouds 26 1010 78 10000 0.34 167 15:42 11.04.2021
422 Clouds 25 1011 83 10000 3.09 180 15:22 11.04.2021
423 Clouds 25 1011 83 10000 3.09 180 14:49 11.04.2021
424 Clouds 24 1009 78 10000 1.24 131 14:19 11.04.2021
425 Clouds 24 1009 78 10000 1.24 131 13:40 11.04.2021
426 Clouds 23 1009 85 10000 2.15 157 13:22 11.04.2021
427 Clouds 21 1010 94 10000 2.1 187 12:26 11.04.2021
428 Clouds 21 1010 94 10000 2.1 187 11:56 11.04.2021
429 Clouds 21 1010 94 10000 2.1 187 11:38 11.04.2021
430 Clouds 21 1012 97 10000 2.65 192 11:19 11.04.2021
431 Clouds 21 1012 97 10000 2.66 192 10:40 11.04.2021
432 Rain 20 1013 99 10000 2.61 196 10:20 11.04.2021
433 Rain 20 1013 99 10000 2.61 196 09:43 11.04.2021
434 Rain 20 1014 99 10000 1.57 204 09:25 11.04.2021
435 Rain 20 1014 99 10000 1.57 204 08:39 11.04.2021
436 Rain 20 1013 99 6106 1.92 229 07:38 11.04.2021
437 Rain 20 1012 99 3963 1.59 199 07:19 11.04.2021
438 Rain 20 1011 99 2058 1.87 112 05:47 11.04.2021
439 Rain 21 1009 99 1094 2.19 99 05:22 11.04.2021
440 Rain 21 1009 99 1094 2.19 99 04:35 11.04.2021
441 Rain 21 1009 99 1094 2.19 99 04:35 11.04.2021
442 Rain 21 1008 99 565 1.14 66 03:35 11.04.2021
443 Rain 22 1010 99 5449 1.4 88 00:51 11.04.2021
444 Rain 22 1010 98 3522 1.8 29 00:25 11.04.2021
445 Rain 22 1010 98 3522 1.8 29 23:44 10.04.2021
446 Rain 22 1009 93 9611 1.14 25 22:55 10.04.2021
447 Rain 23 1008 86 10000 0.63 311 22:28 10.04.2021
448 Rain 23 1008 86 10000 0.63 311 21:53 10.04.2021
449 Clouds 23 1007 83 10000 1.11 213 21:24 10.04.2021
450 Clouds 23 1007 83 10000 1.11 213 20:55 10.04.2021
451 Rain 29 1007 79 8000 1.33 183 20:34 10.04.2021
452 Clouds 29 1007 79 8000 1.11 213 20:34 10.04.2021
453 Clouds 29 1007 79 8000 1.28 219 19:58 10.04.2021
454 Clouds 24 1005 78 10000 1.28 219 19:40 10.04.2021
455 Clouds 31 1005 66 10000 1.71 217 19:21 10.04.2021
456 Clouds 27 1004 65 10000 1.71 217 18:41 10.04.2021
457 Clouds 33 1005 52 10000 2.06 180 18:23 10.04.2021
458 Clouds 33 1005 52 10000 2.06 180 17:35 10.04.2021
459 Clouds 33 1005 52 10000 0.5 295 16:37 10.04.2021
460 Clouds 34 1002 43 10000 0.56 334 16:19 10.04.2021
461 Clouds 34 1002 43 10000 0.56 334 15:43 10.04.2021
462 Clouds 37 1003 32 10000 0.51 43 14:52 10.04.2021
463 Clouds 36 1003 35 10000 0.95 55 14:30 10.04.2021
464 Clouds 36 1004 35 10000 0.38 115 13:54 10.04.2021
465 Clouds 31 1010 62 10000 3.09 180 13:34 10.04.2021
466 Clouds 31 1010 62 10000 3.09 180 12:39 10.04.2021
467 Clouds 34 1007 42 10000 1.29 192 12:18 10.04.2021
468 Clouds 34 1007 42 10000 1.29 192 11:44 10.04.2021
469 Clouds 32 1009 48 10000 1.41 203 11:20 10.04.2021
470 Clouds 32 1009 48 10000 1.41 203 10:44 10.04.2021
471 Clouds 30 1010 56 10000 1.42 208 10:26 10.04.2021
472 Clouds 25 1011 88 6000 1.42 208 09:37 10.04.2021
473 Clouds 25 1011 88 6000 1.24 204 09:18 10.04.2021
474 Clouds 25 1011 88 6000 1.33 199 08:33 10.04.2021
475 Clouds 24 1010 76 10000 0.82 194 07:55 10.04.2021
476 Clouds 21 1010 90 10000 0.5 242 07:25 10.04.2021
477 Clouds 20 1009 95 10000 0.81 172 06:27 10.04.2021
478 Clouds 20 1008 93 10000 1.29 146 04:49 10.04.2021
479 Clouds 21 1007 90 10000 1.21 177 03:19 10.04.2021
480 Clouds 21 1007 90 10000 1.21 177 02:42 10.04.2021
481 Clouds 21 1008 86 10000 0.9 201 01:27 10.04.2021
482 Clouds 21 1008 86 10000 0.9 201 00:31 10.04.2021
483 Clouds 21 1009 87 10000 0.84 176 23:51 09.04.2021
484 Clouds 21 1010 87 10000 0.52 129 23:27 09.04.2021
485 Clouds 21 1010 87 10000 0.52 129 22:47 09.04.2021
486 Clouds 21 1009 86 10000 0.41 38 22:28 09.04.2021
487 Clouds 21 1009 86 10000 0.41 38 21:40 09.04.2021
488 Clouds 22 1008 84 10000 0.88 87 21:21 09.04.2021
489 Clouds 21 1009 89 10000 1.24 86 20:46 09.04.2021
490 Clouds 22 1008 87 10000 1.51 57 20:23 09.04.2021
491 Clouds 22 1008 87 10000 1.51 57 19:58 09.04.2021
492 Clouds 22 1008 87 10000 1.51 57 19:39 09.04.2021
493 Clouds 22 1007 84 10000 1.23 95 19:21 09.04.2021
494 Clouds 22 1007 84 10000 1.23 95 18:42 09.04.2021
495 Clouds 24 1006 78 10000 1.2 120 18:23 09.04.2021
496 Clouds 24 1006 78 10000 1.2 120 17:47 09.04.2021
497 Clouds 32 1007 58 10000 3.09 50 17:29 09.04.2021
498 Clouds 32 1007 58 10000 3.09 50 16:44 09.04.2021
499 Clouds 32 1007 58 10000 3.09 50 16:23 09.04.2021
500 Clouds 26 1006 66 10000 1.25 163 15:43 09.04.2021
501 Clouds 32 1009 55 10000 3.09 90 15:23 09.04.2021
502 Clouds 32 1009 55 10000 3.09 90 14:46 09.04.2021
503 Clouds 32 1009 55 10000 3.09 90 14:21 09.04.2021
504 Clouds 31 1010 55 10000 4.12 180 13:43 09.04.2021
505 Clouds 31 1010 55 10000 4.12 180 13:22 09.04.2021
506 Clear 31 1011 58 10000 2.06 110 12:47 09.04.2021
507 Clear 29 1011 65 10000 4.12 150 11:57 09.04.2021
508 Clear 29 1011 65 10000 4.12 150 11:28 09.04.2021
509 Clear 28 1011 69 10000 3.09 130 10:56 09.04.2021
510 Clouds 22 1012 94 10000 1.17 338 10:37 09.04.2021
511 Clouds 21 1013 95 10000 0.67 348 09:55 09.04.2021
512 Rain 21 1011 94 8000 0.43 147 09:27 09.04.2021
513 Rain 21 1011 94 8000 0.43 147 08:55 09.04.2021
514 Rain 20 1011 100 6000 0.95 116 08:25 09.04.2021
515 Clouds 21 1012 96 10000 1.59 126 07:21 09.04.2021
516 Clouds 21 1012 96 10000 1.46 116 06:26 09.04.2021
517 Clouds 21 1011 97 10000 1.07 117 03:56 09.04.2021
518 Clouds 21 1011 97 10000 1.07 117 03:38 09.04.2021
519 Rain 22 1011 94 10000 2.43 104 00:38 09.04.2021
520 Clouds 22 1012 91 10000 1.92 108 00:20 09.04.2021
521 Clouds 22 1012 91 10000 1.92 108 23:32 08.04.2021
522 Clouds 22 1013 88 10000 1.48 73 22:51 08.04.2021
523 Clouds 22 1011 86 10000 1.19 184 22:27 08.04.2021
524 Clouds 22 1011 86 10000 1.19 184 21:58 08.04.2021
525 Clouds 22 1011 86 10000 1.19 184 21:40 08.04.2021
526 Clouds 22 1011 85 10000 1.13 227 21:21 08.04.2021
527 Clouds 22 1011 85 10000 1.13 227 20:56 08.04.2021
528 Clouds 27 1009 78 7000 1.4 202 20:35 08.04.2021
529 Clouds 27 1009 78 7000 1.54 218 19:58 08.04.2021
530 Clouds 23 1009 82 10000 1.39 230 19:27 08.04.2021
531 Clouds 23 1009 82 10000 1.39 230 18:58 08.04.2021
532 Clouds 30 1008 66 10000 1.39 230 18:38 08.04.2021
533 Clouds 30 1008 66 10000 1.5 235 18:19 08.04.2021
534 Clouds 30 1008 66 10000 1.5 235 17:40 08.04.2021
535 Clouds 28 1009 60 10000 1.88 228 17:18 08.04.2021
536 Clouds 28 1009 60 10000 1.88 228 16:43 08.04.2021
537 Clouds 29 1009 56 10000 1.96 229 16:22 08.04.2021
538 Clouds 29 1009 56 10000 1.96 229 15:43 08.04.2021
539 Clouds 28 1009 60 10000 1.73 211 15:23 08.04.2021
540 Clouds 28 1009 60 10000 1.73 211 14:40 08.04.2021
541 Clouds 24 1010 77 10000 1.93 184 14:20 08.04.2021
542 Clouds 24 1010 77 10000 1.93 184 13:46 08.04.2021
543 Clouds 27 1012 64 10000 2.22 180 13:23 08.04.2021
544 Clouds 27 1012 64 10000 2.22 180 12:53 08.04.2021
545 Clouds 27 1014 74 10000 4.12 240 12:32 08.04.2021
546 Clouds 27 1014 74 10000 4.12 240 11:56 08.04.2021
547 Clouds 27 1014 74 10000 4.12 240 11:25 08.04.2021
548 Clouds 26 1013 70 10000 1.86 175 10:51 08.04.2021
549 Clouds 25 1014 88 8000 3.09 180 10:25 08.04.2021
550 Clouds 25 1014 88 8000 3.09 180 09:44 08.04.2021
551 Clouds 23 1014 88 7000 1.67 164 09:25 08.04.2021
552 Clouds 23 1014 88 7000 1.67 164 08:40 08.04.2021
553 Clouds 21 1013 97 10000 1.64 177 08:22 08.04.2021
554 Clouds 21 1013 97 10000 1.64 177 07:43 08.04.2021
555 Rain 20 1012 99 10000 2.46 220 05:45 08.04.2021
556 Rain 20 1013 98 4252 1.47 37 01:25 08.04.2021
557 Rain 20 1013 98 4252 1.47 37 00:30 08.04.2021
558 Rain 20 1013 98 4252 1.47 37 00:30 08.04.2021
559 Rain 21 1014 98 3282 2.95 47 23:47 07.04.2021
560 Rain 21 1014 99 6433 2.47 77 23:25 07.04.2021
561 Rain 21 1014 99 6433 2.47 77 22:56 07.04.2021
562 Rain 21 1014 99 6433 2.47 77 22:38 07.04.2021
563 Rain 20 1012 98 10000 1.24 134 22:19 07.04.2021
564 Rain 20 1012 98 10000 1.24 134 21:34 07.04.2021
565 Rain 21 1011 96 10000 2.99 165 20:52 07.04.2021
566 Rain 22 1010 98 8413 2.82 134 20:28 07.04.2021
567 Rain 22 1010 98 8413 2.82 134 19:52 07.04.2021
568 Rain 24 1008 64 10000 2.06 190 19:33 07.04.2021
569 Rain 23 1008 89 10000 1.98 166 18:57 07.04.2021
570 Rain 30 1009 62 10000 4.12 180 18:39 07.04.2021
571 Clouds 30 1009 62 10000 4.12 180 18:18 07.04.2021
572 Clouds 30 1009 62 10000 4.12 180 17:43 07.04.2021
573 Clouds 30 1008 66 10000 4.12 150 17:24 07.04.2021
574 Clouds 30 1008 66 10000 4.12 150 16:45 07.04.2021
575 Clouds 30 1008 66 10000 4.12 150 16:21 07.04.2021
576 Clouds 31 1006 52 10000 1.1 253 15:53 07.04.2021
577 Clouds 32 1010 58 10000 3.09 180 15:25 07.04.2021
578 Clouds 32 1010 58 10000 3.09 180 14:43 07.04.2021
579 Clouds 31 1012 66 10000 3.09 180 14:20 07.04.2021
580 Clouds 31 1012 66 10000 3.09 180 13:39 07.04.2021
581 Clouds 30 1013 62 10000 3.09 180 13:20 07.04.2021
582 Clouds 30 1013 62 10000 3.09 180 12:43 07.04.2021
583 Clouds 27 1011 62 10000 1.3 160 12:18 07.04.2021
584 Clouds 27 1011 62 10000 1.3 160 11:43 07.04.2021
585 Clouds 28 1012 64 10000 1.76 144 11:22 07.04.2021
586 Clouds 28 1012 64 10000 1.76 144 10:50 07.04.2021
587 Clouds 27 1012 67 10000 1.45 134 09:50 07.04.2021
588 Clouds 25 1012 82 10000 1.62 164 09:28 07.04.2021
589 Clouds 24 1012 82 10000 1.51 165 08:53 07.04.2021
590 Clouds 24 1012 82 10000 1.51 165 08:31 07.04.2021
591 Clouds 22 1012 93 10000 1.31 154 07:54 07.04.2021
592 Clouds 22 1011 96 10000 1.14 152 07:29 07.04.2021
593 Clouds 22 1011 96 10000 1.14 152 06:42 07.04.2021
594 Clouds 21 1011 97 10000 0.78 145 05:42 07.04.2021
595 Clouds 21 1010 94 10000 1.13 111 01:52 07.04.2021
596 Clouds 22 1011 90 10000 0.67 151 23:48 06.04.2021
597 Clouds 24 1011 88 8000 2.06 120 23:22 06.04.2021
598 Clouds 24 1011 88 8000 2.06 120 22:57 06.04.2021
599 Clouds 24 1011 88 8000 2.06 120 22:21 06.04.2021
600 Clouds 24 1011 88 8000 1.54 0 21:55 06.04.2021
601 Clouds 24 1011 88 8000 1.54 0 21:37 06.04.2021
602 Clear 25 1010 83 8000 3.09 120 21:18 06.04.2021
603 Clear 25 1010 83 8000 3.09 120 20:41 06.04.2021
604 Clouds 26 1009 78 8000 3.09 120 20:20 06.04.2021
605 Clouds 22 1009 85 10000 0.84 239 19:44 06.04.2021
606 Clouds 29 1008 70 10000 0.21 188 19:25 06.04.2021
607 Clouds 29 1008 70 10000 0.21 188 18:45 06.04.2021
608 Clouds 29 1008 70 10000 0.87 246 18:22 06.04.2021
609 Clouds 25 1008 76 10000 0.87 246 17:45 06.04.2021
610 Clouds 27 1008 63 10000 0.96 266 17:20 06.04.2021
611 Clouds 27 1008 63 10000 0.96 266 16:49 06.04.2021
612 Clouds 27 1008 63 10000 0.96 266 16:30 06.04.2021
613 Clouds 25 1009 78 10000 0.57 214 15:28 06.04.2021
614 Clouds 25 1009 78 10000 0.57 214 14:55 06.04.2021
615 Clouds 25 1009 78 10000 0.57 214 14:37 06.04.2021
616 Clouds 25 1009 78 10000 0.57 214 14:37 06.04.2021
617 Clouds 23 1010 89 10000 0.35 292 14:18 06.04.2021
618 Clouds 24 1011 85 10000 0.35 83 13:40 06.04.2021
619 Clouds 24 1012 82 10000 1.39 122 13:21 06.04.2021
620 Clouds 24 1012 82 10000 1.39 122 12:41 06.04.2021
621 Clouds 25 1013 76 10000 2.14 121 12:20 06.04.2021
622 Clouds 25 1013 76 10000 2.14 121 11:48 06.04.2021
623 Clouds 26 1014 70 10000 2.43 122 11:21 06.04.2021
624 Clouds 26 1014 70 10000 2.43 122 10:47 06.04.2021
625 Clouds 24 1014 83 10000 1.89 138 10:25 06.04.2021
626 Clouds 24 1014 83 10000 1.89 138 09:48 06.04.2021
627 Clouds 24 1014 83 10000 1.89 138 09:48 06.04.2021
628 Clouds 23 1014 92 10000 1.43 119 09:29 06.04.2021
629 Clouds 23 1013 92 10000 1.19 113 08:40 06.04.2021
630 Clouds 22 1011 94 7000 2.06 120 07:57 06.04.2021
631 Clouds 21 1011 100 6000 2.06 180 06:55 06.04.2021
632 Clouds 21 1010 98 10000 0.62 175 05:40 06.04.2021
633 Rain 21 1009 98 10000 2.62 182 02:54 06.04.2021
634 Rain 22 1011 99 10000 1.96 207 00:44 06.04.2021
635 Rain 22 1012 99 10000 0.94 307 00:21 06.04.2021
636 Rain 22 1012 99 10000 0.94 307 23:42 05.04.2021
637 Rain 22 1012 99 10000 0.83 319 23:19 05.04.2021
638 Rain 22 1012 99 10000 0.83 319 22:48 05.04.2021
639 Rain 22 1011 99 10000 1.26 288 22:25 05.04.2021
640 Rain 22 1011 99 10000 1.26 288 21:43 05.04.2021
641 Rain 28 1010 83 7000 1.54 0 21:20 05.04.2021
642 Rain 28 1010 83 7000 1.54 0 20:42 05.04.2021
643 Rain 29 1009 74 7000 2.5 276 20:23 05.04.2021
644 Rain 29 1009 74 7000 2.5 276 19:42 05.04.2021
645 Rain 26 1007 77 10000 0.85 199 19:20 05.04.2021
646 Rain 26 1007 77 10000 0.85 199 18:48 05.04.2021
647 Rain 32 1017 62 10000 2.06 160 18:30 05.04.2021
648 Rain 32 1017 62 10000 2.06 160 17:57 05.04.2021
649 Rain 32 1017 62 10000 2.06 160 17:37 05.04.2021
650 Clouds 32 1009 58 10000 2.06 180 17:18 05.04.2021
651 Clouds 32 1009 58 10000 2.06 180 16:41 05.04.2021
652 Clouds 32 1008 66 10000 4.12 160 16:19 05.04.2021
653 Clouds 34 1005 43 10000 2.15 122 15:50 05.04.2021
654 Clouds 32 1010 62 10000 4.12 180 15:27 05.04.2021
655 Clouds 35 1005 36 10000 1.73 108 14:46 05.04.2021
656 Clouds 36 1006 34 10000 1.61 125 14:25 05.04.2021
657 Clouds 30 1012 70 10000 2.06 220 13:31 05.04.2021
658 Clouds 30 1012 70 10000 2.06 220 13:31 05.04.2021
659 Clouds 30 1012 70 10000 2.06 220 12:48 05.04.2021
660 Clouds 34 1009 40 10000 1.7 151 12:26 05.04.2021
661 Clouds 34 1009 40 10000 1.7 151 11:53 05.04.2021
662 Clouds 34 1009 40 10000 1.7 151 11:32 05.04.2021
663 Clouds 32 1011 45 10000 1.97 165 10:57 05.04.2021
664 Clouds 25 1013 83 8000 1.97 165 10:37 05.04.2021
665 Clouds 25 1013 83 8000 2.07 163 09:56 05.04.2021
666 Clouds 25 1013 83 8000 2.07 163 09:37 05.04.2021
667 Clouds 24 1012 94 10000 1.85 158 09:19 05.04.2021
668 Clouds 26 1012 70 10000 1.85 158 08:40 05.04.2021
669 Clouds 23 1011 94 6000 2.06 0 08:19 05.04.2021
670 Clouds 23 1011 94 6000 2.06 0 07:34 05.04.2021
671 Clouds 22 1009 93 10000 1.13 149 04:23 05.04.2021
672 Clouds 22 1009 90 10000 1.09 193 01:34 05.04.2021
673 Clouds 23 1010 86 10000 1.35 191 00:24 05.04.2021
674 Clouds 23 1010 86 10000 1.35 191 23:38 04.04.2021
675 Clouds 23 1009 83 10000 1.75 160 23:18 04.04.2021
676 Clouds 23 1009 83 10000 1.75 160 22:49 04.04.2021
677 Clouds 23 1009 83 10000 1.69 153 22:26 04.04.2021
678 Clouds 24 1008 79 10000 2.03 153 21:23 04.04.2021
679 Clouds 24 1008 79 10000 2.03 153 20:54 04.04.2021
680 Clouds 25 1008 78 10000 2.31 145 20:25 04.04.2021
681 Clouds 25 1008 78 10000 2.17 142 19:43 04.04.2021
682 Clouds 26 1007 72 10000 1.26 130 19:22 04.04.2021
683 Clouds 26 1007 72 10000 1.26 130 19:22 04.04.2021
684 Clouds 26 1007 72 10000 1.26 130 18:57 04.04.2021
685 Clouds 33 1007 52 10000 3.09 330 18:38 04.04.2021
686 Clouds 33 1007 52 10000 3.09 330 18:20 04.04.2021
687 Clouds 33 1007 52 10000 3.09 330 17:37 04.04.2021
688 Clouds 33 1007 52 10000 3.09 330 17:37 04.04.2021
689 Clouds 31 1006 49 10000 1.19 83 17:18 04.04.2021
690 Clouds 31 1006 49 10000 1.19 83 16:41 04.04.2021
691 Clouds 32 1008 55 10000 3.09 120 15:58 04.04.2021
692 Clouds 32 1008 55 10000 3.09 120 15:33 04.04.2021
693 Clouds 32 1007 45 10000 1.46 102 14:43 04.04.2021
694 Clouds 30 1011 62 10000 3.09 210 14:25 04.04.2021
695 Clouds 30 1012 62 10000 3.09 210 13:29 04.04.2021
696 Clouds 30 1012 62 10000 3.09 210 12:55 04.04.2021
697 Clouds 30 1012 62 10000 3.09 210 12:33 04.04.2021
698 Clouds 29 1013 70 10000 3.09 120 11:53 04.04.2021
699 Clouds 29 1013 70 10000 3.09 120 11:31 04.04.2021
700 Clouds 29 1012 60 10000 1.39 142 10:56 04.04.2021
701 Clouds 29 1012 60 10000 1.39 142 10:33 04.04.2021
702 Clouds 25 1013 78 10000 1.26 113 09:52 04.04.2021
703 Clouds 21 1012 100 7000 3.09 120 09:24 04.04.2021
704 Clouds 21 1012 100 7000 3.09 120 08:51 04.04.2021
705 Clouds 21 1012 100 7000 3.09 120 08:33 04.04.2021
706 Mist 21 1011 100 4000 0.97 74 07:24 04.04.2021
707 Mist 21 1011 100 4000 0.97 74 06:36 04.04.2021
708 Clouds 21 1010 98 10000 0.69 86 05:32 04.04.2021
709 Rain 21 1011 99 10000 0.52 193 01:28 04.04.2021
710 Rain 21 1012 98 8043 0.96 33 00:19 04.04.2021
711 Rain 21 1012 98 8043 0.96 33 23:47 03.04.2021
712 Rain 22 1012 97 10000 2.4 57 23:23 03.04.2021
713 Rain 22 1012 97 10000 2.4 57 22:50 03.04.2021
714 Clouds 23 1010 84 10000 1.25 134 22:21 03.04.2021
715 Clouds 23 1010 84 10000 1.25 134 21:47 03.04.2021
716 Clouds 24 1008 80 10000 1.05 196 21:24 03.04.2021
717 Clouds 24 1008 80 10000 1.05 196 20:49 03.04.2021
718 Clouds 23 1008 84 10000 1.15 274 20:28 03.04.2021
719 Clouds 23 1008 84 10000 1.15 274 19:51 03.04.2021
720 Clouds 24 1008 80 10000 1.34 291 19:25 03.04.2021
721 Clouds 24 1008 80 10000 1.34 291 18:51 03.04.2021
722 Clouds 33 1008 58 8000 1.34 291 18:32 03.04.2021
723 Clouds 33 1008 58 8000 1.04 295 17:53 03.04.2021
724 Clouds 33 1008 58 8000 1.51 299 17:26 03.04.2021
725 Clouds 29 1006 58 10000 1.51 299 16:52 03.04.2021
726 Clouds 30 1007 52 10000 1.4 314 16:25 03.04.2021
727 Clouds 30 1007 52 10000 1.4 314 15:51 03.04.2021
728 Clouds 31 1010 62 10000 3.09 320 15:30 03.04.2021
729 Clouds 31 1010 62 10000 3.09 320 15:30 03.04.2021
730 Clouds 31 1010 62 10000 3.09 320 14:44 03.04.2021
731 Clouds 31 1011 62 10000 1.39 260 14:25 03.04.2021
732 Clouds 31 1011 62 10000 1.39 260 13:54 03.04.2021
733 Clouds 31 1011 62 10000 0.7 236 13:29 03.04.2021
734 Clouds 28 1012 74 10000 3.09 230 12:57 03.04.2021
735 Clouds 28 1012 74 10000 3.09 230 12:32 03.04.2021
736 Clouds 28 1014 74 10000 3.09 270 11:41 03.04.2021
737 Clouds 22 1013 98 10000 1.17 247 11:19 03.04.2021
738 Clouds 22 1013 98 10000 1.17 247 10:45 03.04.2021
739 Rain 25 1014 88 8000 3.09 300 10:25 03.04.2021
740 Rain 25 1014 88 8000 3.09 300 09:29 03.04.2021
741 Rain 21 1014 99 10000 1.78 170 08:59 03.04.2021
742 Rain 21 1013 99 10000 1.44 187 08:32 03.04.2021
743 Rain 21 1013 99 10000 1.44 187 07:30 03.04.2021
744 Rain 21 1013 99 6540 0.58 108 06:53 03.04.2021
745 Rain 21 1011 99 7214 0.2 6 03:54 03.04.2021
746 Rain 21 1011 99 4371 0.44 90 02:55 03.04.2021
747 Rain 21 1012 99 4983 0.66 93 02:28 03.04.2021
748 Rain 21 1012 99 10000 0.95 34 00:32 03.04.2021
749 Rain 21 1012 99 5978 1.11 56 23:59 02.04.2021
750 Rain 21 1012 99 5978 1.11 56 23:30 02.04.2021
751 Clouds 21 1012 97 10000 0.73 88 22:56 02.04.2021
752 Clouds 21 1012 97 10000 0.73 88 22:38 02.04.2021
753 Clouds 21 1012 97 10000 0.98 87 21:59 02.04.2021
754 Clouds 21 1012 97 10000 0.98 87 21:40 02.04.2021
755 Rain 21 1011 98 10000 1.47 45 21:18 02.04.2021
756 Rain 21 1011 98 10000 1.47 45 20:39 02.04.2021
757 Clouds 24 1009 84 10000 0.68 277 20:20 02.04.2021
758 Clouds 24 1009 84 10000 0.68 277 19:41 02.04.2021
759 Rain 24 1008 83 10000 0.78 312 19:22 02.04.2021
760 Rain 24 1008 83 10000 0.78 312 18:46 02.04.2021
761 Clouds 33 1007 46 10000 3.09 180 18:28 02.04.2021
762 Clouds 33 1007 46 10000 3.09 180 17:55 02.04.2021
763 Rain 33 1008 49 10000 4.12 240 17:25 02.04.2021
764 Clouds 31 1006 51 10000 0.82 204 16:24 02.04.2021
765 Clouds 31 1006 51 10000 0.82 204 15:43 02.04.2021
766 Clouds 32 1010 51 10000 3.09 150 15:20 02.04.2021
767 Clouds 32 1010 51 10000 3.09 150 14:33 02.04.2021
768 Clouds 34 1008 38 10000 1.08 299 13:50 02.04.2021
769 Clouds 29 1013 74 10000 1.54 0 13:28 02.04.2021
770 Clouds 29 1013 74 10000 1.54 0 12:55 02.04.2021
771 Clouds 29 1013 74 10000 1.54 0 12:36 02.04.2021
772 Clouds 27 1013 83 10000 3.09 180 12:18 02.04.2021
773 Clouds 27 1013 83 10000 3.09 180 11:44 02.04.2021
774 Rain 24 1014 100 5000 1.44 192 11:18 02.04.2021
775 Clouds 30 1013 51 10000 1.44 192 10:42 02.04.2021
776 Clouds 27 1014 66 10000 1.41 172 10:21 02.04.2021
777 Mist 23 1015 100 2000 1.41 172 09:39 02.04.2021
778 Mist 23 1015 100 2000 1.04 158 09:21 02.04.2021
779 Mist 23 1015 100 2000 1.04 158 08:45 02.04.2021
780 Mist 23 1015 100 2000 1.49 144 08:25 02.04.2021
781 Clouds 22 1012 90 10000 1.28 143 07:20 02.04.2021
782 Clouds 22 1012 90 10000 1.28 143 06:31 02.04.2021
783 Clouds 22 1011 91 10000 1.01 16 03:25 02.04.2021
784 Clouds 22 1011 88 10000 1.15 86 01:31 02.04.2021
785 Clouds 23 1011 86 10000 1.16 123 00:38 02.04.2021
786 Clouds 23 1011 82 10000 1.51 122 23:44 01.04.2021
787 Clouds 24 1012 79 10000 1.29 123 23:26 01.04.2021
788 Clouds 24 1011 80 10000 0.33 139 22:22 01.04.2021
789 Clouds 24 1011 80 10000 0.33 139 21:59 01.04.2021
790 Clouds 24 1011 80 10000 0.33 139 21:40 01.04.2021
791 Clouds 24 1010 78 10000 0.5 301 21:20 01.04.2021
792 Clouds 27 1010 74 7000 4.12 50 20:39 01.04.2021
793 Clouds 27 1010 74 7000 4.12 50 20:21 01.04.2021
794 Clouds 27 1010 74 7000 4.12 50 19:40 01.04.2021
795 Clouds 24 1009 78 10000 0.61 68 18:59 01.04.2021
796 Clouds 24 1009 78 10000 0.61 68 18:41 01.04.2021
797 Clouds 26 1008 73 10000 0.32 360 18:18 01.04.2021
798 Clouds 26 1008 73 10000 0.32 360 17:39 01.04.2021
799 Clouds 29 1007 58 10000 0.67 233 17:20 01.04.2021
800 Clouds 29 1007 58 10000 0.67 233 16:44 01.04.2021
801 Clouds 27 1006 68 10000 1.27 232 15:57 01.04.2021
802 Clouds 26 1008 73 10000 0.69 233 15:24 01.04.2021
803 Clouds 26 1008 73 10000 0.69 233 14:55 01.04.2021
804 Clouds 26 1008 73 10000 0.69 233 14:37 01.04.2021
805 Clouds 27 1010 69 10000 1.05 226 14:19 01.04.2021
806 Clouds 32 1009 46 10000 1.1 225 13:32 01.04.2021
807 Clouds 30 1011 56 10000 1.08 217 12:58 01.04.2021
808 Clouds 30 1011 56 10000 1.08 217 12:39 01.04.2021
809 Clouds 30 1011 56 10000 1.08 217 12:39 01.04.2021
810 Clouds 24 1013 83 10000 0.85 198 12:20 01.04.2021
811 Clouds 24 1013 83 10000 0.85 198 11:43 01.04.2021
812 Clouds 24 1013 81 10000 0.96 151 11:19 01.04.2021
813 Clouds 24 1013 81 10000 0.96 151 10:47 01.04.2021
814 Clouds 24 1013 81 10000 0.96 151 10:46 01.04.2021
815 Clouds 25 1014 76 10000 1.3 139 10:27 01.04.2021
816 Clouds 25 1014 76 10000 1.3 139 09:32 01.04.2021
817 Clouds 24 1013 79 10000 1.2 140 08:58 01.04.2021
818 Clouds 25 1013 74 10000 1.86 165 08:32 01.04.2021
819 Clouds 22 1012 93 10000 1.28 131 07:22 01.04.2021
820 Clouds 22 1012 93 10000 1.28 131 06:57 01.04.2021
821 Clouds 21 1011 96 10000 1.23 134 06:24 01.04.2021
822 Clouds 22 1009 89 10000 1.92 193 03:23 01.04.2021
823 Clouds 24 1010 81 10000 0.93 129 00:28 01.04.2021
824 Clouds 24 1010 81 10000 0.93 129 23:44 31.03.2021
825 Clouds 24 1010 81 10000 0.93 129 23:44 31.03.2021
826 Clouds 24 1009 79 10000 0.78 200 22:56 31.03.2021
827 Clouds 24 1009 79 10000 0.78 200 22:38 31.03.2021
828 Clouds 24 1009 78 10000 1.65 203 22:19 31.03.2021
829 Clouds 24 1009 78 10000 1.65 203 21:43 31.03.2021
830 Clouds 24 1009 74 10000 2.01 171 21:20 31.03.2021
831 Clouds 24 1009 74 10000 2.01 171 20:42 31.03.2021
832 Clouds 24 1007 70 10000 1.43 170 20:22 31.03.2021
833 Rain 23 1008 89 10000 1.2 208 19:43 31.03.2021
834 Clouds 26 1007 64 10000 1.68 249 19:21 31.03.2021
835 Clouds 26 1007 64 10000 1.68 249 18:58 31.03.2021
836 Clouds 26 1007 64 10000 1.68 249 18:40 31.03.2021
837 Clouds 26 1007 64 10000 1.68 249 18:40 31.03.2021
838 Clouds 29 1005 52 10000 0.47 243 17:51 31.03.2021
839 Clouds 29 1005 52 10000 0.47 243 17:30 31.03.2021
840 Clouds 33 1004 36 10000 0.57 89 16:56 31.03.2021
841 Clouds 32 1008 55 10000 2.06 200 16:36 31.03.2021
842 Clouds 32 1008 55 10000 2.06 200 15:59 31.03.2021
843 Clouds 34 1005 34 10000 0.86 115 15:41 31.03.2021
844 Clouds 31 1011 62 10000 3.09 220 15:19 31.03.2021
845 Clouds 31 1011 62 10000 3.09 220 14:42 31.03.2021
846 Rain 31 1011 33 10000 4.12 190 14:19 31.03.2021
847 Rain 31 1011 33 10000 4.12 190 13:35 31.03.2021
848 Clouds 33 1009 43 10000 1.4 177 12:41 31.03.2021
849 Clouds 33 1010 45 10000 1.33 174 12:20 31.03.2021
850 Clouds 26 1013 83 10000 3.09 180 11:39 31.03.2021
851 Clouds 26 1013 83 10000 3.09 180 11:20 31.03.2021
852 Clouds 26 1013 83 10000 3.09 180 10:46 31.03.2021
853 Clouds 28 1012 60 10000 1.73 189 10:24 31.03.2021
854 Mist 22 1013 100 2000 1.73 189 09:37 31.03.2021
855 Mist 22 1013 100 2000 1.59 175 08:51 31.03.2021
856 Mist 22 1013 100 2000 1.66 178 08:32 31.03.2021
857 Clouds 23 1012 89 10000 1.46 162 07:43 31.03.2021
858 Clouds 21 1012 97 10000 0.92 163 06:36 31.03.2021
859 Clouds 21 1010 97 10000 1.05 155 03:46 31.03.2021
860 Rain 21 1010 98 10000 0.51 167 01:35 31.03.2021
861 Rain 21 1011 99 10000 1.05 128 00:48 31.03.2021
862 Rain 21 1011 98 10000 1.41 136 00:18 31.03.2021
863 Rain 21 1012 98 10000 1.48 132 23:29 30.03.2021
864 Rain 21 1012 98 10000 1.48 132 22:56 30.03.2021
865 Rain 21 1012 98 10000 1.48 132 22:38 30.03.2021
866 Rain 22 1011 94 10000 1.29 224 22:20 30.03.2021
867 Rain 22 1011 94 10000 1.29 224 21:42 30.03.2021
868 Rain 23 1010 91 10000 1.67 208 21:19 30.03.2021
869 Rain 23 1010 91 10000 1.67 208 20:51 30.03.2021
870 Rain 25 1010 78 7000 1.82 76 20:27 30.03.2021
871 Rain 25 1010 78 7000 1.82 76 19:50 30.03.2021
872 Rain 26 1009 83 7000 2.34 58 19:23 30.03.2021
873 Rain 25 1007 76 10000 2.34 58 18:36 30.03.2021
874 Clouds 28 1005 62 10000 0.82 58 17:52 30.03.2021
875 Clouds 27 1010 69 7000 0.82 58 17:32 30.03.2021
876 Clouds 27 1010 69 7000 0.28 100 16:48 30.03.2021
877 Clouds 34 1004 37 10000 0.68 342 16:28 30.03.2021
878 Clouds 34 1004 37 10000 0.68 342 15:43 30.03.2021
879 Clouds 35 1005 34 10000 0.75 42 15:20 30.03.2021
880 Clouds 35 1005 34 10000 0.75 42 14:48 30.03.2021
881 Clouds 36 1006 34 10000 0.6 105 14:21 30.03.2021
882 Clouds 36 1006 34 10000 0.6 105 14:21 30.03.2021
883 Clouds 36 1006 34 10000 0.6 105 13:54 30.03.2021
884 Clouds 36 1006 34 10000 0.6 105 13:36 30.03.2021
885 Clouds 35 1008 37 10000 0.76 140 12:44 30.03.2021
886 Clouds 33 1009 42 10000 1.01 162 12:26 30.03.2021
887 Clouds 33 1009 42 10000 1.01 162 11:51 30.03.2021
888 Clouds 25 1013 78 8000 1.26 154 11:21 30.03.2021
889 Clouds 25 1013 78 8000 1.26 154 10:43 30.03.2021
890 Clouds 23 1013 88 8000 3.09 120 10:20 30.03.2021
891 Clouds 28 1012 59 10000 1.22 153 09:43 30.03.2021
892 Clouds 25 1012 73 10000 1.35 180 09:24 30.03.2021
893 Clouds 25 1012 73 10000 1.35 180 08:51 30.03.2021
894 Clouds 25 1012 73 10000 1.35 180 08:32 30.03.2021
895 Clouds 23 1012 85 10000 1.02 131 07:50 30.03.2021
896 Clouds 21 1011 93 10000 0.89 129 07:21 30.03.2021
897 Clouds 20 1010 94 10000 0.55 175 05:25 30.03.2021
898 Clouds 20 1010 94 10000 0.55 175 04:45 30.03.2021
899 Rain 21 1011 98 10000 1.44 161 00:26 30.03.2021
900 Rain 21 1011 97 10000 1.89 97 23:29 29.03.2021
901 Clouds 22 1010 93 10000 2.1 64 22:44 29.03.2021
902 Clear 23 1011 88 8000 2.06 0 22:18 29.03.2021
903 Clouds 22 1010 93 10000 1.92 77 21:43 29.03.2021
904 Clouds 23 1009 93 10000 2.87 147 21:22 29.03.2021
905 Clouds 23 1009 93 10000 2.87 147 20:44 29.03.2021
906 Clouds 22 1009 94 10000 3.06 150 20:26 29.03.2021
907 Clouds 22 1009 94 10000 3.06 150 19:46 29.03.2021
908 Clouds 22 1008 94 10000 1.75 157 19:20 29.03.2021
909 Clouds 22 1008 94 10000 1.75 157 18:40 29.03.2021
910 Rain 25 1010 78 8000 3.09 120 18:20 29.03.2021
911 Rain 25 1010 78 8000 3.09 120 17:45 29.03.2021
912 Rain 25 1011 78 8000 4.12 180 16:59 29.03.2021
913 Rain 25 1012 78 8000 4.12 120 16:35 29.03.2021
914 Rain 25 1012 78 8000 4.12 120 15:57 29.03.2021
915 Rain 25 1013 73 8000 4.12 120 15:34 29.03.2021
916 Rain 25 1013 73 8000 4.12 120 14:55 29.03.2021
917 Rain 25 1013 73 8000 4.12 120 14:34 29.03.2021
918 Clouds 36 1005 32 10000 1.19 23 13:52 29.03.2021
919 Clouds 25 1015 83 6000 6.17 120 13:26 29.03.2021
920 Clouds 25 1015 83 6000 6.17 120 12:50 29.03.2021
921 Rain 24 1015 94 5000 6.17 120 12:21 29.03.2021
922 Rain 24 1015 94 5000 6.17 120 11:40 29.03.2021
923 Clouds 34 1010 39 10000 1.32 112 11:22 29.03.2021
924 Clouds 34 1010 39 10000 1.32 112 11:22 29.03.2021
925 Clouds 34 1010 39 10000 1.32 112 10:38 29.03.2021
926 Clouds 31 1011 46 10000 1.22 118 09:48 29.03.2021
927 Clouds 27 1012 68 10000 1.27 126 08:59 29.03.2021
928 Mist 22 1011 94 2000 1.03 105 08:28 29.03.2021
929 Clouds 23 1011 85 10000 1.03 105 07:41 29.03.2021
930 Rain 21 1011 92 10000 0.91 110 06:42 29.03.2021
931 Clouds 22 1009 79 10000 1.55 84 04:22 29.03.2021
932 Clouds 23 1007 71 10000 0.52 137 01:58 29.03.2021
933 Clouds 23 1008 69 10000 0.37 45 00:23 29.03.2021
934 Clouds 23 1008 69 10000 0.37 45 23:51 28.03.2021
935 Clouds 24 1009 67 10000 0.5 18 23:20 28.03.2021
936 Clouds 24 1009 67 10000 0.5 18 22:42 28.03.2021
937 Clouds 25 1008 64 10000 0.63 0 22:21 28.03.2021
938 Clouds 25 1008 64 10000 0.63 0 21:45 28.03.2021
939 Clouds 26 1008 60 10000 0.67 3 21:23 28.03.2021
940 Clouds 26 1008 60 10000 0.67 3 20:50 28.03.2021
941 Clouds 29 1008 65 7000 2.06 360 20:32 28.03.2021
942 Clouds 29 1008 65 7000 2.06 360 19:46 28.03.2021
943 Clouds 29 1008 65 7000 2.06 360 19:23 28.03.2021
944 Clouds 32 1008 51 7000 2.06 340 18:58 28.03.2021
945 Clouds 32 1008 51 7000 2.06 340 18:33 28.03.2021
946 Clouds 29 1005 55 10000 1.73 355 17:56 28.03.2021
947 Clouds 29 1005 55 10000 1.73 355 17:36 28.03.2021
948 Clouds 34 1005 38 10000 1.25 5 16:55 28.03.2021
949 Clouds 35 1005 32 10000 1.05 358 16:24 28.03.2021
950 Clouds 35 1005 32 10000 1.05 358 15:49 28.03.2021
951 Clouds 33 1009 49 8000 2.06 320 15:24 28.03.2021
952 Clouds 36 1005 31 10000 0.94 358 14:40 28.03.2021
953 Clouds 32 1011 51 8000 2.06 240 13:59 28.03.2021
954 Clouds 37 1006 29 10000 0.89 25 13:34 28.03.2021
955 Clouds 37 1008 31 10000 0.46 75 12:55 28.03.2021
956 Clouds 31 1013 62 7000 2.06 360 12:34 28.03.2021
957 Clouds 31 1013 62 7000 2.06 360 11:50 28.03.2021
958 Clouds 31 1013 62 7000 2.06 360 11:32 28.03.2021
959 Clouds 34 1011 40 10000 0.95 152 10:47 28.03.2021
960 Clouds 31 1012 49 10000 0.86 139 10:29 28.03.2021
961 Clouds 31 1012 49 10000 0.86 139 09:50 28.03.2021
962 Clouds 27 1012 64 10000 0.88 125 09:27 28.03.2021
963 Clouds 27 1012 64 10000 0.88 125 08:48 28.03.2021
964 Clouds 23 1012 84 10000 0.88 123 08:23 28.03.2021
965 Clouds 23 1012 84 10000 0.88 123 07:38 28.03.2021
966 Clouds 19 1011 96 10000 1.21 79 05:39 28.03.2021
967 Rain 20 1010 95 10000 0.88 39 03:26 28.03.2021
968 Rain 20 1010 93 10000 0.93 334 00:35 28.03.2021
969 Clouds 21 1010 84 10000 0.68 170 23:50 27.03.2021
970 Clouds 21 1010 84 10000 0.68 170 23:32 27.03.2021
971 Clouds 22 1011 81 10000 1.49 162 22:40 27.03.2021
972 Clouds 23 1011 77 10000 1.45 143 22:21 27.03.2021
973 Clouds 23 1011 77 10000 1.45 143 21:42 27.03.2021
974 Clouds 23 1011 77 10000 1.3 130 21:21 27.03.2021
975 Clouds 23 1011 77 10000 1.3 130 20:55 27.03.2021
976 Clouds 23 1011 77 10000 1.3 130 20:37 27.03.2021
977 Clouds 24 1010 73 10000 1.14 131 19:46 27.03.2021
978 Clouds 25 1009 68 10000 0.7 127 19:24 27.03.2021
979 Clouds 25 1009 68 10000 0.7 127 18:58 27.03.2021
980 Clouds 29 1011 61 10000 0.7 127 18:39 27.03.2021
981 Rain 29 1011 61 10000 0.7 48 18:20 27.03.2021
982 Clouds 29 1011 61 10000 1.01 19 17:29 27.03.2021
983 Clouds 31 1010 55 10000 1.01 19 16:57 27.03.2021
984 Clouds 31 1010 55 10000 1.01 19 16:38 27.03.2021
985 Clouds 31 1011 55 10000 1.54 0 16:19 27.03.2021
986 Clouds 31 1011 55 10000 1.54 0 15:38 27.03.2021
987 Clouds 30 1011 58 10000 3.09 200 14:55 27.03.2021
988 Clouds 30 1011 58 10000 3.09 200 14:23 27.03.2021
989 Clouds 29 1012 61 10000 2.06 180 13:37 27.03.2021
990 Clouds 33 1009 40 10000 0.97 167 13:19 27.03.2021
991 Clouds 33 1009 40 10000 0.97 167 12:39 27.03.2021
992 Clouds 32 1010 42 10000 1.39 178 11:48 27.03.2021
993 Clouds 32 1010 42 10000 1.39 178 11:30 27.03.2021
994 Clouds 31 1012 47 10000 1.55 169 10:48 27.03.2021
995 Clouds 31 1012 47 10000 1.55 169 10:30 27.03.2021
996 Clouds 29 1013 53 10000 1.66 160 09:44 27.03.2021
997 Clouds 26 1014 64 10000 1.79 149 09:18 27.03.2021
998 Clouds 26 1014 64 10000 1.79 149 09:18 27.03.2021
999 Clouds 26 1014 64 10000 1.79 149 08:38 27.03.2021
1000 Clouds 23 1014 86 10000 1.63 144 07:48 27.03.2021
1001 Clouds 21 1014 96 10000 1.25 150 06:59 27.03.2021
1002 Clouds 21 1014 96 10000 1.25 150 06:39 27.03.2021
1003 Clouds 19 1013 99 10000 0.94 137 04:41 27.03.2021
1004 Clouds 19 1012 99 10000 0.66 107 02:19 27.03.2021
1005 Clouds 20 1013 99 10000 0.69 93 00:32 27.03.2021
1006 Clouds 20 1013 99 10000 0.67 70 23:59 26.03.2021
1007 Clouds 20 1014 99 10000 0.94 56 23:25 26.03.2021
1008 Clouds 20 1014 100 6000 2.06 30 22:39 26.03.2021
1009 Clouds 20 1014 100 6000 2.06 30 21:42 26.03.2021
1010 Clouds 20 1014 100 6000 2.06 30 21:23 26.03.2021
1011 Clouds 21 1013 99 10000 1.19 40 20:54 26.03.2021
1012 Clouds 20 1014 100 6000 2.06 120 20:31 26.03.2021
1013 Clouds 20 1014 100 6000 2.06 120 19:51 26.03.2021
1014 Clouds 20 1014 100 6000 2.06 120 19:32 26.03.2021
1015 Clouds 20 1013 100 6000 2.06 0 18:50 26.03.2021
1016 Clouds 20 1013 100 6000 2.06 0 18:30 26.03.2021
1017 Rain 21 1013 99 10000 0.78 180 17:50 26.03.2021
1018 Rain 21 1012 99 10000 0.97 192 17:23 26.03.2021
1019 Rain 21 1012 99 10000 0.97 192 16:36 26.03.2021
1020 Rain 21 1012 98 4143 0.04 209 15:59 26.03.2021
1021 Rain 25 1014 78 10000 4.12 360 15:35 26.03.2021
1022 Rain 25 1014 78 10000 4.12 360 14:44 26.03.2021
1023 Rain 23 1011 96 6084 1.26 237 13:52 26.03.2021
1024 Rain 26 1015 78 9000 1.46 232 13:23 26.03.2021
1025 Rain 26 1015 78 9000 1.48 225 12:40 26.03.2021
1026 Rain 25 1016 78 9000 1.94 228 11:48 26.03.2021
1027 Rain 23 1013 94 10000 2.23 229 11:29 26.03.2021
1028 Rain 23 1013 94 10000 2.23 229 10:43 26.03.2021
1029 Rain 22 1014 96 10000 2.19 228 10:19 26.03.2021
1030 Rain 22 1014 96 10000 2.19 228 09:41 26.03.2021
1031 Rain 22 1015 98 10000 1.74 220 08:49 26.03.2021
1032 Rain 22 1015 98 10000 1.74 220 08:31 26.03.2021
1033 Rain 22 1014 98 10000 1.76 213 07:57 26.03.2021
1034 Rain 21 1014 98 10000 1.38 199 07:22 26.03.2021
1035 Rain 21 1014 98 10000 1.38 199 06:56 26.03.2021
1036 Clouds 21 1012 98 10000 1.38 206 05:32 26.03.2021
1037 Rain 21 1011 99 10000 1.68 223 04:18 26.03.2021
1038 Rain 21 1011 99 10000 1.68 223 04:18 26.03.2021
1039 Rain 21 1011 99 10000 1.32 242 00:52 26.03.2021
1040 Rain 21 1011 98 10000 1.01 254 23:53 25.03.2021
1041 Rain 21 1011 98 10000 1.01 254 23:33 25.03.2021
1042 Rain 21 1011 98 10000 1.3 258 22:41 25.03.2021
1043 Rain 21 1012 99 10000 0.9 295 22:19 25.03.2021
1044 Rain 21 1012 99 10000 0.9 295 22:19 25.03.2021
1045 Rain 21 1012 99 10000 0.9 295 21:45 25.03.2021
1046 Rain 21 1011 99 10000 0.31 317 21:24 25.03.2021
1047 Rain 21 1011 99 10000 0.31 317 20:38 25.03.2021
1048 Rain 21 1011 99 10000 0.22 221 20:18 25.03.2021
1049 Rain 21 1011 99 10000 0.22 221 19:40 25.03.2021
1050 Clouds 22 1009 98 10000 1.26 218 19:21 25.03.2021
1051 Clouds 22 1009 98 10000 1.26 218 18:44 25.03.2021
1052 Clouds 23 1007 97 10000 1.59 218 18:25 25.03.2021
1053 Clouds 23 1007 97 10000 1.59 218 17:40 25.03.2021
1054 Rain 24 1007 95 10000 1.89 216 17:21 25.03.2021
1055 Rain 24 1007 95 10000 1.89 216 16:37 25.03.2021
1056 Rain 25 1006 92 10000 1.51 215 16:19 25.03.2021
1057 Rain 25 1006 92 10000 1.51 215 15:41 25.03.2021
1058 Rain 30 1008 66 10000 2.06 230 15:19 25.03.2021
1059 Rain 30 1008 66 10000 2.06 230 14:41 25.03.2021
1060 Rain 26 1007 88 9800 1.97 227 13:40 25.03.2021
1061 Rain 27 1007 86 10000 2.3 209 13:20 25.03.2021
1062 Rain 27 1007 86 10000 2.3 209 12:38 25.03.2021
1063 Rain 29 1008 70 7953 2.09 216 12:19 25.03.2021
1064 Rain 29 1008 70 7953 2.09 216 11:45 25.03.2021
1065 Rain 31 1009 52 10000 1.76 256 11:26 25.03.2021
1066 Rain 31 1009 52 10000 1.76 256 10:50 25.03.2021
1067 Clouds 30 1011 56 10000 1.78 248 10:24 25.03.2021
1068 Clouds 30 1011 56 10000 1.78 248 09:55 25.03.2021
1069 Clouds 30 1011 56 10000 1.78 248 09:36 25.03.2021
1070 Clouds 28 1012 66 10000 1.41 248 08:43 25.03.2021
1071 Clouds 24 1011 85 10000 0.99 294 07:58 25.03.2021
1072 Rain 22 1010 96 10000 1.14 286 06:59 25.03.2021
1073 Clouds 22 1009 99 10000 1.46 275 06:25 25.03.2021
1074 Clouds 22 1009 99 10000 1.46 275 05:48 25.03.2021
1075 Rain 21 1008 99 10000 1.3 293 02:48 25.03.2021
1076 Clouds 22 1007 94 10000 1.08 243 00:21 25.03.2021
1077 Clouds 22 1007 94 10000 1.08 243 23:51 24.03.2021
1078 Clouds 22 1007 92 10000 0.72 215 23:28 24.03.2021
1079 Clouds 22 1007 92 10000 0.72 215 22:47 24.03.2021
1080 Rain 22 1008 89 10000 1.62 223 22:26 24.03.2021
1081 Rain 22 1008 89 10000 1.62 223 21:42 24.03.2021
1082 Clouds 24 1007 74 10000 1.57 320 21:22 24.03.2021
1083 Clouds 24 1007 74 10000 1.57 320 20:41 24.03.2021
1084 Clouds 25 1006 67 10000 1.1 192 20:20 24.03.2021
1085 Clouds 26 1006 67 10000 0.87 235 19:39 24.03.2021
1086 Clouds 26 1006 65 10000 0.35 207 19:20 24.03.2021
1087 Clouds 26 1006 65 10000 0.35 207 18:43 24.03.2021
1088 Clouds 27 1005 64 10000 0.65 148 18:20 24.03.2021
1089 Clouds 27 1005 64 10000 0.65 148 17:43 24.03.2021
1090 Clouds 29 1003 58 10000 0.45 309 17:25 24.03.2021
1091 Clouds 29 1003 58 10000 0.45 309 16:51 24.03.2021
1092 Clouds 33 1002 42 10000 0.62 132 16:27 24.03.2021
1093 Clouds 33 1002 42 10000 0.62 132 15:44 24.03.2021
1094 Clouds 34 1003 38 10000 0.82 191 15:25 24.03.2021
1095 Clouds 34 1003 38 10000 0.82 191 14:46 24.03.2021
1096 Clouds 35 1005 38 10000 0.73 192 14:24 24.03.2021
1097 Clouds 35 1005 38 10000 0.73 192 13:52 24.03.2021
1098 Clouds 34 1006 40 10000 0.95 182 13:27 24.03.2021
1099 Clouds 38 1005 28 10000 0.48 118 12:42 24.03.2021
1100 Clouds 37 1007 31 10000 0.81 179 12:21 24.03.2021
1101 Clouds 37 1007 31 10000 0.81 179 11:42 24.03.2021
1102 Clouds 36 1009 35 10000 0.84 154 10:58 24.03.2021
1103 Clouds 36 1009 35 10000 0.84 154 10:36 24.03.2021
1104 Clouds 33 1011 41 10000 1.24 133 09:58 24.03.2021
1105 Clouds 33 1011 41 10000 1.24 133 09:58 24.03.2021
1106 Clouds 33 1011 41 10000 1.24 133 09:38 24.03.2021
1107 Clouds 30 1012 52 10000 1.48 130 09:18 24.03.2021
1108 Clouds 30 1012 52 10000 1.48 130 08:47 24.03.2021
1109 Clouds 25 1012 77 10000 1.46 144 08:24 24.03.2021
1110 Clouds 25 1012 77 10000 1.46 144 07:31 24.03.2021
1111 Rain 22 1012 93 10000 1.24 159 06:51 24.03.2021
1112 Clouds 20 1009 97 10000 0.92 154 03:56 24.03.2021
1113 Rain 20 1009 98 10000 0.5 104 00:47 24.03.2021
1114 Rain 21 1010 97 10000 1.25 92 23:56 23.03.2021
1115 Rain 21 1010 97 10000 0.74 97 23:21 23.03.2021
1116 Rain 21 1010 97 10000 0.74 97 22:52 23.03.2021
1117 Rain 21 1010 95 10000 0.83 96 22:28 23.03.2021
1118 Rain 21 1010 95 10000 0.83 96 21:49 23.03.2021
1119 Rain 21 1010 95 10000 0.83 96 21:31 23.03.2021
1120 Rain 22 1009 84 10000 1.35 107 20:47 23.03.2021
1121 Clouds 24 1008 71 10000 1.56 162 20:29 23.03.2021
1122 Clouds 24 1008 71 10000 1.56 162 19:57 23.03.2021
1123 Clouds 24 1008 71 10000 1.56 162 19:37 23.03.2021
1124 Clouds 25 1007 69 10000 1.67 184 19:19 23.03.2021
1125 Clouds 24 1008 69 10000 1.64 169 18:38 23.03.2021
1126 Clouds 26 1007 62 10000 1.6 202 18:18 23.03.2021
1127 Clouds 26 1007 62 10000 1.6 202 17:43 23.03.2021
1128 Clouds 29 1006 52 10000 1.82 191 17:21 23.03.2021
1129 Clouds 32 1005 41 10000 2.34 211 16:26 23.03.2021
1130 Clouds 32 1005 41 10000 2.34 211 15:50 23.03.2021
1131 Clouds 33 1006 38 10000 2.16 185 15:23 23.03.2021
1132 Clouds 33 1006 38 10000 2.16 185 14:48 23.03.2021
1133 Clouds 34 1007 38 10000 1.87 185 14:19 23.03.2021
1134 Clouds 34 1007 38 10000 1.87 185 14:19 23.03.2021
1135 Clouds 34 1007 38 10000 1.87 185 13:47 23.03.2021
1136 Clouds 33 1008 40 10000 1.99 194 13:24 23.03.2021
1137 Clouds 31 1008 47 10000 1.82 209 12:45 23.03.2021
1138 Clouds 30 1010 53 10000 1.88 207 12:26 23.03.2021
1139 Clouds 30 1010 53 10000 1.88 207 11:49 23.03.2021
1140 Clouds 27 1012 64 10000 1.27 193 11:21 23.03.2021
1141 Clouds 27 1012 64 10000 1.27 193 10:42 23.03.2021
1142 Clouds 26 1013 69 10000 0.58 181 10:20 23.03.2021
1143 Clouds 26 1013 69 10000 0.58 181 09:51 23.03.2021
1144 Clouds 25 1013 73 10000 0.45 211 09:23 23.03.2021
1145 Clouds 25 1013 73 10000 0.45 211 08:55 23.03.2021
1146 Clouds 25 1013 73 10000 0.45 211 08:37 23.03.2021
1147 Clouds 24 1013 75 10000 0.49 243 08:18 23.03.2021
1148 Fog 21 1010 100 800 1.1 216 07:27 23.03.2021
1149 Fog 21 1010 100 800 1.24 220 06:53 23.03.2021
1150 Clouds 20 1009 94 10000 0.99 194 03:25 23.03.2021
1151 Clouds 20 1009 94 10000 0.99 194 02:46 23.03.2021
1152 Clouds 21 1009 91 10000 0.7 226 23:47 22.03.2021
1153 Clouds 21 1010 89 10000 0.77 190 23:18 22.03.2021
1154 Clouds 21 1010 89 10000 0.77 190 22:42 22.03.2021
1155 Clouds 22 1010 87 10000 1.07 175 22:20 22.03.2021
1156 Clouds 22 1010 87 10000 1.07 175 21:47 22.03.2021
1157 Clouds 22 1010 86 10000 0.92 175 21:26 22.03.2021
1158 Clouds 22 1010 86 10000 0.92 175 20:44 22.03.2021
1159 Clouds 23 1009 85 10000 0.87 166 20:25 22.03.2021
1160 Clouds 23 1009 85 10000 0.87 166 19:58 22.03.2021
1161 Clouds 23 1009 85 10000 0.87 166 19:38 22.03.2021
1162 Clouds 23 1009 84 10000 1.21 176 19:20 22.03.2021
1163 Rain 23 1008 88 10000 0.72 244 18:41 22.03.2021
1164 Rain 24 1007 81 10000 1.01 299 18:22 22.03.2021
1165 Rain 24 1007 81 10000 1.01 299 17:49 22.03.2021
1166 Clouds 27 1006 71 10000 1.18 320 17:22 22.03.2021
1167 Clouds 27 1006 71 10000 1.18 320 16:55 22.03.2021
1168 Clouds 27 1006 71 10000 1.18 320 16:36 22.03.2021
1169 Clouds 30 1005 55 10000 1.54 327 15:42 22.03.2021
1170 Clouds 31 1005 50 10000 1.55 318 15:23 22.03.2021
1171 Clouds 31 1005 50 10000 1.55 318 14:57 22.03.2021
1172 Clouds 31 1005 50 10000 1.55 318 14:34 22.03.2021
1173 Clouds 31 1006 49 10000 1.66 305 13:50 22.03.2021
1174 Clouds 31 1007 50 10000 1.57 296 13:29 22.03.2021
1175 Rain 26 1007 73 10000 1.27 299 12:58 22.03.2021
1176 Clouds 24 1009 83 10000 0.78 326 12:26 22.03.2021
1177 Clouds 24 1009 83 10000 0.78 326 11:51 22.03.2021
1178 Clouds 24 1009 83 10000 0.78 326 11:30 22.03.2021
1179 Clouds 23 1010 85 10000 0.7 0 10:57 22.03.2021
1180 Clouds 23 1010 85 10000 0.7 0 10:37 22.03.2021
1181 Clouds 22 1012 92 10000 0.38 15 10:18 22.03.2021
1182 Clouds 22 1012 92 10000 0.38 15 10:18 22.03.2021
1183 Clouds 22 1012 92 10000 0.38 15 09:34 22.03.2021
1184 Clouds 22 1012 93 10000 0.43 338 08:57 22.03.2021
1185 Clouds 22 1012 93 10000 0.43 338 08:39 22.03.2021
1186 Clouds 22 1012 92 10000 0.34 25 08:20 22.03.2021
1187 Clouds 22 1012 92 10000 0.34 25 07:42 22.03.2021
1188 Rain 21 1012 92 10000 0.21 223 06:52 22.03.2021
1189 Rain 20 1010 97 10000 0.52 284 05:18 22.03.2021
1190 Rain 20 1010 97 10000 0.18 151 00:55 22.03.2021
1191 Clouds 20 1010 97 10000 0.41 267 00:20 22.03.2021
1192 Clouds 20 1010 97 10000 0.41 267 23:47 21.03.2021
1193 Clouds 20 1010 98 10000 0.4 210 23:18 21.03.2021
1194 Clouds 20 1010 98 10000 0.4 210 22:53 21.03.2021
1195 Clouds 20 1010 98 10000 0.4 210 22:53 21.03.2021
1196 Clouds 20 1010 98 10000 0.17 150 21:43 21.03.2021
1197 Clouds 20 1010 98 10000 0.17 264 21:25 21.03.2021
1198 Clouds 20 1010 98 10000 0.17 264 20:57 21.03.2021
1199 Clouds 20 1010 98 10000 0.17 264 20:39 21.03.2021
1200 Clouds 20 1009 98 10000 0.51 282 20:21 21.03.2021
1201 Clouds 20 1009 98 10000 0.51 282 19:48 21.03.2021
1202 Clouds 21 1009 97 10000 0.53 281 19:20 21.03.2021
1203 Clouds 21 1008 94 10000 0.73 309 18:44 21.03.2021
1204 Clouds 21 1008 92 10000 0.9 268 18:25 21.03.2021
1205 Clouds 21 1008 92 10000 0.9 268 17:43 21.03.2021
1206 Clouds 23 1007 86 10000 1.64 259 17:19 21.03.2021
1207 Clouds 23 1007 86 10000 1.64 259 16:51 21.03.2021
1208 Clouds 23 1006 83 10000 1.89 262 16:27 21.03.2021
1209 Clouds 23 1006 83 10000 1.89 262 15:48 21.03.2021
1210 Clouds 23 1006 87 10000 1.98 292 15:22 21.03.2021
1211 Clouds 23 1006 87 10000 1.98 292 14:58 21.03.2021
1212 Clouds 23 1006 87 10000 1.98 292 14:39 21.03.2021
1213 Rain 22 1007 92 10000 1.93 284 14:20 21.03.2021
1214 Rain 22 1007 92 10000 1.93 284 13:51 21.03.2021
1215 Rain 22 1009 98 5448 0.66 297 12:46 21.03.2021
1216 Rain 22 1011 98 10000 1.66 290 12:26 21.03.2021
1217 Rain 22 1011 98 10000 1.66 290 11:47 21.03.2021
1218 Rain 21 1012 98 10000 2.61 286 11:27 21.03.2021
1219 Rain 21 1012 98 10000 2.61 286 10:53 21.03.2021
1220 Rain 21 1012 98 10000 2.61 286 10:32 21.03.2021
1221 Rain 22 1012 99 5625 2.28 303 09:56 21.03.2021
1222 Rain 22 1012 99 5625 2.28 303 09:37 21.03.2021
1223 Rain 22 1012 98 5413 0.93 278 09:19 21.03.2021
1224 Rain 22 1012 98 5413 0.93 278 08:38 21.03.2021
1225 Rain 22 1012 99 8867 1.32 278 08:19 21.03.2021
1226 Rain 22 1012 99 8867 1.32 278 07:30 21.03.2021
1227 Rain 22 1009 99 2738 0.36 301 06:21 21.03.2021
1228 Rain 22 1008 99 2470 0.51 91 04:57 21.03.2021
1229 Rain 22 1007 99 3569 1.83 343 00:58 21.03.2021
1230 Rain 22 1007 99 3569 1.83 343 00:39 21.03.2021
1231 Rain 22 1007 98 5552 2.5 2 00:20 21.03.2021
1232 Rain 22 1007 98 5552 2.5 2 23:46 20.03.2021
1233 Rain 23 1007 94 10000 0.89 258 23:20 20.03.2021
1234 Rain 23 1007 94 10000 0.89 258 22:36 20.03.2021
1235 Clouds 24 1006 88 10000 1.59 257 22:18 20.03.2021
1236 Clouds 24 1006 88 10000 1.59 257 21:42 20.03.2021
1237 Clouds 24 1006 85 10000 1.51 242 21:24 20.03.2021
1238 Clouds 24 1006 85 10000 1.51 242 20:42 20.03.2021
1239 Rain 25 1005 78 10000 1.62 223 20:21 20.03.2021
1240 Rain 25 1005 78 10000 1.62 223 19:44 20.03.2021
1241 Clouds 27 1004 68 10000 1.03 200 19:25 20.03.2021
1242 Clouds 27 1004 68 10000 1.03 200 18:46 20.03.2021
1243 Clouds 28 1002 63 10000 1.01 184 18:24 20.03.2021
1244 Clouds 28 1002 63 10000 1.01 184 17:51 20.03.2021
1245 Clouds 30 1001 59 10000 0.83 190 17:27 20.03.2021
1246 Clouds 30 1001 59 10000 0.83 190 16:44 20.03.2021
1247 Clouds 33 1001 47 10000 0.58 197 16:20 20.03.2021
1248 Clouds 33 1001 47 10000 0.58 197 15:56 20.03.2021
1249 Clouds 33 1001 47 10000 0.58 197 15:38 20.03.2021
1250 Clouds 35 1002 40 10000 0.87 176 14:45 20.03.2021
1251 Clouds 35 1002 41 10000 1.4 164 14:23 20.03.2021
1252 Clouds 35 1002 41 10000 1.4 164 13:33 20.03.2021
1253 Clouds 35 1003 39 10000 1.69 167 12:51 20.03.2021
1254 Clouds 35 1005 39 10000 1.57 162 12:26 20.03.2021
1255 Clouds 35 1005 39 10000 1.57 162 11:46 20.03.2021
1256 Clouds 34 1007 43 10000 1.7 166 11:28 20.03.2021
1257 Clouds 34 1007 43 10000 1.7 166 10:55 20.03.2021
1258 Clouds 32 1008 49 10000 1.67 169 10:28 20.03.2021
1259 Clouds 32 1008 49 10000 1.67 169 09:56 20.03.2021
1260 Clouds 30 1009 58 10000 1.4 162 09:27 20.03.2021
1261 Clouds 30 1009 58 10000 1.4 162 08:56 20.03.2021
1262 Clouds 30 1009 58 10000 1.4 162 08:30 20.03.2021
1263 Clouds 30 1009 58 10000 1.4 162 08:30 20.03.2021
1264 Clear 26 1009 78 10000 1.1 142 07:52 20.03.2021
1265 Clear 26 1009 78 10000 1.1 142 07:31 20.03.2021
1266 Rain 23 1009 96 10000 0.83 154 06:47 20.03.2021
1267 Rain 22 1008 98 10000 0.54 154 06:18 20.03.2021
1268 Clouds 22 1007 98 10000 0.54 289 03:59 20.03.2021
1269 Clouds 22 1007 98 10000 0.54 289 03:41 20.03.2021
1270 Rain 21 1008 99 10000 1.18 17 23:58 19.03.2021
1271 Rain 21 1008 99 10000 1.18 17 23:30 19.03.2021
1272 Rain 22 1008 98 10000 1.25 15 22:48 19.03.2021
1273 Rain 22 1008 93 5635 2.28 351 22:27 19.03.2021
1274 Rain 22 1008 93 5635 2.28 351 21:56 19.03.2021
1275 Clouds 24 1007 82 10000 1.04 260 21:22 19.03.2021
1276 Clouds 24 1007 82 10000 1.04 260 20:59 19.03.2021
1277 Clouds 24 1007 82 10000 1.04 260 20:39 19.03.2021
1278 Clear 24 1006 79 10000 0.97 282 20:21 19.03.2021
1279 Clear 24 1006 79 10000 0.97 282 19:45 19.03.2021
1280 Clouds 25 1005 74 10000 0.59 311 19:20 19.03.2021
1281 Rain 27 1005 64 10000 0.39 256 18:40 19.03.2021
1282 Clouds 28 1004 61 10000 0.78 156 18:19 19.03.2021
1283 Clouds 28 1004 61 10000 0.78 156 17:52 19.03.2021
1284 Haze 28 1006 69 5000 2.06 20 17:28 19.03.2021
1285 Haze 28 1006 69 5000 2.06 20 16:52 19.03.2021
1286 Haze 28 1006 69 5000 2.06 20 16:27 19.03.2021
1287 Clouds 30 1002 53 10000 0.6 224 15:47 19.03.2021
1288 Clouds 32 1002 48 10000 0.29 257 15:22 19.03.2021
1289 Clouds 32 1002 48 10000 0.29 257 14:46 19.03.2021
1290 Clouds 33 1008 52 10000 0.45 99 14:26 19.03.2021
1291 Clouds 36 1003 33 10000 0.45 99 13:40 19.03.2021
1292 Clear 38 1004 31 10000 0.71 84 12:51 19.03.2021
1293 Clear 38 1004 29 10000 0.61 108 12:33 19.03.2021
1294 Clear 38 1006 31 10000 0.61 90 11:42 19.03.2021
1295 Clear 37 1008 33 10000 0.57 120 10:54 19.03.2021
1296 Clear 37 1008 33 10000 0.57 120 10:30 19.03.2021
1297 Clear 35 1009 39 10000 0.35 119 09:49 19.03.2021
1298 Clear 35 1009 39 10000 0.35 119 09:30 19.03.2021
1299 Clear 32 1010 46 10000 0.35 63 08:55 19.03.2021
1300 Clear 32 1010 46 10000 0.35 63 08:37 19.03.2021
1301 Clear 28 1010 55 10000 0.65 68 07:58 19.03.2021
1302 Clear 28 1010 55 10000 0.65 68 07:36 19.03.2021
1303 Clouds 25 1010 68 10000 0.71 72 06:48 19.03.2021
1304 Clouds 21 1008 80 10000 0.38 18 02:45 19.03.2021
1305 Clouds 22 1008 76 10000 0.2 101 00:58 19.03.2021
1306 Clouds 22 1008 74 10000 0.19 323 23:30 18.03.2021
1307 Clouds 22 1008 73 10000 0.47 19 22:58 18.03.2021
1308 Clouds 22 1008 73 10000 0.47 19 22:39 18.03.2021
1309 Clouds 23 1008 71 10000 0.47 22 22:19 18.03.2021
1310 Clouds 23 1008 71 10000 0.47 22 21:39 18.03.2021
1311 Clouds 23 1007 70 10000 0.51 223 20:51 18.03.2021
1312 Clouds 23 1007 70 10000 0.51 223 20:32 18.03.2021
1313 Clouds 23 1007 69 10000 0.32 274 19:58 18.03.2021
1314 Clouds 23 1007 69 10000 0.32 274 19:40 18.03.2021
1315 Clouds 24 1007 67 10000 0.13 357 19:19 18.03.2021
1316 Clouds 24 1006 66 10000 0.1 44 18:34 18.03.2021
1317 Clouds 25 1006 63 10000 0.42 321 17:51 18.03.2021
1318 Clouds 28 1005 59 10000 0.54 308 17:26 18.03.2021
1319 Clouds 28 1005 59 10000 0.54 308 16:49 18.03.2021
1320 Clouds 28 1005 59 10000 0.54 308 16:30 18.03.2021
1321 Clouds 31 1005 46 10000 0.67 266 15:48 18.03.2021
1322 Clouds 32 1005 40 10000 0.85 229 15:28 18.03.2021
1323 Clouds 32 1005 40 10000 0.85 229 14:57 18.03.2021
1324 Clouds 32 1005 40 10000 0.85 229 14:33 18.03.2021
1325 Clouds 33 1006 39 10000 1.15 211 13:53 18.03.2021
1326 Clouds 33 1007 40 10000 1.44 202 13:26 18.03.2021
1327 Clouds 34 1007 39 10000 1.48 204 12:45 18.03.2021
1328 Clouds 33 1009 41 10000 1.36 195 12:27 18.03.2021
1329 Clouds 33 1009 41 10000 1.36 195 12:27 18.03.2021
1330 Clouds 33 1009 41 10000 1.36 195 11:55 18.03.2021
1331 Clouds 33 1009 41 10000 1.36 195 11:34 18.03.2021
1332 Clouds 33 1011 44 10000 1.09 194 10:49 18.03.2021
1333 Clouds 32 1012 49 10000 0.67 175 10:28 18.03.2021
1334 Clouds 32 1012 49 10000 0.67 175 09:58 18.03.2021
1335 Clouds 32 1012 49 10000 0.67 175 09:30 18.03.2021
1336 Clouds 28 1013 64 10000 0.66 101 08:57 18.03.2021
1337 Clouds 28 1013 64 10000 0.66 101 08:33 18.03.2021
1338 Clouds 24 1013 82 10000 0.69 83 07:57 18.03.2021
1339 Mist 22 1011 94 4000 0.69 83 07:39 18.03.2021
1340 Mist 22 1011 94 4000 0.45 60 06:40 18.03.2021
1341 Clouds 20 1012 98 10000 0.55 42 06:19 18.03.2021
1342 Clouds 20 1011 99 10000 0.89 90 04:42 18.03.2021
1343 Clouds 19 1011 99 10000 0.78 88 00:39 18.03.2021
1344 Clouds 20 1012 99 10000 0.95 55 23:18 17.03.2021
1345 Clouds 20 1012 99 10000 0.95 55 22:38 17.03.2021
1346 Clouds 19 1012 99 10000 0.44 90 22:19 17.03.2021
1347 Clouds 19 1012 99 10000 0.44 90 21:48 17.03.2021
1348 Clouds 19 1012 99 10000 0.44 90 21:30 17.03.2021
1349 Clouds 20 1012 99 10000 0.74 108 20:45 17.03.2021
1350 Clouds 20 1011 99 10000 0.7 93 20:26 17.03.2021
1351 Clouds 20 1011 99 10000 0.7 93 19:57 17.03.2021
1352 Clouds 20 1011 99 10000 0.82 72 19:26 17.03.2021
1353 Clouds 20 1011 99 10000 0.82 72 18:59 17.03.2021
1354 Clouds 20 1010 99 10000 0.89 44 18:40 17.03.2021
1355 Clouds 27 1010 74 10000 3.09 180 17:59 17.03.2021
1356 Clouds 21 1009 99 10000 0.74 59 17:32 17.03.2021
1357 Clouds 22 1009 96 10000 0.75 239 16:57 17.03.2021
1358 Clouds 22 1009 96 10000 0.75 239 16:38 17.03.2021
1359 Clouds 22 1008 97 10000 1.81 245 16:19 17.03.2021
1360 Clouds 22 1008 97 10000 1.81 245 15:40 17.03.2021
1361 Rain 21 1009 98 10000 0.82 243 14:46 17.03.2021
1362 Rain 21 1010 98 10000 0.26 231 14:28 17.03.2021
1363 Rain 21 1010 98 10000 0.26 231 13:58 17.03.2021
1364 Rain 21 1010 98 10000 0.26 231 13:40 17.03.2021
1365 Rain 22 1011 95 9456 0.64 313 13:18 17.03.2021
1366 Rain 24 1010 82 10000 1.71 316 12:36 17.03.2021
1367 Rain 24 1012 80 10000 1.42 286 12:18 17.03.2021
1368 Rain 24 1012 80 10000 1.42 286 11:37 17.03.2021
1369 Clouds 24 1013 78 10000 1.82 255 11:18 17.03.2021
1370 Clouds 24 1013 78 10000 1.82 255 10:40 17.03.2021
1371 Rain 24 1013 85 10000 2.24 246 09:59 17.03.2021
1372 Rain 24 1013 85 10000 2.24 246 09:41 17.03.2021
1373 Rain 23 1013 90 10000 1.69 237 09:20 17.03.2021
1374 Rain 23 1013 90 10000 1.69 237 08:44 17.03.2021
1375 Rain 22 1013 96 10000 0.81 218 08:24 17.03.2021
1376 Rain 22 1013 96 10000 0.81 218 07:37 17.03.2021
1377 Clouds 22 1012 92 10000 1.28 192 06:48 17.03.2021
1378 Rain 22 1009 93 10000 1.57 282 04:28 17.03.2021
1379 Rain 22 1009 93 10000 1.57 282 03:31 17.03.2021
1380 Clouds 22 1010 96 10000 1.64 265 00:44 17.03.2021
1381 Clouds 21 1011 98 10000 1.34 268 00:24 17.03.2021
1382 Rain 21 1011 98 10000 1.14 322 23:25 16.03.2021
1383 Rain 21 1011 98 10000 1.14 322 22:44 16.03.2021
1384 Rain 21 1011 98 10000 1.14 322 22:44 16.03.2021
1385 Rain 21 1011 98 10000 1.13 325 22:25 16.03.2021
1386 Rain 21 1011 98 10000 1.13 325 21:43 16.03.2021
1387 Clouds 21 1010 95 10000 0.54 318 21:25 16.03.2021
1388 Clouds 21 1010 95 10000 0.54 318 20:56 16.03.2021
1389 Clouds 21 1009 94 10000 0.86 321 20:19 16.03.2021
1390 Clouds 21 1009 94 10000 0.86 321 19:48 16.03.2021
1391 Clouds 22 1007 92 10000 0.88 267 19:27 16.03.2021
1392 Clouds 22 1007 92 10000 0.88 267 18:53 16.03.2021
1393 Clouds 22 1007 91 10000 1.33 282 18:35 16.03.2021
1394 Clouds 23 1006 86 10000 1.63 271 17:52 16.03.2021
1395 Clouds 23 1006 86 10000 1.63 271 17:33 16.03.2021
1396 Clouds 25 1004 76 10000 2.48 257 16:54 16.03.2021
1397 Clouds 25 1004 76 10000 2.48 257 16:54 16.03.2021
1398 Clouds 22 1007 100 8000 4.12 250 16:31 16.03.2021
1399 Clouds 22 1007 100 8000 4.12 250 15:59 16.03.2021
1400 Clouds 26 1004 69 10000 2.85 252 15:38 16.03.2021
1401 Clouds 26 1005 71 10000 2.71 254 15:19 16.03.2021
1402 Clouds 26 1005 71 10000 2.71 254 14:42 16.03.2021
1403 Clouds 24 1006 83 10000 1.76 258 14:23 16.03.2021
1404 Clouds 24 1006 83 10000 1.76 258 13:58 16.03.2021
1405 Clouds 23 1008 85 10000 1.6 256 13:29 16.03.2021
1406 Clouds 23 1008 85 10000 1.6 256 12:56 16.03.2021
1407 Clouds 23 1007 87 10000 1.42 258 12:38 16.03.2021
1408 Clouds 23 1009 87 10000 1.11 250 12:18 16.03.2021
1409 Clouds 23 1009 87 10000 1.11 250 12:18 16.03.2021
1410 Clouds 26 1011 83 7000 3.09 180 11:35 16.03.2021
1411 Clouds 26 1011 83 7000 3.09 180 10:50 16.03.2021
1412 Clouds 26 1011 83 7000 3.09 180 10:21 16.03.2021
1413 Clouds 24 1011 85 10000 1.07 227 09:40 16.03.2021
1414 Clouds 23 1011 89 10000 1.03 232 09:21 16.03.2021
1415 Clouds 23 1011 89 10000 1.03 232 08:55 16.03.2021
1416 Clouds 23 1011 89 10000 1.03 232 08:36 16.03.2021
1417 Clouds 23 1011 92 10000 0.73 195 07:53 16.03.2021
1418 Rain 22 1010 96 10000 0.64 155 07:27 16.03.2021
1419 Rain 21 1010 98 10000 0.23 69 06:38 16.03.2021
1420 Rain 21 1010 98 10000 0.18 49 05:37 16.03.2021
1421 Rain 21 1008 99 9611 1 319 04:26 16.03.2021
1422 Rain 21 1007 98 10000 1.25 331 02:26 16.03.2021
1423 Rain 22 1007 98 10000 1.76 294 00:39 16.03.2021
1424 Rain 22 1007 98 9314 0.96 7 23:54 15.03.2021
1425 Rain 22 1008 98 10000 1.26 319 23:19 15.03.2021
1426 Rain 22 1008 98 10000 1.26 319 22:43 15.03.2021
1427 Rain 23 1007 92 10000 0.87 356 22:24 15.03.2021
1428 Rain 23 1007 92 10000 0.87 356 21:49 15.03.2021
1429 Clear 26 1007 89 6000 2.06 0 21:28 15.03.2021
1430 Clear 26 1007 89 6000 2.06 0 20:54 15.03.2021
1431 Clear 27 1007 83 8000 3.09 310 20:36 15.03.2021
1432 Clear 27 1007 83 8000 3.09 310 20:18 15.03.2021
1433 Clouds 23 1005 91 10000 0.75 191 19:43 15.03.2021
1434 Rain 30 1006 70 8000 3.09 310 19:22 15.03.2021
1435 Clouds 26 1004 73 10000 0.65 5 18:47 15.03.2021
1436 Clouds 27 1003 67 10000 0.52 24 18:23 15.03.2021
1437 Clouds 27 1003 67 10000 0.52 24 17:55 15.03.2021
1438 Clouds 31 1005 58 8000 4.12 180 17:28 15.03.2021
1439 Clouds 31 1005 58 8000 4.12 180 16:49 15.03.2021
1440 Clouds 32 1002 48 10000 1.51 164 16:20 15.03.2021
1441 Clouds 32 1002 48 10000 1.51 164 15:39 15.03.2021
1442 Clouds 34 1002 42 10000 1.91 161 15:20 15.03.2021
1443 Clouds 34 1002 42 10000 1.91 161 14:41 15.03.2021
1444 Clouds 35 1003 37 10000 1.77 174 14:21 15.03.2021
1445 Clouds 35 1003 37 10000 1.77 174 13:46 15.03.2021
1446 Clouds 35 1005 37 10000 1.56 195 13:24 15.03.2021
1447 Clouds 34 1005 40 10000 1.17 191 12:47 15.03.2021
1448 Clouds 35 1007 40 10000 1.12 227 12:18 15.03.2021
1449 Clouds 35 1007 40 10000 1.12 227 11:47 15.03.2021
1450 Clouds 33 1008 45 10000 1.54 247 11:29 15.03.2021
1451 Clouds 33 1008 45 10000 1.52 247 10:45 15.03.2021
1452 Clouds 31 1009 52 10000 1.19 245 10:26 15.03.2021
1453 Clouds 31 1009 52 10000 1.19 245 09:49 15.03.2021
1454 Clouds 31 1009 52 10000 1.19 245 09:30 15.03.2021
1455 Rain 28 1010 64 10000 0.5 242 08:48 15.03.2021
1456 Clouds 25 1010 78 10000 0.5 24 08:27 15.03.2021
1457 Clouds 25 1010 78 10000 0.5 24 07:43 15.03.2021
1458 Clouds 22 1010 93 10000 1 36 07:24 15.03.2021
1459 Clouds 20 1009 98 10000 0.85 119 06:21 15.03.2021
1460 Clouds 20 1009 99 10000 0.55 142 05:24 15.03.2021
1461 Clouds 21 1008 97 10000 1.73 308 01:25 15.03.2021
1462 Clouds 21 1009 97 10000 1.61 321 23:45 14.03.2021
1463 Rain 21 1009 97 10000 1.86 347 23:19 14.03.2021
1464 Rain 21 1009 97 10000 1.86 347 22:39 14.03.2021
1465 Rain 21 1008 97 9369 3.01 358 22:18 14.03.2021
1466 Rain 21 1008 97 9369 3.01 358 21:44 14.03.2021
1467 Rain 24 1007 78 10000 1.81 345 21:18 14.03.2021
1468 Rain 24 1007 78 10000 1.81 345 20:43 14.03.2021
1469 Clouds 25 1006 75 10000 0.16 105 20:24 14.03.2021
1470 Clouds 25 1006 75 10000 0.16 105 19:42 14.03.2021
1471 Rain 26 1006 69 10000 0.86 199 19:20 14.03.2021
1472 Clouds 28 1005 63 10000 0.89 190 18:46 14.03.2021
1473 Clouds 28 1004 63 10000 0.46 221 18:18 14.03.2021
1474 Clouds 28 1004 63 10000 0.46 221 17:39 14.03.2021
1475 Clouds 31 1002 55 10000 1.18 193 17:20 14.03.2021
1476 Clouds 31 1002 55 10000 1.18 193 16:42 14.03.2021
1477 Clouds 33 1001 43 10000 1.05 164 16:23 14.03.2021
1478 Clouds 33 1001 43 10000 1.05 164 15:52 14.03.2021
1479 Clouds 35 1001 39 10000 1.02 176 15:25 14.03.2021
1480 Clouds 35 1001 39 10000 1.02 176 14:41 14.03.2021
1481 Clouds 37 1003 32 10000 1.47 179 14:20 14.03.2021
1482 Clouds 37 1003 32 10000 1.47 179 13:49 14.03.2021
1483 Clouds 36 1004 35 10000 1.74 190 13:28 14.03.2021
1484 Clouds 36 1004 35 10000 2.01 194 12:45 14.03.2021
1485 Clouds 35 1007 38 10000 1.85 199 12:26 14.03.2021
1486 Clouds 35 1007 38 10000 1.85 199 11:44 14.03.2021
1487 Clouds 34 1008 44 10000 1.78 203 11:26 14.03.2021
1488 Clouds 34 1008 44 10000 1.78 203 10:38 14.03.2021
1489 Clouds 33 1009 51 10000 1.16 199 10:20 14.03.2021
1490 Clouds 33 1009 51 10000 1.16 199 09:59 14.03.2021
1491 Clouds 33 1009 51 10000 1.16 199 09:41 14.03.2021
1492 Clouds 30 1010 62 10000 0.77 112 09:21 14.03.2021
1493 Clouds 30 1010 62 10000 0.77 112 08:40 14.03.2021
1494 Clouds 25 1011 83 10000 0.66 75 07:59 14.03.2021
1495 Clouds 25 1011 83 10000 0.66 75 07:34 14.03.2021
1496 Clouds 21 1010 97 10000 0.66 161 05:42 14.03.2021
1497 Rain 21 1008 95 10000 0.74 55 01:35 14.03.2021
1498 Clouds 22 1008 94 10000 1.31 23 00:49 14.03.2021
1499 Rain 22 1008 97 10000 2.06 19 00:18 14.03.2021
1500 Rain 22 1008 97 10000 2.06 19 23:42 13.03.2021
1501 Clouds 23 1009 89 10000 1.02 358 23:22 13.03.2021
1502 Clouds 23 1009 89 10000 1.02 358 22:49 13.03.2021
1503 Clouds 23 1008 84 10000 1.95 211 22:25 13.03.2021
1504 Clouds 23 1008 84 10000 1.95 211 21:40 13.03.2021
1505 Clouds 23 1008 84 10000 1.95 211 21:40 13.03.2021
1506 Clouds 23 1007 81 10000 1.93 236 21:19 13.03.2021
1507 Clouds 23 1007 81 10000 1.93 236 20:48 13.03.2021
1508 Rain 24 1007 77 10000 1.77 41 20:28 13.03.2021
1509 Rain 24 1007 77 10000 1.77 41 19:45 13.03.2021
1510 Rain 27 1007 68 10000 3 84 19:26 13.03.2021
1511 Clouds 25 1006 80 10000 0.48 324 18:43 13.03.2021
1512 Clouds 21 1007 100 8000 1.56 203 18:21 13.03.2021
1513 Clouds 21 1007 100 8000 1.56 203 17:52 13.03.2021
1514 Clouds 21 1007 100 8000 1.56 203 17:32 13.03.2021
1515 Clouds 21 1007 94 8000 3.09 180 16:57 13.03.2021
1516 Clouds 21 1007 94 8000 3.09 180 16:38 13.03.2021
1517 Clouds 33 1004 47 10000 0.92 240 15:58 13.03.2021
1518 Clouds 34 1003 44 10000 0.49 239 15:22 13.03.2021
1519 Clouds 34 1003 44 10000 0.49 239 14:42 13.03.2021
1520 Clouds 33 1004 50 10000 1.01 226 14:23 13.03.2021
1521 Clouds 33 1004 50 10000 1.01 226 13:30 13.03.2021
1522 Clouds 38 1005 31 10000 1.37 172 12:56 13.03.2021
1523 Clouds 38 1005 31 10000 1.37 172 12:38 13.03.2021
1524 Clouds 37 1007 35 10000 1.58 210 11:58 13.03.2021
1525 Clouds 37 1007 35 10000 1.58 210 11:39 13.03.2021
1526 Clouds 35 1008 42 10000 1.56 239 11:21 13.03.2021
1527 Clouds 35 1008 42 10000 1.56 239 10:46 13.03.2021
1528 Clouds 33 1009 50 10000 1.44 239 10:24 13.03.2021
1529 Clouds 33 1009 50 10000 1.44 239 09:34 13.03.2021
1530 Clouds 30 1010 62 10000 1.28 224 08:55 13.03.2021
1531 Mist 24 1010 94 3000 2.06 200 08:36 13.03.2021
1532 Mist 24 1010 94 3000 2.06 200 08:18 13.03.2021
1533 Mist 24 1010 94 3000 2.06 200 07:39 13.03.2021
1534 Rain 21 1008 97 10000 0.99 188 05:31 13.03.2021
1535 Rain 21 1006 97 10000 0.63 248 02:42 13.03.2021
1536 Clouds 22 1006 92 10000 1.11 293 00:37 13.03.2021
1537 Clouds 22 1006 91 10000 1.24 271 23:48 12.03.2021
1538 Clouds 22 1006 91 10000 1.24 271 23:30 12.03.2021
1539 Clouds 22 1006 90 10000 1.38 281 22:41 12.03.2021
1540 Rain 24 1006 85 10000 1.94 315 22:21 12.03.2021
1541 Rain 24 1006 85 10000 1.94 315 21:39 12.03.2021
1542 Clouds 25 1006 76 10000 1.47 302 21:20 12.03.2021
1543 Clouds 25 1006 76 10000 1.47 302 20:54 12.03.2021
1544 Clouds 25 1006 76 10000 1.47 302 20:31 12.03.2021
1545 Clouds 27 1005 71 10000 1.72 280 19:48 12.03.2021
1546 Clouds 27 1005 71 10000 1.72 280 19:48 12.03.2021
1547 Clouds 30 1006 66 6000 3.09 210 19:30 12.03.2021
1548 Clouds 30 1006 66 6000 3.09 210 18:54 12.03.2021
1549 Clouds 30 1006 66 6000 3.09 210 18:33 12.03.2021
1550 Clouds 31 1006 62 6000 1.54 0 17:46 12.03.2021
1551 Clouds 31 1006 62 6000 1.54 0 17:46 12.03.2021
1552 Clouds 31 1006 62 6000 1.54 0 17:27 12.03.2021
1553 Clouds 32 1002 51 10000 1.13 204 16:54 12.03.2021
1554 Clouds 30 1006 66 6000 4.12 210 16:33 12.03.2021
1555 Clouds 30 1006 66 6000 4.12 210 15:50 12.03.2021
1556 Clouds 30 1006 66 6000 4.12 210 15:21 12.03.2021
1557 Clouds 34 1001 43 10000 0.59 100 14:46 12.03.2021
1558 Clouds 37 1002 34 10000 0.08 85 14:19 12.03.2021
1559 Clouds 37 1002 34 10000 0.08 85 13:41 12.03.2021
1560 Clouds 40 1004 30 10000 0.38 357 13:20 12.03.2021
1561 Clouds 40 1003 29 10000 0.33 108 12:52 12.03.2021
1562 Clouds 40 1003 29 10000 0.33 108 12:30 12.03.2021
1563 Clouds 40 1005 32 10000 0.58 167 11:58 12.03.2021
1564 Clouds 40 1005 32 10000 0.58 167 11:40 12.03.2021
1565 Clouds 38 1007 38 10000 0.73 174 11:18 12.03.2021
1566 Clouds 38 1007 38 10000 0.73 174 10:44 12.03.2021
1567 Clouds 35 1008 44 10000 0.27 335 10:22 12.03.2021
1568 Clouds 35 1008 44 10000 0.27 335 09:37 12.03.2021
1569 Clouds 30 1009 60 10000 0.69 343 09:18 12.03.2021
1570 Clouds 30 1009 60 10000 0.69 343 08:39 12.03.2021
1571 Clouds 25 1009 84 10000 0.95 277 07:41 12.03.2021
1572 Clouds 24 1009 91 10000 0.39 307 07:21 12.03.2021
1573 Clouds 24 1009 79 10000 0.47 218 06:42 12.03.2021
1574 Clouds 22 1008 87 10000 0.71 173 05:45 12.03.2021
1575 Clouds 23 1005 84 10000 1.1 290 00:52 12.03.2021
1576 Clouds 23 1005 82 10000 1.63 308 23:56 11.03.2021
1577 Clouds 24 1005 81 10000 1.34 299 22:59 11.03.2021
1578 Clouds 24 1005 81 10000 1.34 299 22:59 11.03.2021
1579 Clouds 24 1005 81 10000 1.34 299 22:39 11.03.2021
1580 Clouds 24 1005 77 10000 1.07 264 22:19 11.03.2021
1581 Clouds 24 1005 77 10000 1.07 264 21:46 11.03.2021
1582 Clouds 25 1005 72 10000 1.14 255 21:24 11.03.2021
1583 Clouds 25 1005 72 10000 1.14 255 20:49 11.03.2021
1584 Clouds 26 1005 65 10000 1.16 246 20:22 11.03.2021
1585 Clouds 26 1005 65 10000 1.16 246 19:53 11.03.2021
1586 Clouds 26 1005 65 10000 1.16 246 19:34 11.03.2021
1587 Clouds 27 1004 59 10000 0.5 210 18:52 11.03.2021
1588 Clouds 33 1003 52 6000 2.06 220 18:34 11.03.2021
1589 Clouds 33 1003 52 6000 2.06 220 17:53 11.03.2021
1590 Clouds 33 1003 52 6000 2.06 220 17:32 11.03.2021
1591 Clouds 36 1003 38 7000 3.09 220 16:34 11.03.2021
1592 Clouds 35 1001 40 10000 0.59 120 15:56 11.03.2021
1593 Clouds 35 1001 40 10000 0.59 120 15:37 11.03.2021
1594 Clouds 37 1002 31 10000 0.91 101 15:19 11.03.2021
1595 Clouds 37 1002 31 10000 0.91 101 14:43 11.03.2021
1596 Clouds 38 1003 30 10000 1.2 90 14:18 11.03.2021
1597 Clouds 38 1003 30 10000 1.2 90 13:43 11.03.2021
1598 Clouds 38 1004 30 10000 1.54 91 13:21 11.03.2021
1599 Clouds 38 1004 30 10000 1.54 91 12:50 11.03.2021
1600 Clear 38 1005 33 10000 1.35 103 12:28 11.03.2021
1601 Clear 38 1005 33 10000 1.35 103 11:46 11.03.2021
1602 Clear 37 1007 37 10000 1.14 143 11:27 11.03.2021
1603 Clear 37 1007 37 10000 1.14 143 10:50 11.03.2021
1604 Clear 33 1008 47 10000 2.02 171 10:25 11.03.2021
1605 Clear 33 1008 47 10000 2.02 171 09:50 11.03.2021
1606 Clear 33 1008 47 10000 2.02 171 09:32 11.03.2021
1607 Clear 30 1009 57 10000 1.98 164 08:49 11.03.2021
1608 Clear 27 1009 73 10000 1.55 168 08:24 11.03.2021
1609 Clear 27 1009 73 10000 1.55 168 07:44 11.03.2021
1610 Clear 24 1009 89 10000 0.6 208 06:54 11.03.2021
1611 Clear 24 1009 89 10000 0.6 208 06:36 11.03.2021
1612 Clear 21 1008 96 10000 0.63 260 06:18 11.03.2021
1613 Rain 20 1006 95 10000 1.55 152 02:25 11.03.2021
1614 Clouds 21 1007 93 10000 1.33 208 23:58 10.03.2021
1615 Clouds 20 1007 93 10000 1.51 163 23:22 10.03.2021
1616 Clouds 20 1007 93 10000 1.51 163 22:41 10.03.2021
1617 Rain 20 1008 91 10000 1.19 175 22:19 10.03.2021
1618 Rain 20 1008 91 10000 1.19 175 21:41 10.03.2021
1619 Rain 20 1007 92 10000 1.32 277 21:21 10.03.2021
1620 Rain 20 1007 92 10000 1.32 277 21:21 10.03.2021
1621 Clouds 23 1007 72 10000 0.55 164 20:44 10.03.2021
1622 Clouds 24 1006 73 10000 0.94 161 20:26 10.03.2021
1623 Clouds 24 1006 73 10000 0.94 161 19:42 10.03.2021
1624 Clouds 29 1006 70 6000 2.06 120 19:23 10.03.2021
1625 Clouds 29 1006 70 6000 2.06 120 18:44 10.03.2021
1626 Clouds 31 1006 62 7000 3.09 300 18:24 10.03.2021
1627 Clouds 31 1006 62 7000 3.09 300 17:55 10.03.2021
1628 Clouds 33 1006 49 7000 2.06 180 17:36 10.03.2021
1629 Clouds 33 1006 49 7000 2.06 180 17:18 10.03.2021
1630 Clouds 33 1006 49 7000 2.06 180 16:41 10.03.2021
1631 Clouds 35 1006 43 7000 3.09 180 16:21 10.03.2021
1632 Clouds 35 1006 43 7000 3.09 180 15:41 10.03.2021
1633 Clouds 35 1006 43 7000 3.09 180 15:22 10.03.2021
1634 Clouds 34 1006 49 8000 3.09 180 14:43 10.03.2021
1635 Clouds 34 1007 46 8000 3.09 180 14:19 10.03.2021
1636 Clouds 34 1007 46 8000 3.09 180 13:50 10.03.2021
1637 Clouds 33 1009 52 8000 2.06 120 13:27 10.03.2021
1638 Clouds 33 1009 52 8000 2.06 120 12:45 10.03.2021
1639 Clouds 31 1010 58 8000 3.09 180 12:19 10.03.2021
1640 Clouds 31 1010 58 8000 3.09 180 11:32 10.03.2021
1641 Clouds 35 1008 36 10000 1.77 149 10:59 10.03.2021
1642 Clouds 35 1008 36 10000 1.77 149 10:38 10.03.2021
1643 Clouds 33 1009 43 10000 1.55 144 10:20 10.03.2021
1644 Clouds 33 1009 43 10000 1.55 144 09:42 10.03.2021
1645 Clouds 30 1010 52 10000 1.34 151 09:22 10.03.2021
1646 Clouds 30 1010 52 10000 1.34 151 08:57 10.03.2021
1647 Clouds 30 1010 52 10000 1.34 151 08:38 10.03.2021
1648 Clouds 25 1011 75 10000 1.15 150 08:20 10.03.2021
1649 Clouds 25 1011 76 10000 1.31 149 07:30 10.03.2021
1650 Clouds 22 1010 91 10000 0.81 101 06:56 10.03.2021
1651 Clouds 22 1010 91 10000 0.81 101 06:32 10.03.2021
1652 Clouds 21 1008 95 10000 0.99 142 02:41 10.03.2021
1653 Rain 21 1009 95 10000 1.18 201 23:52 09.03.2021
1654 Rain 21 1010 94 10000 1.98 166 23:24 09.03.2021
1655 Rain 21 1010 94 10000 1.98 166 22:42 09.03.2021
1656 Rain 24 1009 78 6000 2.44 105 22:23 09.03.2021
1657 Rain 24 1009 78 6000 2.44 105 21:46 09.03.2021
1658 Clouds 24 1009 78 6000 1.59 175 21:25 09.03.2021
1659 Clouds 26 1009 55 10000 1.59 175 20:59 09.03.2021
1660 Clouds 26 1009 55 10000 1.59 175 20:41 09.03.2021
1661 Clouds 27 1009 65 6000 2.06 0 20:21 09.03.2021
1662 Clouds 27 1009 65 6000 2.06 0 19:51 09.03.2021
1663 Clear 27 1009 65 6000 2.06 0 19:27 09.03.2021
1664 Clear 26 1006 59 10000 1.13 167 18:50 09.03.2021
1665 Clear 28 1005 53 10000 1.61 139 18:27 09.03.2021
1666 Clear 28 1005 53 10000 1.61 139 17:53 09.03.2021
1667 Clouds 33 1007 46 7000 3.09 210 17:31 09.03.2021
1668 Clouds 33 1007 46 7000 3.09 210 16:55 09.03.2021
1669 Clouds 33 1007 46 7000 3.09 210 16:37 09.03.2021
1670 Clouds 34 1008 38 8000 3.09 210 16:18 09.03.2021
1671 Clouds 34 1008 38 8000 3.09 210 15:43 09.03.2021
1672 Clouds 34 1008 38 8000 3.09 210 15:20 09.03.2021
1673 Clear 33 1009 43 8000 3.09 210 14:28 09.03.2021
1674 Clear 33 1009 43 8000 3.09 210 13:57 09.03.2021
1675 Clear 33 1009 43 8000 3.09 210 13:38 09.03.2021
1676 Clouds 37 1006 29 10000 1.41 116 13:19 09.03.2021
1677 Clouds 31 1011 51 8000 4.12 180 12:39 09.03.2021
1678 Clouds 31 1011 51 8000 4.12 180 12:18 09.03.2021
1679 Clouds 31 1011 51 8000 4.12 180 11:41 09.03.2021
1680 Clouds 36 1009 33 10000 1.21 127 11:21 09.03.2021
1681 Clouds 36 1009 33 10000 1.21 127 10:54 09.03.2021
1682 Clouds 36 1009 33 10000 1.21 127 10:36 09.03.2021
1683 Clouds 33 1010 38 10000 1.24 118 10:18 09.03.2021
1684 Clouds 33 1010 38 10000 1.24 118 09:41 09.03.2021
1685 Clouds 31 1012 46 10000 1.23 138 09:22 09.03.2021
1686 Clouds 31 1012 46 10000 1.23 138 08:36 09.03.2021
1687 Clouds 26 1012 63 10000 1.2 170 07:52 09.03.2021
1688 Clouds 25 1012 68 10000 1.57 173 07:31 09.03.2021
1689 Clouds 23 1012 79 10000 1.63 152 06:59 09.03.2021
1690 Clouds 22 1011 86 10000 1.86 170 05:54 09.03.2021
1691 Clouds 22 1011 86 10000 1.86 170 05:34 09.03.2021
1692 Rain 22 1011 80 10000 1.44 157 00:21 09.03.2021
1693 Rain 22 1011 80 10000 1.44 157 23:42 08.03.2021
1694 Clouds 23 1011 75 10000 1.17 167 23:23 08.03.2021
1695 Clouds 23 1011 75 10000 1.17 167 22:44 08.03.2021
1696 Clouds 23 1011 75 10000 1.67 170 22:26 08.03.2021
1697 Clouds 23 1011 75 10000 1.67 170 21:54 08.03.2021
1698 Clouds 23 1011 75 10000 1.67 170 21:35 08.03.2021
1699 Clouds 23 1011 74 10000 1.73 175 20:45 08.03.2021
1700 Clouds 24 1010 70 10000 1.63 181 20:25 08.03.2021
1701 Clouds 24 1010 70 10000 1.63 181 19:58 08.03.2021
1702 Clouds 25 1009 67 10000 1.78 192 19:28 08.03.2021
1703 Clouds 28 1010 65 8000 1.78 192 18:39 08.03.2021
1704 Clouds 28 1010 65 8000 1.44 190 18:20 08.03.2021
1705 Clouds 28 1010 65 8000 1.44 190 17:51 08.03.2021
1706 Clouds 28 1010 65 8000 1.13 185 17:25 08.03.2021
1707 Clouds 29 1006 58 10000 1.13 185 16:46 08.03.2021
1708 Clouds 31 1006 47 10000 1.68 196 16:28 08.03.2021
1709 Clouds 31 1006 47 10000 1.68 196 15:49 08.03.2021
1710 Clouds 32 1006 45 10000 2.34 214 15:26 08.03.2021
1711 Clouds 32 1006 45 10000 2.34 214 14:43 08.03.2021
1712 Clouds 33 1007 41 10000 1.84 209 14:20 08.03.2021
1713 Clouds 33 1007 41 10000 1.84 209 13:38 08.03.2021
1714 Clouds 32 1008 46 10000 1.9 198 13:19 08.03.2021
1715 Clouds 32 1008 46 10000 1.9 198 12:42 08.03.2021
1716 Clouds 32 1008 46 10000 1.9 198 12:42 08.03.2021
1717 Clouds 32 1009 44 10000 2.09 181 12:23 08.03.2021
1718 Clouds 32 1009 44 10000 2.09 181 11:40 08.03.2021
1719 Clouds 31 1011 50 10000 2.18 159 11:18 08.03.2021
1720 Clouds 31 1011 50 10000 2.18 159 10:43 08.03.2021
1721 Clouds 29 1012 58 10000 2.28 158 10:22 08.03.2021
1722 Clouds 29 1012 58 10000 2.28 158 09:41 08.03.2021
1723 Clouds 26 1013 71 10000 2.08 158 09:22 08.03.2021
1724 Clouds 23 1014 86 10000 2 164 08:28 08.03.2021
1725 Clouds 22 1013 91 10000 2.17 144 07:23 08.03.2021
1726 Clouds 22 1013 92 10000 1.56 125 06:43 08.03.2021
1727 Clouds 21 1011 95 10000 3.43 193 03:38 08.03.2021
1728 Clouds 21 1010 95 10000 1.47 113 00:44 08.03.2021
1729 Clouds 21 1011 95 10000 2.01 192 23:55 07.03.2021
1730 Clouds 21 1011 95 10000 2.01 192 23:37 07.03.2021
1731 Rain 21 1012 96 10000 2.25 240 23:18 07.03.2021
1732 Rain 21 1012 96 10000 2.25 240 22:42 07.03.2021
1733 Rain 23 1014 88 6000 2.06 180 22:23 07.03.2021
1734 Rain 23 1014 88 6000 2.06 180 21:44 07.03.2021
1735 Clouds 23 1014 88 6000 2.06 180 21:25 07.03.2021
1736 Clouds 22 1012 96 10000 1.15 251 20:48 07.03.2021
1737 Rain 23 1013 88 6000 2.06 0 20:30 07.03.2021
1738 Rain 23 1013 88 6000 2.06 0 19:57 07.03.2021
1739 Rain 23 1013 88 6000 2.06 0 19:38 07.03.2021
1740 Clouds 25 1012 88 7000 4.12 160 19:19 07.03.2021
1741 Clouds 25 1012 88 7000 4.12 160 18:42 07.03.2021
1742 Clouds 24 1009 82 10000 2.07 220 18:19 07.03.2021
1743 Clouds 24 1009 82 10000 2.07 220 17:40 07.03.2021
1744 Clouds 26 1008 75 10000 2.16 204 17:20 07.03.2021
1745 Clouds 26 1008 75 10000 2.16 204 16:56 07.03.2021
1746 Clouds 26 1008 75 10000 2.16 204 16:37 07.03.2021
1747 Rain 28 1008 65 10000 2.06 207 16:18 07.03.2021
1748 Rain 28 1008 65 10000 2.06 207 15:42 07.03.2021
1749 Rain 26 1011 78 7000 4.12 210 15:21 07.03.2021
1750 Rain 26 1011 78 7000 4.12 210 14:30 07.03.2021
1751 Rain 26 1011 83 7000 4.12 180 13:59 07.03.2021
1752 Rain 26 1011 83 7000 4.12 180 13:40 07.03.2021
1753 Rain 25 1012 88 7000 3.09 0 13:20 07.03.2021
1754 Rain 25 1012 88 7000 3.09 0 12:44 07.03.2021
1755 Rain 26 1010 74 10000 2.18 144 12:24 07.03.2021
1756 Clouds 31 1011 51 10000 1.56 147 11:25 07.03.2021
1757 Clouds 31 1011 51 10000 1.56 147 10:59 07.03.2021
1758 Clouds 24 1013 94 6000 2.06 120 10:39 07.03.2021
1759 Clouds 24 1013 94 6000 2.06 120 10:21 07.03.2021
1760 Clouds 24 1013 94 6000 2.06 120 09:40 07.03.2021
1761 Clouds 24 1013 94 6000 2.06 120 09:21 07.03.2021
1762 Clouds 29 1012 58 10000 0.85 184 08:45 07.03.2021
1763 Clouds 25 1012 75 10000 0.86 180 08:23 07.03.2021
1764 Clouds 22 1012 89 10000 0.03 232 07:25 07.03.2021
1765 Rain 21 1009 95 10000 1.17 353 02:41 07.03.2021
1766 Clouds 23 1009 78 10000 0.58 44 00:45 07.03.2021
1767 Clouds 24 1009 74 10000 0.37 317 23:41 06.03.2021
1768 Clouds 24 1009 74 10000 1.08 215 23:23 06.03.2021
1769 Clouds 24 1009 74 10000 1.08 215 22:47 06.03.2021
1770 Clouds 22 1010 84 10000 2.56 130 22:27 06.03.2021
1771 Clouds 22 1010 84 10000 2.56 130 21:57 06.03.2021
1772 Rain 21 1010 89 10000 3.5 129 21:21 06.03.2021
1773 Rain 21 1010 89 10000 3.5 129 20:49 06.03.2021
1774 Rain 21 1010 94 10000 4.03 87 20:26 06.03.2021
1775 Rain 21 1010 94 10000 4.03 87 19:49 06.03.2021
1776 Rain 22 1008 90 9837 5.75 99 19:20 06.03.2021
1777 Rain 22 1008 90 9837 5.75 99 18:54 06.03.2021
1778 Rain 22 1008 91 9820 5.75 99 18:36 06.03.2021
1779 Rain 26 1006 72 10000 4.55 122 18:18 06.03.2021
1780 Rain 26 1006 72 10000 4.55 122 17:42 06.03.2021
1781 Clouds 31 1005 46 10000 0.46 59 17:21 06.03.2021
1782 Clouds 31 1005 46 10000 0.46 59 16:42 06.03.2021
1783 Clouds 35 1004 34 10000 0.64 253 16:24 06.03.2021
1784 Clouds 35 1004 34 10000 0.64 253 15:47 06.03.2021
1785 Clouds 37 1003 28 10000 1.38 330 15:29 06.03.2021
1786 Clouds 37 1003 28 10000 1.38 330 14:51 06.03.2021
1787 Clouds 37 1004 28 10000 1.6 320 14:28 06.03.2021
1788 Clouds 37 1004 28 10000 1.6 320 13:40 06.03.2021
1789 Clouds 38 1006 29 10000 1.08 267 13:20 06.03.2021
1790 Clouds 38 1006 29 10000 1.08 267 12:44 06.03.2021
1791 Clouds 36 1008 36 10000 1.34 218 12:19 06.03.2021
1792 Clouds 36 1008 36 10000 1.34 218 11:54 06.03.2021
1793 Clouds 32 1009 49 10000 1.26 189 11:21 06.03.2021
1794 Clouds 32 1009 49 10000 1.26 189 10:48 06.03.2021
1795 Clouds 33 1011 47 10000 1.45 168 10:19 06.03.2021
1796 Clouds 33 1011 47 10000 1.45 168 09:46 06.03.2021
1797 Clouds 30 1011 56 10000 1.24 195 09:20 06.03.2021
1798 Clouds 30 1011 56 10000 1.24 195 08:46 06.03.2021
1799 Rain 26 1012 74 10000 0.62 157 07:58 06.03.2021
1800 Rain 25 1012 83 10000 0.73 96 07:39 06.03.2021
1801 Clouds 25 1011 75 10000 0.63 102 07:19 06.03.2021
1802 Clouds 22 1010 86 10000 0.63 111 05:38 06.03.2021
1803 Clouds 22 1007 81 10000 1.2 171 02:38 06.03.2021
1804 Clouds 25 1008 68 10000 2.03 134 01:20 06.03.2021
1805 Clouds 25 1008 67 10000 1.99 130 00:36 06.03.2021
1806 Clouds 25 1008 70 10000 0.89 155 23:29 05.03.2021
1807 Clouds 25 1008 70 10000 0.89 155 22:49 05.03.2021
1808 Clouds 25 1008 69 10000 1.2 198 22:25 05.03.2021
1809 Clouds 25 1008 69 10000 1.2 198 21:57 05.03.2021
1810 Clouds 25 1008 69 10000 1.2 198 21:39 05.03.2021
1811 Clouds 25 1008 72 10000 1.49 183 20:59 05.03.2021
1812 Clouds 25 1008 72 10000 1.49 183 20:41 05.03.2021
1813 Clouds 26 1008 70 10000 0.75 205 20:23 05.03.2021
1814 Clouds 26 1008 70 10000 0.75 205 19:43 05.03.2021
1815 Clouds 27 1007 74 7000 2.06 280 19:21 05.03.2021
1816 Clouds 27 1006 57 10000 0.95 90 18:44 05.03.2021
1817 Clouds 29 1005 70 7000 3.09 300 18:25 05.03.2021
1818 Clouds 28 1005 53 10000 1.09 114 17:43 05.03.2021
1819 Clouds 30 1004 50 10000 0.6 101 17:24 05.03.2021
1820 Clouds 30 1004 50 10000 0.6 101 16:41 05.03.2021
1821 Clouds 33 1006 49 7000 2.06 120 16:23 05.03.2021
1822 Clouds 33 1006 49 7000 2.06 120 15:53 05.03.2021
1823 Clouds 33 1006 49 7000 2.06 120 15:26 05.03.2021
1824 Clouds 33 1007 49 7000 3.09 120 14:40 05.03.2021
1825 Clouds 36 1004 30 10000 1.37 321 14:21 05.03.2021
1826 Clouds 36 1004 30 10000 1.37 321 13:43 05.03.2021
1827 Clouds 33 1010 52 7000 4.12 160 13:21 05.03.2021
1828 Clouds 33 1010 52 7000 4.12 160 12:42 05.03.2021
1829 Clouds 40 1006 27 10000 0.8 201 11:39 05.03.2021
1830 Clouds 36 1007 33 10000 1.48 170 11:19 05.03.2021
1831 Clouds 36 1007 33 10000 1.48 170 11:19 05.03.2021
1832 Clouds 36 1007 33 10000 1.48 170 10:43 05.03.2021
1833 Clouds 34 1009 39 10000 2.21 162 10:24 05.03.2021
1834 Clouds 34 1009 39 10000 2.21 162 09:54 05.03.2021
1835 Clouds 26 1011 83 6000 2.06 120 09:29 05.03.2021
1836 Clouds 26 1011 83 6000 2.06 120 08:57 05.03.2021
1837 Clouds 26 1011 83 6000 2.06 120 08:38 05.03.2021
1838 Clouds 28 1010 57 10000 1.25 116 08:20 05.03.2021
1839 Clouds 28 1010 57 10000 1.25 116 07:30 05.03.2021
1840 Clouds 27 1009 62 10000 1.64 158 06:34 05.03.2021
1841 Clouds 24 1008 73 10000 0.8 164 05:39 05.03.2021
1842 Clouds 27 1006 51 10000 1.26 161 00:59 05.03.2021
1843 Clouds 27 1007 51 10000 0.79 143 23:53 04.03.2021
1844 Clouds 25 1009 83 6000 3.09 120 23:24 04.03.2021
1845 Clouds 25 1009 83 6000 3.09 120 22:29 04.03.2021
1846 Clouds 28 1007 48 10000 1.11 146 21:53 04.03.2021
1847 Clouds 27 1008 78 6000 3.09 90 21:32 04.03.2021
1848 Clouds 27 1008 78 6000 3.09 90 20:57 04.03.2021
1849 Clouds 27 1008 78 6000 3.09 90 20:38 04.03.2021
1850 Clouds 27 1006 47 10000 0.64 169 20:20 04.03.2021
1851 Clouds 27 1006 47 10000 0.64 169 19:49 04.03.2021
1852 Clouds 29 1007 70 6000 2.06 180 19:23 04.03.2021
1853 Clouds 29 1007 70 6000 2.06 180 18:50 04.03.2021
1854 Clouds 29 1007 70 6000 2.06 180 18:29 04.03.2021
1855 Clouds 28 1004 47 10000 0.53 298 17:47 04.03.2021
1856 Clouds 28 1004 47 10000 0.53 298 17:47 04.03.2021
1857 Clouds 31 1007 62 6000 2.06 120 17:29 04.03.2021
1858 Clouds 31 1007 62 6000 2.06 120 16:50 04.03.2021
1859 Clouds 31 1007 62 6000 2.06 120 16:31 04.03.2021
1860 Clouds 33 1002 34 10000 3.09 344 15:56 04.03.2021
1861 Clouds 32 1009 45 6000 3.09 344 15:34 04.03.2021
1862 Clouds 32 1009 45 6000 1.97 357 14:53 04.03.2021
1863 Clouds 32 1009 45 6000 1.97 357 14:31 04.03.2021
1864 Clouds 32 1008 58 6000 2.06 120 13:51 04.03.2021
1865 Clouds 37 1003 27 10000 1.24 28 13:33 04.03.2021
1866 Clouds 40 1004 22 10000 1.31 28 12:58 04.03.2021
1867 Clouds 31 1011 62 6000 1.24 20 12:39 04.03.2021
1868 Clouds 31 1011 62 6000 0.46 55 11:48 04.03.2021
1869 Clouds 28 1011 74 6000 0.91 161 11:27 04.03.2021
1870 Clouds 28 1011 74 6000 0.91 161 10:55 04.03.2021
1871 Clouds 27 1011 78 6000 0.91 161 10:31 04.03.2021
1872 Clouds 27 1011 78 6000 1.82 182 09:47 04.03.2021
1873 Clouds 27 1011 78 6000 2.03 170 09:25 04.03.2021
1874 Clouds 31 1009 48 10000 2.03 170 08:42 04.03.2021
1875 Clouds 28 1009 59 10000 1.72 148 08:22 04.03.2021
1876 Clouds 29 1009 56 10000 1.55 163 07:33 04.03.2021
1877 Clouds 22 1008 79 10000 0.86 160 06:28 04.03.2021
1878 Clouds 22 1008 79 10000 0.86 160 05:42 04.03.2021
1879 Clouds 24 1007 72 10000 1.3 165 01:49 04.03.2021
1880 Clouds 25 1007 65 10000 1.3 192 23:19 03.03.2021
1881 Clouds 26 1007 62 10000 1.3 211 22:29 03.03.2021
1882 Clouds 26 1007 62 10000 1.3 211 21:55 03.03.2021
1883 Clouds 26 1007 62 10000 1.3 211 21:37 03.03.2021
1884 Clouds 27 1007 58 10000 1.59 208 21:18 03.03.2021
1885 Clouds 27 1007 58 10000 1.59 208 20:42 03.03.2021
1886 Clouds 27 1006 56 10000 1.7 215 20:23 03.03.2021
1887 Clouds 27 1006 56 10000 1.7 215 19:45 03.03.2021
1888 Clouds 27 1005 53 10000 1.3 232 19:26 03.03.2021
1889 Clouds 28 1005 55 10000 1.35 231 18:48 03.03.2021
1890 Clouds 29 1008 70 8000 4.12 250 18:30 03.03.2021
1891 Clouds 29 1008 70 8000 4.12 250 17:56 03.03.2021
1892 Clouds 31 1003 43 10000 1.06 197 17:20 03.03.2021
1893 Clouds 31 1003 43 10000 1.06 197 16:51 03.03.2021
1894 Clouds 35 1003 34 10000 0.42 141 16:27 03.03.2021
1895 Clouds 35 1003 34 10000 0.42 141 15:51 03.03.2021
1896 Clouds 35 1003 34 10000 0.42 141 15:31 03.03.2021
1897 Clouds 36 1003 29 10000 0.89 10 14:39 03.03.2021
1898 Clouds 38 1004 25 10000 1.2 331 14:20 03.03.2021
1899 Clouds 38 1004 25 10000 1.2 331 13:39 03.03.2021
1900 Clouds 40 1005 22 10000 0.54 286 13:21 03.03.2021
1901 Clouds 40 1005 22 10000 0.54 286 12:41 03.03.2021
1902 Clouds 27 1012 78 6000 2.06 90 12:22 03.03.2021
1903 Clouds 39 1007 25 10000 1.05 219 11:44 03.03.2021
1904 Clouds 27 1013 78 6000 3.09 200 11:26 03.03.2021
1905 Clouds 27 1013 78 6000 3.09 200 10:45 03.03.2021
1906 Clouds 33 1010 44 10000 1.9 154 10:21 03.03.2021
1907 Clouds 33 1010 44 10000 1.9 154 09:41 03.03.2021
1908 Clouds 30 1010 53 10000 1.89 141 08:52 03.03.2021
1909 Haze 24 1012 94 5000 3.09 200 08:24 03.03.2021
1910 Haze 24 1012 94 5000 3.09 200 07:55 03.03.2021
1911 Clouds 25 1009 67 10000 1.49 141 07:26 03.03.2021
1912 Clouds 22 1009 72 10000 1.1 136 06:21 03.03.2021
1913 Clouds 22 1009 72 10000 1.1 136 05:44 03.03.2021
1914 Clouds 22 1008 73 10000 1.25 139 04:36 03.03.2021
1915 Clouds 23 1007 66 10000 1.13 143 03:53 03.03.2021
1916 Clouds 23 1007 39 10000 0.85 165 00:19 03.03.2021
1917 Clouds 23 1007 39 10000 0.85 165 23:34 02.03.2021
1918 Clouds 25 1007 34 10000 1.29 165 22:52 02.03.2021
1919 Clouds 25 1006 33 10000 0.49 183 22:22 02.03.2021
1920 Clouds 25 1006 33 10000 0.49 183 21:51 02.03.2021
1921 Clouds 25 1006 33 10000 0.49 183 21:33 02.03.2021
1922 Clear 26 1006 32 10000 0.72 200 20:56 02.03.2021
1923 Clear 26 1006 32 10000 0.72 200 20:38 02.03.2021
1924 Clear 26 1005 32 10000 0.76 204 20:20 02.03.2021
1925 Clear 26 1005 32 10000 0.76 204 19:46 02.03.2021
1926 Haze 28 1007 65 5000 2.06 240 19:28 02.03.2021
1927 Haze 28 1007 65 5000 2.06 240 18:42 02.03.2021
1928 Haze 30 1006 58 5000 0.5 339 18:21 02.03.2021
1929 Haze 30 1006 58 5000 0.5 339 17:57 02.03.2021
1930 Haze 30 1006 58 5000 0.5 339 17:39 02.03.2021
1931 Haze 34 1006 31 5000 2.06 70 17:19 02.03.2021
1932 Haze 34 1006 31 5000 2.06 70 16:44 02.03.2021
1933 Clouds 38 1002 15 10000 1.67 15 15:54 02.03.2021
1934 Clouds 38 1002 13 10000 2.04 16 15:27 02.03.2021
1935 Clouds 38 1002 13 10000 2.04 16 14:49 02.03.2021
1936 Clouds 39 1003 12 10000 2.01 19 14:18 02.03.2021
1937 Clouds 39 1003 12 10000 2.01 19 14:18 02.03.2021
1938 Clouds 39 1003 12 10000 2.01 19 13:44 02.03.2021
1939 Clouds 39 1005 11 10000 1.89 16 13:23 02.03.2021
1940 Clouds 40 1005 13 10000 1.37 4 12:45 02.03.2021
1941 Haze 33 1009 40 5000 3.09 360 12:25 02.03.2021
1942 Haze 33 1009 40 5000 3.09 360 11:45 02.03.2021
1943 Haze 33 1009 40 5000 3.09 360 11:22 02.03.2021
1944 Clouds 38 1009 19 10000 1.21 2 10:49 02.03.2021
1945 Clouds 37 1009 29 10000 0.39 351 10:25 02.03.2021
1946 Clouds 37 1009 29 10000 0.39 351 09:41 02.03.2021
1947 Haze 26 1010 83 5000 2.06 20 09:22 02.03.2021
1948 Clouds 34 1010 38 10000 0.3 175 08:43 02.03.2021
1949 Mist 25 1009 88 3000 2.06 340 08:25 02.03.2021
1950 Mist 25 1009 88 3000 2.06 340 07:41 02.03.2021
1951 Clouds 25 1009 59 10000 0.84 52 06:37 02.03.2021
1952 Clouds 25 1008 58 10000 0.64 115 05:47 02.03.2021
1953 Clouds 25 1007 53 10000 1.06 151 05:29 02.03.2021
1954 Clouds 25 1006 50 10000 0.52 176 02:35 02.03.2021
1955 Clouds 24 1006 52 10000 0.45 355 01:42 02.03.2021
1956 Clouds 25 1006 49 10000 0.61 209 01:18 02.03.2021
1957 Clouds 26 1006 48 10000 1.11 180 23:29 01.03.2021
1958 Clouds 26 1006 48 10000 1.11 180 22:43 01.03.2021
1959 Clouds 26 1006 47 10000 0.09 235 22:24 01.03.2021
1960 Clouds 26 1006 47 10000 0.09 235 21:52 01.03.2021
1961 Clouds 28 1006 42 10000 0.77 222 21:24 01.03.2021
1962 Clouds 28 1006 42 10000 0.77 222 20:55 01.03.2021
1963 Clouds 28 1006 42 10000 0.77 222 20:37 01.03.2021
1964 Clouds 29 1005 38 10000 0.6 170 20:18 01.03.2021
1965 Clouds 29 1005 40 10000 0.98 176 19:41 01.03.2021
1966 Clouds 29 1003 39 10000 0.93 144 19:18 01.03.2021
1967 Clouds 29 1003 39 10000 0.93 144 18:37 01.03.2021
1968 Clouds 31 1002 36 10000 1.05 95 18:19 01.03.2021
1969 Clouds 31 1002 36 10000 1.05 95 17:42 01.03.2021
1970 Clouds 36 1004 41 6000 2.06 50 17:19 01.03.2021
1971 Clouds 34 1001 33 10000 0.88 93 16:45 01.03.2021
1972 Clear 38 1001 21 10000 1.91 73 16:26 01.03.2021
1973 Clear 38 1001 21 10000 1.91 73 15:42 01.03.2021
1974 Clear 39 1001 20 10000 2.09 68 15:21 01.03.2021
1975 Clear 39 1001 20 10000 2.09 68 14:49 01.03.2021
1976 Clear 39 1001 20 10000 2.09 68 14:30 01.03.2021
1977 Clear 39 1001 19 10000 2.37 58 13:44 01.03.2021
1978 Clear 39 1003 18 10000 2.32 53 13:25 01.03.2021
1979 Clear 39 1003 18 10000 2.32 53 12:59 01.03.2021
1980 Clear 39 1003 18 10000 2.32 53 12:40 01.03.2021
1981 Clear 39 1005 19 10000 1.83 60 12:19 01.03.2021
1982 Clear 39 1005 19 10000 1.83 60 11:42 01.03.2021
1983 Clear 38 1007 22 10000 1.31 67 10:45 01.03.2021
1984 Clear 36 1008 30 10000 1.26 112 10:23 01.03.2021
1985 Clear 36 1008 30 10000 1.26 112 09:59 01.03.2021
1986 Clear 36 1008 30 10000 1.26 112 09:41 01.03.2021
1987 Clear 32 1009 39 10000 1.56 123 09:21 01.03.2021
1988 Clear 32 1009 39 10000 1.56 123 08:52 01.03.2021
1989 Clear 29 1009 49 10000 1.63 123 08:21 01.03.2021
1990 Clouds 25 1009 61 10000 1.28 115 06:54 01.03.2021
1991 Clouds 22 1008 73 10000 0.86 126 05:39 01.03.2021
1992 Clear 23 1006 66 10000 0.64 166 01:48 01.03.2021
1993 Clear 23 1006 62 10000 0.87 164 23:40 28.02.2021
1994 Clear 24 1006 60 10000 0.92 172 22:52 28.02.2021
1995 Clear 25 1007 58 10000 1.14 179 22:25 28.02.2021
1996 Clear 25 1007 58 10000 1.14 179 21:54 28.02.2021
1997 Clear 25 1007 58 10000 1.14 179 21:32 28.02.2021
1998 Clear 25 1007 57 10000 1.11 188 20:58 28.02.2021
1999 Clear 25 1007 57 10000 1.11 188 20:38 28.02.2021
2000 Clear 26 1006 57 10000 0.48 166 19:57 28.02.2021
2001 Clear 26 1006 57 10000 0.48 166 19:38 28.02.2021
2002 Clouds 27 1005 51 10000 1.31 168 19:20 28.02.2021
2003 Clouds 27 1005 51 10000 1.31 168 18:43 28.02.2021
2004 Haze 32 1006 58 5000 1.26 170 18:24 28.02.2021
2005 Haze 32 1006 58 5000 1.26 170 17:48 28.02.2021
2006 Haze 32 1006 58 5000 1.15 181 17:28 28.02.2021
2007 Haze 33 1006 52 5000 3.09 180 16:54 28.02.2021
2008 Haze 33 1006 52 5000 3.09 180 16:36 28.02.2021
2009 Haze 34 1006 52 5000 3.09 180 15:57 28.02.2021
2010 Haze 34 1006 52 5000 3.09 180 15:37 28.02.2021
2011 Clouds 33 1006 58 6000 3.09 120 15:18 28.02.2021
2012 Clouds 33 1006 58 6000 3.09 120 14:48 28.02.2021
2013 Clouds 33 1006 58 6000 3.09 120 14:25 28.02.2021
2014 Clouds 33 1007 55 8000 3.09 160 13:52 28.02.2021
2015 Clear 38 1004 25 10000 0.71 41 13:20 28.02.2021
2016 Clear 38 1004 25 10000 0.71 41 12:56 28.02.2021
2017 Clouds 31 1010 66 8000 3.09 140 12:37 28.02.2021
2018 Clouds 31 1010 66 8000 3.09 140 12:19 28.02.2021
2019 Clouds 31 1010 66 8000 3.09 140 11:44 28.02.2021
2020 Clouds 30 1015 70 8000 3.09 240 11:25 28.02.2021
2021 Clouds 30 1015 70 8000 3.09 240 10:54 28.02.2021
2022 Clouds 30 1015 70 8000 3.09 240 10:28 28.02.2021
2023 Clear 36 1009 38 10000 0.35 156 09:51 28.02.2021
2024 Clear 36 1009 38 10000 0.35 156 09:32 28.02.2021
2025 Clear 33 1010 46 10000 0.63 40 08:50 28.02.2021
2026 Clear 33 1010 46 10000 0.63 40 08:31 28.02.2021
2027 Clouds 29 1011 58 10000 1.28 51 07:54 28.02.2021
2028 Clear 29 1011 58 10000 0.97 59 07:36 28.02.2021
2029 Clear 26 1010 71 10000 1.02 93 06:43 28.02.2021
2030 Clear 22 1008 84 10000 1.05 161 05:24 28.02.2021
2031 Clear 22 1007 82 10000 1.1 174 03:40 28.02.2021
2032 Clear 23 1007 78 10000 0.6 209 01:44 28.02.2021
2033 Clouds 23 1007 78 10000 0.74 230 00:52 28.02.2021
2034 Clouds 23 1007 78 10000 0.74 230 00:34 28.02.2021
2035 Clouds 23 1007 75 10000 0.89 267 23:45 27.02.2021
2036 Clouds 24 1008 71 10000 0.81 269 23:19 27.02.2021
2037 Clouds 24 1008 71 10000 0.81 269 22:45 27.02.2021
2038 Haze 26 1010 83 5000 2.06 0 22:21 27.02.2021
2039 Haze 26 1010 83 5000 2.06 0 21:46 27.02.2021
2040 Haze 26 1010 83 5000 2.06 0 21:24 27.02.2021
2041 Haze 27 1010 78 5000 2.06 120 20:49 27.02.2021
2042 Haze 27 1010 78 5000 2.06 120 20:28 27.02.2021
2043 Haze 28 1009 74 5000 2.06 120 19:46 27.02.2021
2044 Haze 28 1009 74 5000 2.06 120 19:27 27.02.2021
2045 Clouds 26 1006 59 10000 0.95 264 18:46 27.02.2021
2046 Haze 32 1007 58 5000 2.06 180 18:22 27.02.2021
2047 Haze 32 1007 58 5000 2.06 180 17:58 27.02.2021
2048 Haze 32 1007 58 5000 2.06 180 17:38 27.02.2021
2049 Haze 32 1007 58 5000 2.06 180 17:19 27.02.2021
2050 Haze 32 1007 58 5000 2.06 180 16:49 27.02.2021
2051 Haze 32 1007 58 5000 2.06 180 16:27 27.02.2021
2052 Clouds 32 1008 58 6000 2.06 220 15:44 27.02.2021
2053 Clouds 36 1004 28 10000 0.29 28 15:18 27.02.2021
2054 Clouds 36 1004 28 10000 0.29 28 14:40 27.02.2021
2055 Clouds 32 1009 55 6000 1.54 180 14:21 27.02.2021
2056 Clouds 32 1009 55 6000 1.54 180 13:40 27.02.2021
2057 Clouds 31 1011 62 8000 3.09 180 13:19 27.02.2021
2058 Clouds 31 1011 62 8000 3.09 180 12:45 27.02.2021
2059 Clouds 31 1011 62 8000 3.09 180 12:22 27.02.2021
2060 Clear 36 1008 29 10000 1.85 207 11:46 27.02.2021
2061 Clear 35 1010 34 10000 1.78 207 11:27 27.02.2021
2062 Clear 35 1010 34 10000 1.78 207 10:50 27.02.2021
2063 Clear 35 1010 34 10000 1.78 207 10:32 27.02.2021
2064 Clouds 33 1011 38 10000 1.54 206 09:52 27.02.2021
2065 Haze 25 1013 83 5000 4.12 180 09:31 27.02.2021
2066 Haze 25 1013 83 5000 4.12 180 08:43 27.02.2021
2067 Haze 25 1013 83 5000 4.12 180 08:22 27.02.2021
2068 Mist 23 1012 88 4000 2.06 180 07:43 27.02.2021
2069 Clouds 23 1012 60 10000 1.32 155 06:33 27.02.2021
2070 Clear 21 1007 60 10000 0.79 191 01:22 27.02.2021
2071 Clear 22 1008 53 10000 0.96 167 00:26 27.02.2021
2072 Clear 22 1008 53 10000 0.96 167 23:40 26.02.2021
2073 Clear 22 1008 50 10000 0.86 185 23:20 26.02.2021
2074 Clear 22 1008 50 10000 0.86 185 22:33 26.02.2021
2075 Clear 23 1008 48 10000 0.94 169 21:53 26.02.2021
2076 Haze 26 1009 69 4000 0.94 169 21:35 26.02.2021
2077 Haze 26 1009 69 4000 0.97 161 20:45 26.02.2021
2078 Haze 26 1009 69 4000 0.98 135 20:25 26.02.2021
2079 Clear 24 1007 40 10000 0.98 135 19:53 26.02.2021
2080 Haze 28 1008 69 5000 1.54 0 19:26 26.02.2021
2081 Haze 28 1008 69 5000 1.54 0 18:49 26.02.2021
2082 Haze 31 1007 51 5000 1.54 0 18:24 26.02.2021
2083 Haze 31 1007 51 5000 1.54 0 17:48 26.02.2021
2084 Haze 31 1007 51 5000 1.54 0 17:30 26.02.2021
2085 Clear 31 1004 30 10000 1.22 44 16:57 26.02.2021
2086 Clouds 33 1007 40 6000 2.06 240 16:38 26.02.2021
2087 Clouds 33 1007 40 6000 2.06 240 16:20 26.02.2021
2088 Clear 36 1004 18 10000 1.78 41 15:43 26.02.2021
2089 Clear 37 1004 16 10000 1.35 43 15:23 26.02.2021
2090 Clear 37 1004 16 10000 1.35 43 14:51 26.02.2021
2091 Clear 37 1004 16 10000 1.35 43 14:32 26.02.2021
2092 Clear 38 1004 16 10000 1.55 27 13:49 26.02.2021
2093 Clear 38 1004 16 10000 1.55 27 13:30 26.02.2021
2094 Clear 38 1006 16 10000 1.65 23 12:48 26.02.2021
2095 Clear 32 1011 48 6000 3.09 300 12:26 26.02.2021
2096 Clear 32 1011 48 6000 3.09 300 11:40 26.02.2021
2097 Clear 36 1009 20 10000 1.78 21 10:55 26.02.2021
2098 Clear 34 1011 24 10000 1.31 33 10:24 26.02.2021
2099 Clear 34 1011 24 10000 1.31 33 09:47 26.02.2021
2100 Haze 24 1013 83 5000 0.71 27 09:27 26.02.2021
2101 Clear 32 1012 29 10000 0.71 27 08:35 26.02.2021
2102 Clear 28 1012 37 10000 0.8 46 07:56 26.02.2021
2103 Clear 23 1012 50 10000 0.66 118 07:22 26.02.2021
2104 Clear 23 1012 50 10000 0.66 118 06:31 26.02.2021
2105 Clear 20 1009 53 10000 0.66 122 04:59 26.02.2021
2106 Clear 20 1007 50 10000 0.53 239 02:38 26.02.2021
2107 Clear 21 1008 51 10000 0.49 300 00:33 26.02.2021
2108 Clear 22 1008 50 10000 0.36 260 23:39 25.02.2021
2109 Clear 22 1008 49 10000 0.52 237 22:58 25.02.2021
2110 Clear 22 1008 49 10000 0.52 237 22:38 25.02.2021
2111 Clear 23 1008 47 10000 0.49 254 21:51 25.02.2021
2112 Clear 23 1008 47 10000 0.49 254 21:32 25.02.2021
2113 Clear 24 1008 45 10000 0.39 161 20:55 25.02.2021
2114 Clear 24 1008 45 10000 0.39 161 20:37 25.02.2021
2115 Clear 24 1007 43 10000 0.39 66 20:18 25.02.2021
2116 Clear 24 1007 43 10000 0.39 66 19:46 25.02.2021
2117 Clouds 26 1006 42 10000 0.72 50 19:19 25.02.2021
2118 Clouds 26 1006 42 10000 0.72 50 18:44 25.02.2021
2119 Clouds 27 1005 40 10000 0.66 20 18:18 25.02.2021
2120 Clouds 27 1005 40 10000 0.66 20 17:35 25.02.2021
2121 Clouds 31 1004 37 10000 0.79 3 16:59 25.02.2021
2122 Clouds 31 1004 37 10000 0.79 3 16:33 25.02.2021
2123 Clouds 35 1004 24 10000 1.94 18 15:51 25.02.2021
2124 Clouds 36 1003 22 10000 2.39 22 15:28 25.02.2021
2125 Clouds 36 1003 22 10000 2.39 22 14:40 25.02.2021
2126 Clouds 37 1004 22 10000 2.33 19 14:20 25.02.2021
2127 Clouds 37 1004 22 10000 2.33 19 13:41 25.02.2021
2128 Clouds 37 1006 22 10000 2.12 14 13:20 25.02.2021
2129 Clouds 37 1006 22 10000 2.12 14 12:39 25.02.2021
2130 Clouds 36 1007 25 10000 2.16 9 12:20 25.02.2021
2131 Clouds 36 1007 25 10000 2.16 9 11:43 25.02.2021
2132 Clouds 35 1009 30 10000 2.12 7 10:54 25.02.2021
2133 Clouds 35 1009 30 10000 2.12 6 10:36 25.02.2021
2134 Clouds 35 1010 41 10000 0.82 37 09:50 25.02.2021
2135 Clouds 32 1011 51 10000 0.62 85 09:28 25.02.2021
2136 Clouds 32 1011 51 10000 0.62 85 08:46 25.02.2021
2137 Clouds 28 1011 63 10000 1.04 98 08:21 25.02.2021
2138 Clouds 28 1011 63 10000 1.04 98 07:42 25.02.2021
2139 Clouds 24 1011 75 10000 0.71 109 06:58 25.02.2021
2140 Clouds 21 1010 90 10000 0.55 107 05:29 25.02.2021
2141 Clouds 22 1008 84 10000 1.07 163 01:50 25.02.2021
2142 Clouds 22 1008 80 10000 1.12 159 00:48 25.02.2021
2143 Clouds 22 1009 77 10000 1.09 157 00:20 25.02.2021
2144 Clouds 22 1009 77 10000 1.09 157 23:40 24.02.2021
2145 Clouds 23 1009 73 10000 0.95 163 22:56 24.02.2021
2146 Clouds 23 1009 73 10000 0.95 163 22:30 24.02.2021
2147 Clouds 24 1009 70 10000 0.88 176 21:52 24.02.2021
2148 Clouds 24 1009 70 10000 0.88 176 21:33 24.02.2021
2149 Clouds 24 1009 68 10000 0.73 170 20:50 24.02.2021
2150 Clouds 25 1009 66 10000 0.9 136 20:28 24.02.2021
2151 Clouds 25 1009 66 10000 0.9 136 19:47 24.02.2021
2152 Clouds 26 1009 63 10000 1.26 138 19:21 24.02.2021
2153 Clouds 26 1009 63 10000 1.26 138 18:54 24.02.2021
2154 Clouds 26 1009 63 10000 1.26 138 18:32 24.02.2021
2155 Clouds 27 1008 60 10000 1.17 128 17:45 24.02.2021
2156 Clouds 29 1007 54 10000 0.95 117 17:25 24.02.2021
2157 Clouds 29 1007 54 10000 0.95 117 16:48 24.02.2021
2158 Clouds 32 1006 46 10000 0.66 69 16:21 24.02.2021
2159 Clouds 32 1006 46 10000 0.66 69 15:55 24.02.2021
2160 Clouds 32 1006 46 10000 0.66 69 15:34 24.02.2021
2161 Clouds 33 1006 42 10000 0.76 56 14:50 24.02.2021
2162 Clouds 33 1007 40 10000 1.02 58 14:29 24.02.2021
2163 Clouds 33 1007 40 10000 1.02 58 13:44 24.02.2021
2164 Clouds 32 1008 45 10000 1.23 53 13:24 24.02.2021
2165 Clouds 32 1008 45 10000 1.23 53 12:58 24.02.2021
2166 Clouds 35 1008 37 10000 0.53 337 12:38 24.02.2021
2167 Clouds 35 1010 38 10000 0.55 52 12:20 24.02.2021
2168 Clouds 35 1010 38 10000 0.55 52 11:33 24.02.2021
2169 Clouds 34 1011 43 10000 0.85 88 10:43 24.02.2021
2170 Clouds 31 1012 51 10000 0.9 122 10:24 24.02.2021
2171 Clouds 31 1012 51 10000 0.9 122 09:30 24.02.2021
2172 Clouds 27 1013 64 10000 0.85 134 08:50 24.02.2021
2173 Clouds 27 1013 64 10000 0.85 134 08:32 24.02.2021
2174 Clouds 25 1013 78 10000 0.78 153 07:38 24.02.2021
2175 Clouds 23 1013 89 10000 0.9 162 07:18 24.02.2021
2176 Clouds 21 1012 95 10000 0.99 198 05:26 24.02.2021
2177 Clouds 21 1010 98 10000 0.27 179 01:59 24.02.2021
2178 Clouds 21 1011 90 10000 1.09 206 23:39 23.02.2021
2179 Clouds 21 1011 90 10000 1.39 194 22:46 23.02.2021
2180 Clouds 21 1012 91 10000 1.28 210 22:23 23.02.2021
2181 Clouds 21 1012 91 10000 1.28 210 21:48 23.02.2021
2182 Clouds 22 1012 90 10000 1.2 223 21:25 23.02.2021
2183 Clouds 22 1012 90 10000 1.2 223 20:57 23.02.2021
2184 Clouds 22 1012 90 10000 1.2 223 20:37 23.02.2021
2185 Clouds 22 1011 87 10000 2.02 246 20:19 23.02.2021
2186 Clouds 22 1011 87 10000 2.02 246 19:42 23.02.2021
2187 Clouds 23 1009 82 10000 1.19 208 19:24 23.02.2021
2188 Clouds 23 1009 82 10000 1.19 208 18:44 23.02.2021
2189 Clouds 24 1008 78 10000 2.5 194 18:24 23.02.2021
2190 Clouds 24 1008 78 10000 2.5 194 17:51 23.02.2021
2191 Clouds 25 1006 73 10000 2.59 186 17:27 23.02.2021
2192 Clouds 25 1006 73 10000 2.59 186 16:45 23.02.2021
2193 Rain 27 1005 63 10000 2.83 217 16:23 23.02.2021
2194 Rain 27 1005 63 10000 2.83 217 15:49 23.02.2021
2195 Clouds 30 1005 50 10000 2.11 357 15:29 23.02.2021
2196 Clouds 30 1005 50 10000 2.11 357 14:50 23.02.2021
2197 Clouds 34 1006 36 10000 0.97 15 14:28 23.02.2021
2198 Clouds 34 1006 36 10000 0.97 15 13:59 23.02.2021
2199 Clouds 34 1006 36 10000 0.97 15 13:35 23.02.2021
2200 Clouds 36 1007 31 10000 1.05 345 12:57 23.02.2021
2201 Clouds 38 1008 30 10000 0.97 359 12:28 23.02.2021
2202 Clouds 38 1008 30 10000 0.97 359 11:58 23.02.2021
2203 Clouds 38 1010 33 10000 0.22 295 11:28 23.02.2021
2204 Clouds 38 1010 33 10000 0.22 295 10:56 23.02.2021
2205 Clouds 38 1010 33 10000 0.22 295 10:38 23.02.2021
2206 Clouds 34 1011 43 10000 1.37 193 09:58 23.02.2021
2207 Clouds 34 1011 43 10000 1.37 193 09:38 23.02.2021
2208 Clouds 31 1011 52 10000 1.48 193 09:20 23.02.2021
2209 Clouds 31 1011 52 10000 1.48 193 09:20 23.02.2021
2210 Clouds 31 1011 52 10000 1.48 193 08:44 23.02.2021
2211 Clouds 28 1012 63 10000 1.4 185 08:20 23.02.2021
2212 Clouds 25 1012 75 10000 1.39 176 06:52 23.02.2021
2213 Clouds 22 1010 86 10000 0.97 182 05:25 23.02.2021
2214 Clouds 22 1009 80 10000 0.88 200 02:37 23.02.2021
2215 Clouds 23 1009 77 10000 0.88 157 01:55 23.02.2021
2216 Clouds 24 1009 72 10000 1.1 159 00:19 23.02.2021
2217 Clouds 24 1009 72 10000 1.1 159 23:30 22.02.2021
2218 Clouds 25 1010 69 10000 0.82 169 22:42 22.02.2021
2219 Clouds 25 1009 66 10000 0.56 128 22:22 22.02.2021
2220 Clouds 25 1009 66 10000 0.56 128 21:57 22.02.2021
2221 Clouds 25 1009 66 10000 0.56 128 21:38 22.02.2021
2222 Clouds 27 1009 58 10000 1.21 148 21:19 22.02.2021
2223 Clouds 27 1009 58 10000 1.21 148 20:43 22.02.2021
2224 Clouds 28 1008 54 10000 2.23 160 20:24 22.02.2021
2225 Clouds 28 1008 54 10000 2.23 160 19:44 22.02.2021
2226 Clouds 29 1007 51 10000 1.12 168 19:26 22.02.2021
2227 Clouds 29 1007 51 10000 1.12 168 18:47 22.02.2021
2228 Clouds 29 1006 51 10000 0.85 192 18:29 22.02.2021
2229 Clouds 29 1006 51 10000 0.85 192 17:48 22.02.2021
2230 Clouds 29 1005 51 10000 1.06 208 17:19 22.02.2021
2231 Clouds 29 1005 51 10000 1.06 208 16:48 22.02.2021
2232 Clouds 32 1005 44 10000 0.79 227 16:25 22.02.2021
2233 Clouds 32 1005 44 10000 0.79 227 15:31 22.02.2021
2234 Clouds 35 1005 32 10000 0.12 214 14:50 22.02.2021
2235 Clouds 35 1005 32 10000 0.12 214 14:32 22.02.2021
2236 Clouds 38 1005 27 10000 0.53 57 13:51 22.02.2021
2237 Clouds 39 1006 26 10000 0.78 53 13:29 22.02.2021
2238 Clouds 39 1006 26 10000 0.78 53 12:47 22.02.2021
2239 Clouds 38 1008 29 10000 0.73 96 12:22 22.02.2021
2240 Clouds 38 1008 29 10000 0.73 96 12:22 22.02.2021
2241 Clouds 38 1008 29 10000 0.73 96 11:48 22.02.2021
2242 Clouds 36 1010 34 10000 1.28 121 11:28 22.02.2021
2243 Clouds 36 1010 34 10000 1.28 121 10:50 22.02.2021
2244 Clouds 36 1010 34 10000 1.28 121 10:32 22.02.2021
2245 Clouds 33 1011 40 10000 1.5 137 09:57 22.02.2021
2246 Clouds 33 1011 40 10000 1.5 137 09:36 22.02.2021
2247 Clouds 30 1012 49 10000 1.5 150 09:18 22.02.2021
2248 Clouds 30 1012 49 10000 1.5 150 08:40 22.02.2021
2249 Clouds 27 1012 62 10000 1.04 159 08:19 22.02.2021
2250 Clouds 23 1012 82 10000 0.77 170 07:28 22.02.2021
2251 Clouds 23 1012 80 10000 0.82 165 06:47 22.02.2021
2252 Clouds 20 1012 89 10000 0.99 182 06:23 22.02.2021
2253 Clouds 20 1010 88 10000 0.74 183 03:48 22.02.2021
2254 Rain 21 1010 85 10000 0.32 278 02:55 22.02.2021
2255 Clouds 22 1010 76 10000 0.97 136 00:49 22.02.2021
2256 Clouds 23 1010 76 10000 1 151 00:26 22.02.2021
2257 Clouds 23 1010 76 10000 1 151 23:48 21.02.2021
2258 Clouds 23 1010 76 10000 1.21 182 22:55 21.02.2021
2259 Clouds 23 1010 74 10000 1.25 170 22:25 21.02.2021
2260 Clouds 23 1010 74 10000 1.25 170 21:50 21.02.2021
2261 Clouds 23 1010 74 10000 1.25 170 21:30 21.02.2021
2262 Clouds 24 1010 70 10000 1.39 147 20:50 21.02.2021
2263 Clouds 25 1009 65 10000 1.51 150 20:21 21.02.2021
2264 Clouds 25 1009 65 10000 1.51 150 19:59 21.02.2021
2265 Clouds 25 1009 65 10000 1.51 150 19:39 21.02.2021
2266 Clouds 26 1009 52 10000 1.06 135 19:20 21.02.2021
2267 Clouds 26 1007 51 10000 0.36 109 18:28 21.02.2021
2268 Clouds 26 1007 51 10000 0.36 109 17:47 21.02.2021
2269 Clouds 29 1006 47 10000 0.56 41 17:21 21.02.2021
2270 Clouds 29 1006 47 10000 0.56 41 16:50 21.02.2021
2271 Clouds 31 1010 55 8000 3.09 180 16:29 21.02.2021
2272 Clouds 31 1010 55 8000 3.09 180 15:26 21.02.2021
2273 Clouds 31 1011 58 8000 3.09 120 14:59 21.02.2021
2274 Clouds 31 1011 58 8000 3.09 120 14:39 21.02.2021
2275 Clouds 31 1012 55 8000 3.09 120 13:59 21.02.2021
2276 Clouds 30 1013 62 8000 4.12 190 13:29 21.02.2021
2277 Clouds 30 1013 62 8000 4.12 190 12:50 21.02.2021
2278 Clouds 29 1014 70 8000 4.12 120 12:26 21.02.2021
2279 Clouds 29 1014 70 8000 4.12 120 11:42 21.02.2021
2280 Clouds 35 1011 36 10000 0.52 56 10:50 21.02.2021
2281 Clouds 32 1012 44 10000 0.73 132 10:22 21.02.2021
2282 Clouds 32 1012 44 10000 0.73 132 09:51 21.02.2021
2283 Clouds 29 1013 53 10000 0.95 159 09:26 21.02.2021
2284 Clouds 29 1013 53 10000 0.95 159 08:43 21.02.2021
2285 Clouds 24 1013 70 10000 0.82 162 08:19 21.02.2021
2286 Clouds 22 1013 81 10000 0.62 163 07:28 21.02.2021
2287 Clouds 23 1013 78 10000 1.12 159 06:45 21.02.2021
2288 Clouds 20 1011 94 10000 1.08 175 02:44 21.02.2021
2289 Clouds 21 1012 92 10000 1.15 178 01:59 21.02.2021
2290 Clouds 22 1012 85 10000 1.19 179 00:22 21.02.2021
2291 Clouds 22 1012 85 10000 1.19 179 23:59 20.02.2021
2292 Clouds 23 1012 81 10000 1.43 194 22:58 20.02.2021
2293 Clouds 23 1012 81 10000 1.43 194 22:34 20.02.2021
2294 Clouds 24 1012 78 10000 1.12 190 21:59 20.02.2021
2295 Clouds 24 1012 78 10000 1.12 190 21:41 20.02.2021
2296 Clouds 22 1012 86 10000 0.81 138 21:18 20.02.2021
2297 Clouds 22 1012 86 10000 0.8 139 20:42 20.02.2021
2298 Clouds 23 1012 84 10000 1 160 20:20 20.02.2021
2299 Clouds 23 1012 84 10000 1 160 19:48 20.02.2021
2300 Clouds 23 1011 80 10000 1.29 173 18:58 20.02.2021
2301 Clouds 23 1011 80 10000 1.29 173 18:37 20.02.2021
2302 Clouds 25 1010 73 10000 1.64 173 18:18 20.02.2021
2303 Clouds 25 1010 73 10000 1.64 173 17:36 20.02.2021
2304 Clouds 28 1009 61 10000 1.76 175 16:50 20.02.2021
2305 Clouds 30 1009 47 10000 1.27 199 16:27 20.02.2021
2306 Clouds 30 1009 47 10000 1.27 199 15:44 20.02.2021
2307 Clouds 32 1008 40 10000 0.86 237 14:53 20.02.2021
2308 Clouds 32 1009 39 10000 0.98 271 14:29 20.02.2021
2309 Clouds 32 1009 39 10000 0.98 271 13:59 20.02.2021
2310 Clouds 32 1009 39 10000 0.98 271 13:40 20.02.2021
2311 Clouds 34 1010 36 10000 1.31 267 13:22 20.02.2021
2312 Haze 27 1015 65 4000 3.09 120 12:47 20.02.2021
2313 Haze 27 1015 65 4000 3.09 120 11:56 20.02.2021
2314 Haze 27 1015 65 4000 3.09 120 11:38 20.02.2021
2315 Clouds 32 1013 43 10000 1.17 206 10:55 20.02.2021
2316 Clouds 32 1013 43 10000 1.17 206 10:32 20.02.2021
2317 Clouds 28 1013 53 10000 1.01 171 09:48 20.02.2021
2318 Clouds 24 1014 71 10000 0.59 150 09:18 20.02.2021
2319 Clouds 24 1014 71 10000 0.59 150 08:31 20.02.2021
2320 Clouds 23 1014 73 10000 0.71 136 07:54 20.02.2021
2321 Clouds 21 1011 77 10000 0.45 107 02:45 20.02.2021
2322 Clouds 21 1010 76 10000 0.51 143 02:21 20.02.2021
2323 Clouds 22 1011 76 10000 0.63 143 01:22 20.02.2021
2324 Clouds 22 1011 76 10000 0.47 146 00:45 20.02.2021
2325 Clouds 22 1012 75 10000 0.48 167 23:45 19.02.2021
2326 Clouds 22 1012 74 10000 0.7 188 22:56 19.02.2021
2327 Clouds 22 1012 74 10000 0.53 173 22:26 19.02.2021
2328 Clouds 22 1012 74 10000 0.53 173 21:48 19.02.2021
2329 Clouds 23 1011 73 10000 0.34 164 21:28 19.02.2021
2330 Clouds 23 1011 73 10000 0.34 164 20:47 19.02.2021
2331 Clouds 23 1011 71 10000 0.59 187 20:27 19.02.2021
2332 Clouds 23 1011 71 10000 0.59 187 19:51 19.02.2021
2333 Clouds 24 1010 66 10000 0.74 165 19:23 19.02.2021
2334 Clouds 24 1010 66 10000 0.74 165 18:56 19.02.2021
2335 Clouds 24 1009 64 10000 0.51 233 18:33 19.02.2021
2336 Clouds 25 1009 59 10000 0.6 255 17:48 19.02.2021
2337 Clouds 28 1008 55 10000 0.38 267 16:51 19.02.2021
2338 Clouds 29 1011 65 10000 3.09 340 16:23 19.02.2021
2339 Clouds 29 1011 65 10000 3.09 340 15:57 19.02.2021
2340 Clouds 29 1011 65 10000 3.09 340 15:31 19.02.2021
2341 Clouds 32 1007 36 10000 1.05 310 14:56 19.02.2021
2342 Clouds 32 1007 36 10000 1.05 310 14:36 19.02.2021
2343 Clouds 33 1008 36 10000 1.32 291 13:58 19.02.2021
2344 Clouds 28 1013 69 10000 3.09 50 13:37 19.02.2021
2345 Clouds 28 1013 69 10000 3.09 50 13:19 19.02.2021
2346 Clouds 28 1013 69 10000 3.09 50 12:41 19.02.2021
2347 Clouds 27 1014 74 10000 2.06 340 12:22 19.02.2021
2348 Clouds 28 1011 65 10000 0.83 254 11:44 19.02.2021
2349 Rain 26 1015 78 10000 2.06 30 11:20 19.02.2021
2350 Rain 24 1015 88 8000 0.71 267 10:39 19.02.2021
2351 Rain 24 1015 88 8000 0.25 167 10:19 19.02.2021
2352 Rain 24 1015 88 8000 0.25 167 09:38 19.02.2021
2353 Clouds 27 1013 70 10000 0.68 132 09:19 19.02.2021
2354 Clouds 27 1013 70 10000 0.68 132 08:49 19.02.2021
2355 Clouds 23 1014 85 10000 0.78 132 08:22 19.02.2021
2356 Clouds 23 1014 85 10000 0.78 132 07:47 19.02.2021
2357 Clouds 22 1013 89 10000 0.53 109 07:26 19.02.2021
2358 Clouds 22 1013 89 10000 0.53 109 06:47 19.02.2021
2359 Clouds 21 1011 97 10000 0.65 150 04:44 19.02.2021
2360 Clouds 21 1011 96 10000 0.97 130 04:25 19.02.2021
2361 Clouds 21 1011 95 10000 1.24 155 01:46 19.02.2021
2362 Clouds 20 1010 99 10000 0.94 154 00:36 19.02.2021
2363 Clouds 20 1011 99 10000 1.1 154 23:50 18.02.2021
2364 Clouds 20 1011 99 10000 1.1 154 23:32 18.02.2021
2365 Clouds 20 1012 98 10000 1.22 158 22:44 18.02.2021
2366 Clouds 21 1013 97 10000 1.02 150 22:26 18.02.2021
2367 Clouds 21 1013 97 10000 1.02 150 21:42 18.02.2021
2368 Clouds 21 1013 97 10000 0.6 131 21:24 18.02.2021
2369 Clouds 21 1013 97 10000 0.6 131 20:41 18.02.2021
2370 Clouds 21 1013 97 10000 0.47 123 20:21 18.02.2021
2371 Clouds 21 1013 97 10000 0.47 123 19:46 18.02.2021
2372 Clouds 21 1012 97 10000 0.81 67 19:25 18.02.2021
2373 Clouds 21 1011 95 10000 0.51 60 18:52 18.02.2021
2374 Clouds 22 1010 92 10000 0.89 50 18:27 18.02.2021
2375 Clouds 22 1010 92 10000 0.89 50 17:52 18.02.2021
2376 Clouds 24 1009 83 10000 0.95 72 17:25 18.02.2021
2377 Clouds 24 1009 83 10000 0.95 72 17:25 18.02.2021
2378 Clouds 24 1009 83 10000 0.95 72 16:52 18.02.2021
2379 Clouds 24 1009 83 10000 0.95 72 16:33 18.02.2021
2380 Clouds 24 1008 81 10000 1.09 113 15:44 18.02.2021
2381 Clouds 23 1009 87 10000 0.95 145 15:24 18.02.2021
2382 Clouds 23 1009 87 10000 0.95 145 14:58 18.02.2021
2383 Clouds 23 1009 87 10000 0.95 145 14:36 18.02.2021
2384 Clouds 23 1010 90 10000 1.52 151 13:50 18.02.2021
2385 Clouds 24 1010 82 10000 1.3 166 13:23 18.02.2021
2386 Clouds 24 1010 82 10000 1.3 166 12:57 18.02.2021
2387 Clouds 24 1010 82 10000 1.3 166 12:36 18.02.2021
2388 Clouds 25 1012 75 10000 1.69 170 11:48 18.02.2021
2389 Clouds 24 1013 85 10000 2.41 147 11:28 18.02.2021
2390 Clouds 24 1013 85 10000 2.41 147 10:59 18.02.2021
2391 Clouds 24 1013 85 10000 2.41 147 10:41 18.02.2021
2392 Rain 23 1014 91 10000 2.26 138 10:23 18.02.2021
2393 Rain 23 1014 91 10000 2.26 138 09:39 18.02.2021
2394 Rain 22 1014 95 10000 1.51 120 09:20 18.02.2021
2395 Rain 22 1014 95 10000 1.51 120 08:37 18.02.2021
2396 Clouds 22 1014 95 10000 1.4 135 08:19 18.02.2021
2397 Clouds 22 1014 95 10000 1.4 135 07:30 18.02.2021
2398 Clouds 22 1013 83 10000 2.01 103 06:29 18.02.2021
2399 Clouds 22 1009 88 10000 1.25 139 01:20 18.02.2021
2400 Clouds 22 1010 90 10000 1.52 138 23:48 17.02.2021
2401 Clouds 22 1010 94 10000 1.21 137 23:20 17.02.2021
2402 Clouds 22 1010 94 10000 1.21 137 22:46 17.02.2021
2403 Clouds 22 1011 93 10000 0.89 143 22:22 17.02.2021
2404 Clouds 22 1011 93 10000 0.89 143 21:48 17.02.2021
2405 Clouds 22 1010 93 10000 0.16 174 21:21 17.02.2021
2406 Clouds 22 1010 93 10000 0.16 174 20:45 17.02.2021
2407 Clouds 22 1010 92 10000 0.19 175 20:25 17.02.2021
2408 Clouds 22 1010 92 10000 0.19 175 19:41 17.02.2021
2409 Clouds 23 1009 92 10000 0.76 139 19:22 17.02.2021
2410 Clouds 23 1009 92 10000 0.76 139 18:41 17.02.2021
2411 Clouds 23 1008 88 10000 0.96 110 18:22 17.02.2021
2412 Clouds 23 1008 88 10000 0.96 110 17:40 17.02.2021
2413 Clouds 25 1006 82 10000 0.93 149 17:18 17.02.2021
2414 Clouds 25 1006 82 10000 0.93 149 16:43 17.02.2021
2415 Clouds 26 1005 77 10000 0.97 149 16:22 17.02.2021
2416 Clouds 26 1005 77 10000 0.96 149 15:44 17.02.2021
2417 Clouds 30 1008 62 6000 4.12 200 15:23 17.02.2021
2418 Clouds 30 1008 62 6000 4.12 200 14:46 17.02.2021
2419 Clouds 30 1008 62 6000 4.12 200 14:28 17.02.2021
2420 Clouds 29 1009 65 6000 4.12 180 13:45 17.02.2021
2421 Clouds 29 1009 65 6000 4.12 180 13:27 17.02.2021
2422 Clouds 26 1008 72 10000 1.69 148 12:47 17.02.2021
2423 Clouds 26 1009 71 10000 1.94 160 12:23 17.02.2021
2424 Clouds 26 1009 71 10000 1.94 160 11:42 17.02.2021
2425 Clouds 27 1011 69 6000 3.09 180 11:19 17.02.2021
2426 Clouds 27 1010 72 10000 2.16 170 10:45 17.02.2021
2427 Clouds 27 1011 69 6000 2.06 180 10:25 17.02.2021
2428 Clouds 27 1011 69 6000 2.06 180 09:45 17.02.2021
2429 Clouds 25 1011 82 10000 1.79 161 09:25 17.02.2021
2430 Clouds 25 1011 82 10000 1.79 161 08:43 17.02.2021
2431 Clouds 24 1011 91 10000 1.57 153 08:22 17.02.2021
2432 Clouds 25 1010 87 10000 1.23 166 07:34 17.02.2021
2433 Clouds 24 1010 90 10000 1.14 221 06:35 17.02.2021
2434 Rain 23 1008 95 10000 0.83 143 02:42 17.02.2021
2435 Rain 23 1008 94 10000 1.46 141 02:21 17.02.2021
2436 Clouds 23 1008 94 10000 1.06 116 00:33 17.02.2021
2437 Clouds 23 1009 94 10000 1.04 123 23:57 16.02.2021
2438 Clouds 23 1009 94 10000 1.04 123 23:38 16.02.2021
2439 Rain 23 1009 93 10000 0.66 57 22:44 16.02.2021
2440 Rain 23 1009 90 10000 0.61 330 22:25 16.02.2021
2441 Rain 23 1009 90 10000 0.61 330 22:25 16.02.2021
2442 Rain 23 1009 90 10000 0.61 330 21:57 16.02.2021
2443 Rain 23 1009 90 10000 0.61 330 21:39 16.02.2021
2444 Clouds 23 1008 88 10000 0.83 192 21:20 16.02.2021
2445 Clouds 23 1008 88 10000 0.83 192 20:42 16.02.2021
2446 Rain 24 1007 87 10000 0.74 231 20:20 16.02.2021
2447 Rain 24 1007 87 10000 0.74 231 19:44 16.02.2021
2448 Clouds 26 1006 72 10000 1.03 257 19:25 16.02.2021
2449 Clouds 26 1006 72 10000 1.03 257 18:41 16.02.2021
2450 Clouds 27 1005 67 10000 1.24 338 18:22 16.02.2021
2451 Clouds 27 1005 67 10000 1.24 338 17:53 16.02.2021
2452 Clouds 30 1003 56 10000 1.7 343 17:27 16.02.2021
2453 Clouds 30 1003 56 10000 1.7 343 16:52 16.02.2021
2454 Clouds 30 1003 56 10000 1.7 343 16:52 16.02.2021
2455 Clouds 33 1002 43 10000 0.24 177 16:30 16.02.2021
2456 Clouds 33 1002 43 10000 0.24 177 15:53 16.02.2021
2457 Clouds 33 1002 43 10000 0.24 177 15:32 16.02.2021
2458 Clouds 34 1002 39 10000 1.29 164 14:57 16.02.2021
2459 Clouds 34 1002 39 10000 1.29 164 14:38 16.02.2021
2460 Clouds 35 1003 37 10000 1.71 165 14:19 16.02.2021
2461 Clouds 35 1003 37 10000 1.71 165 13:38 16.02.2021
2462 Clouds 35 1005 39 10000 1.86 173 12:52 16.02.2021
2463 Clouds 33 1007 46 10000 1.89 189 12:29 16.02.2021
2464 Clouds 33 1007 46 10000 1.89 189 11:58 16.02.2021
2465 Clouds 33 1007 46 10000 1.89 189 11:38 16.02.2021
2466 Clouds 32 1008 52 10000 2.02 183 11:19 16.02.2021
2467 Clouds 32 1008 52 10000 2.02 183 10:45 16.02.2021
2468 Clouds 31 1009 55 10000 1.75 194 10:26 16.02.2021
2469 Clouds 31 1009 55 10000 1.75 194 09:50 16.02.2021
2470 Clouds 30 1009 57 10000 1.77 214 09:26 16.02.2021
2471 Clouds 30 1009 57 10000 1.77 214 08:51 16.02.2021
2472 Clouds 27 1009 68 10000 1.55 213 08:26 16.02.2021
2473 Clouds 27 1009 68 10000 1.55 213 07:42 16.02.2021
2474 Clouds 24 1009 81 10000 0.69 187 06:49 16.02.2021
2475 Clouds 22 1006 89 10000 0.93 174 02:38 16.02.2021
2476 Clouds 23 1008 89 10000 1.65 158 23:52 15.02.2021
2477 Clouds 23 1008 88 10000 1.34 127 23:27 15.02.2021
2478 Clouds 23 1008 88 10000 1.32 128 22:47 15.02.2021
2479 Clouds 23 1008 87 10000 1.29 154 22:26 15.02.2021
2480 Clouds 23 1008 87 10000 1.29 154 21:43 15.02.2021
2481 Clouds 23 1008 85 10000 1.49 104 21:24 15.02.2021
2482 Clouds 23 1008 85 10000 1.49 104 20:54 15.02.2021
2483 Clouds 23 1008 85 10000 1.48 103 20:36 15.02.2021
2484 Rain 24 1007 85 10000 1.5 185 19:51 15.02.2021
2485 Rain 25 1007 79 10000 1.24 278 19:25 15.02.2021
2486 Clouds 28 1006 61 10000 0.36 283 18:54 15.02.2021
2487 Clouds 28 1005 61 10000 0.4 45 18:27 15.02.2021
2488 Clouds 28 1005 61 10000 0.4 45 17:57 15.02.2021
2489 Clouds 28 1005 61 10000 0.4 45 17:39 15.02.2021
2490 Clouds 30 1004 58 10000 0.14 308 17:20 15.02.2021
2491 Clouds 30 1004 58 10000 0.14 308 16:42 15.02.2021
2492 Clouds 33 1003 49 10000 0.47 135 16:21 15.02.2021
2493 Clouds 33 1003 49 10000 0.47 135 15:42 15.02.2021
2494 Clouds 34 1003 43 10000 0.58 185 15:19 15.02.2021
2495 Clouds 34 1003 43 10000 0.58 185 14:44 15.02.2021
2496 Clouds 34 1004 42 10000 0.75 148 14:20 15.02.2021
2497 Clouds 34 1004 42 10000 0.75 148 13:49 15.02.2021
2498 Clouds 37 1005 34 10000 0.73 199 13:20 15.02.2021
2499 Clouds 37 1005 34 10000 0.73 199 12:47 15.02.2021
2500 Clouds 36 1007 40 10000 1.44 195 12:25 15.02.2021
2501 Clouds 36 1007 40 10000 1.44 195 11:51 15.02.2021
2502 Clouds 34 1008 46 10000 1.66 194 11:25 15.02.2021
2503 Clouds 34 1008 46 10000 1.66 194 10:50 15.02.2021
2504 Clouds 34 1008 46 10000 1.66 194 10:30 15.02.2021
2505 Clouds 32 1009 54 10000 2 191 09:59 15.02.2021
2506 Clouds 32 1009 54 10000 2 191 09:41 15.02.2021
2507 Clouds 29 1011 68 10000 1.88 195 09:22 15.02.2021
2508 Clouds 25 1011 87 10000 1.53 177 08:21 15.02.2021
2509 Rain 25 1010 81 10000 1.77 132 07:18 15.02.2021
2510 Rain 25 1010 81 10000 1.77 132 06:41 15.02.2021
2511 Clouds 24 1006 78 10000 1 213 02:52 15.02.2021
2512 Clouds 24 1006 75 10000 0.87 214 01:55 15.02.2021
2513 Clouds 25 1006 69 10000 1.1 195 23:59 14.02.2021
2514 Clouds 26 1006 65 10000 1.38 202 23:25 14.02.2021
2515 Clouds 26 1006 65 10000 1.38 202 22:46 14.02.2021
2516 Clouds 27 1007 61 10000 1.29 238 22:23 14.02.2021
2517 Clouds 27 1007 61 10000 1.29 238 21:51 14.02.2021
2518 Clouds 28 1007 58 10000 0.81 190 21:29 14.02.2021
2519 Clouds 28 1007 58 10000 0.81 190 21:29 14.02.2021
2520 Clouds 28 1007 58 10000 0.81 190 20:53 14.02.2021
2521 Clouds 28 1007 58 10000 0.81 190 20:30 14.02.2021
2522 Clouds 28 1006 54 10000 1.2 172 19:49 14.02.2021
2523 Clouds 29 1006 52 10000 0.84 152 19:28 14.02.2021
2524 Clouds 28 1006 58 10000 1.43 147 18:42 14.02.2021
2525 Clouds 29 1005 54 10000 0.46 189 18:21 14.02.2021
2526 Clouds 29 1005 54 10000 0.46 189 17:40 14.02.2021
2527 Clouds 32 1004 50 10000 0.53 200 16:57 14.02.2021
2528 Clouds 32 1004 50 10000 0.53 200 16:38 14.02.2021
2529 Clouds 34 1003 42 10000 0.7 192 16:18 14.02.2021
2530 Clouds 34 1003 42 10000 0.7 192 15:41 14.02.2021
2531 Clouds 34 1003 43 10000 0.97 182 14:58 14.02.2021
2532 Clouds 36 1004 35 10000 0.86 186 14:29 14.02.2021
2533 Clouds 36 1004 35 10000 0.86 186 13:55 14.02.2021
2534 Clouds 36 1004 37 10000 1 225 13:31 14.02.2021
2535 Clouds 37 1005 34 10000 0.95 224 12:45 14.02.2021
2536 Clear 39 1006 32 10000 0.9 170 12:21 14.02.2021
2537 Clear 39 1006 32 10000 0.9 170 11:51 14.02.2021
2538 Clear 36 1008 38 10000 1.56 163 11:22 14.02.2021
2539 Clear 36 1008 38 10000 1.56 163 10:49 14.02.2021
2540 Clear 34 1009 44 10000 1.83 162 09:57 14.02.2021
2541 Clear 34 1009 44 10000 1.83 162 09:38 14.02.2021
2542 Clear 32 1010 50 10000 1.64 157 09:20 14.02.2021
2543 Clear 32 1010 50 10000 1.64 157 08:40 14.02.2021
2544 Clear 29 1010 61 10000 1.53 162 07:56 14.02.2021
2545 Clouds 26 1009 72 10000 1.41 153 06:51 14.02.2021
2546 Clouds 23 1008 82 10000 0.8 170 05:42 14.02.2021
2547 Clouds 23 1007 79 10000 1.06 205 03:32 14.02.2021
2548 Clouds 23 1006 76 10000 1.03 235 02:21 14.02.2021
2549 Clouds 24 1006 65 10000 1.34 196 00:47 14.02.2021
2550 Clouds 25 1007 63 10000 1.45 172 00:26 14.02.2021
2551 Clouds 25 1007 63 10000 1.45 172 23:40 13.02.2021
2552 Clouds 26 1007 60 10000 1.19 153 23:20 13.02.2021
2553 Clouds 26 1007 60 10000 1.19 153 22:42 13.02.2021
2554 Clouds 27 1008 57 10000 1.05 152 22:19 13.02.2021
2555 Clouds 27 1008 57 10000 1.05 152 21:42 13.02.2021
2556 Clouds 27 1007 58 10000 0.73 193 20:54 13.02.2021
2557 Clouds 27 1007 58 10000 0.73 193 20:30 13.02.2021
2558 Clouds 27 1007 59 10000 0.8 226 19:55 13.02.2021
2559 Clouds 27 1007 59 10000 0.8 226 19:37 13.02.2021
2560 Clouds 28 1005 48 10000 0.78 187 19:18 13.02.2021
2561 Clouds 28 1005 48 10000 0.78 187 18:38 13.02.2021
2562 Clouds 29 1004 46 10000 0.86 150 17:57 13.02.2021
2563 Clouds 29 1004 46 10000 0.86 150 17:38 13.02.2021
2564 Clouds 32 1003 41 10000 1.01 119 17:19 13.02.2021
2565 Clouds 32 1003 41 10000 1.01 119 16:42 13.02.2021
2566 Clouds 35 1002 31 10000 0.75 86 16:18 13.02.2021
2567 Clouds 37 1002 28 10000 0.25 8 15:29 13.02.2021
2568 Clouds 37 1002 28 10000 0.25 8 14:50 13.02.2021
2569 Clouds 37 1002 28 10000 0.25 8 14:30 13.02.2021
2570 Clouds 37 1003 27 10000 0.48 329 13:44 13.02.2021
2571 Clouds 41 1004 24 10000 0.68 316 13:24 13.02.2021
2572 Clouds 41 1004 23 10000 0.8 315 12:41 13.02.2021
2573 Clouds 41 1006 25 10000 0.63 241 12:18 13.02.2021
2574 Clouds 41 1006 25 10000 0.63 241 11:41 13.02.2021
2575 Clouds 38 1008 32 10000 1.17 189 11:19 13.02.2021
2576 Clouds 38 1008 32 10000 1.17 189 10:44 13.02.2021
2577 Clouds 34 1009 42 10000 1.6 172 10:23 13.02.2021
2578 Clouds 34 1009 42 10000 1.6 172 09:52 13.02.2021
2579 Clouds 31 1010 53 10000 1.82 157 09:29 13.02.2021
2580 Clouds 31 1010 53 10000 1.82 157 08:53 13.02.2021
2581 Clouds 31 1010 53 10000 1.82 157 08:30 13.02.2021
2582 Clouds 28 1010 63 10000 1.47 135 07:45 13.02.2021
2583 Clouds 26 1009 72 10000 1.14 120 06:35 13.02.2021
2584 Clouds 22 1008 81 10000 0.44 180 05:18 13.02.2021
2585 Clouds 22 1007 78 10000 0.76 167 03:44 13.02.2021
2586 Clouds 23 1006 72 10000 1.1 158 01:31 13.02.2021
2587 Clouds 24 1007 66 10000 0.78 165 00:19 13.02.2021
2588 Clouds 24 1007 66 10000 0.78 165 23:46 12.02.2021
2589 Clouds 25 1008 60 10000 1.07 154 23:20 12.02.2021
2590 Clouds 25 1008 60 10000 1.07 154 22:37 12.02.2021
2591 Clouds 25 1008 58 10000 0.64 152 22:18 12.02.2021
2592 Clouds 25 1008 58 10000 0.64 152 21:42 12.02.2021
2593 Clouds 26 1007 55 10000 0.89 155 21:22 12.02.2021
2594 Clouds 26 1007 55 10000 0.89 155 20:45 12.02.2021
2595 Clouds 27 1007 52 10000 0.69 168 20:26 12.02.2021
2596 Clouds 27 1007 52 10000 0.69 168 20:26 12.02.2021
2597 Clouds 27 1007 52 10000 0.69 168 19:55 12.02.2021
2598 Clouds 28 1006 50 10000 0.51 230 19:29 12.02.2021
2599 Clouds 27 1006 53 10000 0.66 175 18:44 12.02.2021
2600 Clouds 28 1004 51 10000 0.2 195 18:25 12.02.2021
2601 Clouds 28 1004 51 10000 0.2 195 17:41 12.02.2021
2602 Clouds 30 1003 48 10000 0.65 231 16:54 12.02.2021
2603 Clouds 33 1003 39 10000 1.12 269 16:18 12.02.2021
2604 Clouds 33 1003 39 10000 1.12 269 15:43 12.02.2021
2605 Clouds 35 1003 30 10000 1.35 269 15:20 12.02.2021
2606 Clouds 32 1018 62 6000 5.14 180 14:37 12.02.2021
2607 Clouds 32 1018 62 6000 5.14 180 13:56 12.02.2021
2608 Clouds 32 1018 62 6000 5.14 180 13:37 12.02.2021
2609 Clouds 39 1004 25 10000 1.67 281 12:55 12.02.2021
2610 Clouds 39 1004 25 10000 1.67 281 12:36 12.02.2021
2611 Clouds 38 1006 28 10000 1.56 247 11:48 12.02.2021
2612 Clouds 37 1007 32 10000 1.46 228 11:22 12.02.2021
2613 Clouds 37 1007 32 10000 1.46 228 10:51 12.02.2021
2614 Clouds 37 1007 32 10000 1.46 228 10:33 12.02.2021
2615 Clouds 35 1009 40 10000 1.36 198 09:43 12.02.2021
2616 Clouds 32 1010 49 10000 1.18 178 09:24 12.02.2021
2617 Clouds 32 1010 49 10000 1.18 178 08:47 12.02.2021
2618 Clouds 29 1010 58 10000 0.84 175 08:27 12.02.2021
2619 Clouds 29 1010 58 10000 0.84 175 07:53 12.02.2021
2620 Clouds 25 1010 69 10000 0.4 144 07:28 12.02.2021
2621 Clouds 25 1010 66 10000 0.32 36 06:54 12.02.2021
2622 Clouds 22 1009 73 10000 0.78 96 05:39 12.02.2021
2623 Clouds 22 1008 66 10000 0.98 164 03:48 12.02.2021
2624 Clouds 24 1007 53 10000 1.24 185 00:47 12.02.2021
2625 Clouds 25 1007 50 10000 0.75 153 23:39 11.02.2021
2626 Clouds 25 1008 51 10000 0.38 126 23:20 11.02.2021
2627 Clouds 25 1008 51 10000 0.38 126 22:44 11.02.2021
2628 Clouds 25 1008 51 10000 0.71 42 22:23 11.02.2021
2629 Clouds 25 1008 51 10000 0.71 42 21:46 11.02.2021
2630 Clouds 26 1008 49 10000 0.75 51 21:26 11.02.2021
2631 Clouds 26 1008 49 10000 0.75 51 20:59 11.02.2021
2632 Clouds 26 1008 49 10000 0.75 51 20:40 11.02.2021
2633 Clouds 26 1007 47 10000 0.45 118 20:21 11.02.2021
2634 Clouds 26 1007 47 10000 0.45 118 19:47 11.02.2021
2635 Clouds 27 1006 45 10000 0.07 202 19:27 11.02.2021
2636 Clouds 27 1006 45 10000 0.07 202 18:45 11.02.2021
2637 Clouds 28 1005 43 10000 0.32 204 18:24 11.02.2021
2638 Clouds 28 1005 43 10000 0.32 204 17:50 11.02.2021
2639 Clouds 32 1004 39 10000 0.57 189 17:22 11.02.2021
2640 Clouds 32 1004 39 10000 0.57 189 16:49 11.02.2021
2641 Clouds 32 1004 39 10000 0.57 189 16:30 11.02.2021
2642 Clouds 36 1003 26 10000 0.31 260 15:48 11.02.2021
2643 Clouds 37 1003 23 10000 0.97 329 15:29 11.02.2021
2644 Clouds 37 1003 23 10000 0.97 329 14:58 11.02.2021
2645 Clouds 37 1003 23 10000 0.97 329 14:32 11.02.2021
2646 Clouds 38 1004 23 10000 1.38 331 13:45 11.02.2021
2647 Clouds 37 1005 24 10000 1.61 313 13:21 11.02.2021
2648 Clouds 37 1005 24 10000 1.61 313 12:58 11.02.2021
2649 Clouds 37 1005 24 10000 1.61 313 12:36 11.02.2021
2650 Clouds 37 1007 25 10000 1.66 299 11:57 11.02.2021
2651 Clouds 37 1007 25 10000 1.66 299 11:39 11.02.2021
2652 Clouds 36 1009 28 10000 1.45 293 11:18 11.02.2021
2653 Clouds 36 1009 28 10000 1.45 293 10:39 11.02.2021
2654 Clouds 35 1010 33 10000 1.3 281 10:21 11.02.2021
2655 Clouds 35 1010 33 10000 1.3 281 09:41 11.02.2021
2656 Clouds 32 1011 37 10000 1.13 252 09:19 11.02.2021
2657 Clouds 32 1011 37 10000 1.14 252 08:49 11.02.2021
2658 Clouds 29 1011 45 10000 0.97 181 07:53 11.02.2021
2659 Clouds 24 1011 59 10000 0.54 140 06:46 11.02.2021
2660 Clouds 22 1010 65 10000 0.2 232 06:25 11.02.2021
2661 Clouds 22 1008 60 10000 1.19 215 03:47 11.02.2021
2662 Clouds 23 1008 57 10000 0.75 217 02:26 11.02.2021
2663 Clouds 24 1008 53 10000 0.81 227 00:24 11.02.2021
2664 Clouds 24 1008 53 10000 0.81 227 23:59 10.02.2021
2665 Clouds 24 1009 51 10000 0.67 254 23:28 10.02.2021
2666 Clouds 24 1009 51 10000 0.67 254 22:48 10.02.2021
2667 Clouds 25 1008 48 10000 0.37 220 22:24 10.02.2021
2668 Clouds 25 1008 48 10000 0.37 220 21:40 10.02.2021
2669 Clouds 25 1008 48 10000 0.37 220 21:40 10.02.2021
2670 Clouds 26 1008 45 10000 0.46 168 21:21 10.02.2021
2671 Clouds 26 1008 45 10000 0.46 168 21:21 10.02.2021
2672 Clouds 26 1008 45 10000 0.46 168 20:58 10.02.2021
2673 Clouds 26 1008 45 10000 0.46 168 20:30 10.02.2021
2674 Clouds 26 1008 43 10000 0.63 147 19:59 10.02.2021
2675 Clouds 26 1008 43 10000 0.63 147 19:40 10.02.2021
2676 Clouds 27 1007 41 10000 0.6 130 19:19 10.02.2021
2677 Clouds 27 1006 40 10000 0.65 173 18:39 10.02.2021
2678 Clouds 28 1005 39 10000 0.5 178 18:18 10.02.2021
2679 Clouds 28 1005 39 10000 0.5 178 17:45 10.02.2021
2680 Clouds 31 1004 38 10000 0.16 294 17:21 10.02.2021
2681 Clouds 31 1004 38 10000 0.16 294 16:49 10.02.2021
2682 Clouds 35 1003 26 10000 0.69 313 16:28 10.02.2021
2683 Clouds 35 1003 26 10000 0.69 313 15:43 10.02.2021
2684 Clouds 37 1003 23 10000 0.87 298 15:21 10.02.2021
2685 Clouds 37 1003 23 10000 0.87 298 14:40 10.02.2021
2686 Clouds 38 1004 22 10000 0.78 292 13:55 10.02.2021
2687 Clouds 38 1004 22 10000 0.78 292 13:37 10.02.2021
2688 Clouds 38 1005 22 10000 0.67 298 13:18 10.02.2021
2689 Clouds 39 1005 21 10000 0.67 294 12:40 10.02.2021
2690 Clouds 38 1007 22 10000 0.48 317 12:21 10.02.2021
2691 Clouds 38 1007 22 10000 0.48 317 11:41 10.02.2021
2692 Clouds 37 1009 24 10000 0.38 351 11:23 10.02.2021
2693 Clouds 37 1009 24 10000 0.38 351 10:40 10.02.2021
2694 Clouds 35 1010 28 10000 0.37 34 10:19 10.02.2021
2695 Clouds 35 1010 28 10000 0.37 34 09:40 10.02.2021
2696 Clouds 31 1011 32 10000 0.52 58 09:21 10.02.2021
2697 Clouds 31 1011 32 10000 0.52 58 08:43 10.02.2021
2698 Clouds 28 1011 39 10000 0.44 356 07:55 10.02.2021
2699 Clouds 24 1011 53 10000 0.26 210 07:18 10.02.2021
2700 Clouds 21 1009 50 10000 0.31 4 03:45 10.02.2021
2701 Clouds 23 1008 50 10000 0.56 224 00:51 10.02.2021
2702 Clouds 23 1008 50 10000 0.26 205 23:36 09.02.2021
2703 Clouds 23 1009 50 10000 0.21 138 22:56 09.02.2021
2704 Clouds 23 1009 49 10000 0.37 76 22:25 09.02.2021
2705 Clouds 23 1009 49 10000 0.37 76 21:54 09.02.2021
2706 Clouds 23 1009 49 10000 0.37 76 21:34 09.02.2021
2707 Clouds 24 1008 47 10000 0.59 61 20:59 09.02.2021
2708 Clouds 24 1008 47 10000 0.58 61 20:40 09.02.2021
2709 Clouds 25 1008 43 10000 0.62 82 20:20 09.02.2021
2710 Clouds 25 1008 43 10000 0.62 82 19:39 09.02.2021
2711 Clouds 25 1006 41 10000 0.45 129 19:18 09.02.2021
2712 Clouds 25 1006 41 10000 0.45 129 18:41 09.02.2021
2713 Clouds 27 1005 40 10000 0.27 167 17:58 09.02.2021
2714 Clouds 27 1005 40 10000 0.27 167 17:40 09.02.2021
2715 Clouds 30 1005 39 10000 0.09 244 17:22 09.02.2021
2716 Clouds 30 1005 39 10000 0.09 244 16:47 09.02.2021
2717 Clear 34 1007 22 6000 3.09 360 16:19 09.02.2021
2718 Clouds 34 1004 27 10000 0.57 346 15:50 09.02.2021
2719 Clouds 35 1004 22 10000 1.01 346 15:27 09.02.2021
2720 Clouds 35 1004 22 10000 1.01 346 14:56 09.02.2021
2721 Clouds 36 1005 22 10000 1.15 349 14:28 09.02.2021
2722 Clouds 36 1005 22 10000 1.15 349 13:53 09.02.2021
2723 Clouds 36 1006 23 10000 1.2 348 13:28 09.02.2021
2724 Clouds 36 1006 23 10000 1.11 337 12:54 09.02.2021
2725 Clouds 36 1006 23 10000 1.11 337 12:36 09.02.2021
2726 Clouds 36 1008 26 10000 1.09 344 11:59 09.02.2021
2727 Clouds 36 1008 26 10000 1.09 344 11:59 09.02.2021
2728 Clouds 36 1008 26 10000 1.09 344 11:40 09.02.2021
2729 Clouds 34 1009 29 10000 1.21 1 11:20 09.02.2021
2730 Clouds 34 1009 29 10000 1.21 1 10:50 09.02.2021
2731 Clouds 31 1010 35 10000 1.41 17 10:19 09.02.2021
2732 Clouds 31 1010 35 10000 1.41 17 09:43 09.02.2021
2733 Clouds 29 1011 41 10000 1.43 22 09:25 09.02.2021
2734 Clouds 29 1011 41 10000 1.43 22 08:47 09.02.2021
2735 Clouds 26 1011 50 10000 1.23 25 08:26 09.02.2021
2736 Clouds 23 1011 59 10000 1.18 39 07:29 09.02.2021
2737 Clouds 20 1009 61 10000 0.19 277 04:55 09.02.2021
2738 Clouds 20 1008 60 10000 0.36 205 03:42 09.02.2021
2739 Clouds 21 1008 55 10000 1.03 210 00:44 09.02.2021
2740 Clouds 21 1008 54 10000 0.67 208 23:57 08.02.2021
2741 Clouds 22 1009 54 10000 0.66 162 23:22 08.02.2021
2742 Clouds 22 1009 54 10000 0.66 162 22:45 08.02.2021
2743 Clouds 22 1008 52 10000 0.55 162 22:26 08.02.2021
2744 Clouds 22 1008 52 10000 0.55 162 21:58 08.02.2021
2745 Clouds 22 1008 52 10000 0.55 162 21:36 08.02.2021
2746 Clouds 23 1008 51 10000 0.04 310 21:18 08.02.2021
2747 Clouds 23 1008 51 10000 0.04 310 20:42 08.02.2021
2748 Clouds 23 1008 49 10000 0.42 50 20:21 08.02.2021
2749 Clouds 23 1008 49 10000 0.42 50 19:45 08.02.2021
2750 Clouds 24 1007 46 10000 0.44 88 19:26 08.02.2021
2751 Clouds 24 1007 46 10000 0.44 88 18:49 08.02.2021
2752 Clouds 25 1006 43 10000 0.38 158 18:24 08.02.2021
2753 Clouds 25 1006 43 10000 0.38 158 17:47 08.02.2021
2754 Clouds 28 1005 41 10000 0.31 225 17:26 08.02.2021
2755 Clouds 28 1005 41 10000 0.31 225 16:47 08.02.2021
2756 Clouds 33 1004 31 10000 0.48 301 16:28 08.02.2021
2757 Clouds 33 1004 31 10000 0.48 301 15:56 08.02.2021
2758 Clouds 33 1004 31 10000 0.48 301 15:37 08.02.2021
2759 Clouds 34 1005 22 10000 1.05 335 15:18 08.02.2021
2760 Clouds 34 1005 22 10000 1.05 335 14:42 08.02.2021
2761 Clouds 35 1006 21 10000 1.23 343 14:24 08.02.2021
2762 Clouds 35 1006 21 10000 1.23 343 13:45 08.02.2021
2763 Clouds 35 1007 22 10000 1.41 349 13:25 08.02.2021
2764 Clouds 35 1007 21 10000 1.42 350 12:39 08.02.2021
2765 Clouds 34 1008 23 10000 1.63 357 11:58 08.02.2021
2766 Clouds 34 1008 23 10000 1.63 357 11:32 08.02.2021
2767 Clouds 33 1010 27 10000 1.76 9 10:46 08.02.2021
2768 Clouds 30 1011 34 10000 1.83 21 10:26 08.02.2021
2769 Clouds 30 1011 34 10000 1.83 21 09:55 08.02.2021
2770 Clouds 30 1011 34 10000 1.83 21 09:36 08.02.2021
2771 Clouds 27 1012 44 10000 1.67 27 08:54 08.02.2021
2772 Clouds 24 1012 52 10000 1.61 26 08:24 08.02.2021
2773 Clouds 24 1012 52 10000 1.61 26 07:38 08.02.2021
2774 Clouds 21 1011 60 10000 0.88 42 06:33 08.02.2021
2775 Clouds 19 1009 61 10000 0.62 3 04:56 08.02.2021
2776 Clouds 20 1008 57 10000 0.5 181 02:26 08.02.2021
2777 Clouds 21 1008 52 10000 0.84 168 00:25 08.02.2021
2778 Clouds 21 1008 52 10000 0.84 168 23:53 07.02.2021
2779 Clouds 21 1009 51 10000 0.95 173 23:28 07.02.2021
2780 Clouds 21 1009 51 10000 0.95 173 22:56 07.02.2021
2781 Clouds 21 1009 51 10000 0.95 173 22:38 07.02.2021
2782 Clouds 22 1009 49 10000 0.89 179 22:19 07.02.2021
2783 Clouds 22 1009 49 10000 0.89 179 21:49 07.02.2021
2784 Clouds 22 1009 47 10000 0.82 168 21:24 07.02.2021
2785 Clouds 22 1009 47 10000 0.82 168 20:49 07.02.2021
2786 Clouds 23 1008 47 10000 0.27 123 20:27 07.02.2021
2787 Clouds 23 1008 47 10000 0.27 123 19:47 07.02.2021
2788 Clouds 23 1006 45 10000 0.39 9 19:28 07.02.2021
2789 Clouds 23 1006 45 10000 0.39 9 18:45 07.02.2021
2790 Clouds 25 1006 43 10000 0.34 354 18:27 07.02.2021
2791 Clouds 25 1006 43 10000 0.34 354 17:57 07.02.2021
2792 Clouds 25 1006 43 10000 0.34 354 17:38 07.02.2021
2793 Clouds 28 1005 40 10000 0.34 337 17:18 07.02.2021
2794 Clouds 28 1005 40 10000 0.34 337 16:41 07.02.2021
2795 Clouds 33 1005 32 10000 0.54 352 16:20 07.02.2021
2796 Clouds 33 1005 32 10000 0.54 352 15:44 07.02.2021
2797 Haze 32 1010 35 5000 3.09 320 15:21 07.02.2021
2798 Haze 32 1010 35 5000 3.09 320 14:44 07.02.2021
2799 Haze 32 1010 35 5000 3.09 320 14:26 07.02.2021
2800 Clouds 34 1005 23 10000 1.68 16 13:45 07.02.2021
2801 Clouds 34 1007 24 10000 1.79 22 13:27 07.02.2021
2802 Clouds 34 1006 24 10000 1.86 24 12:42 07.02.2021
2803 Clear 33 1008 26 10000 1.9 28 12:21 07.02.2021
2804 Clear 33 1008 26 10000 1.9 28 11:43 07.02.2021
2805 Clear 32 1009 29 10000 1.92 32 11:24 07.02.2021
2806 Clear 32 1009 29 10000 1.92 32 10:42 07.02.2021
2807 Clear 32 1009 29 10000 1.92 32 10:42 07.02.2021
2808 Clear 30 1010 35 10000 1.82 31 10:22 07.02.2021
2809 Clear 30 1010 35 10000 1.82 31 09:43 07.02.2021
2810 Mist 24 1013 73 4000 1.67 36 09:20 07.02.2021
2811 Clear 25 1011 53 10000 1.51 47 08:22 07.02.2021
2812 Clear 22 1011 66 10000 1.39 62 06:34 07.02.2021
2813 Clear 19 1010 74 10000 1.11 65 05:56 07.02.2021
2814 Clear 20 1008 68 10000 1.6 10 03:39 07.02.2021
2815 Clouds 22 1008 62 10000 0.57 205 01:24 07.02.2021
2816 Clouds 22 1008 59 10000 0.7 208 00:29 07.02.2021
2817 Clouds 22 1008 59 10000 0.7 208 23:44 06.02.2021
2818 Clouds 23 1009 57 10000 0.75 219 22:40 06.02.2021
2819 Clouds 23 1009 55 10000 0.88 199 21:39 06.02.2021
2820 Clouds 24 1009 53 10000 0.7 192 21:21 06.02.2021
2821 Clouds 24 1009 53 10000 0.7 192 20:50 06.02.2021
2822 Clouds 24 1009 53 10000 0.45 180 20:25 06.02.2021
2823 Clouds 24 1009 53 10000 0.45 180 19:56 06.02.2021
2824 Clouds 24 1009 53 10000 0.45 180 19:30 06.02.2021
2825 Clear 25 1008 53 10000 0.52 145 18:47 06.02.2021
2826 Clear 26 1006 51 10000 0.56 129 18:28 06.02.2021
2827 Clear 26 1006 51 10000 0.56 129 17:46 06.02.2021
2828 Clear 29 1006 48 10000 0.37 111 17:22 06.02.2021
2829 Clear 29 1006 48 10000 0.37 111 17:22 06.02.2021
2830 Clear 29 1006 48 10000 0.37 111 16:59 06.02.2021
2831 Clear 29 1006 48 10000 0.37 111 16:37 06.02.2021
2832 Clear 33 1006 35 10000 0.79 31 16:19 06.02.2021
2833 Clear 33 1006 35 10000 0.79 31 15:41 06.02.2021
2834 Clouds 34 1006 31 10000 1.47 10 15:20 06.02.2021
2835 Clouds 34 1006 31 10000 1.47 10 14:45 06.02.2021
2836 Clouds 34 1007 31 10000 1.77 5 14:24 06.02.2021
2837 Clouds 34 1007 31 10000 1.77 5 13:48 06.02.2021
2838 Clouds 34 1008 31 10000 1.92 12 12:57 06.02.2021
2839 Clouds 33 1009 35 10000 2 13 12:21 06.02.2021
2840 Clouds 33 1009 35 10000 2 13 11:47 06.02.2021
2841 Clouds 33 1010 38 10000 1.96 16 11:22 06.02.2021
2842 Clouds 33 1010 38 10000 1.96 16 10:57 06.02.2021
2843 Clouds 33 1010 38 10000 1.96 16 10:30 06.02.2021
2844 Clouds 31 1012 46 10000 1.41 15 09:58 06.02.2021
2845 Clouds 31 1012 46 10000 1.41 15 09:37 06.02.2021
2846 Clouds 30 1013 57 10000 0.65 30 09:18 06.02.2021
2847 Clouds 30 1013 57 10000 0.65 30 08:33 06.02.2021
2848 Clouds 26 1013 70 10000 1.01 10 07:59 06.02.2021
2849 Clouds 21 1011 92 10000 0.92 4 05:43 06.02.2021
2850 Clouds 21 1010 95 10000 0.37 82 03:58 06.02.2021
2851 Clear 21 1009 94 10000 0.64 311 01:58 06.02.2021
2852 Clouds 22 1009 92 10000 0.29 192 00:48 06.02.2021
2853 Clouds 22 1010 93 10000 0.71 192 00:19 06.02.2021
2854 Clouds 22 1010 93 10000 0.71 192 23:43 05.02.2021
2855 Clouds 22 1010 92 10000 0.89 192 23:24 05.02.2021
2856 Clouds 22 1010 92 10000 0.89 192 22:47 05.02.2021
2857 Clouds 22 1011 92 10000 0.84 238 22:20 05.02.2021
2858 Clouds 22 1011 92 10000 0.84 238 21:45 05.02.2021
2859 Clouds 23 1011 91 10000 0.74 247 21:26 05.02.2021
2860 Clouds 23 1011 91 10000 0.74 247 20:45 05.02.2021
2861 Clouds 23 1011 90 10000 0.36 317 19:52 05.02.2021
2862 Clouds 23 1010 82 10000 0.55 351 19:20 05.02.2021
2863 Clouds 23 1010 82 10000 0.55 351 18:54 05.02.2021
2864 Clouds 24 1009 83 10000 0.21 29 18:27 05.02.2021
2865 Clouds 24 1009 83 10000 0.21 29 17:45 05.02.2021
2866 Clouds 24 1008 86 10000 0.9 80 17:24 05.02.2021
2867 Clouds 24 1008 86 10000 0.9 80 16:50 05.02.2021
2868 Clouds 25 1008 86 10000 1.63 14 16:24 05.02.2021
2869 Clouds 25 1008 86 10000 1.63 14 15:57 05.02.2021
2870 Rain 26 1008 88 10000 2.53 10 15:27 05.02.2021
2871 Rain 26 1008 88 10000 2.53 10 14:55 05.02.2021
2872 Rain 26 1008 88 10000 2.53 10 14:36 05.02.2021
2873 Rain 28 1009 81 6656 2.12 34 14:18 05.02.2021
2874 Rain 28 1009 81 6656 2.12 34 13:37 05.02.2021
2875 Rain 32 1009 56 10000 0.56 81 12:57 05.02.2021
2876 Rain 32 1009 56 10000 0.56 81 12:38 05.02.2021
2877 Rain 31 1010 57 10000 0.43 234 11:42 05.02.2021
2878 Clouds 28 1011 67 10000 0.43 339 11:22 05.02.2021
2879 Clouds 28 1011 67 10000 0.43 339 10:59 05.02.2021
2880 Clouds 27 1011 68 10000 0.72 53 10:28 05.02.2021
2881 Clouds 27 1011 68 10000 0.72 53 09:57 05.02.2021
2882 Clouds 27 1011 68 10000 0.72 53 09:39 05.02.2021
2883 Clouds 24 1012 81 10000 1.62 70 09:20 05.02.2021
2884 Clouds 22 1019 94 6000 1.26 79 08:29 05.02.2021
2885 Clouds 22 1019 94 6000 1.26 79 07:39 05.02.2021
2886 Clouds 24 1012 92 10000 0.49 91 06:57 05.02.2021
2887 Clouds 22 1011 96 10000 0.1 341 05:39 05.02.2021
2888 Clouds 22 1010 97 10000 0.72 173 04:49 05.02.2021
2889 Clouds 22 1009 97 10000 1.38 195 02:25 05.02.2021
2890 Clouds 22 1010 96 10000 1.41 238 00:41 05.02.2021
2891 Clouds 22 1011 96 10000 1.33 273 00:21 05.02.2021
2892 Clouds 22 1011 96 10000 1.33 273 23:59 04.02.2021
2893 Clouds 22 1011 96 10000 1.33 273 23:40 04.02.2021
2894 Rain 22 1011 95 10000 1.62 313 23:21 04.02.2021
2895 Rain 22 1011 95 10000 1.62 313 22:51 04.02.2021
2896 Rain 23 1011 93 10000 0.4 338 22:28 04.02.2021
2897 Rain 23 1011 93 10000 0.4 338 21:42 04.02.2021
2898 Rain 23 1011 93 10000 0.89 304 21:22 04.02.2021
2899 Rain 23 1011 93 10000 0.89 304 20:53 04.02.2021
2900 Rain 23 1011 93 10000 0.89 304 20:34 04.02.2021
2901 Rain 24 1010 83 10000 1.14 253 19:48 04.02.2021
2902 Rain 26 1009 72 10000 1.85 322 19:19 04.02.2021
2903 Rain 26 1009 72 10000 1.85 322 18:37 04.02.2021
2904 Clouds 28 1007 63 10000 0.83 179 18:18 04.02.2021
2905 Clouds 28 1007 63 10000 0.83 179 17:42 04.02.2021
2906 Clouds 30 1006 58 10000 0.87 223 17:20 04.02.2021
2907 Clouds 30 1006 58 10000 0.87 223 16:46 04.02.2021
2908 Clouds 32 1005 50 10000 2.05 179 16:19 04.02.2021
2909 Clouds 32 1005 50 10000 2.05 179 15:40 04.02.2021
2910 Clouds 35 1005 40 10000 1.58 188 15:21 04.02.2021
2911 Clouds 35 1005 40 10000 1.58 188 14:49 04.02.2021
2912 Clouds 35 1006 38 10000 1.34 187 14:21 04.02.2021
2913 Clouds 35 1006 38 10000 1.34 187 13:56 04.02.2021
2914 Clouds 35 1006 38 10000 1.34 187 13:36 04.02.2021
2915 Clouds 36 1007 38 10000 1.61 188 12:57 04.02.2021
2916 Clouds 34 1009 44 10000 2.01 180 12:20 04.02.2021
2917 Clouds 34 1009 44 10000 2.01 180 11:38 04.02.2021
2918 Clouds 32 1010 51 10000 2.42 182 11:20 04.02.2021
2919 Clouds 32 1010 51 10000 2.42 182 10:43 04.02.2021
2920 Clouds 31 1011 54 10000 2.27 177 09:56 04.02.2021
2921 Clouds 31 1011 54 10000 2.27 177 09:37 04.02.2021
2922 Clouds 30 1012 58 10000 2.1 165 09:18 04.02.2021
2923 Clouds 30 1012 58 10000 2.1 165 08:37 04.02.2021
2924 Clouds 27 1012 69 10000 2.5 162 08:18 04.02.2021
2925 Clouds 27 1012 69 10000 2.5 162 07:38 04.02.2021
2926 Clouds 24 1012 82 10000 1.18 187 06:54 04.02.2021
2927 Clouds 24 1012 82 10000 1.18 187 06:35 04.02.2021
2928 Clouds 23 1009 83 10000 1.36 154 03:53 04.02.2021
2929 Clouds 23 1009 80 10000 1.14 176 02:25 04.02.2021
2930 Clouds 23 1009 80 10000 1.08 172 00:35 04.02.2021
2931 Clouds 24 1009 77 10000 1.36 178 23:40 03.02.2021
2932 Clouds 24 1010 73 10000 1.6 178 22:43 03.02.2021
2933 Clouds 25 1010 68 10000 1.35 180 22:22 03.02.2021
2934 Clouds 25 1010 68 10000 1.35 180 21:57 03.02.2021
2935 Clouds 25 1010 68 10000 1.35 180 21:37 03.02.2021
2936 Clouds 25 1010 65 10000 0.86 209 21:18 03.02.2021
2937 Clouds 25 1010 65 10000 0.86 209 20:43 03.02.2021
2938 Clear 26 1009 62 10000 0.82 200 20:24 03.02.2021
2939 Clear 26 1009 62 10000 0.82 200 19:43 03.02.2021
2940 Clouds 27 1008 57 10000 0.76 171 19:21 03.02.2021
2941 Clouds 27 1007 57 10000 0.91 166 18:48 03.02.2021
2942 Clouds 29 1006 53 10000 0.32 173 18:20 03.02.2021
2943 Clouds 29 1006 53 10000 0.32 173 17:52 03.02.2021
2944 Clouds 29 1006 53 10000 0.32 173 17:31 03.02.2021
2945 Clouds 31 1006 51 10000 0.14 241 16:56 03.02.2021
2946 Clouds 31 1006 51 10000 0.14 241 16:30 03.02.2021
2947 Clouds 34 1005 42 10000 0.13 262 15:46 03.02.2021
2948 Clouds 34 1005 40 10000 0.34 35 15:25 03.02.2021
2949 Clouds 34 1005 40 10000 0.34 35 14:54 03.02.2021
2950 Clouds 37 1006 32 10000 0.76 22 14:26 03.02.2021
2951 Clouds 37 1006 32 10000 0.76 22 13:54 03.02.2021
2952 Clear 38 1007 31 10000 0.69 55 13:29 03.02.2021
2953 Clear 38 1007 30 10000 1.04 37 12:52 03.02.2021
2954 Clear 37 1009 32 10000 1.04 67 12:27 03.02.2021
2955 Clear 37 1009 32 10000 1.04 67 11:59 03.02.2021
2956 Clear 37 1009 32 10000 1.04 67 11:37 03.02.2021
2957 Clear 36 1010 35 10000 1.06 153 10:58 03.02.2021
2958 Clear 33 1010 40 10000 1.53 180 10:23 03.02.2021
2959 Clear 33 1010 40 10000 1.53 180 09:48 03.02.2021
2960 Clear 31 1011 47 10000 1.33 158 09:29 03.02.2021
2961 Clear 31 1011 47 10000 1.33 158 08:54 03.02.2021
2962 Clear 31 1011 47 10000 1.33 158 08:54 03.02.2021
2963 Clear 31 1011 47 10000 1.33 158 08:35 03.02.2021
2964 Clear 28 1012 56 10000 1.42 166 07:42 03.02.2021
2965 Clear 24 1012 69 10000 1.29 150 06:41 03.02.2021
2966 Clear 22 1010 74 10000 1.23 171 04:55 03.02.2021
2967 Clear 22 1010 74 10000 1.23 171 04:34 03.02.2021
2968 Clear 22 1009 71 10000 1.05 169 03:40 03.02.2021
2969 Clear 22 1009 68 10000 1.07 179 02:37 03.02.2021
2970 Clouds 23 1009 65 10000 0.77 193 01:20 03.02.2021
2971 Clouds 24 1009 64 10000 0.87 197 00:20 03.02.2021
2972 Clouds 24 1009 64 10000 0.87 197 23:40 02.02.2021
2973 Clouds 24 1009 62 10000 0.94 227 23:22 02.02.2021
2974 Clouds 24 1009 62 10000 0.94 227 22:37 02.02.2021
2975 Clouds 25 1009 61 10000 0.64 284 22:18 02.02.2021
2976 Clouds 25 1009 61 10000 0.64 284 21:44 02.02.2021
2977 Clouds 25 1009 58 10000 0.46 253 21:22 02.02.2021
2978 Clouds 25 1009 58 10000 0.46 253 20:48 02.02.2021
2979 Clouds 26 1009 56 10000 0.23 163 20:21 02.02.2021
2980 Clouds 26 1009 56 10000 0.23 163 19:49 02.02.2021
2981 Clouds 26 1009 56 10000 0.23 163 19:30 02.02.2021
2982 Clouds 26 1009 56 10000 0.23 163 19:30 02.02.2021
2983 Clouds 26 1008 57 10000 0.59 179 19:30 02.02.2021
2984 Clouds 27 1008 54 10000 0.56 178 18:46 02.02.2021
2985 Clouds 28 1007 54 10000 0.27 174 18:26 02.02.2021
2986 Clouds 28 1007 54 10000 0.27 174 18:26 02.02.2021
2987 Clouds 28 1007 54 10000 0.27 174 17:52 02.02.2021
2988 Clouds 33 1009 52 6000 0.18 294 17:24 02.02.2021
2989 Clouds 33 1009 52 6000 0.18 294 16:58 02.02.2021
2990 Clouds 33 1009 52 6000 0.18 294 16:38 02.02.2021
2991 Clouds 33 1009 52 6000 0.18 294 16:38 02.02.2021
2992 Clouds 33 1006 42 10000 0.3 10 16:18 02.02.2021
2993 Clouds 33 1006 42 10000 0.3 10 15:42 02.02.2021
2994 Clouds 27 1018 44 6000 2.06 240 15:21 02.02.2021
2995 Clouds 27 1018 44 6000 2.06 240 14:41 02.02.2021
2996 Clouds 31 1011 58 6000 2.06 280 14:20 02.02.2021
2997 Clouds 31 1011 58 6000 2.06 280 13:55 02.02.2021
2998 Clouds 31 1011 58 6000 2.06 280 13:37 02.02.2021
2999 Clouds 30 1012 62 6000 2.06 240 13:18 02.02.2021
3000 Clouds 30 1012 62 6000 2.06 240 12:36 02.02.2021
3001 Clouds 38 1010 31 10000 0.25 109 11:45 02.02.2021
3002 Clouds 35 1011 37 10000 1.11 152 11:22 02.02.2021
3003 Clouds 35 1011 37 10000 1.11 152 11:22 02.02.2021
3004 Clouds 35 1011 37 10000 1.11 152 10:55 02.02.2021
3005 Clouds 35 1011 37 10000 1.11 152 10:55 02.02.2021
3006 Clouds 32 1012 44 10000 1.61 148 10:27 02.02.2021
3007 Clouds 32 1012 44 10000 1.61 148 09:47 02.02.2021
3008 Clouds 29 1013 52 10000 1.7 142 09:25 02.02.2021
3009 Clouds 29 1013 52 10000 1.7 142 08:54 02.02.2021
3010 Mist 22 1014 94 3000 1.53 141 08:25 02.02.2021
3011 Mist 22 1014 94 3000 1.53 141 07:31 02.02.2021
3012 Clear 24 1012 77 10000 1.25 126 06:43 02.02.2021
3013 Clear 21 1012 90 10000 0.58 124 05:53 02.02.2021
3014 Clear 21 1011 92 10000 1.18 176 04:57 02.02.2021
3015 Clear 22 1010 86 10000 1.27 164 02:26 02.02.2021
3016 Clear 22 1010 86 10000 1.27 164 01:55 02.02.2021
3017 Clear 22 1010 86 10000 1.17 166 00:35 02.02.2021
3018 Clear 23 1011 83 10000 1.74 167 23:20 01.02.2021
3019 Clear 23 1011 83 10000 1.74 167 22:50 01.02.2021
3020 Clear 23 1011 83 10000 1.74 167 22:32 01.02.2021
3021 Clear 23 1011 81 10000 1.5 164 21:53 01.02.2021
3022 Clear 23 1011 81 10000 1.5 164 21:34 01.02.2021
3023 Clear 24 1011 78 10000 1.84 176 20:57 01.02.2021
3024 Clear 24 1011 78 10000 1.84 176 20:37 01.02.2021
3025 Clear 25 1010 76 10000 2.1 158 20:19 01.02.2021
3026 Clear 25 1010 76 10000 2.09 158 19:38 01.02.2021
3027 Clouds 26 1009 72 10000 2.29 159 19:19 01.02.2021
3028 Clouds 26 1009 72 10000 2.29 159 18:47 01.02.2021
3029 Clouds 27 1008 64 10000 2.43 158 18:27 01.02.2021
3030 Clouds 27 1008 64 10000 2.39 159 17:47 01.02.2021
3031 Clouds 30 1007 56 10000 1.05 188 17:23 01.02.2021
3032 Clouds 30 1007 56 10000 1.05 188 16:47 01.02.2021
3033 Clouds 32 1006 44 10000 0.4 230 16:28 01.02.2021
3034 Clouds 32 1006 44 10000 0.4 230 15:43 01.02.2021
3035 Clouds 32 1006 44 10000 0.4 230 15:43 01.02.2021
3036 Clouds 33 1006 41 10000 0.19 321 15:19 01.02.2021
3037 Clouds 33 1006 41 10000 0.19 321 14:52 01.02.2021
3038 Clouds 36 1007 33 10000 0.38 337 14:27 01.02.2021
3039 Clouds 36 1007 33 10000 0.38 337 13:47 01.02.2021
3040 Clouds 36 1008 34 10000 0.51 0 13:26 01.02.2021
3041 Clouds 37 1007 33 10000 0.45 15 12:45 01.02.2021
3042 Clouds 36 1009 36 10000 0.36 109 12:25 01.02.2021
3043 Clouds 36 1009 36 10000 0.36 109 11:51 01.02.2021
3044 Clouds 35 1010 41 10000 0.78 135 11:22 01.02.2021
3045 Clouds 35 1010 41 10000 0.78 135 10:55 01.02.2021
3046 Clouds 35 1010 41 10000 0.78 135 10:36 01.02.2021
3047 Clouds 32 1012 48 10000 1.01 164 10:18 01.02.2021
3048 Clouds 32 1012 48 10000 1.01 164 09:42 01.02.2021
3049 Clouds 30 1012 55 10000 1.08 182 08:56 01.02.2021
3050 Clouds 30 1012 55 10000 1.08 182 08:56 01.02.2021
3051 Clouds 27 1012 64 10000 0.63 180 08:27 01.02.2021
3052 Clouds 27 1012 64 10000 0.63 180 07:34 01.02.2021
3053 Clouds 21 1010 86 10000 0.86 157 05:46 01.02.2021
3054 Clouds 22 1008 83 10000 0.75 175 02:41 01.02.2021
3055 Clouds 22 1008 75 10000 1.26 217 00:27 01.02.2021
3056 Clouds 22 1008 71 10000 0.94 194 23:29 31.01.2021
3057 Clouds 22 1008 71 10000 0.94 194 22:41 31.01.2021
3058 Clouds 23 1009 66 10000 1.2 197 22:23 31.01.2021
3059 Clouds 23 1009 66 10000 1.2 197 21:49 31.01.2021
3060 Clouds 24 1009 64 10000 0.93 210 21:22 31.01.2021
3061 Clouds 24 1009 64 10000 0.93 210 20:46 31.01.2021
3062 Clouds 24 1009 62 10000 0.65 212 20:21 31.01.2021
3063 Clouds 24 1009 62 10000 0.65 212 19:43 31.01.2021
3064 Clouds 25 1007 59 10000 0.46 177 19:24 31.01.2021
3065 Clouds 25 1008 60 10000 0.46 178 19:24 31.01.2021
3066 Clouds 25 1007 59 10000 0.46 177 18:58 31.01.2021
3067 Clouds 25 1007 59 10000 0.46 177 18:40 31.01.2021
3068 Clouds 26 1005 56 10000 0.85 155 18:20 31.01.2021
3069 Clouds 26 1005 56 10000 0.85 155 17:45 31.01.2021
3070 Clouds 29 1004 49 10000 1.04 158 17:23 31.01.2021
3071 Clouds 29 1004 49 10000 1.04 158 16:47 31.01.2021
3072 Clouds 33 1004 38 10000 0.35 171 16:28 31.01.2021
3073 Clouds 33 1004 38 10000 0.35 171 15:51 31.01.2021
3074 Clouds 33 1004 38 10000 0.35 171 15:32 31.01.2021
3075 Clouds 34 1004 31 10000 0.48 321 14:42 31.01.2021
3076 Clouds 35 1005 31 10000 0.71 324 14:22 31.01.2021
3077 Clouds 35 1005 31 10000 0.71 324 13:52 31.01.2021
3078 Clouds 35 1005 31 10000 0.71 324 13:52 31.01.2021
3079 Clouds 35 1005 31 10000 0.71 324 13:34 31.01.2021
3080 Clouds 35 1006 32 10000 1.07 332 12:48 31.01.2021
3081 Clouds 35 1008 34 10000 0.72 313 12:22 31.01.2021
3082 Clouds 35 1008 34 10000 0.72 313 11:44 31.01.2021
3083 Clouds 34 1010 41 10000 0.75 219 11:24 31.01.2021
3084 Clouds 34 1010 41 10000 0.75 219 10:54 31.01.2021
3085 Clouds 34 1010 41 10000 0.75 219 10:34 31.01.2021
3086 Clouds 31 1010 51 10000 0.92 187 09:50 31.01.2021
3087 Clouds 29 1011 58 10000 0.78 170 09:25 31.01.2021
3088 Clouds 29 1011 58 10000 0.78 170 08:33 31.01.2021
3089 Clouds 24 1011 77 10000 0.14 130 06:57 31.01.2021
3090 Clouds 21 1010 88 10000 0.68 56 05:35 31.01.2021
3091 Clouds 21 1007 85 10000 1.08 208 00:47 31.01.2021
3092 Clouds 21 1007 85 10000 1.08 208 00:47 31.01.2021
3093 Clouds 22 1007 84 10000 1.01 181 00:22 31.01.2021
3094 Clouds 22 1007 84 10000 1.01 181 23:33 30.01.2021
3095 Clouds 22 1008 83 10000 0.66 173 22:56 30.01.2021
3096 Clouds 22 1008 83 10000 0.66 173 22:30 30.01.2021
3097 Clouds 22 1008 81 10000 0.64 170 21:40 30.01.2021
3098 Clouds 23 1008 80 10000 0.88 142 21:22 30.01.2021
3099 Clouds 23 1008 80 10000 0.88 142 20:48 30.01.2021
3100 Clouds 23 1008 79 10000 0.82 121 20:29 30.01.2021
3101 Clouds 23 1008 79 10000 0.82 121 19:46 30.01.2021
3102 Clouds 24 1008 77 10000 0.99 119 19:27 30.01.2021
3103 Clouds 24 1007 78 10000 0.97 162 18:55 30.01.2021
3104 Clouds 24 1007 78 10000 0.97 162 18:36 30.01.2021
3105 Clouds 25 1006 74 10000 0.93 125 18:18 30.01.2021
3106 Clouds 26 1006 71 10000 0.46 147 17:21 30.01.2021
3107 Clouds 26 1006 71 10000 0.46 147 16:48 30.01.2021
3108 Clouds 29 1006 61 10000 0.84 113 16:25 30.01.2021
3109 Clouds 29 1006 61 10000 0.84 113 15:59 30.01.2021
3110 Clouds 29 1006 61 10000 0.84 113 15:40 30.01.2021
3111 Clouds 29 1006 57 10000 0.81 92 15:21 30.01.2021
3112 Clouds 29 1006 57 10000 0.81 92 14:52 30.01.2021
3113 Rain 29 1007 68 10000 0.92 45 14:22 30.01.2021
3114 Rain 29 1007 68 10000 0.92 45 13:35 30.01.2021
3115 Rain 28 1008 78 10000 1.17 341 12:50 30.01.2021
3116 Rain 28 1008 78 10000 1.17 341 12:30 30.01.2021
3117 Rain 28 1009 80 6380 1.57 344 11:59 30.01.2021
3118 Rain 28 1009 80 6380 1.57 344 11:31 30.01.2021
3119 Rain 29 1010 79 5003 1.05 27 10:49 30.01.2021
3120 Rain 31 1010 56 10000 1.41 151 09:52 30.01.2021
3121 Rain 31 1010 56 10000 1.41 151 09:31 30.01.2021
3122 Clouds 29 1011 64 10000 1.49 161 08:47 30.01.2021
3123 Clouds 26 1012 80 10000 1.08 163 08:25 30.01.2021
3124 Mist 22 1012 100 4000 1.21 166 06:58 30.01.2021
3125 Clouds 22 1010 94 10000 0.42 8 06:19 30.01.2021
3126 Clouds 21 1009 95 10000 1 200 03:35 30.01.2021
3127 Rain 22 1008 93 10000 0.73 201 02:25 30.01.2021
3128 Rain 22 1008 93 10000 0.73 201 01:31 30.01.2021
3129 Clouds 22 1009 90 10000 0.56 186 00:44 30.01.2021
3130 Clouds 22 1009 89 10000 0.86 203 00:21 30.01.2021
3131 Clouds 22 1009 89 10000 0.86 203 23:46 29.01.2021
3132 Clouds 23 1009 88 10000 0.63 204 23:22 29.01.2021
3133 Clouds 23 1009 88 10000 0.63 204 22:44 29.01.2021
3134 Clouds 23 1009 87 10000 0.94 178 22:20 29.01.2021
3135 Clouds 23 1009 85 10000 0.92 187 21:29 29.01.2021
3136 Clouds 23 1009 85 10000 0.92 187 21:29 29.01.2021
3137 Clouds 23 1009 85 10000 0.92 187 20:59 29.01.2021
3138 Clouds 23 1009 85 10000 0.92 187 20:40 29.01.2021
3139 Clouds 24 1009 84 10000 0.93 186 20:18 29.01.2021
3140 Clouds 24 1009 84 10000 0.93 186 19:38 29.01.2021
3141 Clouds 24 1008 82 10000 1.1 193 19:18 29.01.2021
3142 Clouds 24 1008 82 10000 1.1 193 18:30 29.01.2021
3143 Clouds 24 1007 83 10000 1.19 184 17:40 29.01.2021
3144 Rain 26 1006 78 10000 1.49 111 17:22 29.01.2021
3145 Rain 26 1006 78 10000 1.49 111 16:46 29.01.2021
3146 Clouds 32 1005 52 10000 0.5 114 16:24 29.01.2021
3147 Clouds 32 1005 52 10000 0.5 114 15:51 29.01.2021
3148 Clouds 32 1005 52 10000 0.5 114 15:31 29.01.2021
3149 Clouds 33 1005 45 10000 0.94 73 14:48 29.01.2021
3150 Clouds 33 1006 47 10000 1.03 48 14:18 29.01.2021
3151 Clouds 33 1006 47 10000 1.04 48 13:44 29.01.2021
3152 Clouds 36 1007 39 10000 1.01 47 13:26 29.01.2021
3153 Clouds 35 1009 42 10000 0.82 172 12:29 29.01.2021
3154 Clouds 35 1009 42 10000 0.82 172 11:51 29.01.2021
3155 Clouds 33 1011 48 10000 1.35 187 11:20 29.01.2021
3156 Clouds 33 1011 48 10000 1.35 187 10:53 29.01.2021
3157 Clouds 33 1011 48 10000 1.35 187 10:35 29.01.2021
3158 Clouds 31 1012 56 10000 1.64 187 09:50 29.01.2021
3159 Clouds 29 1013 65 10000 1.77 190 09:28 29.01.2021
3160 Clouds 29 1013 65 10000 1.77 190 08:47 29.01.2021
3161 Clouds 27 1013 72 10000 1.31 182 08:25 29.01.2021
3162 Clouds 27 1013 72 10000 1.31 182 07:42 29.01.2021
3163 Mist 19 1013 100 4000 1.38 175 07:22 29.01.2021
3164 Clouds 23 1012 92 10000 0.98 147 06:29 29.01.2021
3165 Clouds 22 1010 94 10000 1.28 173 03:52 29.01.2021
3166 Clouds 22 1010 94 10000 0.98 201 00:46 29.01.2021
3167 Clouds 22 1010 94 10000 0.89 197 00:22 29.01.2021
3168 Clouds 22 1010 94 10000 0.89 197 23:47 28.01.2021
3169 Clouds 22 1010 93 10000 0.98 202 23:27 28.01.2021
3170 Clouds 22 1010 93 10000 0.98 202 22:57 28.01.2021
3171 Clouds 22 1010 93 10000 0.98 202 22:38 28.01.2021
3172 Clouds 23 1011 92 10000 0.75 227 22:18 28.01.2021
3173 Clouds 23 1011 92 10000 0.75 227 21:41 28.01.2021
3174 Clouds 23 1011 90 10000 0.67 257 21:20 28.01.2021
3175 Clouds 23 1011 90 10000 0.67 257 20:40 28.01.2021
3176 Clouds 24 1010 88 10000 0.89 163 20:19 28.01.2021
3177 Clouds 23 1010 91 10000 0.87 149 19:48 28.01.2021
3178 Clouds 24 1009 89 10000 1.03 142 19:27 28.01.2021
3179 Clouds 24 1009 89 10000 1.03 142 18:49 28.01.2021
3180 Clouds 24 1008 87 10000 0.65 128 18:28 28.01.2021
3181 Clouds 24 1008 87 10000 0.65 128 17:48 28.01.2021
3182 Clouds 25 1010 83 9000 0.65 128 17:30 28.01.2021
3183 Clouds 25 1010 83 9000 0.28 49 16:47 28.01.2021
3184 Clouds 25 1010 83 9000 0.46 168 16:28 28.01.2021
3185 Clouds 24 1011 83 8000 4.12 30 15:59 28.01.2021
3186 Rain 24 1011 83 8000 4.12 30 15:24 28.01.2021
3187 Rain 24 1011 83 8000 3.09 50 14:44 28.01.2021
3188 Rain 24 1011 83 8000 3.09 50 14:44 28.01.2021
3189 Rain 24 1011 83 8000 3.09 50 14:23 28.01.2021
3190 Rain 23 1011 88 8000 4.12 160 13:54 28.01.2021
3191 Clouds 34 1008 44 10000 1.33 180 13:23 28.01.2021
3192 Clouds 32 1009 51 10000 2.09 196 12:48 28.01.2021
3193 Rain 21 1014 94 7000 2.06 0 12:23 28.01.2021
3194 Rain 21 1014 94 7000 2.06 0 11:44 28.01.2021
3195 Clouds 22 1014 94 7000 4.12 120 11:21 28.01.2021
3196 Clouds 22 1014 94 7000 4.12 120 10:56 28.01.2021
3197 Clouds 30 1011 57 10000 2.09 186 10:38 28.01.2021
3198 Clouds 27 1012 69 10000 1.75 189 10:20 28.01.2021
3199 Clouds 27 1012 69 10000 1.75 189 09:34 28.01.2021
3200 Clouds 25 1013 82 10000 1.09 204 08:58 28.01.2021
3201 Clouds 25 1013 82 10000 1.09 204 08:39 28.01.2021
3202 Clouds 23 1013 90 10000 0.5 260 07:48 28.01.2021
3203 Rain 22 1011 95 10000 0.5 60 06:51 28.01.2021
3204 Rain 22 1011 95 10000 0.5 60 06:32 28.01.2021
3205 Rain 21 1010 96 10000 0.25 212 04:30 28.01.2021
3206 Clouds 21 1008 96 10000 1.2 232 01:41 28.01.2021
3207 Clouds 21 1009 91 10000 0.86 257 00:27 28.01.2021
3208 Clouds 22 1010 88 10000 1.17 242 23:25 27.01.2021
3209 Clouds 22 1010 88 10000 1.17 242 22:44 27.01.2021
3210 Clouds 22 1010 86 10000 1.23 247 22:25 27.01.2021
3211 Clouds 22 1010 86 10000 1.23 247 21:55 27.01.2021
3212 Clouds 22 1010 86 10000 1.23 247 21:37 27.01.2021
3213 Clouds 23 1010 83 10000 1.11 245 21:19 27.01.2021
3214 Clouds 23 1010 83 10000 1.11 245 20:39 27.01.2021
3215 Clouds 23 1009 83 10000 0.27 208 19:57 27.01.2021
3216 Clouds 23 1009 83 10000 0.27 208 19:38 27.01.2021
3217 Clouds 23 1008 85 10000 0.35 283 19:20 27.01.2021
3218 Clouds 23 1008 85 10000 0.35 283 18:41 27.01.2021
3219 Clouds 23 1008 85 10000 0.35 283 18:41 27.01.2021
3220 Clouds 24 1007 86 10000 0.79 287 18:22 27.01.2021
3221 Clouds 24 1007 86 10000 0.79 287 17:44 27.01.2021
3222 Clouds 26 1006 83 10000 0.6 297 17:18 27.01.2021
3223 Clouds 26 1006 83 10000 0.6 297 16:47 27.01.2021
3224 Clouds 27 1005 77 10000 1.19 285 16:28 27.01.2021
3225 Clouds 27 1005 77 10000 1.19 285 15:50 27.01.2021
3226 Clouds 27 1005 77 10000 1.19 285 15:30 27.01.2021
3227 Rain 26 1006 83 10000 1.65 286 14:42 27.01.2021
3228 Rain 24 1006 91 10000 1.18 14 14:21 27.01.2021
3229 Rain 24 1006 91 10000 1.18 14 13:43 27.01.2021
3230 Rain 27 1007 78 8593 0.69 216 12:48 27.01.2021
3231 Rain 29 1008 72 8592 1.38 223 12:26 27.01.2021
3232 Rain 29 1008 72 8592 1.38 223 11:55 27.01.2021
3233 Rain 29 1008 72 8592 1.38 223 11:36 27.01.2021
3234 Rain 29 1010 67 10000 1.58 230 11:18 27.01.2021
3235 Rain 29 1010 67 10000 1.58 230 10:36 27.01.2021
3236 Rain 24 1011 90 10000 0.39 261 10:18 27.01.2021
3237 Rain 24 1011 90 10000 0.39 261 09:36 27.01.2021
3238 Clouds 24 1012 91 10000 0.96 170 08:48 27.01.2021
3239 Clouds 23 1012 94 10000 1.89 187 07:59 27.01.2021
3240 Clouds 23 1012 94 10000 1.89 187 07:40 27.01.2021
3241 Clouds 23 1011 94 10000 1.01 184 06:49 27.01.2021
3242 Clouds 22 1010 97 10000 1.08 199 06:18 27.01.2021
3243 Clouds 22 1010 97 10000 1.08 199 05:35 27.01.2021
3244 Rain 21 1009 97 10000 0.56 279 02:47 27.01.2021
3245 Rain 21 1009 97 10000 0.4 307 02:23 27.01.2021
3246 Rain 21 1009 97 10000 0.4 307 01:47 27.01.2021
3247 Rain 22 1009 96 10000 0.64 245 00:32 27.01.2021
3248 Rain 22 1009 95 10000 0.43 323 23:48 26.01.2021
3249 Rain 22 1010 94 10000 1.36 12 23:26 26.01.2021
3250 Rain 22 1010 94 10000 1.36 12 22:46 26.01.2021
3251 Clouds 23 1010 89 10000 0.64 119 22:22 26.01.2021
3252 Clouds 23 1010 89 10000 0.64 119 21:53 26.01.2021
3253 Clouds 23 1010 88 10000 1.02 112 21:28 26.01.2021
3254 Clouds 23 1010 88 10000 1.02 112 20:58 26.01.2021
3255 Clouds 23 1010 88 10000 1.02 112 20:38 26.01.2021
3256 Clouds 23 1009 87 10000 1.16 109 20:20 26.01.2021
3257 Clouds 23 1009 87 10000 1.17 109 19:43 26.01.2021
3258 Rain 24 1008 84 10000 1.29 122 19:20 26.01.2021
3259 Clouds 25 1008 75 10000 1.21 139 18:46 26.01.2021
3260 Clouds 26 1007 71 10000 0.92 133 18:24 26.01.2021
3261 Clouds 26 1007 71 10000 0.92 133 18:24 26.01.2021
3262 Clouds 26 1007 71 10000 0.92 133 17:49 26.01.2021
3263 Clouds 28 1006 67 10000 0.61 121 17:27 26.01.2021
3264 Clouds 28 1006 67 10000 0.61 121 16:55 26.01.2021
3265 Clouds 28 1006 67 10000 0.61 121 16:37 26.01.2021
3266 Clouds 30 1006 55 10000 0.67 107 16:18 26.01.2021
3267 Clouds 30 1006 55 10000 0.67 107 15:40 26.01.2021
3268 Clouds 32 1006 48 10000 0.69 122 15:20 26.01.2021
3269 Clouds 32 1006 48 10000 0.69 122 14:37 26.01.2021
3270 Clouds 32 1006 49 10000 0.79 126 14:18 26.01.2021
3271 Clouds 32 1006 49 10000 0.79 126 13:33 26.01.2021
3272 Clouds 30 1008 57 10000 0.88 122 12:57 26.01.2021
3273 Clouds 32 1007 50 10000 1.32 156 12:38 26.01.2021
3274 Rain 30 1009 59 10000 1.26 139 12:19 26.01.2021
3275 Rain 30 1009 59 10000 1.26 139 11:50 26.01.2021
3276 Clouds 31 1010 51 10000 1.73 124 11:19 26.01.2021
3277 Clouds 31 1010 51 10000 1.73 124 10:39 26.01.2021
3278 Clouds 29 1011 61 10000 1.66 139 10:20 26.01.2021
3279 Clouds 29 1011 61 10000 1.66 139 09:39 26.01.2021
3280 Clouds 29 1011 61 10000 1.66 139 09:39 26.01.2021
3281 Clouds 27 1012 68 10000 1.56 125 09:21 26.01.2021
3282 Clouds 27 1012 68 10000 1.56 125 08:44 26.01.2021
3283 Clouds 25 1012 81 10000 1.19 123 07:57 26.01.2021
3284 Clouds 22 1012 89 10000 1.16 151 07:19 26.01.2021
3285 Clouds 21 1010 95 10000 1.15 151 05:52 26.01.2021
3286 Clouds 21 1010 95 10000 1.15 151 05:33 26.01.2021
3287 Clouds 20 1010 96 10000 0.96 173 03:32 26.01.2021
3288 Clouds 21 1010 97 10000 1.19 174 01:19 26.01.2021
3289 Clouds 21 1010 97 10000 1.05 188 00:30 26.01.2021
3290 Clouds 21 1011 97 10000 0.83 188 23:33 25.01.2021
3291 Clouds 21 1012 97 10000 0.9 201 22:51 25.01.2021
3292 Clouds 21 1012 97 10000 0.9 201 22:31 25.01.2021
3293 Clouds 21 1012 97 10000 0.53 249 21:47 25.01.2021
3294 Clouds 21 1012 98 10000 0.78 225 21:20 25.01.2021
3295 Clouds 21 1012 98 10000 0.78 225 20:44 25.01.2021
3296 Rain 21 1012 97 10000 0.75 279 20:24 25.01.2021
3297 Rain 21 1012 97 10000 0.75 279 19:49 25.01.2021
3298 Rain 22 1011 97 10000 1.1 358 19:27 25.01.2021
3299 Rain 22 1010 97 10000 0.61 358 18:48 25.01.2021
3300 Clouds 22 1009 96 10000 0.65 30 18:26 25.01.2021
3301 Clouds 22 1009 96 10000 0.65 30 17:49 25.01.2021
3302 Clouds 24 1008 89 10000 0.58 226 17:26 25.01.2021
3303 Clouds 24 1008 89 10000 0.58 226 16:57 25.01.2021
3304 Clouds 24 1008 89 10000 0.58 226 16:39 25.01.2021
3305 Clouds 25 1007 84 10000 0.68 202 16:20 25.01.2021
3306 Clouds 25 1007 84 10000 0.68 202 15:41 25.01.2021
3307 Clouds 24 1008 90 10000 0.44 214 15:22 25.01.2021
3308 Clouds 24 1008 90 10000 0.44 214 14:39 25.01.2021
3309 Clouds 24 1009 92 10000 1.15 241 14:18 25.01.2021
3310 Clouds 24 1009 92 10000 1.15 241 13:44 25.01.2021
3311 Rain 23 1010 94 10000 1.38 201 13:25 25.01.2021
3312 Clouds 23 1010 94 10000 1.57 221 12:45 25.01.2021
3313 Rain 23 1011 93 10000 0.95 154 12:19 25.01.2021
3314 Rain 23 1011 93 10000 0.95 154 11:31 25.01.2021
3315 Rain 23 1012 91 10000 1.33 128 10:53 25.01.2021
3316 Rain 23 1013 90 10000 1.73 134 10:23 25.01.2021
3317 Rain 23 1013 90 10000 1.73 134 09:55 25.01.2021
3318 Rain 23 1013 90 10000 1.73 134 09:37 25.01.2021
3319 Clouds 23 1013 91 10000 1.46 161 08:56 25.01.2021
3320 Clouds 23 1013 92 10000 1.57 166 08:23 25.01.2021
3321 Clouds 23 1013 92 10000 1.57 166 07:31 25.01.2021
3322 Clouds 22 1013 95 10000 0.53 68 06:52 25.01.2021
3323 Rain 22 1010 96 10000 1.72 170 03:39 25.01.2021
3324 Clouds 22 1010 93 10000 0.44 171 01:22 25.01.2021
3325 Clouds 22 1010 93 10000 0.74 212 23:40 24.01.2021
3326 Clouds 21 1010 94 10000 1.14 217 23:19 24.01.2021
3327 Clouds 21 1010 94 10000 1.14 217 22:42 24.01.2021
3328 Clouds 21 1010 94 10000 1.14 217 22:42 24.01.2021
3329 Clouds 21 1010 95 10000 1.25 188 22:20 24.01.2021
3330 Clouds 21 1010 95 10000 1.25 188 21:48 24.01.2021
3331 Clouds 21 1010 94 10000 1.53 199 21:24 24.01.2021
3332 Clouds 21 1010 94 10000 1.53 199 20:44 24.01.2021
3333 Rain 22 1010 95 10000 1.38 202 20:21 24.01.2021
3334 Rain 22 1010 95 10000 1.38 202 19:52 24.01.2021
3335 Rain 22 1009 95 10000 1.46 173 19:27 24.01.2021
3336 Rain 22 1009 95 10000 1.46 173 18:58 24.01.2021
3337 Rain 22 1008 93 10000 1.17 145 18:39 24.01.2021
3338 Rain 22 1008 93 10000 1.17 145 18:39 24.01.2021
3339 Rain 22 1007 93 10000 1.27 194 18:20 24.01.2021
3340 Rain 22 1007 93 10000 1.27 194 17:50 24.01.2021
3341 Rain 23 1006 93 10000 1.61 213 17:28 24.01.2021
3342 Rain 23 1006 93 10000 1.61 213 16:58 24.01.2021
3343 Rain 23 1006 93 10000 1.61 213 16:38 24.01.2021
3344 Rain 23 1005 89 10000 2.93 175 16:18 24.01.2021
3345 Rain 23 1005 89 10000 2.93 175 15:43 24.01.2021
3346 Rain 26 1005 74 8717 0.76 354 15:18 24.01.2021
3347 Rain 26 1005 74 8717 0.76 354 14:39 24.01.2021
3348 Clouds 34 1006 43 10000 0.46 207 13:48 24.01.2021
3349 Clouds 34 1006 43 10000 0.46 207 13:48 24.01.2021
3350 Clouds 35 1007 39 10000 0.48 239 13:27 24.01.2021
3351 Clouds 35 1007 39 10000 0.48 239 12:50 24.01.2021
3352 Clouds 36 1008 39 10000 0.7 218 12:20 24.01.2021
3353 Clouds 36 1008 39 10000 0.7 218 12:20 24.01.2021
3354 Clouds 36 1008 39 10000 0.7 218 11:52 24.01.2021
3355 Clouds 34 1009 45 10000 1.11 181 11:25 24.01.2021
3356 Clouds 34 1009 45 10000 1.11 181 10:50 24.01.2021
3357 Clouds 30 1010 56 10000 1.51 137 10:29 24.01.2021
3358 Clouds 30 1010 56 10000 1.51 137 09:44 24.01.2021
3359 Clouds 28 1011 63 10000 1.37 103 09:18 24.01.2021
3360 Clouds 27 1011 67 10000 1 98 08:26 24.01.2021
3361 Clouds 22 1008 84 10000 0.85 100 03:37 24.01.2021
3362 Clouds 22 1008 80 10000 0.58 171 02:18 24.01.2021
3363 Clouds 23 1008 76 10000 0.77 206 00:27 24.01.2021
3364 Clouds 23 1008 76 10000 0.77 206 23:59 23.01.2021
3365 Clouds 23 1008 76 10000 0.77 206 23:59 23.01.2021
3366 Clouds 23 1008 76 10000 0.77 206 23:33 23.01.2021
3367 Clouds 23 1008 73 10000 1.16 190 22:58 23.01.2021
3368 Clouds 23 1008 73 10000 1.16 190 22:40 23.01.2021
3369 Clouds 24 1008 70 10000 1.32 188 21:58 23.01.2021
3370 Clouds 25 1008 66 10000 1.31 181 21:23 23.01.2021
3371 Clouds 25 1008 66 10000 1.31 181 20:50 23.01.2021
3372 Clouds 25 1008 66 10000 1.31 181 20:30 23.01.2021
3373 Clouds 26 1008 57 10000 1.57 146 19:47 23.01.2021
3374 Clouds 27 1007 54 10000 0.97 141 19:25 23.01.2021
3375 Clouds 27 1007 54 10000 0.97 141 18:59 23.01.2021
3376 Clouds 27 1006 51 10000 0.93 137 18:40 23.01.2021
3377 Clouds 27 1006 53 10000 0.53 165 18:20 23.01.2021
3378 Clouds 30 1004 51 10000 0.47 237 17:29 23.01.2021
3379 Clouds 30 1004 51 10000 0.47 237 16:52 23.01.2021
3380 Clouds 30 1004 51 10000 0.47 237 16:32 23.01.2021
3381 Clouds 32 1004 42 10000 0.55 281 15:49 23.01.2021
3382 Clouds 33 1004 40 10000 0.55 320 15:27 23.01.2021
3383 Clouds 33 1004 40 10000 0.55 320 14:38 23.01.2021
3384 Clouds 34 1005 37 10000 0.53 6 14:19 23.01.2021
3385 Clouds 34 1005 37 10000 0.53 6 13:40 23.01.2021
3386 Clouds 37 1006 29 10000 0.98 4 13:22 23.01.2021
3387 Clouds 36 1006 32 10000 0.97 23 12:43 23.01.2021
3388 Clouds 37 1007 32 10000 0.74 4 12:23 23.01.2021
3389 Clouds 37 1007 32 10000 0.74 4 11:35 23.01.2021
3390 Clouds 36 1008 36 10000 0.48 20 10:55 23.01.2021
3391 Clouds 34 1009 43 10000 0.5 194 10:24 23.01.2021
3392 Clouds 34 1009 43 10000 0.5 194 09:52 23.01.2021
3393 Clouds 31 1010 52 10000 0.71 153 09:28 23.01.2021
3394 Clouds 31 1010 52 10000 0.71 153 08:42 23.01.2021
3395 Clouds 28 1011 63 10000 0.85 145 07:48 23.01.2021
3396 Clouds 25 1011 75 10000 0.74 104 06:49 23.01.2021
3397 Clouds 23 1009 84 10000 0.8 180 02:20 23.01.2021
3398 Clouds 23 1009 79 10000 1 191 00:23 23.01.2021
3399 Clouds 23 1009 79 10000 1 191 23:36 22.01.2021
3400 Clouds 24 1009 76 10000 0.9 211 22:42 22.01.2021
3401 Clouds 24 1008 74 10000 0.47 207 21:59 22.01.2021
3402 Clouds 24 1008 74 10000 0.47 207 21:38 22.01.2021
3403 Clouds 24 1008 71 10000 0.61 157 21:20 22.01.2021
3404 Clouds 24 1008 71 10000 0.61 157 20:46 22.01.2021
3405 Clouds 25 1008 64 10000 1.11 152 20:25 22.01.2021
3406 Clouds 25 1008 64 10000 1.11 152 19:47 22.01.2021
3407 Clouds 26 1007 57 10000 0.87 144 19:18 22.01.2021
3408 Clouds 26 1006 54 10000 0.57 154 18:44 22.01.2021
3409 Clouds 27 1005 53 10000 0.37 158 18:25 22.01.2021
3410 Clouds 27 1005 53 10000 0.37 158 17:48 22.01.2021
3411 Clouds 30 1004 50 10000 0.1 200 17:29 22.01.2021
3412 Clouds 30 1004 50 10000 0.1 200 16:54 22.01.2021
3413 Clouds 30 1004 50 10000 0.1 200 16:30 22.01.2021
3414 Clouds 33 1003 38 10000 0.57 14 15:45 22.01.2021
3415 Clouds 35 1004 30 10000 1.32 10 15:20 22.01.2021
3416 Clouds 35 1004 30 10000 1.32 10 14:31 22.01.2021
3417 Clouds 35 1005 29 10000 1.43 5 13:53 22.01.2021
3418 Clouds 35 1005 29 10000 1.43 5 13:35 22.01.2021
3419 Clouds 37 1006 31 10000 0.5 6 12:55 22.01.2021
3420 Clouds 37 1007 34 10000 0.45 83 12:26 22.01.2021
3421 Clouds 37 1007 34 10000 0.45 83 11:48 22.01.2021
3422 Clouds 37 1007 34 10000 0.45 83 11:30 22.01.2021
3423 Clouds 35 1008 40 10000 0.85 139 10:46 22.01.2021
3424 Clouds 32 1010 46 10000 1.07 133 10:22 22.01.2021
3425 Clouds 32 1010 46 10000 1.07 133 09:42 22.01.2021
3426 Clouds 30 1011 52 10000 1.1 101 08:57 22.01.2021
3427 Clouds 30 1011 52 10000 1.1 101 08:31 22.01.2021
3428 Clouds 27 1011 60 10000 1.16 92 07:41 22.01.2021
3429 Clouds 21 1010 80 10000 0.71 155 04:39 22.01.2021
3430 Clouds 23 1009 73 10000 0.57 173 00:54 22.01.2021
3431 Clouds 23 1009 71 10000 0.93 207 00:27 22.01.2021
3432 Clouds 23 1009 71 10000 0.93 207 23:43 21.01.2021
3433 Clouds 23 1009 69 10000 1.09 196 23:20 21.01.2021
3434 Clouds 23 1009 69 10000 1.09 196 22:42 21.01.2021
3435 Clouds 24 1009 66 10000 1.14 193 21:44 21.01.2021
3436 Clouds 24 1009 64 10000 0.78 183 21:23 21.01.2021
3437 Clouds 24 1009 64 10000 0.78 183 20:59 21.01.2021
3438 Clouds 24 1009 64 10000 0.78 183 20:41 21.01.2021
3439 Clouds 25 1008 61 10000 0.52 162 20:20 21.01.2021
3440 Clouds 25 1008 61 10000 0.52 162 19:46 21.01.2021
3441 Clouds 26 1007 58 10000 0.43 149 19:25 21.01.2021
3442 Clouds 26 1007 58 10000 0.43 148 18:43 21.01.2021
3443 Clouds 27 1007 56 10000 0.25 98 18:21 21.01.2021
3444 Clouds 27 1007 56 10000 0.25 98 17:57 21.01.2021
3445 Clouds 29 1006 54 10000 0.58 48 17:21 21.01.2021
3446 Clouds 29 1006 54 10000 0.58 48 16:56 21.01.2021
3447 Clouds 29 1006 54 10000 0.58 48 16:38 21.01.2021
3448 Clouds 32 1005 46 10000 0.86 21 16:19 21.01.2021
3449 Clouds 32 1005 46 10000 0.86 21 15:46 21.01.2021
3450 Clouds 33 1005 39 10000 0.92 355 15:24 21.01.2021
3451 Clouds 33 1005 39 10000 0.92 355 14:44 21.01.2021
3452 Clouds 35 1006 33 10000 0.91 342 14:23 21.01.2021
3453 Clouds 35 1006 33 10000 0.91 342 13:43 21.01.2021
3454 Clouds 35 1007 32 10000 0.86 337 13:23 21.01.2021
3455 Clouds 35 1007 32 10000 0.86 337 12:42 21.01.2021
3456 Clouds 36 1009 34 10000 0.62 296 12:24 21.01.2021
3457 Clouds 36 1009 34 10000 0.62 296 11:51 21.01.2021
3458 Clouds 35 1010 39 10000 0.56 234 11:28 21.01.2021
3459 Clouds 35 1010 39 10000 0.56 234 10:52 21.01.2021
3460 Clouds 35 1010 39 10000 0.56 234 10:33 21.01.2021
3461 Clouds 32 1011 46 10000 0.85 177 09:45 21.01.2021
3462 Clouds 30 1011 54 10000 1.02 162 09:25 21.01.2021
3463 Clouds 30 1011 54 10000 1.02 162 08:45 21.01.2021
3464 Clear 27 1012 65 10000 0.67 155 08:24 21.01.2021
3465 Clouds 24 1012 81 10000 0.53 75 07:28 21.01.2021
3466 Clouds 23 1012 82 10000 0.4 70 06:58 21.01.2021
3467 Clouds 20 1011 96 10000 0.62 93 05:22 21.01.2021
3468 Clouds 21 1010 94 10000 0.71 155 02:58 21.01.2021
3469 Clouds 21 1010 92 10000 0.91 173 00:57 21.01.2021
3470 Clouds 22 1010 92 10000 1.15 178 23:56 20.01.2021
3471 Clouds 22 1010 92 10000 1.15 178 23:33 20.01.2021
3472 Clear 22 1010 91 10000 1.33 185 22:59 20.01.2021
3473 Clear 22 1010 91 10000 1.33 185 22:41 20.01.2021
3474 Clear 22 1010 92 10000 1.21 185 22:21 20.01.2021
3475 Clear 22 1010 92 10000 1.21 185 21:41 20.01.2021
3476 Clear 23 1011 91 10000 1.09 194 21:21 20.01.2021
3477 Clear 23 1011 91 10000 1.09 194 20:49 20.01.2021
3478 Clear 23 1010 89 10000 1.16 198 20:19 20.01.2021
3479 Clear 23 1010 89 10000 1.16 198 19:45 20.01.2021
3480 Clouds 23 1010 85 10000 1.46 204 19:26 20.01.2021
3481 Clouds 24 1009 87 10000 1.42 193 18:42 20.01.2021
3482 Clouds 24 1008 82 10000 1.6 209 18:18 20.01.2021
3483 Clouds 24 1008 82 10000 1.6 209 17:40 20.01.2021
3484 Clouds 27 1007 69 10000 1.98 193 17:19 20.01.2021
3485 Clouds 27 1007 69 10000 1.98 193 16:41 20.01.2021
3486 Clouds 29 1007 58 10000 1.91 187 15:55 20.01.2021
3487 Clouds 29 1007 58 10000 1.91 187 15:36 20.01.2021
3488 Clouds 30 1007 54 10000 1.36 199 14:51 20.01.2021
3489 Rain 30 1008 58 10000 1.04 202 14:28 20.01.2021
3490 Rain 30 1008 58 10000 1.04 202 13:59 20.01.2021
3491 Rain 30 1008 58 10000 1.04 202 13:36 20.01.2021
3492 Rain 29 1009 70 10000 0.53 212 12:48 20.01.2021
3493 Rain 29 1010 74 6564 0.46 270 12:21 20.01.2021
3494 Rain 29 1010 74 6564 0.46 270 11:39 20.01.2021
3495 Rain 29 1010 74 7513 0.4 219 11:18 20.01.2021
3496 Rain 29 1010 74 7513 0.4 219 10:43 20.01.2021
3497 Rain 29 1011 75 10000 0.17 305 10:18 20.01.2021
3498 Rain 29 1011 75 10000 0.17 305 09:31 20.01.2021
3499 Rain 27 1012 84 7240 0.58 355 08:59 20.01.2021
3500 Rain 27 1012 84 7240 0.58 355 08:34 20.01.2021
3501 Rain 25 1012 85 10000 1.09 6 07:59 20.01.2021
3502 Rain 25 1012 85 10000 1.09 6 07:37 20.01.2021
3503 Rain 24 1012 83 10000 0.84 146 06:56 20.01.2021
3504 Clouds 22 1009 87 10000 1.1 129 03:30 20.01.2021
3505 Clouds 22 1008 83 10000 0.78 178 01:51 20.01.2021
3506 Clouds 23 1009 77 10000 0.97 180 00:48 20.01.2021
3507 Clouds 23 1009 72 10000 1.21 176 23:50 19.01.2021
3508 Clouds 23 1009 72 10000 1.21 176 23:32 19.01.2021
3509 Clouds 24 1009 68 10000 0.95 200 22:58 19.01.2021
3510 Clouds 24 1009 68 10000 0.95 200 22:37 19.01.2021
3511 Clouds 25 1009 64 10000 0.83 223 22:19 19.01.2021
3512 Clouds 25 1009 64 10000 0.83 223 21:52 19.01.2021
3513 Clouds 25 1008 62 10000 0.71 253 21:28 19.01.2021
3514 Clouds 25 1008 62 10000 0.71 253 20:49 19.01.2021
3515 Clouds 25 1007 62 10000 0.45 250 20:26 19.01.2021
3516 Clouds 25 1007 62 10000 0.45 250 19:56 19.01.2021
3517 Clouds 25 1007 62 10000 0.45 250 19:31 19.01.2021
3518 Clouds 26 1007 61 10000 0.71 292 18:50 19.01.2021
3519 Clouds 26 1006 62 10000 0.58 260 18:31 19.01.2021
3520 Clouds 27 1005 59 10000 0.81 300 17:55 19.01.2021
3521 Clouds 27 1005 59 10000 0.81 300 17:37 19.01.2021
3522 Clouds 29 1005 55 10000 0.93 339 17:18 19.01.2021
3523 Clouds 29 1005 55 10000 0.93 339 16:38 19.01.2021
3524 Clouds 33 1004 42 10000 1.06 347 16:18 19.01.2021
3525 Clouds 33 1004 42 10000 1.06 347 15:47 19.01.2021
3526 Clouds 33 1004 42 10000 1.04 348 15:29 19.01.2021
3527 Clouds 33 1004 42 10000 1.04 348 14:42 19.01.2021
3528 Clouds 34 1005 36 10000 1.52 341 14:23 19.01.2021
3529 Clouds 34 1005 36 10000 1.52 341 13:49 19.01.2021
3530 Clouds 36 1006 33 10000 1.5 341 13:21 19.01.2021
3531 Clouds 36 1006 33 10000 1.5 341 12:48 19.01.2021
3532 Clouds 36 1006 34 10000 1.4 337 12:30 19.01.2021
3533 Clouds 36 1008 36 10000 0.99 301 11:50 19.01.2021
3534 Clear 34 1009 43 10000 1.15 224 11:28 19.01.2021
3535 Clear 34 1009 43 10000 1.15 224 11:28 19.01.2021
3536 Clear 34 1009 43 10000 1.15 224 10:52 19.01.2021
3537 Clouds 25 1012 88 10000 3.09 270 10:32 19.01.2021
3538 Clouds 25 1012 88 10000 3.09 270 09:53 19.01.2021
3539 Clear 32 1010 51 10000 1.55 198 09:31 19.01.2021
3540 Clear 29 1010 59 10000 1.55 177 08:59 19.01.2021
3541 Clear 27 1011 69 10000 1.5 145 08:26 19.01.2021
3542 Clear 27 1011 69 10000 1.5 145 07:47 19.01.2021
3543 Clouds 24 1011 80 10000 1.28 131 06:54 19.01.2021
3544 Clouds 22 1008 86 10000 1.09 165 02:33 19.01.2021
3545 Clouds 23 1008 80 10000 0.88 214 01:27 19.01.2021
3546 Clouds 23 1008 81 10000 1.11 197 23:59 18.01.2021
3547 Clouds 23 1008 81 10000 1.11 197 23:35 18.01.2021
3548 Clouds 23 1008 78 10000 1.14 192 22:58 18.01.2021
3549 Clouds 23 1008 78 10000 1.14 192 22:38 18.01.2021
3550 Clouds 24 1008 75 10000 1.12 190 22:18 18.01.2021
3551 Clouds 24 1008 75 10000 1.12 190 21:40 18.01.2021
3552 Clouds 24 1007 72 10000 1.05 211 21:21 18.01.2021
3553 Clouds 24 1007 72 10000 1.05 211 20:43 18.01.2021
3554 Clouds 25 1007 69 10000 0.99 209 20:25 18.01.2021
3555 Clouds 25 1007 69 10000 0.99 209 19:51 18.01.2021
3556 Clouds 25 1007 69 10000 0.99 209 19:33 18.01.2021
3557 Clouds 26 1006 64 10000 0.98 198 18:47 18.01.2021
3558 Clouds 27 1005 62 10000 0.87 212 18:23 18.01.2021
3559 Clouds 27 1005 62 10000 0.87 212 17:45 18.01.2021
3560 Clouds 29 1005 59 10000 0.47 268 17:24 18.01.2021
3561 Clouds 29 1005 59 10000 0.47 268 16:48 18.01.2021
3562 Clouds 31 1004 49 10000 0.93 312 16:22 18.01.2021
3563 Clouds 32 1004 49 10000 0.93 312 15:48 18.01.2021
3564 Clouds 33 1004 43 10000 1.23 323 15:25 18.01.2021
3565 Clouds 33 1004 43 10000 1.23 323 14:44 18.01.2021
3566 Clouds 33 1005 45 10000 1.54 346 14:26 18.01.2021
3567 Clouds 33 1005 45 10000 1.54 346 13:47 18.01.2021
3568 Clouds 33 1006 42 10000 1.63 4 13:28 18.01.2021
3569 Clouds 33 1006 42 10000 1.63 4 12:55 18.01.2021
3570 Clouds 35 1008 39 10000 1.26 3 12:21 18.01.2021
3571 Clouds 35 1008 39 10000 1.26 3 11:57 18.01.2021
3572 Clouds 35 1008 39 10000 1.26 3 11:39 18.01.2021
3573 Clouds 34 1009 43 10000 0.89 15 11:20 18.01.2021
3574 Clouds 34 1009 43 10000 0.89 15 10:44 18.01.2021
3575 Clouds 33 1010 48 10000 0.48 89 09:50 18.01.2021
3576 Clouds 33 1010 48 10000 0.48 89 09:32 18.01.2021
3577 Clouds 30 1010 56 10000 0.85 156 08:54 18.01.2021
3578 Clouds 27 1010 68 10000 1.32 173 08:18 18.01.2021
3579 Clouds 27 1010 68 10000 1.32 173 07:37 18.01.2021
3580 Clouds 21 1009 91 10000 0.88 152 05:45 18.01.2021
3581 Clouds 21 1009 91 10000 1.08 160 04:39 18.01.2021
3582 Clouds 21 1008 89 10000 1.2 160 04:18 18.01.2021
3583 Clouds 21 1008 89 10000 1.2 160 03:42 18.01.2021
3584 Clouds 21 1008 87 10000 1.07 173 03:20 18.01.2021
3585 Clouds 21 1008 87 10000 1.07 173 02:37 18.01.2021
3586 Clouds 22 1008 87 10000 0.74 216 01:36 18.01.2021
3587 Clouds 22 1008 86 10000 0.59 181 00:32 18.01.2021
3588 Clouds 22 1008 85 10000 0.94 176 23:48 17.01.2021
3589 Clouds 23 1009 83 10000 1.14 194 23:21 17.01.2021
3590 Clouds 23 1009 83 10000 1.14 194 22:41 17.01.2021
3591 Clouds 23 1009 82 10000 1.22 214 22:22 17.01.2021
3592 Clouds 23 1009 82 10000 1.22 214 21:40 17.01.2021
3593 Clouds 24 1009 80 10000 1.11 191 21:22 17.01.2021
3594 Clouds 24 1009 80 10000 1.11 191 20:49 17.01.2021
3595 Clouds 24 1008 78 10000 0.95 177 20:29 17.01.2021
3596 Clouds 24 1008 78 10000 0.95 177 19:43 17.01.2021
3597 Clouds 24 1007 76 10000 0.84 155 19:24 17.01.2021
3598 Clouds 24 1007 76 10000 0.84 155 18:44 17.01.2021
3599 Clouds 26 1006 72 10000 0.9 168 18:26 17.01.2021
3600 Clouds 26 1006 72 10000 0.9 168 17:48 17.01.2021
3601 Clouds 28 1006 65 10000 0.51 171 17:26 17.01.2021
3602 Clouds 28 1006 65 10000 0.51 171 16:44 17.01.2021
3603 Clouds 31 1006 50 10000 0.45 183 16:24 17.01.2021
3604 Clouds 31 1006 50 10000 0.45 183 15:43 17.01.2021
3605 Clouds 32 1005 46 10000 0.71 214 15:25 17.01.2021
3606 Clouds 32 1005 46 10000 0.71 212 14:49 17.01.2021
3607 Clouds 32 1005 46 10000 0.71 212 14:49 17.01.2021
3608 Rain 31 1006 51 10000 1.37 233 14:26 17.01.2021
3609 Rain 31 1006 51 10000 1.37 233 13:46 17.01.2021
3610 Clouds 32 1006 48 10000 1.79 253 13:27 17.01.2021
3611 Clouds 32 1006 48 10000 1.79 253 12:54 17.01.2021
3612 Clouds 31 1006 51 10000 1.66 252 12:31 17.01.2021
3613 Rain 31 1008 58 10000 1.53 248 11:59 17.01.2021
3614 Rain 32 1009 52 10000 1.21 184 11:24 17.01.2021
3615 Rain 32 1009 52 10000 1.21 184 10:49 17.01.2021
3616 Rain 29 1010 68 10000 1.14 158 10:21 17.01.2021
3617 Rain 29 1010 68 10000 1.14 158 09:42 17.01.2021
3618 Rain 29 1011 64 10000 1.05 142 08:46 17.01.2021
3619 Clouds 23 1011 90 10000 1.15 214 06:57 17.01.2021
3620 Clouds 22 1009 94 10000 1.09 141 04:28 17.01.2021
3621 Clouds 22 1009 93 10000 1.17 147 02:48 17.01.2021
3622 Clouds 22 1009 93 10000 0.71 149 00:51 17.01.2021
3623 Clouds 21 1009 94 10000 0.96 189 00:18 17.01.2021
3624 Clouds 21 1009 94 10000 0.96 189 23:49 16.01.2021
3625 Clouds 22 1009 94 10000 0.89 178 23:20 16.01.2021
3626 Clouds 22 1009 94 10000 0.89 178 22:45 16.01.2021
3627 Clouds 22 1010 93 10000 0.72 157 21:58 16.01.2021
3628 Clouds 22 1010 93 10000 0.72 157 21:37 16.01.2021
3629 Clouds 22 1009 92 10000 0.7 194 21:18 16.01.2021
3630 Clouds 22 1009 92 10000 0.7 193 20:42 16.01.2021
3631 Clouds 22 1009 92 10000 0.76 252 20:21 16.01.2021
3632 Clouds 22 1009 92 10000 0.76 252 19:44 16.01.2021
3633 Rain 22 1008 91 10000 1.06 259 19:24 16.01.2021
3634 Rain 22 1008 91 10000 1.06 259 19:24 16.01.2021
3635 Clouds 23 1008 87 10000 0.56 280 18:43 16.01.2021
3636 Clouds 23 1008 87 10000 0.56 280 18:43 16.01.2021
3637 Rain 23 1007 84 10000 0.91 297 18:24 16.01.2021
3638 Rain 23 1007 84 10000 0.91 297 17:47 16.01.2021
3639 Rain 29 1009 65 8000 3.09 120 17:28 16.01.2021
3640 Rain 26 1006 73 10000 1.14 321 16:47 16.01.2021
3641 Clouds 30 1005 53 10000 1.37 330 16:26 16.01.2021
3642 Clouds 30 1005 53 10000 1.37 330 15:54 16.01.2021
3643 Clouds 31 1006 48 10000 1.32 324 15:22 16.01.2021
3644 Clouds 32 1006 46 10000 1.01 298 14:22 16.01.2021
3645 Clouds 32 1006 46 10000 1.01 298 13:48 16.01.2021
3646 Clouds 29 1007 58 10000 0.74 292 13:24 16.01.2021
3647 Clouds 25 1011 83 7000 2.06 0 12:39 16.01.2021
3648 Clouds 25 1011 83 7000 2.06 0 12:20 16.01.2021
3649 Clouds 28 1009 62 10000 1.04 182 11:49 16.01.2021
3650 Clouds 28 1010 62 10000 1.52 174 11:25 16.01.2021
3651 Clouds 28 1010 62 10000 1.52 174 10:47 16.01.2021
3652 Clouds 26 1011 72 10000 1.41 174 10:24 16.01.2021
3653 Clouds 26 1011 72 10000 1.41 174 09:39 16.01.2021
3654 Clouds 26 1011 69 10000 1.64 167 09:19 16.01.2021
3655 Clouds 25 1011 78 10000 2.04 167 07:50 16.01.2021
3656 Clouds 22 1011 90 10000 2.05 168 06:44 16.01.2021
3657 Clouds 20 1010 96 10000 1.31 158 04:40 16.01.2021
3658 Clouds 20 1009 96 10000 1.19 160 02:56 16.01.2021
3659 Clouds 21 1009 95 10000 1.23 180 01:44 16.01.2021
3660 Clouds 21 1009 96 10000 1.04 160 00:38 16.01.2021
3661 Clouds 21 1010 94 10000 1.15 147 00:19 16.01.2021
3662 Clouds 21 1011 95 10000 0.85 164 23:24 15.01.2021
3663 Clouds 22 1011 94 10000 0.9 167 22:26 15.01.2021
3664 Clouds 22 1011 94 10000 0.9 167 21:47 15.01.2021
3665 Clouds 22 1011 94 10000 1.29 162 21:22 15.01.2021
3666 Clouds 22 1011 94 10000 1.29 162 20:42 15.01.2021
3667 Clouds 22 1011 94 10000 1.29 162 20:42 15.01.2021
3668 Clouds 22 1011 94 10000 1.49 159 20:22 15.01.2021
3669 Clouds 22 1011 94 10000 1.49 159 19:42 15.01.2021
3670 Clouds 22 1010 94 10000 1.7 149 19:24 15.01.2021
3671 Clouds 22 1010 94 10000 1.7 149 18:45 15.01.2021
3672 Rain 23 1008 93 10000 1.61 154 18:20 15.01.2021
3673 Rain 23 1008 93 10000 1.61 154 17:53 15.01.2021
3674 Rain 25 1007 88 10000 1.83 149 17:27 15.01.2021
3675 Rain 25 1007 88 10000 1.83 149 16:58 15.01.2021
3676 Rain 26 1007 79 10000 2.03 142 16:26 15.01.2021
3677 Rain 26 1007 79 10000 2.03 142 15:56 15.01.2021
3678 Rain 26 1007 79 10000 2.03 142 15:37 15.01.2021
3679 Rain 28 1007 65 10000 1.43 165 15:18 15.01.2021
3680 Rain 28 1007 65 10000 1.43 165 14:37 15.01.2021
3681 Clouds 30 1007 51 10000 0.89 178 14:18 15.01.2021
3682 Clouds 30 1007 51 10000 0.89 178 13:40 15.01.2021
3683 Clouds 33 1008 44 10000 1.06 230 13:19 15.01.2021
3684 Clouds 33 1008 44 10000 1.06 230 12:40 15.01.2021
3685 Clouds 32 1009 45 10000 1.3 248 12:21 15.01.2021
3686 Clouds 32 1009 45 10000 1.3 248 11:42 15.01.2021
3687 Clouds 32 1009 45 10000 1.3 248 11:42 15.01.2021
3688 Clouds 31 1011 50 10000 1.27 230 10:59 15.01.2021
3689 Clouds 31 1011 50 10000 1.27 230 10:41 15.01.2021
3690 Clouds 28 1012 61 10000 1.73 190 10:21 15.01.2021
3691 Clouds 28 1012 61 10000 1.73 190 09:48 15.01.2021
3692 Clouds 25 1013 72 10000 1.57 168 09:28 15.01.2021
3693 Mist 21 1013 94 3000 1.45 150 08:28 15.01.2021
3694 Mist 21 1013 94 3000 1.45 150 08:28 15.01.2021
3695 Mist 21 1013 94 3000 1.45 150 07:44 15.01.2021
3696 Clouds 21 1013 91 10000 1.07 133 07:23 15.01.2021
3697 Clouds 22 1013 87 10000 1.74 150 06:35 15.01.2021
3698 Clouds 21 1010 94 10000 0.99 158 02:43 15.01.2021
3699 Clouds 21 1010 95 10000 0.77 180 00:41 15.01.2021
3700 Clouds 21 1011 93 10000 1.37 218 23:30 14.01.2021
3701 Clouds 21 1011 93 10000 1.54 206 22:56 14.01.2021
3702 Clouds 21 1011 93 10000 1.54 206 22:36 14.01.2021
3703 Clouds 21 1011 93 10000 1.54 206 22:36 14.01.2021
3704 Clouds 21 1011 95 10000 1.9 194 22:18 14.01.2021
3705 Clouds 21 1011 95 10000 1.9 194 21:39 14.01.2021
3706 Clouds 21 1012 96 10000 1.49 172 21:20 14.01.2021
3707 Clouds 21 1012 96 10000 1.49 172 20:44 14.01.2021
3708 Clouds 21 1011 94 10000 1.38 183 20:18 14.01.2021
3709 Clouds 21 1011 94 10000 1.38 183 20:18 14.01.2021
3710 Clouds 21 1011 94 10000 1.38 183 19:38 14.01.2021
3711 Clouds 21 1011 91 10000 1.49 167 19:18 14.01.2021
3712 Clouds 21 1011 91 10000 1.49 167 18:44 14.01.2021
3713 Clouds 23 1009 87 10000 1.86 165 17:59 14.01.2021
3714 Clouds 23 1009 87 10000 1.86 165 17:59 14.01.2021
3715 Clouds 23 1009 87 10000 1.87 165 17:38 14.01.2021
3716 Clouds 24 1007 87 10000 1.88 172 17:19 14.01.2021
3717 Clouds 24 1007 87 10000 1.88 172 16:37 14.01.2021
3718 Rain 24 1006 84 10000 2.34 168 15:55 14.01.2021
3719 Rain 24 1006 84 10000 2.34 168 15:34 14.01.2021
3720 Rain 26 1006 79 10000 2.63 182 14:49 14.01.2021
3721 Rain 26 1006 79 10000 2.63 182 14:31 14.01.2021
3722 Rain 27 1006 77 10000 2.09 202 13:57 14.01.2021
3723 Rain 20 1018 100 2000 5.14 90 13:26 14.01.2021
3724 Rain 20 1018 100 2000 5.14 90 12:59 14.01.2021
3725 Rain 24 1013 88 4000 4.12 130 12:24 14.01.2021
3726 Rain 24 1013 88 4000 4.12 130 11:59 14.01.2021
3727 Clouds 34 1008 38 10000 1.64 294 11:41 14.01.2021
3728 Clouds 24 1013 88 8000 3.09 130 11:20 14.01.2021
3729 Clouds 24 1013 88 8000 3.09 130 10:43 14.01.2021
3730 Clouds 25 1013 83 8000 3.09 120 10:20 14.01.2021
3731 Clouds 33 1010 48 10000 0.57 203 09:44 14.01.2021
3732 Clouds 30 1011 56 10000 1.32 177 09:22 14.01.2021
3733 Clouds 30 1011 56 10000 1.32 177 08:40 14.01.2021
3734 Mist 23 1012 94 4000 0.96 166 08:21 14.01.2021
3735 Clouds 28 1012 64 10000 0.96 166 07:42 14.01.2021
3736 Clouds 24 1012 74 10000 0.31 255 06:41 14.01.2021
3737 Clouds 21 1010 83 10000 0.61 244 05:23 14.01.2021
3738 Clouds 22 1009 74 10000 0.94 155 00:36 14.01.2021
3739 Clouds 23 1009 70 10000 1.03 161 23:48 13.01.2021
3740 Clouds 23 1010 69 10000 1.02 216 22:51 13.01.2021
3741 Clouds 24 1009 67 10000 0.75 204 22:27 13.01.2021
3742 Clouds 24 1009 67 10000 0.75 204 21:50 13.01.2021
3743 Clouds 24 1009 67 10000 0.74 198 21:24 13.01.2021
3744 Clouds 24 1009 67 10000 0.74 198 20:54 13.01.2021
3745 Clouds 24 1009 68 10000 1.02 223 20:28 13.01.2021
3746 Clouds 24 1009 68 10000 1.02 223 19:57 13.01.2021
3747 Clouds 24 1009 68 10000 1.02 223 19:32 13.01.2021
3748 Clouds 25 1008 64 10000 1.22 223 18:58 13.01.2021
3749 Clouds 25 1008 64 10000 1.22 223 18:36 13.01.2021
3750 Clear 26 1006 62 10000 0.52 47 17:51 13.01.2021
3751 Clouds 32 1008 58 10000 3.09 210 17:23 13.01.2021
3752 Clouds 32 1008 58 10000 3.09 210 16:50 13.01.2021
3753 Clouds 32 1008 58 10000 3.09 210 16:21 13.01.2021
3754 Clouds 32 1008 58 10000 3.09 210 16:21 13.01.2021
3755 Clouds 31 1008 62 10000 3.09 260 15:51 13.01.2021
3756 Clouds 31 1008 62 10000 3.09 260 15:32 13.01.2021
3757 Clouds 31 1009 62 10000 3.09 230 14:34 13.01.2021
3758 Clouds 32 1010 55 10000 2.06 160 13:51 13.01.2021
3759 Clouds 32 1010 55 10000 2.06 160 13:27 13.01.2021
3760 Clouds 31 1011 62 10000 3.09 250 12:46 13.01.2021
3761 Clouds 31 1011 62 10000 3.09 250 12:28 13.01.2021
3762 Clouds 32 1009 50 10000 1.41 346 11:53 13.01.2021
3763 Clouds 32 1009 50 10000 1.41 346 11:34 13.01.2021
3764 Clouds 30 1010 60 10000 1.02 27 10:50 13.01.2021
3765 Clouds 26 1013 83 7000 3.09 120 10:32 13.01.2021
3766 Clouds 26 1013 83 7000 3.09 120 09:53 13.01.2021
3767 Clouds 26 1013 83 7000 3.09 120 09:30 13.01.2021
3768 Clouds 25 1013 88 7000 2.06 180 08:50 13.01.2021
3769 Clouds 24 1012 88 10000 1.04 65 08:28 13.01.2021
3770 Clouds 24 1012 88 10000 1.04 65 07:34 13.01.2021
3771 Clouds 23 1012 92 10000 0.68 97 06:53 13.01.2021
3772 Clouds 23 1009 91 10000 0.61 157 04:20 13.01.2021
3773 Clouds 23 1009 91 10000 0.61 157 03:44 13.01.2021
3774 Clouds 23 1009 92 10000 0.3 179 03:24 13.01.2021
3775 Clouds 22 1009 93 10000 1.01 191 01:19 13.01.2021
3776 Clouds 22 1009 89 10000 1.59 187 23:54 12.01.2021
3777 Clouds 23 1010 90 10000 1.12 151 23:22 12.01.2021
3778 Clouds 23 1010 90 10000 1.12 151 22:46 12.01.2021
3779 Clouds 23 1010 89 10000 0.87 143 22:23 12.01.2021
3780 Clouds 23 1010 89 10000 0.87 143 21:49 12.01.2021
3781 Clouds 23 1010 89 10000 0.87 143 21:30 12.01.2021
3782 Rain 23 1010 87 10000 1.24 176 20:49 12.01.2021
3783 Clouds 24 1009 81 10000 2.67 178 20:27 12.01.2021
3784 Clouds 24 1009 81 10000 2.67 178 19:49 12.01.2021
3785 Rain 25 1008 74 10000 1.74 162 19:27 12.01.2021
3786 Clouds 25 1008 76 10000 1.19 147 18:44 12.01.2021
3787 Clouds 26 1007 71 10000 0.96 166 18:24 12.01.2021
3788 Clouds 26 1007 71 10000 0.96 166 17:43 12.01.2021
3789 Clouds 28 1006 64 10000 1.74 161 17:24 12.01.2021
3790 Clouds 28 1006 64 10000 1.74 161 16:43 12.01.2021
3791 Clouds 30 1005 57 10000 0.78 99 16:24 12.01.2021
3792 Clouds 30 1005 57 10000 0.78 99 15:40 12.01.2021
3793 Clouds 31 1005 49 10000 1.35 38 15:21 12.01.2021
3794 Clouds 31 1005 49 10000 1.35 38 14:42 12.01.2021
3795 Clouds 33 1005 44 10000 1.26 25 14:21 12.01.2021
3796 Clouds 33 1005 44 10000 1.26 25 13:52 12.01.2021
3797 Clouds 35 1006 34 10000 1.54 2 12:55 12.01.2021
3798 Clouds 29 1012 65 10000 4.12 150 12:24 12.01.2021
3799 Clouds 29 1012 65 10000 4.12 150 11:41 12.01.2021
3800 Clouds 36 1008 40 10000 0.28 254 10:55 12.01.2021
3801 Clouds 25 1012 83 8000 3.09 180 10:25 12.01.2021
3802 Clouds 25 1012 83 8000 3.09 180 09:58 12.01.2021
3803 Clouds 25 1012 83 8000 3.09 180 09:38 12.01.2021
3804 Clouds 24 1012 94 8000 2.06 270 09:18 12.01.2021
3805 Clouds 24 1012 94 8000 2.06 270 08:26 12.01.2021
3806 Clouds 27 1011 71 10000 1.49 154 07:37 12.01.2021
3807 Clouds 24 1011 77 10000 1.08 147 06:49 12.01.2021
3808 Clouds 22 1010 85 10000 1.05 140 05:34 12.01.2021
3809 Clouds 23 1009 74 10000 1.03 185 03:28 12.01.2021
3810 Clouds 24 1009 70 10000 0.97 201 02:21 12.01.2021
3811 Clouds 24 1009 70 10000 0.97 201 01:31 12.01.2021
3812 Clouds 24 1009 70 10000 0.97 201 01:31 12.01.2021
3813 Clouds 24 1008 69 10000 0.88 209 23:58 11.01.2021
3814 Clouds 24 1008 69 10000 0.88 209 23:37 11.01.2021
3815 Clouds 24 1008 68 10000 0.63 220 23:18 11.01.2021
3816 Clouds 24 1008 68 10000 0.63 220 22:45 11.01.2021
3817 Clouds 25 1008 67 10000 0.25 291 22:26 11.01.2021
3818 Clouds 25 1008 67 10000 0.25 291 21:43 11.01.2021
3819 Clouds 25 1008 65 10000 0.56 359 21:24 11.01.2021
3820 Clouds 25 1008 65 10000 0.56 359 20:49 11.01.2021
3821 Clouds 26 1007 64 10000 0.98 281 20:29 11.01.2021
3822 Clouds 26 1007 64 10000 0.98 281 19:57 11.01.2021
3823 Clouds 26 1007 64 10000 0.98 281 19:35 11.01.2021
3824 Clouds 26 1006 63 10000 0.99 283 18:46 11.01.2021
3825 Clouds 27 1006 62 10000 1.12 315 18:28 11.01.2021
3826 Clouds 27 1006 62 10000 1.12 315 17:57 11.01.2021
3827 Clouds 27 1006 62 10000 1.12 315 17:38 11.01.2021
3828 Clouds 28 1005 59 10000 0.75 359 17:20 11.01.2021
3829 Clouds 28 1005 59 10000 0.75 359 16:41 11.01.2021
3830 Clouds 31 1004 49 10000 0.47 19 16:22 11.01.2021
3831 Clouds 31 1004 49 10000 0.47 19 15:49 11.01.2021
3832 Clouds 33 1004 42 10000 0.81 357 15:29 11.01.2021
3833 Clouds 33 1004 42 10000 0.81 357 14:40 11.01.2021
3834 Clouds 33 1005 42 10000 0.73 353 14:19 11.01.2021
3835 Clouds 33 1005 42 10000 0.73 353 13:44 11.01.2021
3836 Clear 37 1005 31 10000 0.73 356 13:20 11.01.2021
3837 Clear 37 1005 31 10000 0.73 356 12:41 11.01.2021
3838 Clear 37 1006 32 10000 0.44 7 12:21 11.01.2021
3839 Clear 37 1006 32 10000 0.44 7 11:43 11.01.2021
3840 Clear 36 1008 36 10000 0.39 177 10:55 11.01.2021
3841 Clear 33 1009 44 10000 1.18 174 10:28 11.01.2021
3842 Clear 33 1009 44 10000 1.18 174 09:45 11.01.2021
3843 Clear 26 1012 78 10000 3.09 150 09:24 11.01.2021
3844 Clear 30 1010 52 10000 1.38 170 08:47 11.01.2021
3845 Clear 27 1010 62 10000 1.23 162 08:21 11.01.2021
3846 Clear 27 1010 62 10000 1.23 162 07:40 11.01.2021
3847 Clouds 24 1010 75 10000 0.74 151 07:19 11.01.2021
3848 Clear 24 1009 71 10000 1.07 151 06:47 11.01.2021
3849 Clear 22 1008 75 10000 0.57 104 01:53 11.01.2021
3850 Clouds 22 1008 74 10000 0.6 98 00:40 11.01.2021
3851 Clouds 22 1008 71 10000 0.88 113 23:46 10.01.2021
3852 Clouds 23 1009 69 10000 0.95 137 22:49 10.01.2021
3853 Clouds 23 1009 68 10000 0.6 147 22:28 10.01.2021
3854 Clouds 23 1009 68 10000 0.6 147 21:57 10.01.2021
3855 Clouds 23 1009 68 10000 0.6 147 21:37 10.01.2021
3856 Clouds 24 1009 67 10000 0.58 152 21:18 10.01.2021
3857 Clouds 24 1009 67 10000 0.58 152 20:39 10.01.2021
3858 Clouds 24 1008 66 10000 0.62 141 20:21 10.01.2021
3859 Clouds 24 1008 66 10000 0.62 141 19:38 10.01.2021
3860 Clouds 25 1008 63 10000 0.54 109 19:20 10.01.2021
3861 Clouds 25 1007 62 10000 0.54 113 18:43 10.01.2021
3862 Clouds 26 1006 58 10000 0.26 116 18:20 10.01.2021
3863 Clouds 28 1005 56 10000 0.11 298 17:23 10.01.2021
3864 Clouds 28 1005 56 10000 0.11 298 16:46 10.01.2021
3865 Clouds 32 1005 47 10000 0.54 337 16:28 10.01.2021
3866 Clouds 32 1005 47 10000 0.54 337 15:39 10.01.2021
3867 Clouds 33 1005 38 10000 0.98 349 15:20 10.01.2021
3868 Clouds 33 1005 38 10000 0.98 349 14:40 10.01.2021
3869 Clear 34 1005 34 10000 1.22 7 14:22 10.01.2021
3870 Clear 34 1005 34 10000 1.22 7 13:39 10.01.2021
3871 Clear 35 1006 34 10000 1.02 2 13:20 10.01.2021
3872 Clear 35 1006 34 10000 1.02 2 12:50 10.01.2021
3873 Clouds 30 1011 62 10000 3.09 120 12:32 10.01.2021
3874 Clear 35 1007 38 10000 0.41 289 11:55 10.01.2021
3875 Clear 34 1008 44 10000 0.78 212 11:20 10.01.2021
3876 Clear 34 1008 44 10000 0.78 212 11:20 10.01.2021
3877 Clear 34 1008 44 10000 0.78 212 10:51 10.01.2021
3878 Clear 31 1010 52 10000 1.3 177 10:22 10.01.2021
3879 Clear 31 1010 52 10000 1.3 177 09:39 10.01.2021
3880 Mist 21 1012 94 2000 1.4 150 08:27 10.01.2021
3881 Mist 21 1012 94 2000 1.4 150 07:38 10.01.2021
3882 Clouds 21 1011 96 10000 1.06 159 06:21 10.01.2021
3883 Clouds 21 1011 96 10000 1.06 159 05:45 10.01.2021
3884 Clouds 20 1010 97 10000 1 167 05:27 10.01.2021
3885 Rain 21 1010 96 10000 1.13 235 01:30 10.01.2021
3886 Clouds 22 1010 90 10000 1.1 145 00:19 10.01.2021
3887 Clouds 22 1010 90 10000 1.1 145 23:41 09.01.2021
3888 Clouds 22 1010 89 10000 1.02 158 22:59 09.01.2021
3889 Clouds 22 1010 88 10000 1.14 138 22:20 09.01.2021
3890 Clouds 22 1010 88 10000 1.14 138 21:58 09.01.2021
3891 Clouds 22 1010 88 10000 1.14 138 21:39 09.01.2021
3892 Rain 23 1010 84 10000 1.48 113 21:20 09.01.2021
3893 Rain 23 1010 84 10000 1.48 113 20:47 09.01.2021
3894 Clouds 24 1010 78 10000 1.08 106 20:28 09.01.2021
3895 Clouds 24 1010 78 10000 1.08 106 19:39 09.01.2021
3896 Clouds 25 1009 75 10000 0.46 145 19:20 09.01.2021
3897 Clouds 23 1009 85 10000 0.8 147 18:37 09.01.2021
3898 Rain 24 1007 84 10000 0.96 176 17:53 09.01.2021
3899 Rain 24 1007 84 10000 0.96 176 17:33 09.01.2021
3900 Clouds 26 1007 75 10000 1.01 196 16:56 09.01.2021
3901 Clouds 29 1006 61 10000 0.78 252 16:22 09.01.2021
3902 Clouds 29 1006 61 10000 0.78 252 15:41 09.01.2021
3903 Clouds 31 1007 52 10000 1.15 282 15:19 09.01.2021
3904 Clouds 31 1007 52 10000 1.15 282 14:37 09.01.2021
3905 Clouds 32 1007 44 10000 1.61 270 14:18 09.01.2021
3906 Clouds 32 1007 44 10000 1.61 270 13:43 09.01.2021
3907 Clouds 32 1008 44 10000 1.61 257 13:24 09.01.2021
3908 Clouds 31 1009 49 10000 1.42 237 12:28 09.01.2021
3909 Clouds 31 1009 49 10000 1.42 237 11:58 09.01.2021
3910 Clouds 31 1009 49 10000 1.42 237 11:37 09.01.2021
3911 Clouds 31 1011 52 10000 1.45 225 11:18 09.01.2021
3912 Clouds 31 1011 52 10000 1.45 225 10:42 09.01.2021
3913 Clouds 29 1012 58 10000 1.34 206 10:22 09.01.2021
3914 Clouds 29 1012 58 10000 1.34 206 09:43 09.01.2021
3915 Clouds 22 1014 88 8000 3.09 180 09:20 09.01.2021
3916 Clouds 23 1013 85 10000 1.34 166 07:48 09.01.2021
3917 Clouds 21 1013 94 6000 2.06 140 06:53 09.01.2021
3918 Clouds 21 1012 94 6000 2.06 140 06:33 09.01.2021
3919 Clouds 20 1011 98 10000 0.87 153 03:53 09.01.2021
3920 Clouds 20 1010 98 10000 1.04 168 02:41 09.01.2021
3921 Clouds 20 1010 98 10000 1.12 176 02:23 09.01.2021
3922 Clouds 20 1010 98 10000 1.12 176 02:23 09.01.2021
3923 Clouds 21 1010 97 10000 1.27 187 01:24 09.01.2021
3924 Clouds 21 1009 98 10000 1.13 188 00:33 09.01.2021
3925 Clouds 21 1010 97 10000 1.51 194 23:45 08.01.2021
3926 Clouds 21 1010 97 10000 1.54 189 22:43 08.01.2021
3927 Clouds 22 1011 95 10000 1.95 201 21:53 08.01.2021
3928 Clouds 22 1011 96 10000 1.87 200 21:19 08.01.2021
3929 Clouds 22 1011 96 10000 1.87 200 20:37 08.01.2021
3930 Clouds 22 1011 96 10000 1.64 197 19:58 08.01.2021
3931 Clouds 22 1010 95 10000 1.4 203 19:25 08.01.2021
3932 Clouds 23 1009 95 10000 1.48 201 18:54 08.01.2021
3933 Clouds 23 1009 95 10000 1.48 201 18:54 08.01.2021
3934 Clouds 23 1009 95 10000 1.48 201 18:32 08.01.2021
3935 Rain 23 1009 95 10000 1.42 213 17:54 08.01.2021
3936 Rain 24 1011 83 10000 3.09 150 17:25 08.01.2021
3937 Rain 24 1011 83 10000 3.09 150 16:48 08.01.2021
3938 Rain 25 1011 78 10000 1.03 170 15:49 08.01.2021
3939 Rain 25 1011 78 10000 4.12 160 15:29 08.01.2021
3940 Rain 25 1011 78 10000 4.12 160 14:40 08.01.2021
3941 Rain 25 1011 78 10000 4.12 160 14:40 08.01.2021
3942 Rain 27 1007 81 10000 1.09 266 13:50 08.01.2021
3943 Rain 29 1008 68 10000 1.43 252 13:21 08.01.2021
3944 Rain 30 1008 65 10000 1.33 265 12:51 08.01.2021
3945 Rain 25 1013 83 8000 4.12 160 12:22 08.01.2021
3946 Rain 25 1013 83 8000 4.12 160 11:48 08.01.2021
3947 Clouds 30 1010 58 10000 1.57 237 11:29 08.01.2021
3948 Clouds 30 1010 58 10000 1.57 237 10:55 08.01.2021
3949 Clouds 30 1010 58 10000 1.57 237 10:37 08.01.2021
3950 Clouds 30 1011 60 10000 1.71 223 09:53 08.01.2021
3951 Clouds 30 1011 60 10000 1.71 223 09:32 08.01.2021
3952 Clouds 28 1011 68 10000 1.6 205 08:39 08.01.2021
3953 Clouds 24 1011 83 10000 0.67 194 07:29 08.01.2021
3954 Clouds 22 1010 92 10000 0.58 129 06:21 08.01.2021
3955 Clouds 24 1007 81 10000 1.37 233 00:24 08.01.2021
3956 Clouds 24 1007 81 10000 1.37 233 23:41 07.01.2021
3957 Clouds 24 1008 78 10000 1.43 218 22:47 07.01.2021
3958 Clear 24 1008 75 10000 1.44 230 22:26 07.01.2021
3959 Clear 24 1008 75 10000 1.44 230 21:47 07.01.2021
3960 Clouds 25 1008 69 10000 1.47 239 21:27 07.01.2021
3961 Clouds 25 1008 69 10000 1.47 239 20:47 07.01.2021
3962 Clear 26 1007 65 10000 0.7 211 20:29 07.01.2021
3963 Clear 26 1007 65 10000 0.7 211 19:46 07.01.2021
3964 Clouds 27 1006 63 10000 0.62 107 19:23 07.01.2021
3965 Clouds 26 1006 65 10000 0.49 162 18:38 07.01.2021
3966 Clouds 27 1005 63 10000 0.43 128 18:19 07.01.2021
3967 Clouds 27 1005 63 10000 0.43 128 17:30 07.01.2021
3968 Clouds 29 1004 62 10000 0.59 74 16:54 07.01.2021
3969 Clouds 29 1004 62 10000 0.59 74 16:30 07.01.2021
3970 Clouds 32 1003 53 10000 0.88 44 15:48 07.01.2021
3971 Clouds 33 1004 50 10000 0.93 46 15:29 07.01.2021
3972 Clouds 35 1004 39 10000 1.62 31 14:27 07.01.2021
3973 Clouds 35 1004 39 10000 1.62 31 13:49 07.01.2021
3974 Clear 35 1005 39 10000 1.98 33 13:22 07.01.2021
3975 Clear 35 1005 39 10000 1.94 26 12:51 07.01.2021
3976 Clear 34 1006 40 10000 1.88 26 11:59 07.01.2021
3977 Clear 34 1006 40 10000 1.88 26 11:38 07.01.2021
3978 Clear 34 1007 44 10000 1.25 19 10:54 07.01.2021
3979 Clear 34 1007 44 10000 1.25 19 10:35 07.01.2021
3980 Clear 33 1009 51 10000 0.69 342 09:50 07.01.2021
3981 Clear 33 1009 51 10000 0.69 342 09:32 07.01.2021
3982 Mist 23 1010 94 2000 2.1 330 08:31 07.01.2021
3983 Clear 28 1010 70 10000 0.44 56 07:57 07.01.2021
3984 Clear 28 1010 70 10000 0.44 56 07:38 07.01.2021
3985 Clouds 22 1010 92 10000 0.75 127 05:46 07.01.2021
3986 Clouds 23 1007 89 10000 0.84 194 00:59 07.01.2021
3987 Clouds 23 1008 88 10000 1.01 182 23:52 06.01.2021
3988 Clouds 23 1008 86 10000 1.32 197 22:51 06.01.2021
3989 Clouds 24 1008 85 10000 0.92 206 22:20 06.01.2021
3990 Clouds 24 1008 85 10000 0.92 206 21:41 06.01.2021
3991 Clouds 24 1008 83 10000 0.73 232 21:22 06.01.2021
3992 Clouds 24 1008 83 10000 0.73 232 20:42 06.01.2021
3993 Clouds 25 1008 80 10000 0.57 184 20:22 06.01.2021
3994 Clouds 25 1008 80 10000 0.57 184 19:42 06.01.2021
3995 Clouds 25 1008 75 10000 0.68 130 19:24 06.01.2021
3996 Clouds 25 1008 75 10000 0.68 130 18:45 06.01.2021
3997 Clouds 27 1007 70 10000 0.46 83 18:27 06.01.2021
3998 Clouds 27 1007 70 10000 0.46 83 17:45 06.01.2021
3999 Clouds 29 1006 66 10000 0.5 121 17:26 06.01.2021
4000 Clouds 29 1006 66 10000 0.5 121 16:56 06.01.2021
4001 Clouds 32 1006 56 10000 0.52 116 16:20 06.01.2021
4002 Clouds 32 1006 56 10000 0.53 116 16:20 06.01.2021
4003 Clouds 32 1006 56 10000 0.52 116 15:58 06.01.2021
4004 Clouds 32 1006 56 10000 0.52 116 15:33 06.01.2021
4005 Clouds 33 1005 48 10000 0.75 69 14:57 06.01.2021
4006 Clouds 33 1005 48 10000 0.75 69 14:30 06.01.2021
4007 Clouds 33 1005 48 10000 0.75 69 14:30 06.01.2021
4008 Clouds 33 1006 46 10000 0.77 49 13:51 06.01.2021
4009 Clouds 35 1007 42 10000 0.52 75 13:25 06.01.2021
4010 Clouds 35 1007 42 10000 0.52 75 12:54 06.01.2021
4011 Clouds 33 1007 47 10000 0.94 143 12:30 06.01.2021
4012 Clouds 32 1008 53 10000 1.22 170 11:44 06.01.2021
4013 Rain 29 1009 76 10000 1.39 174 11:21 06.01.2021
4014 Rain 29 1009 76 10000 1.39 174 10:31 06.01.2021
4015 Rain 28 1010 83 9004 1.17 155 09:52 06.01.2021
4016 Clouds 25 1015 88 8000 3.1 330 09:22 06.01.2021
4017 Clouds 29 1011 66 10000 1.74 171 08:42 06.01.2021
4018 Clouds 26 1011 82 10000 1.39 172 08:18 06.01.2021
4019 Clouds 26 1011 82 10000 1.39 172 07:41 06.01.2021
4020 Clouds 22 1010 95 10000 0.74 141 05:59 06.01.2021
4021 Clouds 22 1009 95 10000 0.56 168 04:43 06.01.2021
4022 Clouds 22 1009 94 10000 0.77 168 02:55 06.01.2021
4023 Clouds 22 1009 94 10000 0.77 168 02:36 06.01.2021
4024 Clouds 22 1009 94 10000 0.83 175 02:18 06.01.2021
4025 Clouds 22 1009 94 10000 1.06 179 23:44 05.01.2021
4026 Rain 22 1009 94 10000 0.92 175 22:53 05.01.2021
4027 Rain 22 1009 94 10000 0.92 175 22:34 05.01.2021
4028 Rain 22 1009 95 10000 0.5 199 21:59 05.01.2021
4029 Rain 22 1009 95 10000 1.44 308 21:18 05.01.2021
4030 Rain 22 1009 95 10000 1.44 308 20:30 05.01.2021
4031 Rain 24 1009 83 10000 1.02 323 19:45 05.01.2021
4032 Clouds 25 1008 72 10000 0.52 71 19:24 05.01.2021
4033 Clouds 26 1007 72 10000 0.58 70 18:47 05.01.2021
4034 Clouds 26 1006 70 10000 0.71 42 18:28 05.01.2021
4035 Clouds 26 1006 70 10000 0.71 42 17:54 05.01.2021
4036 Clouds 29 1008 70 10000 3.1 90 17:31 05.01.2021
4037 Clouds 29 1008 70 10000 3.1 90 16:54 05.01.2021
4038 Clouds 31 1004 57 10000 1.48 18 16:24 05.01.2021
4039 Clouds 31 1004 57 10000 1.48 18 15:59 05.01.2021
4040 Clouds 31 1004 57 10000 1.48 18 15:35 05.01.2021
4041 Clouds 31 1004 57 10000 1.48 18 15:35 05.01.2021
4042 Clouds 33 1004 45 10000 1.75 31 14:48 05.01.2021
4043 Clouds 29 1010 66 10000 3.1 130 14:18 05.01.2021
4044 Clear 34 1005 41 10000 1.33 52 13:39 05.01.2021
4045 Clouds 35 1006 42 10000 0.97 97 13:20 05.01.2021
4046 Clouds 35 1006 42 10000 0.97 97 12:46 05.01.2021
4047 Clouds 34 1007 45 10000 1.48 129 12:20 05.01.2021
4048 Clouds 34 1007 45 10000 1.48 129 11:31 05.01.2021
4049 Clouds 32 1008 52 10000 1.79 147 10:45 05.01.2021
4050 Clouds 30 1009 60 10000 1.84 156 10:24 05.01.2021
4051 Clouds 30 1009 60 10000 1.84 156 09:45 05.01.2021
4052 Clouds 23 1013 94 6000 3.1 140 09:25 05.01.2021
4053 Clouds 25 1011 88 10000 1.74 169 08:19 05.01.2021
4054 Clouds 23 1011 93 10000 1.53 170 06:39 05.01.2021
4055 Clouds 21 1009 97 10000 1.31 149 03:42 05.01.2021
4056 Rain 22 1008 94 10000 0.49 190 00:28 05.01.2021
4057 Rain 22 1008 94 10000 0.49 190 23:43 04.01.2021
4058 Rain 22 1009 91 10000 0.93 239 23:24 04.01.2021
4059 Rain 22 1009 91 10000 0.93 239 22:46 04.01.2021
4060 Rain 22 1009 91 10000 0.93 239 22:46 04.01.2021
4061 Clouds 23 1009 89 10000 0.87 184 22:21 04.01.2021
4062 Clouds 23 1009 89 10000 0.87 184 21:44 04.01.2021
4063 Clouds 23 1009 87 10000 0.59 220 21:24 04.01.2021
4064 Clouds 23 1009 87 10000 0.59 220 20:43 04.01.2021
4065 Clouds 23 1009 85 10000 0.63 243 20:22 04.01.2021
4066 Clouds 23 1009 85 10000 0.63 243 19:43 04.01.2021
4067 Clouds 24 1009 82 10000 1.07 244 19:22 04.01.2021
4068 Clouds 24 1008 80 10000 0.92 226 18:48 04.01.2021
4069 Clouds 25 1007 78 10000 0.85 223 18:19 04.01.2021
4070 Clouds 25 1007 78 10000 0.85 223 17:41 04.01.2021
4071 Clouds 26 1006 75 10000 0.64 228 17:22 04.01.2021
4072 Clouds 26 1006 75 10000 0.64 228 16:45 04.01.2021
4073 Clouds 29 1006 64 10000 0.37 249 16:26 04.01.2021
4074 Clouds 29 1006 64 10000 0.37 249 15:49 04.01.2021
4075 Clouds 30 1006 57 10000 0.7 315 15:25 04.01.2021
4076 Clouds 31 1007 56 10000 0.67 273 14:21 04.01.2021
4077 Clouds 31 1007 56 10000 0.67 273 13:43 04.01.2021
4078 Clouds 29 1008 62 10000 1.14 245 13:20 04.01.2021
4079 Clouds 28 1012 74 8000 3.1 230 12:32 04.01.2021
4080 Clouds 25 1009 85 10000 0.16 208 11:53 04.01.2021
4081 Clouds 23 1010 94 10000 0.42 234 11:20 04.01.2021
4082 Clouds 23 1010 94 10000 0.42 234 10:47 04.01.2021
4083 Rain 23 1011 95 10000 1.09 227 10:24 04.01.2021
4084 Rain 23 1011 95 10000 1.09 227 09:49 04.01.2021
4085 Rain 23 1012 96 10000 0.6 95 09:19 04.01.2021
4086 Rain 23 1012 96 10000 0.6 95 08:41 04.01.2021
4087 Rain 23 1013 95 10000 0.35 71 07:54 04.01.2021
4088 Rain 22 1012 96 10000 0.47 189 07:18 04.01.2021
4089 Clouds 21 1010 97 10000 0.35 172 05:21 04.01.2021
4090 Rain 21 1009 97 7777 0.71 183 02:34 04.01.2021
4091 Clouds 22 1010 94 10000 0.91 206 00:29 04.01.2021
4092 Clouds 22 1010 94 10000 0.91 206 23:47 03.01.2021
4093 Clouds 22 1010 95 10000 0.65 235 23:19 03.01.2021
4094 Clouds 22 1010 95 10000 0.65 235 22:49 03.01.2021
4095 Clouds 22 1010 95 10000 0.65 235 22:30 03.01.2021
4096 Rain 22 1010 95 10000 0.3 280 21:47 03.01.2021
4097 Rain 23 1011 94 10000 0.23 359 21:25 03.01.2021
4098 Rain 23 1011 94 10000 0.23 359 20:43 03.01.2021
4099 Clouds 23 1010 94 10000 0.5 43 20:23 03.01.2021
4100 Clouds 23 1010 94 10000 0.5 43 19:54 03.01.2021
4101 Clouds 23 1010 94 10000 0.5 43 19:34 03.01.2021
4102 Clouds 23 1009 92 10000 0.84 59 18:52 03.01.2021
4103 Rain 23 1009 94 10000 1.12 345 18:34 03.01.2021
4104 Rain 24 1008 84 10000 0.92 340 17:57 03.01.2021
4105 Rain 24 1008 84 10000 0.92 340 17:38 03.01.2021
4106 Rain 26 1007 78 10000 0.94 334 17:18 03.01.2021
4107 Rain 26 1007 78 10000 0.94 334 16:41 03.01.2021
4108 Clouds 29 1007 63 10000 1.16 337 16:19 03.01.2021
4109 Clouds 29 1007 63 10000 1.16 337 15:45 03.01.2021
4110 Clouds 31 1007 53 10000 1.09 3 15:23 03.01.2021
4111 Clouds 31 1007 53 10000 1.09 3 14:44 03.01.2021
4112 Clouds 32 1007 51 10000 0.39 346 14:22 03.01.2021
4113 Clouds 32 1007 51 10000 0.39 346 13:38 03.01.2021
4114 Clouds 32 1008 52 10000 0.49 272 13:19 03.01.2021
4115 Clouds 31 1010 55 10000 0.59 256 11:53 03.01.2021
4116 Clouds 31 1010 55 10000 0.59 256 11:34 03.01.2021
4117 Clouds 28 1012 65 10000 1.17 242 10:58 03.01.2021
4118 Clouds 28 1012 65 10000 1.17 242 10:33 03.01.2021
4119 Rain 23 1012 88 10000 1.31 231 09:52 03.01.2021
4120 Rain 21 1013 97 10000 0.86 268 09:26 03.01.2021
4121 Rain 21 1013 97 10000 0.86 268 08:31 03.01.2021
4122 Rain 21 1013 97 9738 2.12 294 06:57 03.01.2021
4123 Rain 21 1010 95 10000 1.27 114 03:30 03.01.2021
4124 Rain 21 1011 93 10000 0.67 23 02:26 03.01.2021
4125 Clouds 22 1011 87 10000 0.77 39 00:33 03.01.2021
4126 Clouds 22 1011 86 10000 0.47 53 23:52 02.01.2021
4127 Clouds 22 1011 87 10000 0.36 76 23:19 02.01.2021
4128 Clouds 22 1011 87 10000 0.36 76 22:47 02.01.2021
4129 Clouds 22 1011 89 10000 0.68 75 22:29 02.01.2021
4130 Clouds 22 1011 89 10000 0.68 75 21:48 02.01.2021
4131 Clouds 22 1011 89 10000 0.83 95 21:29 02.01.2021
4132 Clouds 22 1011 89 10000 0.83 95 20:45 02.01.2021
4133 Clouds 23 1010 89 10000 0.69 85 20:25 02.01.2021
4134 Clouds 23 1010 89 10000 0.69 85 19:47 02.01.2021
4135 Clouds 23 1010 88 10000 0.9 69 19:20 02.01.2021
4136 Clouds 23 1009 94 10000 1.09 81 18:47 02.01.2021
4137 Rain 23 1009 92 10000 1.08 68 18:29 02.01.2021
4138 Rain 23 1009 92 10000 1.08 68 17:46 02.01.2021
4139 Rain 25 1007 85 9145 0.86 60 17:28 02.01.2021
4140 Rain 25 1007 85 9145 0.86 60 16:44 02.01.2021
4141 Rain 28 1007 70 10000 0.95 58 16:21 02.01.2021
4142 Rain 28 1007 70 10000 0.95 58 15:44 02.01.2021
4143 Clouds 31 1007 54 10000 0.63 97 15:25 02.01.2021
4144 Clouds 31 1007 54 10000 0.63 97 14:47 02.01.2021
4145 Clear 32 1008 50 10000 1.15 107 14:23 02.01.2021
4146 Clear 32 1008 50 10000 1.15 107 13:43 02.01.2021
4147 Clouds 31 1009 52 10000 1.76 120 12:54 02.01.2021
4148 Clouds 31 1009 54 10000 1.54 149 12:32 02.01.2021
4149 Clouds 28 1010 64 10000 1.55 128 11:59 02.01.2021
4150 Clouds 26 1012 74 10000 1.5 110 11:26 02.01.2021
4151 Clouds 26 1012 74 10000 1.5 110 10:58 02.01.2021
4152 Clouds 26 1012 74 10000 1.5 110 10:34 02.01.2021
4153 Clouds 25 1013 77 10000 1.54 106 09:59 02.01.2021
4154 Clouds 23 1014 94 6000 3.1 140 09:39 02.01.2021
4155 Clouds 23 1014 94 6000 3.1 140 09:18 02.01.2021
4156 Clouds 25 1013 75 10000 1.6 118 08:41 02.01.2021
4157 Clouds 24 1013 82 10000 1.85 117 07:55 02.01.2021
4158 Clouds 22 1013 90 10000 1.8 124 07:22 02.01.2021
4159 Clouds 22 1013 90 10000 1.8 124 06:57 02.01.2021
4160 Clouds 21 1012 94 10000 1.27 124 05:54 02.01.2021
4161 Clouds 21 1010 95 10000 0.85 139 01:58 02.01.2021
4162 Clouds 21 1010 96 10000 1.03 149 00:38 02.01.2021
4163 Clouds 21 1010 95 10000 1.13 165 23:58 01.01.2021
4164 Clouds 21 1011 94 10000 1.39 168 23:24 01.01.2021
4165 Clouds 21 1011 94 10000 1.39 168 22:52 01.01.2021
4166 Clouds 22 1011 94 10000 1.12 179 22:27 01.01.2021
4167 Clouds 22 1011 94 10000 1.12 179 22:00 01.01.2021
4168 Clouds 22 1011 94 10000 1.12 179 21:41 01.01.2021
4169 Clouds 22 1011 94 10000 1.26 175 21:19 01.01.2021
4170 Clouds 22 1011 94 10000 1.26 175 20:48 01.01.2021
4171 Clouds 22 1011 94 10000 0.49 173 20:18 01.01.2021
4172 Clouds 22 1011 94 10000 0.49 173 19:42 01.01.2021
4173 Clouds 22 1010 94 10000 0.72 155 19:22 01.01.2021
4174 Clouds 22 1009 93 10000 0.77 158 18:45 01.01.2021
4175 Clouds 22 1008 94 10000 0.9 179 18:23 01.01.2021
4176 Clouds 22 1008 94 10000 0.9 179 17:47 01.01.2021
4177 Clouds 23 1008 94 10000 1.6 179 17:23 01.01.2021
4178 Clouds 23 1008 94 10000 1.6 179 16:50 01.01.2021
4179 Rain 23 1007 93 10000 1.32 178 16:25 01.01.2021
4180 Rain 23 1007 93 10000 1.32 178 15:41 01.01.2021
4181 Rain 26 1007 89 10000 0.79 202 14:48 01.01.2021
4182 Rain 28 1007 85 8910 0.95 291 14:27 01.01.2021
4183 Rain 28 1007 85 8910 0.95 291 13:40 01.01.2021
4184 Rain 28 1008 79 10000 1.52 274 12:57 01.01.2021
4185 Rain 28 1008 79 10000 1.52 274 12:36 01.01.2021
4186 Rain 29 1009 71 5281 1 231 11:43 01.01.2021
4187 Rain 27 1009 83 10000 1.89 192 11:22 01.01.2021
4188 Rain 27 1009 83 10000 1.89 192 10:59 01.01.2021
4189 Rain 27 1009 83 10000 1.89 192 10:30 01.01.2021
4190 Rain 28 1010 71 7067 1.78 187 09:39 01.01.2021
4191 Clouds 27 1011 74 10000 1.85 191 08:52 01.01.2021
4192 Clouds 25 1012 85 10000 1.07 149 08:25 01.01.2021
4193 Clouds 21 1009 96 10000 0.83 163 04:52 01.01.2021
4194 Clouds 22 1008 95 10000 1.27 162 02:25 01.01.2021
4195 Rain 21 1008 96 10000 1.08 160 00:37 01.01.2021
4196 Rain 22 1009 95 10000 1.46 187 23:56 31.12.2020
4197 Clouds 22 1009 93 10000 0.96 177 23:22 31.12.2020
4198 Clouds 22 1009 93 10000 0.96 177 22:55 31.12.2020
4199 Clouds 22 1009 93 10000 0.96 177 22:37 31.12.2020
4200 Clouds 22 1008 93 10000 1.18 196 22:19 31.12.2020
4201 Clouds 22 1008 93 10000 1.18 196 21:44 31.12.2020
4202 Clouds 22 1008 93 10000 1.27 198 21:21 31.12.2020
4203 Clouds 22 1008 93 10000 1.27 198 20:31 31.12.2020
4204 Clouds 22 1008 94 10000 0.95 193 19:59 31.12.2020
4205 Clouds 22 1008 94 10000 0.95 193 19:36 31.12.2020
4206 Clouds 22 1008 95 10000 0.93 190 19:18 31.12.2020
4207 Clouds 24 1007 84 10000 1.18 187 18:41 31.12.2020
4208 Clouds 25 1006 79 10000 1.07 165 18:23 31.12.2020
4209 Clouds 25 1006 79 10000 1.07 165 17:41 31.12.2020
4210 Clouds 31 1008 62 10000 2.1 120 17:21 31.12.2020
4211 Clouds 27 1006 72 10000 0.52 139 16:39 31.12.2020
4212 Clouds 29 1005 63 10000 0.5 38 16:20 31.12.2020
4213 Clouds 29 1005 63 10000 0.5 38 15:45 31.12.2020
4214 Clouds 30 1005 55 10000 1.55 359 15:20 31.12.2020
4215 Clouds 30 1005 55 10000 1.55 359 14:44 31.12.2020
4216 Clouds 30 1010 66 10000 2.1 180 14:24 31.12.2020
4217 Clouds 30 1010 66 10000 2.1 180 13:59 31.12.2020
4218 Clouds 32 1006 50 10000 1.47 354 13:38 31.12.2020
4219 Clouds 34 1007 42 10000 1.46 344 13:19 31.12.2020
4220 Clouds 34 1007 42 10000 1.46 344 12:52 31.12.2020
4221 Clouds 34 1007 42 10000 1.46 344 12:32 31.12.2020
4222 Clouds 35 1008 42 10000 0.89 305 11:51 31.12.2020
4223 Clouds 28 1013 74 10000 2.1 240 11:32 31.12.2020
4224 Clouds 28 1013 74 10000 2.1 240 10:46 31.12.2020
4225 Clouds 32 1010 52 10000 0.91 190 10:28 31.12.2020
4226 Clouds 32 1010 52 10000 0.91 190 09:51 31.12.2020
4227 Clouds 25 1013 88 7000 0.97 188 09:26 31.12.2020
4228 Clouds 25 1013 88 7000 0.97 188 08:50 31.12.2020
4229 Clouds 30 1011 60 10000 0.97 188 08:31 31.12.2020
4230 Clouds 27 1012 70 10000 0.9 172 07:56 31.12.2020
4231 Clouds 24 1011 80 10000 0.77 162 07:27 31.12.2020
4232 Clouds 21 1010 93 10000 1.14 160 05:30 31.12.2020
4233 Clouds 21 1009 90 10000 1.07 173 03:38 31.12.2020
4234 Clouds 21 1008 88 10000 0.84 189 02:44 31.12.2020
4235 Clear 21 1008 87 10000 0.81 218 02:25 31.12.2020
4236 Clear 21 1008 87 10000 0.81 218 01:43 31.12.2020
4237 Clouds 22 1008 84 10000 0.77 218 01:22 31.12.2020
4238 Clouds 22 1008 83 10000 0.91 225 00:43 31.12.2020
4239 Clear 22 1009 81 10000 0.73 195 23:43 30.12.2020
4240 Clear 23 1009 78 10000 0.99 200 23:19 30.12.2020
4241 Clear 23 1009 78 10000 0.99 200 22:45 30.12.2020
4242 Clear 23 1009 76 10000 0.91 212 22:27 30.12.2020
4243 Clear 23 1009 76 10000 0.91 212 21:39 30.12.2020
4244 Clear 23 1009 74 10000 0.92 192 21:20 30.12.2020
4245 Clear 23 1009 74 10000 0.92 192 20:41 30.12.2020
4246 Clear 24 1009 73 10000 0.79 170 20:20 30.12.2020
4247 Clear 24 1009 73 10000 0.79 170 19:39 30.12.2020
4248 Clouds 24 1008 72 10000 0.76 170 19:20 30.12.2020
4249 Clouds 25 1007 72 10000 0.84 178 18:44 30.12.2020
4250 Clouds 25 1006 69 10000 0.72 181 18:24 30.12.2020
4251 Clouds 25 1006 69 10000 0.72 181 17:50 30.12.2020
4252 Clouds 25 1006 69 10000 0.72 181 17:31 30.12.2020
4253 Clouds 27 1006 66 10000 0.39 206 16:52 30.12.2020
4254 Clouds 30 1006 58 10000 0.06 90 16:27 30.12.2020
4255 Clouds 30 1006 58 10000 0.06 90 15:45 30.12.2020
4256 Clouds 32 1006 47 10000 0.95 35 15:24 30.12.2020
4257 Clouds 32 1006 47 10000 0.95 35 14:43 30.12.2020
4258 Clouds 32 1006 47 10000 0.86 10 14:22 30.12.2020
4259 Rain 30 1007 61 10000 0.99 15 13:26 30.12.2020
4260 Rain 29 1008 74 10000 1.06 107 12:28 30.12.2020
4261 Rain 29 1008 74 10000 1.06 107 11:50 30.12.2020
4262 Rain 31 1008 63 7147 0.21 244 11:25 30.12.2020
4263 Rain 31 1008 63 7147 0.21 244 10:59 30.12.2020
4264 Rain 31 1008 63 7147 0.21 244 10:39 30.12.2020
4265 Rain 29 1009 73 10000 0.6 80 10:20 30.12.2020
4266 Rain 29 1009 73 10000 0.6 80 09:47 30.12.2020
4267 Clouds 29 1010 66 10000 1.32 137 09:23 30.12.2020
4268 Clouds 26 1011 78 10000 1.05 165 08:24 30.12.2020
4269 Rain 23 1010 90 10000 1.06 151 07:29 30.12.2020
4270 Clouds 24 1010 82 10000 1.17 161 06:44 30.12.2020
4271 Clouds 22 1010 91 10000 0.87 165 05:52 30.12.2020
4272 Clouds 22 1010 91 10000 0.87 165 05:31 30.12.2020
4273 Clear 22 1009 92 10000 0.96 182 04:29 30.12.2020
4274 Clear 22 1008 92 10000 0.7 181 03:28 30.12.2020
4275 Clear 22 1008 92 10000 0.7 181 02:38 30.12.2020
4276 Clear 22 1007 91 10000 1.13 159 01:51 30.12.2020
4277 Clear 22 1007 91 10000 1.13 159 01:32 30.12.2020
4278 Clouds 22 1007 88 10000 1.15 181 00:47 30.12.2020
4279 Clouds 22 1007 87 10000 0.82 233 00:29 30.12.2020
4280 Clouds 22 1007 87 10000 0.82 233 23:53 29.12.2020
4281 Clouds 22 1007 87 10000 0.82 233 23:35 29.12.2020
4282 Clouds 23 1008 86 10000 0.93 235 22:50 29.12.2020
4283 Clouds 23 1008 86 10000 0.93 235 22:32 29.12.2020
4284 Clear 23 1008 84 10000 1.18 221 21:59 29.12.2020
4285 Clear 23 1008 84 10000 1.18 221 21:59 29.12.2020
4286 Clear 23 1008 84 10000 1.18 221 21:39 29.12.2020
4287 Clear 24 1008 83 10000 1.11 225 21:21 29.12.2020
4288 Clear 24 1008 83 10000 1.11 225 20:44 29.12.2020
4289 Clear 24 1008 81 10000 1.12 183 20:25 29.12.2020
4290 Clear 24 1008 81 10000 1.12 183 19:45 29.12.2020
4291 Thunderstorm 25 1007 73 10000 0.67 148 19:23 29.12.2020
4292 Thunderstorm 25 1007 73 10000 0.67 148 18:54 29.12.2020
4293 Clouds 25 1006 75 10000 0.9 138 18:29 29.12.2020
4294 Clouds 25 1006 75 10000 0.9 138 17:48 29.12.2020
4295 Clouds 28 1005 69 10000 0.78 122 17:23 29.12.2020
4296 Clouds 28 1005 69 10000 0.78 122 16:56 29.12.2020
4297 Clouds 32 1007 59 10000 3.1 180 16:27 29.12.2020
4298 Clouds 32 1007 59 10000 3.1 180 15:51 29.12.2020
4299 Clouds 32 1007 59 10000 3.1 180 15:33 29.12.2020
4300 Clouds 32 1005 45 10000 1.48 55 14:45 29.12.2020
4301 Clouds 32 1008 59 10000 4.1 210 14:27 29.12.2020
4302 Clouds 32 1008 59 10000 4.1 210 13:56 29.12.2020
4303 Clouds 34 1006 40 10000 1.35 51 13:25 29.12.2020
4304 Clouds 34 1006 40 10000 1.35 51 12:45 29.12.2020
4305 Clouds 30 1010 70 10000 3.1 270 12:26 29.12.2020
4306 Clouds 30 1010 70 10000 3.1 270 11:59 29.12.2020
4307 Clouds 29 1011 74 10000 3.1 160 11:32 29.12.2020
4308 Clouds 29 1011 74 10000 3.1 160 10:52 29.12.2020
4309 Clouds 31 1010 58 10000 1.43 174 10:20 29.12.2020
4310 Clouds 31 1010 58 10000 1.43 174 09:40 29.12.2020
4311 Clouds 29 1011 67 10000 1.54 176 09:18 29.12.2020
4312 Clouds 29 1011 67 10000 1.54 176 08:47 29.12.2020
4313 Clouds 25 1011 86 10000 1.49 185 07:40 29.12.2020
4314 Clouds 23 1011 94 10000 1.4 196 06:58 29.12.2020
4315 Clouds 22 1010 97 10000 0.77 116 05:40 29.12.2020
4316 Rain 21 1008 97 10000 0.99 194 01:46 29.12.2020
4317 Rain 23 1008 92 10000 1.23 186 00:24 29.12.2020
4318 Rain 23 1008 92 10000 1.23 186 00:24 29.12.2020
4319 Rain 23 1008 92 10000 1.23 186 00:24 29.12.2020
4320 Rain 23 1008 92 10000 1.23 186 23:37 28.12.2020
4321 Clouds 23 1008 91 10000 1 207 22:44 28.12.2020
4322 Clouds 23 1009 90 10000 1.08 197 21:51 28.12.2020
4323 Clouds 23 1009 90 10000 1.08 197 21:30 28.12.2020
4324 Clouds 24 1009 89 10000 1.03 187 20:50 28.12.2020
4325 Clouds 24 1009 89 10000 1.03 187 20:50 28.12.2020
4326 Clouds 24 1009 89 10000 1.03 187 20:31 28.12.2020
4327 Clouds 24 1009 86 10000 1.57 170 19:59 28.12.2020
4328 Clouds 24 1009 86 10000 1.57 170 19:41 28.12.2020
4329 Clouds 25 1008 81 10000 1.2 141 19:21 28.12.2020
4330 Clouds 25 1008 81 10000 1.2 141 18:48 28.12.2020
4331 Clouds 27 1006 71 10000 0.28 261 18:26 28.12.2020
4332 Clouds 27 1006 71 10000 0.28 261 17:41 28.12.2020
4333 Clouds 28 1005 69 10000 1.01 25 17:18 28.12.2020
4334 Clouds 32 1007 59 10000 3.1 200 16:33 28.12.2020
4335 Clouds 32 1007 59 10000 3.1 200 15:59 28.12.2020
4336 Clouds 31 1004 60 10000 0.83 10 15:40 28.12.2020
4337 Clouds 31 1008 66 10000 2.1 160 14:47 28.12.2020
4338 Clouds 32 1005 49 10000 1.4 354 13:51 28.12.2020
4339 Clouds 30 1010 66 10000 2.1 200 13:23 28.12.2020
4340 Clouds 29 1011 70 10000 2.1 360 12:38 28.12.2020
4341 Clouds 29 1011 70 10000 2.1 360 12:19 28.12.2020
4342 Clouds 29 1011 70 10000 2.1 360 11:44 28.12.2020
4343 Clouds 35 1008 45 10000 0.33 99 11:18 28.12.2020
4344 Clouds 35 1008 45 10000 0.33 99 10:41 28.12.2020
4345 Clouds 26 1012 83 10000 1.07 182 10:23 28.12.2020
4346 Clouds 26 1012 83 10000 1.07 182 09:45 28.12.2020
4347 Clouds 24 1012 94 8000 1.1 194 09:18 28.12.2020
4348 Clouds 24 1010 83 10000 0.32 199 06:55 28.12.2020
4349 Mist 22 1011 100 4000 0.64 129 05:57 28.12.2020
4350 Clouds 21 1007 93 10000 0.53 262 03:59 28.12.2020
4351 Clouds 22 1006 92 10000 0.69 133 01:56 28.12.2020
4352 Clouds 22 1008 92 10000 0.52 200 00:29 28.12.2020
4353 Clouds 22 1008 92 10000 0.52 200 23:37 27.12.2020
4354 Clouds 22 1008 92 10000 0.76 188 23:18 27.12.2020
4355 Clouds 23 1009 91 10000 1.03 185 21:56 27.12.2020
4356 Clouds 23 1009 91 10000 0.21 183 21:25 27.12.2020
4357 Clouds 23 1009 91 10000 0.21 183 20:40 27.12.2020
4358 Clouds 23 1008 92 10000 0.84 13 19:25 27.12.2020
4359 Clouds 23 1008 92 10000 0.84 13 18:54 27.12.2020
4360 Clouds 24 1007 85 10000 0.73 21 18:36 27.12.2020
4361 Clouds 24 1006 84 10000 0.93 47 18:18 27.12.2020
4362 Clouds 24 1006 84 10000 0.93 47 18:18 27.12.2020
4363 Clouds 24 1006 84 10000 0.93 47 17:42 27.12.2020
4364 Rain 26 1005 79 10000 1.46 16 17:21 27.12.2020
4365 Rain 26 1005 79 10000 1.46 16 16:30 27.12.2020
4366 Rain 29 1004 62 10000 2.52 14 15:40 27.12.2020
4367 Rain 31 1004 52 10000 1.39 10 14:58 27.12.2020
4368 Rain 31 1004 52 10000 1.39 10 14:38 27.12.2020
4369 Rain 32 1005 53 10000 0.73 299 13:43 27.12.2020
4370 Rain 31 1006 58 10000 1.39 263 13:19 27.12.2020
4371 Rain 31 1006 61 10000 1.44 277 12:41 27.12.2020
4372 Rain 27 1012 74 10000 3.1 320 11:46 27.12.2020
4373 Rain 31 1008 64 10000 0.7 146 11:28 27.12.2020
4374 Rain 31 1008 64 10000 0.7 146 10:51 27.12.2020
4375 Rain 31 1009 56 10000 1.18 158 10:23 27.12.2020
4376 Rain 31 1009 56 10000 1.18 158 09:42 27.12.2020
4377 Rain 23 1012 94 7000 2.1 120 08:29 27.12.2020
4378 Rain 23 1012 94 7000 2.1 120 07:59 27.12.2020
4379 Clouds 22 1011 100 8000 1.27 162 07:25 27.12.2020
4380 Clouds 22 1009 97 10000 0.91 131 05:44 27.12.2020
4381 Rain 22 1007 97 10000 1 186 03:26 27.12.2020
4382 Rain 22 1007 97 10000 1 186 02:42 27.12.2020
4383 Rain 23 1008 94 10000 0.85 136 01:21 27.12.2020
4384 Clouds 23 1008 90 10000 0.77 257 23:45 26.12.2020
4385 Rain 23 1008 88 10000 0.93 249 23:26 26.12.2020
4386 Rain 23 1008 88 10000 0.93 249 22:47 26.12.2020
4387 Clouds 24 1008 82 10000 0.81 219 22:20 26.12.2020
4388 Clouds 24 1008 82 10000 0.81 219 21:55 26.12.2020
4389 Clouds 24 1008 82 10000 0.81 219 21:33 26.12.2020
4390 Clouds 25 1008 78 10000 1.03 190 20:58 26.12.2020
4391 Rain 25 1007 75 10000 0.43 233 20:28 26.12.2020
4392 Rain 25 1007 75 10000 0.43 233 19:57 26.12.2020
4393 Rain 26 1007 71 10000 0.3 25 19:24 26.12.2020
4394 Clouds 26 1007 73 10000 0.39 309 18:38 26.12.2020
4395 Clouds 27 1005 69 10000 0.29 267 18:18 26.12.2020
4396 Clouds 27 1005 69 10000 0.29 267 17:40 26.12.2020
4397 Clouds 29 1004 66 10000 0.44 213 17:19 26.12.2020
4398 Clouds 29 1004 66 10000 0.44 213 16:32 26.12.2020
4399 Clouds 33 1004 48 10000 0.51 280 15:26 26.12.2020
4400 Clouds 33 1004 48 10000 0.51 280 14:50 26.12.2020
4401 Clouds 32 1004 52 10000 0.54 278 14:28 26.12.2020
4402 Clouds 32 1004 52 10000 0.54 278 13:43 26.12.2020
4403 Clouds 33 1005 50 10000 0.14 188 13:25 26.12.2020
4404 Clouds 33 1005 50 10000 0.14 188 12:44 26.12.2020
4405 Clear 36 1006 42 10000 0.74 163 12:22 26.12.2020
4406 Clear 36 1006 42 10000 0.74 163 11:51 26.12.2020
4407 Clear 34 1007 47 10000 1.25 182 11:22 26.12.2020
4408 Clear 34 1007 47 10000 1.25 182 10:54 26.12.2020
4409 Clouds 25 1012 88 10000 3.1 160 10:27 26.12.2020
4410 Clouds 25 1012 88 10000 3.1 160 09:50 26.12.2020
4411 Clear 30 1009 59 10000 1.28 185 09:25 26.12.2020
4412 Clear 28 1009 69 10000 1.17 195 08:29 26.12.2020
4413 Clear 28 1009 69 10000 1.17 195 07:50 26.12.2020
4414 Clouds 22 1009 95 10000 0.72 203 06:29 26.12.2020
4415 Clouds 22 1007 89 10000 0.87 181 02:49 26.12.2020
4416 Clouds 22 1007 88 10000 0.58 227 01:32 26.12.2020
4417 Clouds 23 1007 83 10000 0.67 221 00:25 26.12.2020
4418 Clouds 23 1007 83 10000 0.67 221 23:39 25.12.2020
4419 Clouds 23 1008 81 10000 0.51 176 23:21 25.12.2020
4420 Clouds 23 1008 81 10000 0.51 176 22:40 25.12.2020
4421 Clouds 24 1008 78 10000 1.05 126 21:54 25.12.2020
4422 Clouds 24 1008 78 10000 1.05 126 21:34 25.12.2020
4423 Clouds 25 1008 73 10000 1.2 115 20:50 25.12.2020
4424 Clouds 25 1008 73 10000 1.2 115 20:31 25.12.2020
4425 Clouds 25 1007 70 10000 0.73 86 19:47 25.12.2020
4426 Clear 26 1006 68 10000 0.83 74 19:20 25.12.2020
4427 Clear 25 1006 71 10000 0.97 91 18:39 25.12.2020
4428 Clear 26 1005 68 10000 0.84 78 17:47 25.12.2020
4429 Clouds 29 1007 74 10000 2.1 240 17:28 25.12.2020
4430 Clouds 30 1007 70 10000 3.1 180 16:33 25.12.2020
4431 Clouds 30 1007 70 10000 3.1 180 15:59 25.12.2020
4432 Clouds 29 1008 74 10000 3.1 200 15:36 25.12.2020
4433 Clouds 29 1008 74 10000 3.1 200 14:50 25.12.2020
4434 Clouds 29 1009 74 10000 3.1 180 14:29 25.12.2020
4435 Clouds 29 1009 74 10000 3.1 180 14:29 25.12.2020
4436 Clear 34 1004 41 10000 1.35 66 13:44 25.12.2020
4437 Clouds 34 1006 41 10000 1.33 72 13:26 25.12.2020
4438 Clouds 33 1006 46 10000 1.31 110 12:45 25.12.2020
4439 Clouds 31 1008 53 10000 1.56 104 11:56 25.12.2020
4440 Clouds 31 1008 53 10000 1.56 104 11:33 25.12.2020
4441 Clouds 29 1009 60 10000 2.07 96 10:57 25.12.2020
4442 Clouds 22 1012 94 8000 2.1 180 10:24 25.12.2020
4443 Clouds 29 1010 56 10000 1.76 111 09:34 25.12.2020
4444 Clouds 28 1010 64 10000 1.41 138 08:48 25.12.2020
4445 Clouds 23 1010 85 10000 1.33 127 07:59 25.12.2020
4446 Clouds 21 1010 92 10000 1.47 139 06:46 25.12.2020
4447 Clouds 20 1009 95 10000 1.71 74 03:49 25.12.2020
4448 Rain 20 1009 96 10000 2.08 34 01:41 25.12.2020
4449 Rain 21 1010 96 10000 0.95 38 00:18 25.12.2020
4450 Rain 22 1010 94 10000 0.71 110 23:23 24.12.2020
4451 Rain 22 1010 94 10000 0.71 110 22:50 24.12.2020
4452 Rain 22 1010 93 10000 1.09 171 22:21 24.12.2020
4453 Rain 22 1010 93 10000 1.09 171 21:34 24.12.2020
4454 Rain 22 1010 91 10000 0.55 68 20:42 24.12.2020
4455 Clouds 24 1007 77 10000 1.15 228 18:52 24.12.2020
4456 Clouds 25 1006 73 10000 0.86 247 18:19 24.12.2020
4457 Clouds 25 1006 73 10000 0.86 247 17:37 24.12.2020
4458 Clouds 27 1006 70 10000 0.6 289 16:49 24.12.2020
4459 Clouds 30 1005 57 10000 1.16 295 16:22 24.12.2020
4460 Clouds 30 1005 57 10000 1.16 295 15:42 24.12.2020
4461 Clear 31 1005 51 10000 1.51 292 15:19 24.12.2020
4462 Clear 31 1005 51 10000 1.51 292 14:50 24.12.2020
4463 Clear 32 1006 49 10000 1.75 292 14:24 24.12.2020
4464 Clear 32 1006 49 10000 1.75 292 13:48 24.12.2020
4465 Clouds 32 1007 50 10000 1.55 280 13:29 24.12.2020
4466 Clouds 31 1007 52 10000 1.13 292 12:44 24.12.2020
4467 Clouds 30 1008 64 10000 0.63 243 12:21 24.12.2020
4468 Clouds 30 1008 64 10000 0.63 243 11:47 24.12.2020
4469 Clouds 24 1010 91 10000 1.04 186 11:21 24.12.2020
4470 Clouds 24 1010 91 10000 1.04 186 10:53 24.12.2020
4471 Clouds 24 1010 91 10000 1.04 186 10:35 24.12.2020
4472 Rain 23 1011 94 10000 1.48 176 09:52 24.12.2020
4473 Rain 24 1012 89 10000 1.52 156 09:26 24.12.2020
4474 Rain 24 1012 89 10000 1.52 156 08:39 24.12.2020
4475 Clouds 24 1012 88 10000 1.17 185 07:42 24.12.2020
4476 Rain 23 1012 94 10000 1.01 201 07:20 24.12.2020
4477 Rain 22 1011 97 10000 0.39 148 05:40 24.12.2020
4478 Clouds 22 1009 97 10000 0.9 207 02:26 24.12.2020
4479 Clouds 22 1009 97 10000 0.9 207 01:43 24.12.2020
4480 Rain 22 1009 96 10000 0.83 263 01:18 24.12.2020
4481 Clouds 22 1009 93 10000 1.03 243 00:22 24.12.2020
4482 Clouds 22 1009 93 10000 1.03 243 23:49 23.12.2020
4483 Clouds 22 1009 93 10000 1.03 243 23:30 23.12.2020
4484 Clouds 22 1010 92 10000 1.13 225 22:57 23.12.2020
4485 Clouds 22 1010 92 10000 1.13 225 22:33 23.12.2020
4486 Clouds 23 1009 91 10000 1.19 223 21:57 23.12.2020
4487 Rain 23 1009 88 10000 1.31 204 21:28 23.12.2020
4488 Rain 23 1009 88 10000 1.31 204 20:56 23.12.2020
4489 Rain 23 1009 88 10000 1.31 204 20:37 23.12.2020
4490 Clouds 24 1009 84 10000 1.15 202 20:19 23.12.2020
4491 Clouds 24 1009 84 10000 1.15 202 19:39 23.12.2020
4492 Rain 25 1008 81 10000 0.95 221 19:20 23.12.2020
4493 Clouds 25 1007 78 10000 1.11 232 18:49 23.12.2020
4494 Thunderstorm 29 1008 66 7000 4.1 120 18:29 23.12.2020
4495 Clouds 27 1006 72 10000 1.01 231 17:41 23.12.2020
4496 Clouds 28 1005 67 10000 0.78 271 17:22 23.12.2020
4497 Clouds 28 1005 67 10000 0.78 271 16:49 23.12.2020
4498 Clouds 31 1005 55 10000 0.82 277 16:29 23.12.2020
4499 Clouds 31 1005 55 10000 0.82 277 15:58 23.12.2020
4500 Clouds 31 1005 55 10000 0.82 277 15:37 23.12.2020
4501 Clouds 33 1005 46 10000 1.23 319 15:19 23.12.2020
4502 Clouds 31 1010 62 10000 5.1 180 14:39 23.12.2020
4503 Clouds 31 1010 62 10000 5.1 180 14:20 23.12.2020
4504 Clouds 33 1005 43 10000 1.03 352 13:44 23.12.2020
4505 Clouds 33 1005 43 10000 1.03 352 13:44 23.12.2020
4506 Clouds 33 1005 43 10000 1.03 352 13:44 23.12.2020
4507 Clouds 35 1005 37 10000 1.19 32 13:20 23.12.2020
4508 Clouds 35 1005 37 10000 1.19 32 12:53 23.12.2020
4509 Clouds 35 1007 41 10000 0.87 22 12:28 23.12.2020
4510 Clouds 35 1007 41 10000 0.87 22 11:53 23.12.2020
4511 Rain 34 1008 45 10000 0.65 78 11:21 23.12.2020
4512 Rain 34 1008 45 10000 0.65 78 10:50 23.12.2020
4513 Rain 34 1008 45 10000 0.65 78 10:32 23.12.2020
4514 Rain 31 1010 55 10000 1.15 120 09:36 23.12.2020
4515 Clouds 29 1011 65 10000 0.95 115 08:51 23.12.2020
4516 Clouds 27 1011 79 10000 0.64 93 08:22 23.12.2020
4517 Clouds 27 1011 79 10000 0.64 93 07:43 23.12.2020
4518 Clouds 24 1011 82 10000 0.41 123 06:41 23.12.2020
4519 Clouds 23 1010 83 10000 0.68 135 05:54 23.12.2020
4520 Clouds 22 1010 85 10000 0.57 181 05:20 23.12.2020
4521 Clouds 23 1008 80 10000 0.21 79 01:38 23.12.2020
4522 Clouds 22 1008 86 10000 0.38 215 00:30 23.12.2020
4523 Clouds 22 1009 85 10000 0.68 224 23:39 22.12.2020
4524 Clouds 23 1009 83 10000 0.81 217 23:21 22.12.2020
4525 Clouds 23 1009 83 10000 0.81 217 22:42 22.12.2020
4526 Clouds 23 1009 83 10000 0.85 220 22:22 22.12.2020
4527 Clouds 23 1009 83 10000 0.85 220 21:48 22.12.2020
4528 Clear 23 1010 82 10000 0.94 198 21:20 22.12.2020
4529 Clear 23 1010 82 10000 0.94 198 20:53 22.12.2020
4530 Clear 23 1010 82 10000 0.94 198 20:35 22.12.2020
4531 Clear 24 1009 81 10000 0.96 207 19:52 22.12.2020
4532 Clouds 24 1008 78 10000 1.11 211 19:28 22.12.2020
4533 Clouds 24 1008 78 10000 1.11 211 18:58 22.12.2020
4534 Clouds 25 1007 74 10000 0.65 156 18:38 22.12.2020
4535 Clouds 26 1007 71 10000 0.47 136 18:20 22.12.2020
4536 Clouds 26 1007 71 10000 0.47 136 17:38 22.12.2020
4537 Clouds 28 1006 66 10000 0.74 127 17:18 22.12.2020
4538 Clouds 28 1006 66 10000 0.74 127 16:47 22.12.2020
4539 Clouds 31 1006 53 10000 0.7 111 16:21 22.12.2020
4540 Clouds 31 1006 53 10000 0.7 111 15:46 22.12.2020
4541 Clouds 32 1006 50 10000 0.47 113 15:28 22.12.2020
4542 Clouds 32 1006 50 10000 0.47 113 14:57 22.12.2020
4543 Clouds 32 1006 50 10000 0.47 113 14:38 22.12.2020
4544 Clouds 33 1006 45 10000 0.29 116 14:18 22.12.2020
4545 Clouds 33 1006 45 10000 0.29 116 13:42 22.12.2020
4546 Clouds 32 1007 48 10000 0.41 93 13:18 22.12.2020
4547 Clouds 34 1006 41 10000 0.75 35 12:46 22.12.2020
4548 Clouds 33 1008 44 10000 0.67 58 12:27 22.12.2020
4549 Clouds 33 1008 44 10000 0.67 58 11:57 22.12.2020
4550 Clouds 33 1008 44 10000 0.67 58 11:39 22.12.2020
4551 Clear 35 1009 43 10000 0.76 123 11:19 22.12.2020
4552 Clear 35 1009 43 10000 0.76 123 10:51 22.12.2020
4553 Clear 32 1011 51 10000 1.36 145 10:24 22.12.2020
4554 Clear 32 1011 51 10000 1.36 145 09:56 22.12.2020
4555 Clear 29 1012 59 10000 1.64 138 09:23 22.12.2020
4556 Clear 29 1012 59 10000 1.64 138 08:53 22.12.2020
4557 Clear 26 1012 71 10000 1.53 146 08:29 22.12.2020
4558 Clear 26 1012 71 10000 1.53 146 07:48 22.12.2020
4559 Clear 24 1012 81 10000 1.36 151 06:48 22.12.2020
4560 Clear 21 1011 91 10000 1.01 117 05:44 22.12.2020
4561 Clear 21 1010 94 10000 0.89 187 03:33 22.12.2020
4562 Clouds 21 1010 92 10000 1.25 170 00:47 22.12.2020
4563 Clouds 22 1010 92 10000 1.21 176 23:54 21.12.2020
4564 Clouds 22 1010 92 10000 1.21 176 23:36 21.12.2020
4565 Clouds 22 1011 92 10000 1.15 203 22:38 21.12.2020
4566 Clouds 22 1011 90 10000 1.2 209 22:19 21.12.2020
4567 Clouds 22 1011 90 10000 1.2 209 21:57 21.12.2020
4568 Clouds 22 1011 90 10000 1.2 209 21:39 21.12.2020
4569 Clouds 23 1011 88 10000 1.18 182 21:18 21.12.2020
4570 Clouds 23 1011 85 10000 1.56 173 20:27 21.12.2020
4571 Clouds 23 1011 85 10000 1.56 173 19:59 21.12.2020
4572 Clouds 23 1011 85 10000 1.56 173 19:41 21.12.2020
4573 Rain 24 1010 80 10000 1.03 166 19:19 21.12.2020
4574 Rain 24 1010 80 10000 1.03 166 18:51 21.12.2020
4575 Clouds 24 1009 84 10000 1.71 143 18:33 21.12.2020
4576 Clouds 25 1008 78 10000 1.3 140 17:43 21.12.2020
4577 Rain 27 1010 69 8000 3.1 160 17:24 21.12.2020
4578 Rain 27 1010 69 8000 3.1 160 16:47 21.12.2020
4579 Clouds 29 1007 69 10000 0.97 147 16:27 21.12.2020
4580 Clouds 29 1007 69 10000 0.97 147 15:54 21.12.2020
4581 Clouds 29 1007 69 10000 0.97 147 15:35 21.12.2020
4582 Rain 29 1007 64 10000 1.46 134 14:57 21.12.2020
4583 Rain 29 1007 60 10000 1.27 107 14:21 21.12.2020
4584 Rain 29 1007 60 10000 1.27 107 13:44 21.12.2020
4585 Rain 33 1008 46 10000 0.64 58 13:26 21.12.2020
4586 Clear 34 1008 40 10000 1.01 18 12:45 21.12.2020
4587 Clouds 27 1013 78 8000 3.1 200 12:25 21.12.2020
4588 Clear 35 1009 40 10000 0.8 332 11:58 21.12.2020
4589 Clear 35 1009 40 10000 0.8 332 11:39 21.12.2020
4590 Clear 34 1010 44 10000 0.58 209 11:20 21.12.2020
4591 Clear 34 1010 44 10000 0.58 209 10:42 21.12.2020
4592 Clear 31 1011 53 10000 1.56 170 10:24 21.12.2020
4593 Clear 31 1011 53 10000 1.56 170 09:46 21.12.2020
4594 Clear 29 1012 61 10000 1.76 166 09:25 21.12.2020
4595 Clear 29 1012 61 10000 1.76 166 08:52 21.12.2020
4596 Clear 26 1012 68 10000 1.58 170 07:52 21.12.2020
4597 Clear 24 1012 78 10000 1.65 183 06:47 21.12.2020
4598 Clear 21 1011 87 10000 1.19 176 04:49 21.12.2020
4599 Clouds 22 1010 80 10000 0.78 189 01:26 21.12.2020
4600 Clouds 22 1010 78 10000 0.87 203 00:32 21.12.2020
4601 Clouds 22 1010 78 10000 0.87 203 23:36 20.12.2020
4602 Clouds 23 1010 78 10000 0.54 212 22:59 20.12.2020
4603 Clouds 23 1010 78 10000 0.54 212 22:59 20.12.2020
4604 Clouds 23 1010 78 10000 0.54 212 22:41 20.12.2020
4605 Clouds 23 1011 77 10000 0.73 222 22:22 20.12.2020
4606 Clouds 23 1011 77 10000 0.73 222 21:40 20.12.2020
4607 Clouds 23 1011 76 10000 0.79 203 21:20 20.12.2020
4608 Clouds 23 1011 76 10000 0.79 203 20:51 20.12.2020
4609 Clouds 24 1010 74 10000 1.24 182 20:24 20.12.2020
4610 Clouds 24 1010 74 10000 1.24 182 19:46 20.12.2020
4611 Clouds 24 1009 73 10000 1.16 176 19:28 20.12.2020
4612 Clouds 24 1009 75 10000 1.31 187 18:58 20.12.2020
4613 Clouds 24 1009 75 10000 1.31 187 18:38 20.12.2020
4614 Clouds 25 1008 74 10000 1.33 197 18:19 20.12.2020
4615 Clouds 25 1008 74 10000 1.33 197 17:43 20.12.2020
4616 Clouds 27 1006 69 10000 1.48 202 17:22 20.12.2020
4617 Clouds 27 1006 69 10000 1.48 202 16:45 20.12.2020
4618 Clouds 30 1009 62 10000 3.1 180 16:25 20.12.2020
4619 Clouds 30 1009 62 10000 3.1 180 15:47 20.12.2020
4620 Clouds 32 1006 44 10000 0.44 166 15:24 20.12.2020
4621 Clouds 32 1006 44 10000 0.44 166 14:53 20.12.2020
4622 Clouds 29 1010 62 10000 3.1 180 14:30 20.12.2020
4623 Clouds 29 1010 62 10000 3.1 180 13:47 20.12.2020
4624 Clouds 33 1008 41 10000 0.44 8 13:25 20.12.2020
4625 Clouds 33 1008 41 10000 0.44 8 12:57 20.12.2020
4626 Clouds 33 1008 42 10000 0.27 277 12:39 20.12.2020
4627 Clouds 32 1009 47 10000 0.69 191 12:18 20.12.2020
4628 Clouds 32 1009 47 10000 0.69 191 11:42 20.12.2020
4629 Clouds 30 1011 54 10000 1.08 170 10:57 20.12.2020
4630 Clouds 30 1011 54 10000 1.08 170 10:38 20.12.2020
4631 Clouds 26 1012 70 10000 1.11 162 10:19 20.12.2020
4632 Clouds 26 1012 70 10000 1.11 162 09:45 20.12.2020
4633 Clouds 23 1013 89 10000 0.94 140 09:27 20.12.2020
4634 Clouds 23 1013 89 10000 0.94 140 08:52 20.12.2020
4635 Clouds 23 1013 89 10000 0.94 140 08:33 20.12.2020
4636 Clouds 21 1013 95 10000 0.86 133 07:23 20.12.2020
4637 Clouds 21 1012 95 10000 1.28 160 05:44 20.12.2020
4638 Clouds 20 1010 97 10000 1.24 158 01:33 20.12.2020
4639 Clouds 20 1010 97 10000 1.24 158 01:33 20.12.2020
4640 Clouds 20 1010 96 10000 1.43 173 00:32 20.12.2020
4641 Clouds 21 1011 94 10000 1.51 167 23:19 19.12.2020
4642 Clouds 21 1011 94 10000 1.51 167 22:56 19.12.2020
4643 Clouds 21 1011 94 10000 1.51 167 22:37 19.12.2020
4644 Clouds 21 1012 94 10000 1.73 164 22:18 19.12.2020
4645 Clouds 21 1012 94 10000 1.73 164 21:41 19.12.2020
4646 Clouds 22 1012 94 10000 1.76 162 21:23 19.12.2020
4647 Clouds 22 1012 94 10000 1.76 162 20:42 19.12.2020
4648 Clouds 22 1012 94 10000 1.77 159 20:19 19.12.2020
4649 Clouds 22 1012 94 10000 1.77 159 19:50 19.12.2020
4650 Clouds 22 1012 94 10000 1.77 159 19:31 19.12.2020
4651 Clouds 22 1011 93 10000 1.67 153 18:41 19.12.2020
4652 Clouds 27 1010 74 8000 3.1 180 18:20 19.12.2020
4653 Clouds 27 1010 74 8000 3.1 180 17:46 19.12.2020
4654 Rain 30 1009 62 10000 3.1 180 17:24 19.12.2020
4655 Rain 30 1009 62 10000 3.1 180 16:45 19.12.2020
4656 Rain 30 1009 62 10000 3.1 180 16:26 19.12.2020
4657 Rain 30 1009 62 10000 3.1 180 15:58 19.12.2020
4658 Rain 29 1010 70 10000 2.1 60 15:39 19.12.2020
4659 Rain 26 1007 81 8449 1.68 204 14:43 19.12.2020
4660 Rain 29 1011 66 10000 2.1 260 14:22 19.12.2020
4661 Rain 29 1011 66 10000 2.1 260 13:41 19.12.2020
4662 Rain 29 1011 66 10000 2.1 260 13:20 19.12.2020
4663 Rain 29 1012 66 8000 2.1 220 12:44 19.12.2020
4664 Rain 28 1013 69 8000 2.1 180 12:26 19.12.2020
4665 Rain 28 1013 69 8000 2.1 180 11:57 19.12.2020
4666 Rain 28 1013 69 8000 2.1 250 11:36 19.12.2020
4667 Clouds 28 1013 69 8000 2.1 250 10:43 19.12.2020
4668 Clouds 29 1011 59 10000 1.25 170 10:25 19.12.2020
4669 Clouds 29 1011 59 10000 1.25 170 09:56 19.12.2020
4670 Clouds 29 1011 59 10000 1.25 170 09:38 19.12.2020
4671 Fog 22 1013 94 500 1.19 169 08:36 19.12.2020
4672 Fog 21 1013 100 200 0.76 158 07:25 19.12.2020
4673 Clouds 24 1012 80 10000 0.76 158 06:54 19.12.2020
4674 Clouds 21 1011 92 10000 0.87 150 06:21 19.12.2020
4675 Clouds 20 1010 95 10000 0.83 149 05:18 19.12.2020
4676 Clouds 21 1009 95 10000 0.59 192 03:20 19.12.2020
4677 Clouds 21 1009 93 10000 1.01 194 00:41 19.12.2020
4678 Clouds 21 1010 92 10000 1 199 00:18 19.12.2020
4679 Clouds 21 1010 92 10000 1 199 23:48 18.12.2020
4680 Clouds 22 1010 92 10000 1.09 197 23:23 18.12.2020
4681 Clouds 22 1010 92 10000 1.09 197 22:46 18.12.2020
4682 Clouds 22 1011 92 10000 1.22 180 22:24 18.12.2020
4683 Clouds 22 1011 92 10000 1.22 180 21:50 18.12.2020
4684 Clouds 22 1011 92 10000 1.22 180 21:31 18.12.2020
4685 Clouds 22 1011 91 10000 1.23 164 20:43 18.12.2020
4686 Clouds 22 1010 91 10000 1.22 183 20:22 18.12.2020
4687 Clouds 22 1010 91 10000 1.22 183 19:45 18.12.2020
4688 Clouds 23 1010 90 10000 1.29 202 19:22 18.12.2020
4689 Clouds 23 1009 92 10000 1.43 184 18:45 18.12.2020
4690 Clouds 23 1008 91 10000 1.58 178 18:24 18.12.2020
4691 Clouds 23 1008 91 10000 1.58 178 17:30 18.12.2020
4692 Clouds 24 1008 89 10000 1.62 163 16:57 18.12.2020
4693 Clouds 24 1008 89 10000 1.62 163 16:38 18.12.2020
4694 Rain 26 1007 83 10000 1.7 150 16:20 18.12.2020
4695 Rain 26 1007 83 10000 1.7 150 15:43 18.12.2020
4696 Rain 28 1007 69 10000 1.23 138 15:24 18.12.2020
4697 Rain 28 1007 69 10000 1.23 138 14:55 18.12.2020
4698 Rain 30 1007 63 10000 0.35 92 14:23 18.12.2020
4699 Rain 30 1007 63 10000 0.35 92 13:51 18.12.2020
4700 Rain 30 1007 63 10000 0.35 92 13:31 18.12.2020
4701 Rain 30 1008 60 10000 0.49 328 12:56 18.12.2020
4702 Rain 26 1014 78 10000 2.1 90 12:30 18.12.2020
4703 Rain 29 1010 71 10000 0.85 242 11:27 18.12.2020
4704 Rain 29 1010 71 10000 0.85 242 10:40 18.12.2020
4705 Rain 24 1014 88 9000 2.1 150 10:21 18.12.2020
4706 Rain 24 1014 88 9000 2.1 150 09:55 18.12.2020
4707 Rain 23 1014 94 8000 1.32 212 09:36 18.12.2020
4708 Clouds 23 1014 94 8000 1.35 178 09:18 18.12.2020
4709 Clouds 28 1012 66 10000 1.35 178 08:42 18.12.2020
4710 Clouds 26 1012 74 10000 1.02 147 07:52 18.12.2020
4711 Rain 24 1012 83 10000 0.87 133 07:19 18.12.2020
4712 Rain 24 1012 83 10000 0.87 133 06:58 18.12.2020
4713 Clouds 22 1011 90 10000 0.47 84 05:44 18.12.2020
4714 Clouds 21 1010 95 10000 0.78 106 04:51 18.12.2020
4715 Clouds 22 1008 93 10000 0.48 171 03:20 18.12.2020
4716 Clouds 22 1008 91 10000 0.85 219 01:44 18.12.2020
4717 Clouds 23 1009 83 10000 1.25 209 00:29 18.12.2020
4718 Clouds 23 1009 83 10000 1.25 209 23:52 17.12.2020
4719 Clouds 23 1009 75 10000 1.13 201 23:21 17.12.2020
4720 Clouds 23 1009 75 10000 1.13 201 22:48 17.12.2020
4721 Clouds 24 1012 88 6000 4.1 210 22:27 17.12.2020
4722 Clouds 23 1009 67 10000 1.46 198 21:44 17.12.2020
4723 Clouds 23 1009 67 10000 1.46 198 21:44 17.12.2020
4724 Clouds 24 1008 61 10000 0.94 180 21:21 17.12.2020
4725 Clouds 24 1008 61 10000 0.94 180 20:45 17.12.2020
4726 Clouds 25 1008 58 10000 0.76 146 20:20 17.12.2020
4727 Clouds 25 1008 58 10000 0.76 146 19:56 17.12.2020
4728 Clouds 25 1008 58 10000 0.76 146 19:38 17.12.2020
4729 Clouds 26 1007 57 10000 0.72 119 19:19 17.12.2020
4730 Clouds 25 1006 56 10000 0.94 117 18:40 17.12.2020
4731 Clouds 26 1005 55 10000 1.03 103 18:19 17.12.2020
4732 Clouds 26 1005 55 10000 1.03 103 17:45 17.12.2020
4733 Clouds 33 1007 55 7000 3.1 360 17:27 17.12.2020
4734 Clear 28 1004 54 10000 1.23 90 16:40 17.12.2020
4735 Clouds 33 1006 55 8000 3.1 330 16:20 17.12.2020
4736 Clouds 33 1006 55 8000 3.1 330 15:45 17.12.2020
4737 Clear 34 1004 31 10000 1.99 59 15:27 17.12.2020
4738 Clear 34 1004 31 10000 1.99 59 14:49 17.12.2020
4739 Clear 35 1004 29 10000 1.85 52 14:22 17.12.2020
4740 Clear 35 1004 29 10000 1.85 52 13:48 17.12.2020
4741 Clouds 35 1006 29 10000 1.88 42 13:22 17.12.2020
4742 Clouds 36 1006 30 10000 1.83 43 12:41 17.12.2020
4743 Clouds 36 1007 32 10000 1.49 37 12:22 17.12.2020
4744 Clouds 36 1007 32 10000 1.49 37 11:42 17.12.2020
4745 Clouds 36 1009 37 10000 0.99 53 11:22 17.12.2020
4746 Clouds 36 1009 37 10000 0.99 53 10:48 17.12.2020
4747 Clouds 34 1010 44 10000 0.9 93 09:40 17.12.2020
4748 Clouds 32 1010 52 10000 0.84 87 08:57 17.12.2020
4749 Clouds 29 1011 61 10000 0.83 81 07:44 17.12.2020
4750 Clouds 25 1011 73 10000 1.09 98 07:25 17.12.2020
4751 Clouds 25 1011 73 10000 1.09 98 06:50 17.12.2020
4752 Clear 25 1011 72 10000 0.93 94 06:32 17.12.2020
4753 Clear 22 1008 85 10000 0.41 101 03:31 17.12.2020
4754 Clouds 23 1008 78 10000 0.52 237 00:28 17.12.2020
4755 Clouds 23 1008 78 10000 0.52 237 23:42 16.12.2020
4756 Clouds 23 1009 78 10000 0.6 202 23:19 16.12.2020
4757 Clouds 23 1009 78 10000 0.6 202 22:49 16.12.2020
4758 Clouds 23 1009 78 10000 0.6 202 22:31 16.12.2020
4759 Clouds 24 1009 77 10000 0.77 181 21:45 16.12.2020
4760 Clear 24 1009 74 10000 0.83 169 21:25 16.12.2020
4761 Clear 24 1009 74 10000 0.83 169 20:52 16.12.2020
4762 Clear 25 1008 74 10000 0.64 160 20:20 16.12.2020
4763 Clear 25 1008 74 10000 0.64 160 19:43 16.12.2020
4764 Clear 25 1008 74 10000 0.64 160 19:43 16.12.2020
4765 Clouds 25 1007 73 10000 0.67 116 19:18 16.12.2020
4766 Clouds 26 1007 71 10000 0.69 111 18:51 16.12.2020
4767 Clouds 27 1006 68 10000 0.85 94 18:26 16.12.2020
4768 Clouds 27 1006 68 10000 0.85 94 17:42 16.12.2020
4769 Clouds 28 1005 66 10000 1.01 101 16:56 16.12.2020
4770 Clouds 33 1007 55 10000 1.5 0 16:37 16.12.2020
4771 Clouds 33 1007 55 10000 1.5 0 16:19 16.12.2020
4772 Clouds 33 1007 55 10000 1.5 0 15:46 16.12.2020
4773 Clouds 32 1007 62 10000 1.5 0 15:19 16.12.2020
4774 Clouds 32 1007 62 10000 1.5 0 14:45 16.12.2020
4775 Clouds 34 1005 42 10000 1.83 58 14:27 16.12.2020
4776 Clouds 34 1005 42 10000 1.83 58 13:42 16.12.2020
4777 Clouds 34 1006 41 10000 1.94 49 13:21 16.12.2020
4778 Clouds 34 1006 38 10000 2.05 44 12:44 16.12.2020
4779 Clouds 32 1011 62 10000 3.1 180 11:55 16.12.2020
4780 Clouds 34 1007 39 10000 1.87 42 11:36 16.12.2020
4781 Clouds 34 1009 43 10000 1.16 55 10:58 16.12.2020
4782 Clouds 34 1009 43 10000 1.16 55 10:38 16.12.2020
4783 Clouds 33 1010 50 10000 0.97 86 09:56 16.12.2020
4784 Clouds 33 1010 50 10000 0.97 86 09:33 16.12.2020
4785 Clouds 27 1011 72 10000 1.32 82 08:23 16.12.2020
4786 Clouds 27 1011 72 10000 1.32 82 07:46 16.12.2020
4787 Clouds 24 1011 85 10000 1.35 104 07:23 16.12.2020
4788 Clouds 22 1010 91 10000 1.54 119 05:42 16.12.2020
4789 Clouds 22 1008 91 10000 0.66 169 02:20 16.12.2020
4790 Clouds 23 1008 89 10000 0.33 292 23:57 15.12.2020
4791 Clouds 23 1008 89 10000 0.33 292 23:37 15.12.2020
4792 Clouds 23 1009 89 10000 0.24 116 22:44 15.12.2020
4793 Clouds 23 1010 88 10000 0.96 164 22:22 15.12.2020
4794 Clouds 23 1010 88 10000 0.96 164 21:49 15.12.2020
4795 Clouds 24 1010 86 10000 1.08 180 21:24 15.12.2020
4796 Clouds 24 1010 86 10000 1.08 180 20:46 15.12.2020
4797 Rain 24 1010 85 10000 0.9 113 20:27 15.12.2020
4798 Rain 24 1010 85 10000 0.9 113 19:55 15.12.2020
4799 Rain 24 1010 85 10000 0.9 113 19:34 15.12.2020
4800 Rain 26 1008 72 10000 1.75 51 18:55 15.12.2020
4801 Rain 26 1008 72 10000 1.75 51 18:36 15.12.2020
4802 Clouds 26 1007 67 10000 0.95 67 18:18 15.12.2020
4803 Clouds 26 1007 67 10000 0.95 67 17:41 15.12.2020
4804 Clouds 28 1006 64 10000 0.48 86 17:20 15.12.2020
4805 Clouds 32 1008 59 10000 2.1 90 16:34 15.12.2020
4806 Clouds 32 1006 54 10000 0.68 77 15:59 15.12.2020
4807 Clouds 32 1006 54 10000 0.68 77 15:33 15.12.2020
4808 Clouds 33 1006 45 10000 1.04 31 14:51 15.12.2020
4809 Clouds 32 1007 52 10000 0.73 12 14:25 15.12.2020
4810 Clouds 32 1007 52 10000 0.73 12 13:54 15.12.2020
4811 Clouds 32 1007 52 10000 0.73 12 13:33 15.12.2020
4812 Clouds 35 1007 41 10000 0.88 13 12:47 15.12.2020
4813 Clouds 36 1008 40 10000 0.13 48 12:25 15.12.2020
4814 Clouds 36 1008 40 10000 0.13 48 11:57 15.12.2020
4815 Clouds 36 1008 40 10000 0.13 48 11:39 15.12.2020
4816 Clouds 34 1010 45 10000 0.93 164 11:20 15.12.2020
4817 Clouds 34 1010 45 10000 0.93 164 10:39 15.12.2020
4818 Clouds 31 1011 53 10000 1.59 183 09:53 15.12.2020
4819 Clouds 31 1011 53 10000 1.59 183 09:32 15.12.2020
4820 Clouds 29 1012 59 10000 1.58 178 08:58 15.12.2020
4821 Clouds 29 1012 59 10000 1.58 178 08:30 15.12.2020
4822 Clouds 27 1012 68 10000 1.44 165 07:59 15.12.2020
4823 Clouds 27 1012 68 10000 1.44 165 07:37 15.12.2020
4824 Clouds 24 1012 78 10000 1.29 154 06:37 15.12.2020
4825 Clouds 22 1009 85 10000 0.88 172 04:22 15.12.2020
4826 Clouds 23 1008 79 10000 0.35 186 00:37 15.12.2020
4827 Clouds 23 1009 79 10000 0.79 174 23:28 14.12.2020
4828 Clouds 23 1009 79 10000 0.79 174 22:59 14.12.2020
4829 Clouds 23 1009 79 10000 0.79 174 22:38 14.12.2020
4830 Clouds 24 1010 80 10000 0.86 153 21:55 14.12.2020
4831 Clouds 24 1010 80 10000 0.86 153 21:36 14.12.2020
4832 Clouds 24 1010 80 10000 0.73 109 20:56 14.12.2020
4833 Clouds 24 1010 80 10000 0.73 109 20:38 14.12.2020
4834 Clouds 24 1009 78 10000 1.02 101 20:18 14.12.2020
4835 Clouds 24 1009 78 10000 1.02 101 19:32 14.12.2020
4836 Clouds 25 1008 75 10000 1.21 106 18:57 14.12.2020
4837 Clouds 25 1008 75 10000 1.21 106 18:38 14.12.2020
4838 Clouds 26 1007 71 10000 1.31 106 17:58 14.12.2020
4839 Clouds 26 1007 71 10000 1.31 106 17:33 14.12.2020
4840 Clouds 27 1006 67 10000 1.17 95 16:56 14.12.2020
4841 Clouds 27 1006 67 10000 1.17 95 16:36 14.12.2020
4842 Clouds 31 1005 56 10000 1.05 76 16:18 14.12.2020
4843 Clouds 31 1005 56 10000 1.05 76 15:32 14.12.2020
4844 Clouds 33 1006 45 10000 1.25 58 14:46 14.12.2020
4845 Clouds 34 1006 40 10000 1.24 63 14:27 14.12.2020
4846 Clouds 34 1006 40 10000 1.24 63 13:55 14.12.2020
4847 Clouds 34 1006 40 10000 1.24 63 13:33 14.12.2020
4848 Clouds 35 1007 39 10000 1.12 77 12:55 14.12.2020
4849 Clouds 35 1007 39 10000 1.12 77 12:31 14.12.2020
4850 Clouds 34 1008 41 10000 1.01 98 11:54 14.12.2020
4851 Clouds 33 1010 46 10000 1.19 136 11:23 14.12.2020
4852 Clouds 26 1014 78 9000 4.1 120 10:27 14.12.2020
4853 Clouds 26 1014 78 9000 4.1 120 09:52 14.12.2020
4854 Clouds 23 1014 88 8000 1.56 163 08:56 14.12.2020
4855 Clouds 29 1012 61 10000 1.56 163 08:38 14.12.2020
4856 Clouds 26 1012 71 10000 1.49 160 07:53 14.12.2020
4857 Clouds 23 1012 83 10000 1.28 163 07:19 14.12.2020
4858 Clouds 23 1012 84 10000 1.42 151 06:33 14.12.2020
4859 Clouds 21 1010 96 10000 1.03 172 03:57 14.12.2020
4860 Clouds 21 1010 96 10000 1.03 172 03:57 14.12.2020
4861 Clouds 21 1009 97 10000 0.93 199 00:58 14.12.2020
4862 Clouds 21 1009 97 10000 0.93 199 00:39 14.12.2020
4863 Clouds 21 1010 96 10000 0.86 206 00:20 14.12.2020
4864 Clouds 21 1010 96 10000 0.86 206 23:44 13.12.2020
4865 Clouds 22 1010 96 10000 0.79 171 22:57 13.12.2020
4866 Clouds 22 1010 96 10000 0.79 171 22:39 13.12.2020
4867 Clouds 22 1011 97 10000 0.9 149 22:18 13.12.2020
4868 Clouds 22 1011 97 10000 0.9 149 21:41 13.12.2020
4869 Clouds 22 1011 96 10000 1.23 135 20:55 13.12.2020
4870 Clouds 23 1011 94 7000 1.5 0 20:25 13.12.2020
4871 Clouds 22 1011 96 10000 1.03 152 19:47 13.12.2020
4872 Rain 23 1011 93 10000 1.23 158 19:24 13.12.2020
4873 Clouds 23 1009 89 10000 1.12 161 18:54 13.12.2020
4874 Clouds 23 1009 89 10000 1.12 161 18:36 13.12.2020
4875 Clouds 24 1009 87 10000 0.86 167 18:18 13.12.2020
4876 Clouds 24 1009 87 10000 0.86 167 17:44 13.12.2020
4877 Rain 26 1010 74 10000 3.1 120 17:18 13.12.2020
4878 Rain 25 1008 81 10000 0.88 182 16:46 13.12.2020
4879 Clouds 28 1007 67 10000 1.09 193 16:28 13.12.2020
4880 Clouds 28 1007 67 10000 1.09 193 15:45 13.12.2020
4881 Clouds 29 1006 63 10000 1.74 203 15:26 13.12.2020
4882 Clouds 29 1006 63 10000 1.74 203 14:47 13.12.2020
4883 Clouds 29 1007 63 10000 1.83 185 14:28 13.12.2020
4884 Clouds 29 1007 63 10000 1.83 185 13:49 13.12.2020
4885 Clouds 29 1007 63 10000 1.83 185 13:31 13.12.2020
4886 Clouds 29 1008 61 10000 2.23 196 12:56 13.12.2020
4887 Clouds 31 1009 55 10000 1.92 192 12:24 13.12.2020
4888 Clouds 31 1009 55 10000 1.92 192 11:58 13.12.2020
4889 Clouds 31 1009 55 10000 1.92 192 11:32 13.12.2020
4890 Clouds 30 1010 59 10000 1.82 188 10:45 13.12.2020
4891 Clouds 29 1011 61 10000 2.03 190 10:21 13.12.2020
4892 Clouds 29 1011 61 10000 2.03 190 09:46 13.12.2020
4893 Clouds 28 1012 66 10000 1.93 192 08:48 13.12.2020
4894 Clouds 28 1012 66 10000 1.93 192 08:30 13.12.2020
4895 Clouds 23 1012 84 10000 1.64 187 07:20 13.12.2020
4896 Clouds 21 1009 97 10000 1.22 210 02:44 13.12.2020
4897 Clear 21 1009 97 10000 1.04 237 02:20 13.12.2020
4898 Clear 21 1009 97 10000 1.04 237 01:34 13.12.2020
4899 Clouds 21 1010 93 10000 1.33 264 00:44 13.12.2020
4900 Clouds 22 1011 91 10000 1.67 269 23:40 12.12.2020
4901 Clouds 22 1011 91 10000 1.67 269 23:40 12.12.2020
4902 Clouds 22 1011 89 10000 1.89 265 23:20 12.12.2020
4903 Clouds 22 1011 89 10000 1.89 265 22:34 12.12.2020
4904 Clouds 22 1011 86 10000 1.61 253 21:46 12.12.2020
4905 Clouds 23 1011 85 10000 1.37 226 21:20 12.12.2020
4906 Clouds 23 1011 85 10000 1.37 226 20:46 12.12.2020
4907 Clouds 23 1011 84 10000 1.23 210 20:21 12.12.2020
4908 Clouds 23 1011 84 10000 1.23 210 19:53 12.12.2020
4909 Clouds 23 1011 84 10000 1.23 210 19:33 12.12.2020
4910 Clouds 24 1011 82 10000 1.15 207 18:56 12.12.2020
4911 Clouds 24 1010 83 10000 1.36 208 18:38 12.12.2020
4912 Clouds 24 1009 79 10000 1.26 196 18:20 12.12.2020
4913 Clouds 24 1009 79 10000 1.26 196 17:41 12.12.2020
4914 Clouds 26 1008 76 10000 0.81 239 16:44 12.12.2020
4915 Clouds 29 1006 66 10000 0.59 167 15:58 12.12.2020
4916 Thunderstorm 25 1009 88 6000 5.1 30 15:39 12.12.2020
4917 Thunderstorm 25 1009 88 6000 5.1 30 14:54 12.12.2020
4918 Clouds 30 1006 58 10000 0.64 145 14:22 12.12.2020
4919 Clouds 30 1006 58 10000 0.64 145 13:44 12.12.2020
4920 Rain 31 1010 62 10000 4.1 140 13:25 12.12.2020
4921 Rain 30 1007 67 10000 1.05 92 12:37 12.12.2020
4922 Rain 30 1012 70 10000 4.1 120 11:28 12.12.2020
4923 Rain 30 1012 70 10000 4.1 120 10:46 12.12.2020
4924 Clouds 27 1011 77 10000 1.84 163 09:24 12.12.2020
4925 Clouds 24 1011 90 10000 1.34 171 08:25 12.12.2020
4926 Clouds 21 1009 95 10000 0.88 168 01:41 12.12.2020
4927 Clouds 22 1010 93 10000 1.01 168 23:31 11.12.2020
4928 Rain 23 1010 88 10000 0.83 170 20:58 11.12.2020
4929 Rain 24 1010 85 10000 0.89 129 19:44 11.12.2020
4930 Clouds 27 1007 71 10000 0.83 147 16:59 11.12.2020
4931 Clouds 31 1011 62 10000 3.1 120 14:38 11.12.2020
4932 Clouds 31 1011 62 10000 3.1 120 13:46 11.12.2020
4933 Clouds 30 1013 66 10000 3.1 130 12:28 11.12.2020
4934 Clouds 34 1009 43 10000 0.75 145 11:55 11.12.2020
4935 Clouds 29 1014 70 10000 3.1 180 11:37 11.12.2020
4936 Clouds 33 1010 47 10000 1.31 156 10:40 11.12.2020
4937 Clouds 23 1014 94 7000 2.1 120 07:51 11.12.2020
4938 Clouds 21 1012 95 10000 1.21 185 05:36 11.12.2020
4939 Clouds 21 1011 97 10000 1.02 170 04:47 11.12.2020
4940 Clouds 21 1010 97 10000 0.69 178 00:59 11.12.2020
4941 Clouds 21 1010 97 10000 1.1 192 23:31 10.12.2020
4942 Clouds 22 1011 96 10000 1.25 182 21:55 10.12.2020
4943 Clouds 22 1011 95 10000 1.41 191 21:28 10.12.2020
4944 Clouds 22 1011 95 10000 1.41 191 20:36 10.12.2020
4945 Clouds 22 1011 94 10000 1.33 197 19:31 10.12.2020
4946 Clouds 23 1010 93 10000 1.32 193 18:49 10.12.2020
4947 Rain 23 1008 93 10000 1.28 214 17:36 10.12.2020
4948 Rain 27 1007 83 10000 1 233 16:18 10.12.2020
4949 Rain 30 1007 64 10000 0.86 279 15:24 10.12.2020
4950 Rain 30 1007 64 10000 0.86 279 14:46 10.12.2020
4951 Clouds 30 1007 59 10000 1.28 264 14:21 10.12.2020
4952 Clouds 32 1009 53 10000 0.99 261 12:24 10.12.2020
4953 Clouds 31 1011 59 10000 0.86 233 10:57 10.12.2020
4954 Clouds 24 1013 87 10000 0.55 38 08:42 10.12.2020
4955 Clouds 22 1013 92 10000 0.45 73 07:31 10.12.2020
4956 Clouds 22 1012 92 10000 0.32 133 06:20 10.12.2020
4957 Rain 22 1010 92 10000 0.73 189 02:50 10.12.2020
4958 Clouds 21 1010 94 10000 0.71 223 01:50 10.12.2020
4959 Clouds 21 1011 94 10000 0.54 220 23:45 09.12.2020
4960 Clouds 22 1011 93 10000 1.03 228 20:40 09.12.2020
4961 Clouds 22 1011 93 10000 1.14 234 20:20 09.12.2020
4962 Clouds 22 1009 95 10000 0.95 236 18:42 09.12.2020
4963 Clouds 23 1009 94 10000 1.33 251 17:35 09.12.2020
4964 Rain 24 1008 91 10000 1.07 261 16:40 09.12.2020
4965 Rain 26 1007 84 10000 1.45 256 16:20 09.12.2020
4966 Rain 29 1006 67 10000 1.11 252 14:51 09.12.2020
4967 Clouds 30 1007 60 10000 0.48 237 14:27 09.12.2020
4968 Clouds 30 1007 60 10000 0.48 237 13:46 09.12.2020
4969 Clouds 30 1008 60 10000 0.62 150 13:18 09.12.2020
4970 Clouds 30 1008 62 10000 0.41 113 12:36 09.12.2020
4971 Clouds 25 1009 84 10000 0.12 85 11:37 09.12.2020
4972 Clouds 22 1012 96 10000 0.44 156 09:52 09.12.2020
4973 Rain 22 1012 97 10000 1.11 201 08:41 09.12.2020
4974 Rain 22 1012 96 10000 0.68 115 06:56 09.12.2020
4975 Rain 22 1011 96 10000 1 75 05:33 09.12.2020
4976 Clouds 21 1009 95 10000 0.42 209 02:43 09.12.2020
4977 Clouds 21 1010 93 10000 0.4 177 00:52 09.12.2020
4978 Clouds 21 1011 93 10000 0.7 155 23:36 08.12.2020
4979 Clouds 21 1011 94 10000 0.48 196 22:27 08.12.2020
4980 Clouds 21 1011 95 10000 0.78 213 20:48 08.12.2020
4981 Clouds 21 1011 96 10000 0.35 228 19:31 08.12.2020
4982 Rain 22 1010 95 10000 1.97 291 18:38 08.12.2020
4983 Rain 27 1008 74 10000 1.31 352 17:19 08.12.2020
4984 Clouds 31 1007 58 10000 0.25 67 15:25 08.12.2020
4985 Clouds 33 1007 45 10000 1.22 23 13:52 08.12.2020
4986 Clouds 34 1008 43 10000 1.18 21 12:46 08.12.2020
4987 Clouds 33 1009 50 10000 0.74 118 11:59 08.12.2020
4988 Clouds 33 1011 50 10000 1.02 149 11:27 08.12.2020
4989 Clouds 33 1011 50 10000 1.02 149 10:41 08.12.2020
4990 Clouds 31 1012 58 10000 1.13 167 09:45 08.12.2020
4991 Clouds 24 1013 90 10000 0.99 163 07:41 08.12.2020
4992 Clouds 22 1012 97 10000 1.1 178 05:43 08.12.2020
4993 Rain 22 1011 96 10000 1.17 150 02:49 08.12.2020
4994 Clear 22 1011 91 10000 0.88 184 00:45 08.12.2020
4995 Clear 22 1011 91 10000 0.78 174 23:50 07.12.2020
4996 Clear 22 1011 91 10000 0.51 202 22:32 07.12.2020
4997 Clear 22 1011 91 10000 0.94 195 21:48 07.12.2020
4998 Clear 23 1012 89 10000 1.21 262 19:45 07.12.2020
4999 Rain 24 1010 84 10000 1.13 265 18:19 07.12.2020
5000 Clouds 26 1008 79 10000 0.64 279 17:23 07.12.2020
5001 Clouds 26 1008 79 10000 0.64 279 16:47 07.12.2020
5002 Rain 31 1007 53 10000 1.31 63 15:25 07.12.2020
5003 Rain 31 1007 53 10000 1.31 63 14:36 07.12.2020
5004 Clouds 32 1008 52 10000 1.41 87 13:43 07.12.2020
5005 Clouds 34 1009 41 10000 1.69 9 12:34 07.12.2020
5006 Clear 35 1010 40 10000 1.1 13 11:43 07.12.2020
5007 Clear 35 1011 43 10000 0.14 246 10:38 07.12.2020
5008 Clear 30 1013 60 10000 1.1 159 09:24 07.12.2020
5009 Clear 26 1013 78 10000 1.1 162 07:49 07.12.2020
5010 Clouds 22 1011 97 10000 0.59 162 05:29 07.12.2020
5011 Clouds 22 1011 97 10000 0.59 162 04:40 07.12.2020
5012 Rain 22 1010 87 10000 0.59 130 01:23 07.12.2020
5013 Clouds 23 1010 80 10000 0.6 207 22:53 06.12.2020
5014 Clear 23 1010 79 10000 0.57 191 22:19 06.12.2020
5015 Clear 24 1010 77 10000 0.51 224 20:47 06.12.2020
5016 Clear 24 1010 75 10000 0.16 290 20:26 06.12.2020
5017 Clear 24 1010 75 10000 0.16 290 19:43 06.12.2020
5018 Clouds 26 1007 71 10000 0.75 40 17:54 06.12.2020
5019 Clouds 27 1006 67 10000 0.55 79 16:39 06.12.2020
5020 Clouds 32 1007 47 10000 1.12 62 14:50 06.12.2020
5021 Clouds 32 1007 51 10000 1.11 67 13:31 06.12.2020
5022 Clear 34 1008 41 10000 1.44 41 12:36 06.12.2020
5023 Clear 34 1009 43 10000 1.1 50 11:55 06.12.2020
5024 Clear 34 1009 43 10000 1.1 50 11:30 06.12.2020
5025 Clear 34 1010 46 10000 0.7 87 10:42 06.12.2020
5026 Clear 32 1011 51 10000 0.67 152 09:39 06.12.2020
5027 Clear 26 1013 74 10000 0.64 189 07:53 06.12.2020
5028 Clouds 21 1013 95 10000 0.38 168 05:38 06.12.2020
5029 Clouds 20 1012 95 10000 0.82 175 00:57 06.12.2020
5030 Clouds 21 1012 94 10000 0.84 213 00:37 06.12.2020
5031 Clouds 21 1012 94 10000 0.77 165 00:19 06.12.2020
5032 Rain 21 1012 96 10000 0.88 166 22:26 05.12.2020
5033 Rain 21 1012 96 10000 0.88 166 21:58 05.12.2020
5034 Rain 21 1012 96 10000 0.88 166 21:37 05.12.2020
5035 Rain 21 1012 96 10000 0.91 161 21:19 05.12.2020
5036 Rain 22 1011 93 10000 1.31 136 18:55 05.12.2020
5037 Clouds 23 1010 89 10000 0.86 135 17:57 05.12.2020
5038 Rain 24 1009 86 10000 0.65 72 16:49 05.12.2020
5039 Rain 28 1008 73 10000 0.42 56 16:29 05.12.2020
5040 Rain 29 1008 64 10000 0.3 133 15:24 05.12.2020
5041 Rain 31 1009 55 10000 0.87 170 13:53 05.12.2020
5042 Rain 30 1011 59 10000 1.54 161 11:50 05.12.2020
5043 Clouds 26 1012 82 10000 1.72 153 10:41 05.12.2020
5044 Rain 26 1013 84 10000 1.95 160 09:38 05.12.2020
5045 Clouds 25 1014 80 10000 1.13 118 07:48 05.12.2020
5046 Rain 22 1012 94 10000 1.06 128 05:58 05.12.2020
5047 Clouds 21 1011 95 10000 1.02 162 02:18 05.12.2020
5048 Clouds 21 1012 95 10000 1.2 157 23:47 04.12.2020
5049 Clouds 22 1012 94 10000 1.2 190 21:53 04.12.2020
5050 Clouds 22 1012 93 10000 1.27 192 19:42 04.12.2020
5051 Clouds 22 1011 93 10000 1.24 188 18:47 04.12.2020
5052 Clouds 23 1010 93 10000 1.36 187 17:54 04.12.2020
5053 Rain 24 1009 90 10000 1.26 182 17:19 04.12.2020
5054 Rain 27 1008 76 9611 1.19 189 15:35 04.12.2020
5055 Rain 29 1008 65 10000 1.4 192 13:39 04.12.2020
5056 Rain 27 1009 85 7532 1.48 165 13:20 04.12.2020
5057 Rain 27 1009 85 7532 1.48 165 12:47 04.12.2020
5058 Rain 27 1009 85 7532 1.48 165 12:47 04.12.2020
5059 Rain 30 1011 61 10000 1.91 198 10:38 04.12.2020
5060 Clouds 29 1012 60 10000 2 187 09:37 04.12.2020
5061 Clouds 23 1013 92 10000 1.72 190 06:41 04.12.2020
5062 Rain 21 1012 96 10000 1.67 182 05:20 04.12.2020
5063 Rain 22 1010 96 10000 1.81 174 01:54 04.12.2020
5064 Rain 23 1011 88 10000 1.12 175 22:52 03.12.2020
5065 Clouds 23 1010 83 10000 1.06 194 22:18 03.12.2020
5066 Clouds 24 1010 74 10000 1.05 195 20:47 03.12.2020
5067 Clouds 26 1009 67 10000 0.69 144 19:26 03.12.2020
5068 Clouds 26 1009 67 10000 0.69 144 18:49 03.12.2020
5069 Clouds 28 1006 60 10000 0.95 111 17:22 03.12.2020
5070 Clouds 28 1006 60 10000 0.95 111 16:59 03.12.2020
5071 Clouds 32 1010 55 10000 3.1 240 15:39 03.12.2020
5072 Clouds 32 1010 55 10000 3.1 240 15:21 03.12.2020
5073 Clouds 31 1012 62 10000 3.1 240 14:25 03.12.2020
5074 Clouds 30 1012 62 10000 2.1 140 13:24 03.12.2020
5075 Clouds 29 1013 70 10000 4.1 120 12:26 03.12.2020
5076 Clouds 35 1009 41 10000 0.41 334 11:23 03.12.2020
5077 Clouds 24 1014 88 8000 2.1 160 08:49 03.12.2020
5078 Clouds 21 1011 91 10000 0.64 146 04:44 03.12.2020
5079 Clouds 22 1009 87 10000 0.51 80 02:26 03.12.2020
5080 Clouds 22 1009 85 10000 0.27 96 00:48 03.12.2020
5081 Clouds 23 1010 83 10000 0.57 165 22:47 02.12.2020
5082 Clouds 23 1010 81 10000 0.83 190 22:21 02.12.2020
5083 Clouds 23 1010 80 10000 0.55 241 20:55 02.12.2020
5084 Clouds 23 1010 80 10000 0.55 241 20:37 02.12.2020
5085 Clouds 24 1009 78 10000 0.67 207 20:18 02.12.2020
5086 Clouds 24 1008 73 10000 0.66 174 18:33 02.12.2020
5087 Clouds 24 1009 94 7000 3.1 50 17:38 02.12.2020
5088 Clouds 24 1009 94 7000 3.1 50 17:19 02.12.2020
5089 Clouds 24 1010 88 7000 2.1 0 15:18 02.12.2020
5090 Clouds 32 1007 51 10000 0.53 351 11:52 02.12.2020
5091 Clouds 26 1010 74 10000 0.33 221 10:28 02.12.2020
5092 Clouds 26 1010 75 10000 0.4 121 08:40 02.12.2020
5093 Clouds 23 1009 79 10000 0.54 45 04:25 02.12.2020
5094 Clear 24 1010 73 10000 0.5 74 22:21 01.12.2020
5095 Clear 24 1010 73 10000 0.5 74 21:36 01.12.2020
5096 Clear 24 1009 72 10000 0.71 85 19:35 01.12.2020
5097 Clouds 26 1007 69 10000 0.82 62 17:51 01.12.2020
5098 Clear 27 1006 66 10000 0.94 60 16:35 01.12.2020
5099 Clear 33 1005 38 10000 2.03 17 13:38 01.12.2020
5100 Clouds 33 1008 40 10000 0.69 46 12:25 01.12.2020
5101 Clouds 29 1013 70 8000 2.1 120 11:26 01.12.2020
5102 Clouds 33 1010 43 10000 0.63 100 10:38 01.12.2020
5103 Clear 27 1012 61 10000 1.12 84 08:21 01.12.2020
5104 Clouds 25 1012 71 10000 1.09 100 06:48 01.12.2020
5105 Clear 21 1010 81 10000 1.12 13 01:53 01.12.2020
5106 Clouds 22 1010 78 10000 0.8 356 00:56 01.12.2020
5107 Clear 22 1011 75 10000 0.13 58 23:21 30.11.2020
5108 Clear 22 1011 75 10000 0.13 58 22:44 30.11.2020
5109 Clear 23 1011 73 10000 0.27 88 22:25 30.11.2020
5110 Clouds 23 1011 72 10000 0.49 83 20:57 30.11.2020
5111 Clouds 24 1011 70 10000 0.68 67 19:42 30.11.2020
5112 Clouds 30 1010 62 10000 2.1 360 18:24 30.11.2020
5113 Clear 25 1008 68 10000 0.77 70 17:48 30.11.2020
5114 Clouds 32 1010 52 10000 2.1 320 16:55 30.11.2020
5115 Clear 30 1007 54 10000 1.44 42 15:59 30.11.2020
5116 Clouds 32 1010 55 10000 4.1 340 14:47 30.11.2020
5117 Clear 33 1007 39 10000 1.81 39 13:53 30.11.2020
5118 Clear 33 1010 38 10000 1.42 57 12:27 30.11.2020
5119 Clear 33 1010 38 10000 1.42 57 11:58 30.11.2020
5120 Clouds 31 1012 48 10000 1.05 92 10:28 30.11.2020
5121 Clouds 31 1012 48 10000 1.05 92 09:50 30.11.2020
5122 Clouds 22 1013 92 10000 0.93 153 07:18 30.11.2020
5123 Clouds 20 1011 97 10000 0.59 129 00:54 30.11.2020
5124 Clouds 21 1013 97 10000 0.55 159 21:53 29.11.2020
5125 Clouds 21 1013 97 10000 0.55 159 21:53 29.11.2020
5126 Clouds 21 1013 96 10000 0.68 172 21:32 29.11.2020
5127 Clouds 21 1013 96 10000 0.68 172 20:38 29.11.2020
5128 Rain 22 1011 97 10000 0.94 133 17:48 29.11.2020
5129 Rain 24 1009 93 10000 1.5 151 16:29 29.11.2020
5130 Clouds 27 1014 74 8000 3.1 330 13:24 29.11.2020
5131 Clouds 24 1011 86 10000 1.12 210 12:27 29.11.2020
5132 Clouds 24 1012 83 10000 1.34 192 10:54 29.11.2020
5133 Rain 21 1013 97 10000 1.34 178 08:39 29.11.2020
5134 Clouds 22 1013 95 10000 0.84 148 06:33 29.11.2020
5135 Rain 21 1011 96 10000 0.81 199 00:30 29.11.2020
5136 Clouds 21 1011 96 10000 0.58 223 22:57 28.11.2020
5137 Rain 21 1011 97 10000 0.71 264 20:50 28.11.2020
5138 Rain 22 1011 97 10000 1.03 318 19:51 28.11.2020
5139 Rain 22 1011 96 10000 1.15 309 19:24 28.11.2020
5140 Rain 22 1011 96 10000 1.15 309 18:52 28.11.2020
5141 Rain 23 1009 95 10000 1.48 278 17:48 28.11.2020
5142 Clouds 25 1010 78 10000 1.29 247 16:45 28.11.2020
5143 Clouds 24 1011 83 10000 3.1 260 14:57 28.11.2020
5144 Rain 27 1007 81 10000 1.57 211 13:30 28.11.2020
5145 Rain 26 1011 78 10000 1.56 197 11:23 28.11.2020
5146 Clouds 24 1012 88 10000 1.43 202 07:55 28.11.2020
5147 Clouds 21 1009 97 10000 0.48 152 03:34 28.11.2020
5148 Clouds 21 1008 96 10000 0.7 162 01:51 28.11.2020
5149 Clear 21 1010 94 10000 0.62 43 23:19 27.11.2020
5150 Clear 22 1010 93 10000 0.22 352 21:51 27.11.2020
5151 Clear 22 1010 92 10000 0.68 238 20:37 27.11.2020
5152 Clear 22 1010 91 10000 0.49 205 19:30 27.11.2020
5153 Rain 23 1009 87 10000 0.97 25 18:51 27.11.2020
5154 Clouds 32 1007 62 10000 3.1 320 15:39 27.11.2020
5155 Clouds 31 1018 62 10000 3.1 320 14:18 27.11.2020
5156 Clouds 27 1007 75 10000 1.05 207 12:48 27.11.2020
5157 Thunderstorm 28 1011 83 8000 3.1 320 11:57 27.11.2020
5158 Clouds 27 1010 69 10000 0.6 190 10:51 27.11.2020
5159 Clouds 29 1012 74 10000 3.1 30 10:27 27.11.2020
5160 Clouds 25 1011 78 10000 0.97 135 07:30 27.11.2020
5161 Clouds 22 1009 91 10000 0.29 301 22:47 26.11.2020
5162 Clouds 22 1009 91 10000 0.6 266 22:22 26.11.2020
5163 Clouds 22 1009 91 10000 0.6 266 21:39 26.11.2020
5164 Clouds 23 1009 90 10000 0.89 269 19:48 26.11.2020
5165 Clouds 24 1008 80 10000 0.78 39 18:36 26.11.2020
5166 Clouds 27 1005 71 10000 1.48 8 16:38 26.11.2020
5167 Clouds 33 1005 43 10000 1.6 3 13:44 26.11.2020
5168 Clouds 34 1007 45 10000 0.25 288 12:52 26.11.2020
5169 Clouds 32 1008 50 10000 0.54 162 12:29 26.11.2020
5170 Clouds 28 1009 64 10000 0.95 154 10:39 26.11.2020
5171 Clouds 26 1010 71 10000 1.17 152 10:18 26.11.2020
5172 Clouds 26 1010 71 10000 1.17 152 09:34 26.11.2020
5173 Clouds 25 1011 78 10000 1.09 165 08:47 26.11.2020
5174 Clouds 24 1011 86 10000 0.84 178 08:28 26.11.2020
5175 Rain 21 1008 93 10000 0.68 87 02:18 26.11.2020
5176 Clouds 21 1010 94 10000 1.08 152 21:54 25.11.2020
5177 Clouds 22 1010 94 10000 0.98 109 20:32 25.11.2020
5178 Clouds 25 1010 88 8000 1.09 98 18:59 25.11.2020
5179 Clouds 25 1010 88 8000 1.28 134 18:59 25.11.2020
5180 Clouds 23 1008 87 10000 1.15 97 17:28 25.11.2020
5181 Clouds 28 1010 65 10000 1.57 85 15:43 25.11.2020
5182 Clouds 26 1007 70 10000 1.8 81 14:58 25.11.2020
5183 Clouds 28 1007 63 10000 1.08 119 13:46 25.11.2020
5184 Clouds 28 1012 65 10000 2.1 120 12:47 25.11.2020
5185 Clouds 26 1011 72 10000 1.77 177 11:23 25.11.2020
5186 Clouds 24 1013 79 10000 1.75 181 09:21 25.11.2020
5187 Clouds 24 1013 79 10000 1.75 181 08:50 25.11.2020
5188 Clouds 22 1013 88 10000 1.93 158 07:41 25.11.2020
5189 Clouds 21 1012 91 10000 1.12 172 03:49 25.11.2020
5190 Clouds 21 1011 92 10000 1.02 161 01:49 25.11.2020
5191 Clouds 21 1012 97 10000 1.08 191 00:19 25.11.2020
5192 Clouds 21 1012 97 10000 1.08 191 23:35 24.11.2020
5193 Clouds 21 1012 97 10000 1.08 191 23:35 24.11.2020
5194 Clouds 21 1012 97 10000 0.96 202 22:39 24.11.2020
5195 Clouds 21 1013 97 10000 0.81 194 21:43 24.11.2020
5196 Clouds 21 1012 97 10000 1 201 21:23 24.11.2020
5197 Clouds 22 1012 97 10000 1.18 197 19:48 24.11.2020
5198 Clouds 22 1010 92 10000 1.11 190 17:33 24.11.2020
5199 Clouds 24 1009 86 10000 1.19 191 16:58 24.11.2020
5200 Clouds 24 1009 86 10000 1.19 191 16:38 24.11.2020
5201 Clouds 27 1008 73 10000 1.77 212 15:56 24.11.2020
5202 Clouds 27 1011 69 10000 3.1 220 15:20 24.11.2020
5203 Clouds 27 1011 69 10000 3.1 220 14:44 24.11.2020
5204 Clouds 25 1013 83 8000 4.1 300 13:36 24.11.2020
5205 Rain 23 1014 100 6000 4.1 280 12:39 24.11.2020
5206 Rain 23 1014 100 6000 4.1 280 12:18 24.11.2020
5207 Clouds 22 1016 100 10000 2.21 171 11:25 24.11.2020
5208 Rain 24 1013 91 10000 1.28 169 10:25 24.11.2020
5209 Rain 24 1013 91 10000 1.28 169 09:40 24.11.2020
5210 Clouds 26 1014 77 10000 1.51 188 08:59 24.11.2020
5211 Clouds 22 1012 94 10000 0.85 174 06:20 24.11.2020
5212 Clouds 22 1010 94 10000 0.53 264 01:00 24.11.2020
5213 Clouds 23 1011 92 10000 0.75 292 22:24 23.11.2020
5214 Clouds 23 1011 92 10000 0.95 272 21:32 23.11.2020
5215 Clouds 23 1011 92 10000 0.95 272 20:31 23.11.2020
5216 Clouds 23 1011 92 10000 1.13 260 19:59 23.11.2020
5217 Clouds 24 1009 77 10000 0.56 174 17:57 23.11.2020
5218 Clouds 25 1007 76 10000 0.47 147 16:56 23.11.2020
5219 Clouds 32 1008 55 10000 3.1 250 15:18 23.11.2020
5220 Clouds 32 1009 55 10000 1.23 349 14:37 23.11.2020
5221 Clouds 27 1007 71 10000 0.53 30 12:41 23.11.2020
5222 Clouds 30 1012 66 10000 0.85 10 12:18 23.11.2020
5223 Clouds 26 1009 75 10000 0.85 10 11:41 23.11.2020
5224 Clouds 26 1011 73 10000 0.44 16 10:22 23.11.2020
5225 Clouds 26 1011 73 10000 0.44 16 09:31 23.11.2020
5226 Clouds 24 1012 87 10000 1.13 110 08:36 23.11.2020
5227 Clouds 24 1012 87 10000 1.03 136 06:36 23.11.2020
5228 Clouds 23 1009 84 10000 0.32 6 23:59 22.11.2020
5229 Clouds 23 1010 83 10000 0.44 44 22:44 22.11.2020
5230 Clouds 23 1010 82 10000 0.51 33 21:26 22.11.2020
5231 Clouds 23 1010 82 10000 0.51 33 20:43 22.11.2020
5232 Clouds 24 1010 83 10000 1.01 45 19:51 22.11.2020
5233 Clouds 24 1009 83 10000 1.44 50 18:39 22.11.2020
5234 Rain 27 1006 74 10000 1.9 26 16:39 22.11.2020
5235 Clouds 32 1005 54 10000 1.54 30 15:29 22.11.2020
5236 Clouds 33 1005 44 10000 2.2 35 14:27 22.11.2020
5237 Clouds 34 1006 41 10000 2.03 33 12:44 22.11.2020
5238 Clouds 34 1007 41 10000 1.72 43 11:55 22.11.2020
5239 Clouds 34 1007 41 10000 1.72 43 11:55 22.11.2020
5240 Clouds 28 1013 74 10000 1.36 72 11:20 22.11.2020
5241 Clouds 28 1013 74 10000 3.1 90 10:38 22.11.2020
5242 Clear 28 1011 67 10000 1.1 145 08:26 22.11.2020
5243 Clouds 21 1008 94 10000 0.63 234 01:47 22.11.2020
5244 Clouds 21 1010 95 10000 0.7 163 22:56 21.11.2020
5245 Clouds 21 1010 94 10000 0.77 158 21:39 21.11.2020
5246 Clouds 22 1010 94 10000 0.65 123 20:55 21.11.2020
5247 Clouds 22 1010 94 10000 0.65 123 20:31 21.11.2020
5248 Clouds 22 1010 94 10000 0.73 97 19:52 21.11.2020
5249 Clouds 22 1010 93 10000 0.98 60 19:25 21.11.2020
5250 Clouds 23 1008 88 10000 1.22 57 17:57 21.11.2020
5251 Clouds 25 1006 83 10000 0.84 42 16:48 21.11.2020
5252 Clouds 28 1006 70 10000 1.08 12 15:51 21.11.2020
5253 Clouds 29 1006 64 10000 1.29 356 15:21 21.11.2020
5254 Clouds 29 1006 64 10000 1.29 356 14:42 21.11.2020
5255 Clouds 29 1006 61 10000 0.9 338 13:41 21.11.2020
5256 Clouds 22 1009 94 10000 1.41 160 12:24 21.11.2020
5257 Clouds 22 1009 94 10000 1.41 160 11:54 21.11.2020
5258 Rain 21 1011 97 10000 2.29 169 10:37 21.11.2020
5259 Rain 23 1013 97 7663 1.95 158 09:22 21.11.2020
5260 Rain 23 1013 97 7663 1.95 158 08:50 21.11.2020
5261 Rain 22 1011 98 10000 0.81 105 05:43 21.11.2020
5262 Rain 21 1009 98 6409 0.19 46 04:23 21.11.2020
5263 Rain 22 1009 95 6091 0.66 254 00:26 21.11.2020
5264 Rain 22 1010 93 10000 0.78 253 23:23 20.11.2020
5265 Rain 22 1010 91 10000 0.81 228 21:47 20.11.2020
5266 Clouds 23 1010 88 10000 0.7 246 21:26 20.11.2020
5267 Clouds 23 1010 88 10000 0.7 246 20:42 20.11.2020
5268 Clouds 23 1009 87 10000 0.53 274 19:37 20.11.2020
5269 Clouds 25 1006 78 10000 0.87 323 18:29 20.11.2020
5270 Clouds 25 1006 78 10000 0.87 323 17:34 20.11.2020
5271 Clouds 26 1005 75 10000 0.99 345 16:57 20.11.2020
5272 Clouds 26 1005 75 10000 0.99 345 16:37 20.11.2020
5273 Clouds 30 1005 61 10000 1.28 8 15:48 20.11.2020
5274 Clouds 32 1004 48 10000 1.69 28 14:23 20.11.2020
5275 Clouds 32 1005 49 10000 1.65 25 13:29 20.11.2020
5276 Rain 29 1005 67 10000 0.61 23 12:59 20.11.2020
5277 Thunderstorm 25 1019 57 7000 2.1 30 12:28 20.11.2020
5278 Clouds 28 1012 69 8000 1.5 0 11:36 20.11.2020
5279 Rain 28 1009 85 10000 0.82 130 09:56 20.11.2020
5280 Rain 27 1010 90 5300 0.53 144 08:35 20.11.2020
5281 Rain 25 1011 89 5490 0.42 52 07:58 20.11.2020
5282 Rain 21 1009 98 10000 0.48 131 05:20 20.11.2020
5283 Rain 21 1008 97 10000 0.26 35 03:42 20.11.2020
5284 Clouds 22 1009 95 10000 0.14 74 22:33 19.11.2020
5285 Clouds 22 1009 94 10000 0.35 34 21:54 19.11.2020
5286 Rain 22 1009 93 10000 0.69 33 20:59 19.11.2020
5287 Rain 23 1008 91 10000 0.65 55 20:21 19.11.2020
5288 Rain 23 1008 89 10000 0.66 98 19:28 19.11.2020
5289 Rain 24 1007 84 10000 0.79 85 18:55 19.11.2020
5290 Rain 24 1007 84 10000 0.79 85 18:55 19.11.2020
5291 Clouds 25 1006 78 10000 0.69 60 17:35 19.11.2020
5292 Thunderstorm 24 1008 83 8000 2.1 360 16:39 19.11.2020
5293 Thunderstorm 28 1008 65 9000 5.1 20 15:31 19.11.2020
5294 Clouds 31 1008 58 10000 3.1 240 13:58 19.11.2020
5295 Clouds 33 1005 42 10000 1.39 55 13:38 19.11.2020
5296 Clouds 34 1006 41 10000 1.32 79 12:55 19.11.2020
5297 Clouds 34 1006 42 10000 1.42 72 12:34 19.11.2020
5298 Clouds 33 1007 44 10000 1.48 99 11:41 19.11.2020
5299 Clouds 32 1009 48 10000 1.65 119 11:22 19.11.2020
5300 Clouds 32 1009 48 10000 1.65 119 10:44 19.11.2020
5301 Clouds 30 1010 54 10000 1.87 129 09:48 19.11.2020
5302 Clouds 28 1011 62 10000 1.9 143 09:28 19.11.2020
5303 Clouds 28 1011 62 10000 1.9 143 08:58 19.11.2020
5304 Mist 23 1012 94 4000 1.76 150 07:57 19.11.2020
5305 Clouds 21 1008 98 10000 0.72 164 01:48 19.11.2020
5306 Clouds 21 1009 98 10000 0.78 148 00:33 19.11.2020
5307 Clouds 21 1009 98 10000 0.81 141 23:47 18.11.2020
5308 Clouds 21 1010 98 10000 1.04 150 23:23 18.11.2020
5309 Clouds 21 1010 98 10000 1.17 154 22:29 18.11.2020
5310 Clouds 21 1010 98 10000 1.17 154 21:44 18.11.2020
5311 Clouds 21 1010 97 10000 1.22 150 21:26 18.11.2020
5312 Clouds 21 1010 97 10000 1.22 150 20:40 18.11.2020
5313 Clouds 22 1010 96 10000 1.28 140 19:44 18.11.2020
5314 Clouds 22 1009 96 10000 1.34 141 19:22 18.11.2020
5315 Clouds 22 1009 96 10000 1.18 136 18:45 18.11.2020
5316 Clouds 23 1007 96 10000 1.07 131 17:45 18.11.2020
5317 Clouds 24 1006 95 10000 1.03 121 16:54 18.11.2020
5318 Rain 26 1006 93 10000 1.03 99 16:19 18.11.2020
5319 Rain 27 1005 91 8317 1.31 102 14:42 18.11.2020
5320 Rain 29 1006 73 8250 1.35 121 14:22 18.11.2020
5321 Rain 30 1007 61 10000 1.2 158 13:26 18.11.2020
5322 Rain 28 1007 79 7189 1.89 173 12:44 18.11.2020
5323 Rain 31 1008 53 10000 0.92 182 11:56 18.11.2020
5324 Clouds 32 1010 52 10000 0.9 195 10:58 18.11.2020
5325 Clouds 32 1010 52 10000 0.9 195 10:30 18.11.2020
5326 Clouds 27 1012 70 10000 1.46 186 08:43 18.11.2020
5327 Clouds 23 1013 96 10000 1.23 173 07:28 18.11.2020
5328 Rain 21 1011 98 10000 1.01 193 04:34 18.11.2020
5329 Rain 21 1010 97 6362 1.11 79 00:20 18.11.2020
5330 Rain 21 1010 97 8857 0.63 173 23:24 17.11.2020
5331 Rain 21 1010 97 8857 0.63 173 22:44 17.11.2020
5332 Rain 21 1010 97 7714 1.19 201 22:25 17.11.2020
5333 Rain 21 1010 97 7714 1.19 201 21:46 17.11.2020
5334 Rain 21 1010 95 7775 0.9 208 21:22 17.11.2020
5335 Rain 21 1010 95 7775 0.9 208 20:43 17.11.2020
5336 Rain 21 1009 93 10000 0.61 2 20:22 17.11.2020
5337 Rain 22 1008 93 10000 0.6 344 19:24 17.11.2020
5338 Rain 23 1007 86 10000 1 353 18:23 17.11.2020
5339 Rain 25 1006 73 10000 1.19 351 17:27 17.11.2020
5340 Rain 25 1006 73 10000 1.19 351 16:33 17.11.2020
5341 Clouds 29 1005 57 10000 1.5 6 15:53 17.11.2020
5342 Clouds 29 1005 57 10000 1.5 6 15:34 17.11.2020
5343 Clouds 32 1004 45 10000 2.09 22 14:58 17.11.2020
5344 Clouds 32 1004 44 10000 2.26 31 14:29 17.11.2020
5345 Clouds 32 1004 44 10000 2.26 31 14:29 17.11.2020
5346 Clouds 32 1004 44 10000 2.26 31 13:42 17.11.2020
5347 Clouds 31 1005 46 10000 2.23 36 13:20 17.11.2020
5348 Clear 34 1005 39 10000 2.8 39 12:41 17.11.2020
5349 Clear 33 1006 40 10000 2.65 34 11:44 17.11.2020
5350 Clear 33 1008 42 10000 2.5 30 10:56 17.11.2020
5351 Clear 33 1008 42 10000 2.5 30 10:33 17.11.2020
5352 Clear 32 1009 46 10000 2.07 26 09:51 17.11.2020
5353 Clear 30 1011 56 10000 1.61 43 09:29 17.11.2020
5354 Clear 30 1011 56 10000 1.61 43 09:29 17.11.2020
5355 Thunderstorm 24 1013 94 4000 3.1 330 08:25 17.11.2020
5356 Thunderstorm 24 1013 94 4000 3.1 330 07:49 17.11.2020
5357 Mist 23 1012 100 4000 1.69 81 06:54 17.11.2020
5358 Rain 21 1009 94 10000 0.86 106 04:20 17.11.2020
5359 Rain 21 1009 93 10000 0.9 83 02:54 17.11.2020
5360 Clouds 22 1010 92 10000 0.98 28 01:26 17.11.2020
5361 Clouds 22 1010 92 10000 0.98 28 01:26 17.11.2020
5362 Clouds 22 1010 92 10000 0.98 28 00:56 17.11.2020
5363 Clouds 21 1010 94 10000 0.63 55 23:50 16.11.2020
5364 Clouds 22 1011 94 10000 0.59 42 23:29 16.11.2020
5365 Clouds 22 1011 94 10000 0.59 42 22:48 16.11.2020
5366 Rain 22 1011 95 10000 0.6 46 22:21 16.11.2020
5367 Rain 22 1011 95 10000 0.6 46 21:47 16.11.2020
5368 Rain 22 1011 94 10000 0.78 41 21:25 16.11.2020
5369 Rain 22 1011 94 10000 0.78 41 20:54 16.11.2020
5370 Rain 22 1011 93 10000 0.86 19 20:24 16.11.2020
5371 Rain 22 1011 93 10000 0.86 19 19:39 16.11.2020
5372 Rain 23 1010 92 10000 1.17 19 19:21 16.11.2020
5373 Rain 23 1010 92 10000 1.17 19 18:41 16.11.2020
5374 Rain 23 1008 93 10000 1.03 14 17:51 16.11.2020
5375 Rain 24 1007 89 10000 0.94 360 17:22 16.11.2020
5376 Rain 24 1007 89 10000 0.94 360 16:54 16.11.2020
5377 Rain 24 1007 89 10000 0.94 360 16:36 16.11.2020
5378 Rain 27 1005 81 10000 0.54 240 16:18 16.11.2020
5379 Rain 27 1005 81 10000 0.54 240 15:41 16.11.2020
5380 Clouds 30 1005 57 10000 0.59 233 15:21 16.11.2020
5381 Clouds 30 1005 57 10000 0.59 233 14:39 16.11.2020
5382 Clouds 31 1006 52 10000 0.87 225 13:33 16.11.2020
5383 Rain 28 1007 72 10000 1.21 198 12:34 16.11.2020
5384 Rain 27 1008 81 10000 1.33 208 11:44 16.11.2020
5385 Rain 26 1010 87 10000 1.16 210 11:25 16.11.2020
5386 Rain 26 1010 87 10000 1.16 210 10:51 16.11.2020
5387 Rain 26 1011 90 6801 0.39 194 10:27 16.11.2020
5388 Rain 26 1011 90 6801 0.39 194 09:59 16.11.2020
5389 Rain 26 1011 90 6801 0.39 194 09:40 16.11.2020
5390 Rain 24 1012 94 7024 0.31 101 08:49 16.11.2020
5391 Clouds 24 1013 91 10000 0.85 131 08:27 16.11.2020
5392 Clouds 24 1013 91 10000 0.85 131 07:43 16.11.2020
5393 Clouds 22 1013 95 10000 0.87 145 06:47 16.11.2020
5394 Clouds 22 1013 95 10000 0.87 145 06:47 16.11.2020
5395 Clouds 21 1012 97 10000 0.75 158 05:53 16.11.2020
5396 Clouds 21 1011 98 10000 0.62 159 04:36 16.11.2020
5397 Clouds 20 1010 98 10000 0.95 153 01:47 16.11.2020
5398 Clouds 21 1011 98 10000 0.91 146 01:21 16.11.2020
5399 Clouds 21 1011 97 10000 0.83 143 23:48 15.11.2020
5400 Clouds 21 1012 97 10000 0.64 142 23:21 15.11.2020
5401 Clouds 21 1012 97 10000 0.64 142 22:39 15.11.2020
5402 Clouds 21 1012 96 10000 0.55 125 22:18 15.11.2020
5403 Clouds 21 1012 96 10000 0.55 125 21:41 15.11.2020
5404 Clouds 21 1012 96 10000 0.54 130 21:20 15.11.2020
5405 Clouds 21 1012 96 10000 0.54 130 20:41 15.11.2020
5406 Clouds 22 1012 95 10000 0.13 173 20:18 15.11.2020
5407 Clouds 22 1012 95 10000 0.13 173 19:47 15.11.2020
5408 Clouds 22 1011 95 10000 0.45 325 19:22 15.11.2020
5409 Clouds 22 1011 95 10000 0.45 325 18:56 15.11.2020
5410 Rain 22 1011 97 10000 0.92 198 18:37 15.11.2020
5411 Rain 22 1009 97 10000 1.03 206 18:19 15.11.2020
5412 Rain 22 1009 97 10000 1.03 206 17:43 15.11.2020
5413 Rain 23 1008 97 10000 1.6 230 17:23 15.11.2020
5414 Rain 23 1008 97 10000 1.6 230 16:45 15.11.2020
5415 Rain 24 1007 94 4993 1.63 234 16:20 15.11.2020
5416 Rain 24 1007 94 4993 1.63 234 15:49 15.11.2020
5417 Rain 26 1007 88 10000 1.65 234 15:26 15.11.2020
5418 Rain 26 1007 88 10000 1.65 234 14:55 15.11.2020
5419 Rain 26 1007 86 10000 1.5 227 14:28 15.11.2020
5420 Rain 26 1007 86 10000 1.5 227 13:53 15.11.2020
5421 Rain 26 1007 86 10000 1.5 227 13:35 15.11.2020
5422 Clouds 27 1008 71 10000 1.87 215 12:50 15.11.2020
5423 Clouds 25 1009 85 10000 1.72 205 12:20 15.11.2020
5424 Clouds 25 1009 85 10000 1.72 205 11:45 15.11.2020
5425 Clouds 25 1014 88 8000 3.1 180 11:19 15.11.2020
5426 Clouds 25 1014 88 8000 3.1 180 10:53 15.11.2020
5427 Rain 23 1010 96 10000 1.72 184 10:31 15.11.2020
5428 Rain 24 1011 95 8293 1.89 159 09:56 15.11.2020
5429 Rain 24 1011 95 8293 1.89 159 09:37 15.11.2020
5430 Rain 24 1012 95 7889 1.67 158 09:18 15.11.2020
5431 Rain 24 1012 95 7889 1.67 158 08:43 15.11.2020
5432 Clouds 23 1013 94 8000 3.1 160 07:47 15.11.2020
5433 Clouds 23 1013 96 10000 1.22 160 06:49 15.11.2020
5434 Rain 21 1011 98 10000 1.04 194 04:56 15.11.2020
5435 Rain 21 1009 98 10000 0.87 118 02:27 15.11.2020
5436 Clouds 21 1010 97 10000 0.25 86 00:36 15.11.2020
5437 Clouds 21 1010 97 10000 0.21 45 00:18 15.11.2020
5438 Rain 21 1011 96 10000 0.05 48 23:20 14.11.2020
5439 Rain 21 1011 96 10000 0.05 48 22:45 14.11.2020
5440 Rain 21 1011 96 10000 0.25 292 22:20 14.11.2020
5441 Rain 21 1011 96 10000 0.25 292 21:39 14.11.2020
5442 Rain 22 1011 95 10000 0.49 277 21:21 14.11.2020
5443 Rain 22 1011 95 10000 0.49 277 20:48 14.11.2020
5444 Rain 22 1010 93 10000 0.52 320 20:25 14.11.2020
5445 Rain 22 1010 93 10000 0.52 320 19:39 14.11.2020
5446 Rain 23 1010 92 10000 0.47 351 19:20 14.11.2020
5447 Rain 23 1009 90 10000 0.9 321 18:42 14.11.2020
5448 Clouds 24 1008 78 10000 0.8 7 18:22 14.11.2020
5449 Clouds 24 1008 78 10000 0.8 7 17:46 14.11.2020
5450 Clouds 26 1006 73 10000 1.33 11 17:28 14.11.2020
5451 Clouds 26 1006 73 10000 1.33 11 16:52 14.11.2020
5452 Clouds 26 1006 73 10000 1.33 11 16:34 14.11.2020
5453 Clouds 30 1005 62 10000 1.48 18 15:58 14.11.2020
5454 Clouds 30 1005 62 10000 1.48 18 15:33 14.11.2020
5455 Rain 31 1004 52 10000 1.92 12 14:57 14.11.2020
5456 Clouds 30 1011 62 10000 3.1 120 14:30 14.11.2020
5457 Clouds 30 1011 62 10000 3.1 120 13:58 14.11.2020
5458 Clouds 30 1011 62 10000 3.1 120 13:58 14.11.2020
5459 Rain 31 1005 55 10000 1.55 353 13:39 14.11.2020
5460 Rain 32 1006 49 10000 1.95 357 13:21 14.11.2020
5461 Rain 32 1006 49 10000 1.95 357 12:41 14.11.2020
5462 Clouds 29 1013 70 10000 2.1 180 12:23 14.11.2020
5463 Clouds 33 1008 44 10000 1.87 20 11:40 14.11.2020
5464 Clouds 33 1009 44 10000 1.32 26 11:21 14.11.2020
5465 Clouds 33 1009 44 10000 1.32 26 10:40 14.11.2020
5466 Clouds 27 1014 69 10000 1.5 0 10:22 14.11.2020
5467 Clouds 33 1011 48 10000 0.34 76 09:45 14.11.2020
5468 Clear 31 1012 56 10000 0.86 174 09:27 14.11.2020
5469 Clear 31 1012 56 10000 0.86 174 08:44 14.11.2020
5470 Clear 27 1013 68 10000 1.34 172 08:23 14.11.2020
5471 Clear 27 1013 68 10000 1.34 172 07:42 14.11.2020
5472 Clouds 23 1013 94 8000 1.44 162 07:20 14.11.2020
5473 Clouds 22 1013 100 6000 0.91 144 06:28 14.11.2020
5474 Clouds 21 1012 96 10000 0.85 156 05:18 14.11.2020
5475 Clouds 21 1010 98 10000 0.67 160 03:21 14.11.2020
5476 Rain 21 1010 97 10000 0.68 122 00:42 14.11.2020
5477 Clouds 21 1011 97 10000 1.01 73 23:38 13.11.2020
5478 Clouds 22 1011 95 10000 1.26 35 23:19 13.11.2020
5479 Clouds 22 1011 95 10000 1.26 35 22:41 13.11.2020
5480 Clouds 22 1011 96 10000 0.62 333 22:22 13.11.2020
5481 Clouds 22 1011 96 10000 0.62 333 21:51 13.11.2020
5482 Clouds 22 1011 95 10000 0.49 281 21:27 13.11.2020
5483 Clouds 22 1011 95 10000 0.49 281 20:55 13.11.2020
5484 Clouds 22 1011 95 10000 0.49 281 20:36 13.11.2020
5485 Clouds 22 1010 93 10000 1.11 201 20:18 13.11.2020
5486 Clouds 22 1010 93 10000 1.11 201 19:44 13.11.2020
5487 Clouds 23 1010 92 10000 1.26 199 19:22 13.11.2020
5488 Clouds 23 1010 92 10000 1.26 199 18:49 13.11.2020
5489 Clouds 23 1009 91 10000 1.41 180 17:59 13.11.2020
5490 Clouds 23 1009 91 10000 1.41 180 17:36 13.11.2020
5491 Clouds 24 1008 90 10000 1.61 190 17:18 13.11.2020
5492 Clouds 24 1008 90 10000 1.61 190 16:42 13.11.2020
5493 Rain 26 1006 87 10000 1.6 195 16:21 13.11.2020
5494 Rain 26 1006 87 10000 1.6 195 15:41 13.11.2020
5495 Rain 27 1006 83 10000 1.92 193 15:21 13.11.2020
5496 Rain 27 1006 83 10000 1.92 193 14:38 13.11.2020
5497 Rain 27 1006 80 10000 2.26 200 14:19 13.11.2020
5498 Rain 27 1006 80 10000 2.26 200 13:32 13.11.2020
5499 Rain 27 1007 79 10000 2.37 195 12:59 13.11.2020
5500 Rain 27 1007 79 10000 2.37 195 12:41 13.11.2020
5501 Rain 28 1009 78 10000 1.96 167 12:23 13.11.2020
5502 Rain 28 1009 78 10000 1.96 167 11:47 13.11.2020
5503 Rain 28 1010 80 10000 1.69 154 11:24 13.11.2020
5504 Rain 28 1010 80 10000 1.69 154 10:54 13.11.2020
5505 Rain 28 1010 80 10000 1.69 154 10:33 13.11.2020
5506 Rain 27 1011 83 10000 1.41 147 09:53 13.11.2020
5507 Rain 27 1011 83 10000 1.41 147 09:32 13.11.2020
5508 Rain 26 1012 88 6972 1.14 142 08:55 13.11.2020
5509 Rain 26 1012 88 6972 1.14 142 08:32 13.11.2020
5510 Rain 25 1013 92 10000 1.07 147 07:55 13.11.2020
5511 Rain 25 1013 92 10000 1.07 147 07:36 13.11.2020
5512 Rain 24 1013 93 10000 0.85 131 07:18 13.11.2020
5513 Clouds 24 1013 93 10000 0.88 122 06:37 13.11.2020
5514 Clouds 22 1012 96 10000 0.6 101 05:42 13.11.2020
5515 Clouds 22 1010 97 10000 0.32 350 04:24 13.11.2020
5516 Clouds 22 1009 97 10000 0.57 313 01:43 13.11.2020
5517 Rain 21 1010 95 10000 0.67 318 00:37 13.11.2020
5518 Rain 22 1010 90 10000 1.04 13 23:59 12.11.2020
5519 Rain 22 1010 90 10000 1.04 13 23:36 12.11.2020
5520 Rain 22 1010 86 10000 1.11 359 23:18 12.11.2020
5521 Rain 22 1010 86 10000 1.11 359 23:18 12.11.2020
5522 Rain 22 1010 86 10000 1.11 359 22:40 12.11.2020
5523 Clouds 23 1010 84 10000 0.21 271 21:59 12.11.2020
5524 Clouds 23 1010 84 10000 0.21 271 21:41 12.11.2020
5525 Clouds 23 1010 82 10000 0.49 183 21:22 12.11.2020
5526 Clouds 23 1010 82 10000 0.49 183 20:42 12.11.2020
5527 Clear 24 1010 81 10000 0.45 102 20:24 12.11.2020
5528 Clear 24 1010 81 10000 0.45 102 19:57 12.11.2020
5529 Clear 24 1010 81 10000 0.45 102 19:39 12.11.2020
5530 Clouds 24 1009 79 10000 0.74 76 19:21 12.11.2020
5531 Rain 24 1009 82 10000 0.64 62 18:45 12.11.2020
5532 Clouds 25 1008 79 10000 0.83 30 18:20 12.11.2020
5533 Clouds 25 1008 79 10000 0.83 30 17:43 12.11.2020
5534 Clouds 27 1006 72 10000 0.9 16 17:24 12.11.2020
5535 Clouds 27 1006 72 10000 0.9 16 16:46 12.11.2020
5536 Clouds 31 1005 60 10000 1.17 18 16:24 12.11.2020
5537 Clouds 31 1005 60 10000 1.17 18 15:54 12.11.2020
5538 Clouds 31 1005 60 10000 1.17 18 15:30 12.11.2020
5539 Clear 32 1005 48 10000 1.85 30 14:56 12.11.2020
5540 Clear 32 1005 48 10000 1.85 30 14:38 12.11.2020
5541 Clear 33 1005 45 10000 2.06 38 14:19 12.11.2020
5542 Clear 33 1005 45 10000 2.06 38 13:45 12.11.2020
5543 Clouds 33 1007 44 10000 1.95 47 13:20 12.11.2020
5544 Clouds 33 1007 44 10000 1.95 47 12:49 12.11.2020
5545 Clouds 33 1007 44 10000 1.95 47 12:49 12.11.2020
5546 Clouds 33 1008 45 10000 1.74 49 12:26 12.11.2020
5547 Clouds 33 1008 45 10000 1.74 49 11:58 12.11.2020
5548 Clouds 33 1008 45 10000 1.74 49 11:39 12.11.2020
5549 Clouds 32 1010 51 10000 1.25 52 10:54 12.11.2020
5550 Clouds 32 1010 51 10000 1.25 52 10:35 12.11.2020
5551 Clouds 28 1011 68 10000 0.79 76 09:58 12.11.2020
5552 Clouds 28 1011 68 10000 0.79 76 09:38 12.11.2020
5553 Clouds 24 1012 87 10000 0.53 23 09:18 12.11.2020
5554 Clouds 24 1012 87 10000 0.53 23 08:40 12.11.2020
5555 Clouds 24 1013 91 10000 0.09 128 08:21 12.11.2020
5556 Clouds 24 1013 91 10000 0.09 128 07:55 12.11.2020
5557 Mist 23 1013 94 3000 2.1 120 07:36 12.11.2020
5558 Mist 23 1013 94 3000 2.1 120 06:52 12.11.2020
5559 Clouds 21 1013 96 10000 0.67 135 06:26 12.11.2020
5560 Clouds 20 1011 97 10000 0.53 97 03:50 12.11.2020
5561 Clouds 20 1010 98 10000 0.07 95 03:20 12.11.2020
5562 Rain 20 1011 98 10000 0.14 172 00:36 12.11.2020
5563 Rain 20 1012 97 10000 0.32 28 23:44 11.11.2020
5564 Clouds 21 1012 96 10000 0.65 31 23:25 11.11.2020
5565 Clouds 21 1012 96 10000 0.65 31 22:48 11.11.2020
5566 Clouds 21 1012 95 10000 0.53 30 22:23 11.11.2020
5567 Clouds 21 1012 95 10000 0.53 30 21:57 11.11.2020
5568 Clouds 21 1012 95 10000 0.53 30 21:38 11.11.2020
5569 Clouds 21 1012 95 10000 0.56 34 21:20 11.11.2020
5570 Clouds 21 1012 95 10000 0.56 34 20:43 11.11.2020
5571 Clouds 21 1012 95 10000 0.5 18 20:22 11.11.2020
5572 Clouds 21 1012 95 10000 0.5 18 19:57 11.11.2020
5573 Clouds 21 1012 95 10000 0.5 18 19:38 11.11.2020
5574 Clouds 21 1011 95 10000 0.39 345 19:20 11.11.2020
5575 Clouds 21 1011 95 10000 0.39 345 18:42 11.11.2020
5576 Clouds 21 1010 95 10000 0.59 326 18:22 11.11.2020
5577 Clouds 21 1010 95 10000 0.59 326 17:39 11.11.2020
5578 Clouds 23 1009 87 10000 0.73 287 17:21 11.11.2020
5579 Clouds 23 1009 87 10000 0.73 287 16:40 11.11.2020
5580 Clouds 29 1010 70 8000 2.1 0 16:21 11.11.2020
5581 Clouds 29 1010 70 8000 2.1 0 15:43 11.11.2020
5582 Clouds 25 1008 77 10000 1.23 230 15:24 11.11.2020
5583 Clouds 25 1008 77 10000 1.23 230 14:49 11.11.2020
5584 Clouds 25 1008 77 10000 1.23 230 14:30 11.11.2020
5585 Clouds 24 1009 81 10000 1.3 208 13:50 11.11.2020
5586 Clouds 24 1009 81 10000 1.3 208 13:32 11.11.2020
5587 Clouds 25 1010 81 10000 2.1 210 12:38 11.11.2020
5588 Clouds 24 1012 87 10000 2.21 210 12:20 11.11.2020
5589 Clouds 24 1012 87 10000 2.21 210 11:47 11.11.2020
5590 Rain 23 1013 94 10000 1.57 209 11:25 11.11.2020
5591 Rain 23 1013 94 10000 1.57 209 10:39 11.11.2020
5592 Rain 21 1013 98 10000 1.28 219 10:20 11.11.2020
5593 Rain 21 1013 98 10000 1.28 219 09:44 11.11.2020
5594 Rain 21 1014 98 6743 1.22 206 09:24 11.11.2020
5595 Rain 21 1014 98 6743 1.22 206 08:46 11.11.2020
5596 Rain 21 1014 98 3807 1.09 190 08:27 11.11.2020
5597 Rain 21 1014 98 3807 1.09 190 07:49 11.11.2020
5598 Rain 21 1014 98 8717 1.15 169 06:33 11.11.2020
5599 Rain 21 1013 98 10000 0.8 154 05:59 11.11.2020
5600 Rain 20 1010 98 10000 0.92 245 02:48 11.11.2020
5601 Rain 21 1011 98 10000 1.25 203 00:59 11.11.2020
5602 Clouds 21 1012 95 10000 0.89 227 00:26 11.11.2020
5603 Clouds 21 1012 95 10000 0.89 227 23:42 10.11.2020
5604 Clouds 21 1013 93 10000 0.75 219 23:23 10.11.2020
5605 Clouds 21 1013 93 10000 0.75 219 22:52 10.11.2020
5606 Clouds 22 1013 92 10000 0.92 226 22:27 10.11.2020
5607 Clouds 22 1013 92 10000 0.92 226 21:43 10.11.2020
5608 Clouds 22 1012 93 10000 0.93 226 21:25 10.11.2020
5609 Clouds 22 1012 93 10000 0.93 226 20:58 10.11.2020
5610 Clouds 22 1012 93 10000 0.93 226 20:40 10.11.2020
5611 Clouds 22 1012 94 10000 1.01 220 20:22 10.11.2020
5612 Clouds 22 1012 94 10000 1.01 220 19:47 10.11.2020
5613 Clouds 24 1013 88 7000 1.01 221 19:28 10.11.2020
5614 Clouds 24 1013 88 7000 0.99 225 18:57 10.11.2020
5615 Clouds 22 1012 95 10000 0.99 225 18:39 10.11.2020
5616 Clouds 22 1011 94 10000 1.09 235 18:18 10.11.2020
5617 Clouds 22 1011 94 10000 1.09 235 18:18 10.11.2020
5618 Clouds 22 1011 94 10000 1.09 235 17:42 10.11.2020
5619 Rain 23 1010 91 10000 0.93 265 17:24 10.11.2020
5620 Rain 23 1010 91 10000 0.93 265 16:43 10.11.2020
5621 Rain 25 1009 87 10000 1.25 279 16:24 10.11.2020
5622 Rain 25 1009 87 10000 1.25 279 15:55 10.11.2020
5623 Rain 25 1009 87 10000 1.25 279 15:37 10.11.2020
5624 Rain 26 1008 85 10000 1.77 279 15:19 10.11.2020
5625 Rain 26 1008 85 10000 1.77 279 14:41 10.11.2020
5626 Rain 26 1008 86 10000 2.04 272 14:20 10.11.2020
5627 Rain 26 1008 86 10000 2.04 272 13:41 10.11.2020
5628 Rain 24 1014 88 8000 2.1 220 13:22 10.11.2020
5629 Rain 24 1014 88 8000 2.1 220 12:56 10.11.2020
5630 Rain 27 1010 69 10000 2.35 255 12:38 10.11.2020
5631 Rain 26 1011 74 10000 2.14 255 12:19 10.11.2020
5632 Rain 26 1011 74 10000 2.14 255 11:38 10.11.2020
5633 Rain 26 1012 76 10000 2.25 247 11:19 10.11.2020
5634 Rain 26 1012 76 10000 2.25 247 10:42 10.11.2020
5635 Clouds 24 1013 82 10000 1.95 258 10:23 10.11.2020
5636 Clouds 24 1013 82 10000 1.95 258 09:47 10.11.2020
5637 Rain 22 1015 100 4000 1.64 281 09:26 10.11.2020
5638 Rain 22 1015 100 4000 1.64 281 08:57 10.11.2020
5639 Clouds 22 1014 97 10000 1.47 265 08:29 10.11.2020
5640 Clouds 22 1014 97 10000 1.47 265 07:47 10.11.2020
5641 Rain 21 1014 98 10000 1.81 253 07:26 10.11.2020
5642 Rain 21 1014 98 10000 1.53 250 06:42 10.11.2020
5643 Rain 21 1013 98 8097 1.73 238 06:23 10.11.2020
5644 Rain 22 1012 98 3891 1.04 221 05:27 10.11.2020
5645 Rain 22 1011 98 2503 0.79 338 02:48 10.11.2020
5646 Rain 22 1011 98 1365 1.1 284 01:37 10.11.2020
5647 Rain 22 1012 98 10000 0.61 214 00:23 10.11.2020
5648 Rain 22 1012 98 10000 0.61 214 23:41 09.11.2020
5649 Rain 22 1012 98 10000 0.73 212 22:56 09.11.2020
5650 Rain 22 1012 98 10000 0.73 212 22:37 09.11.2020
5651 Rain 22 1012 98 10000 0.27 178 22:19 09.11.2020
5652 Rain 22 1012 98 10000 0.27 178 21:39 09.11.2020
5653 Rain 22 1012 94 10000 0.96 313 21:20 09.11.2020
5654 Rain 22 1012 94 10000 0.96 313 20:40 09.11.2020
5655 Clouds 23 1011 90 10000 0.8 264 20:21 09.11.2020
5656 Clouds 23 1011 90 10000 0.8 264 19:42 09.11.2020
5657 Rain 23 1011 87 10000 1.08 248 19:22 09.11.2020
5658 Rain 23 1011 87 10000 1.08 248 18:47 09.11.2020
5659 Clouds 25 1008 82 10000 1.32 267 18:21 09.11.2020
5660 Clouds 25 1008 82 10000 1.32 267 17:59 09.11.2020
5661 Thunderstorm 31 1009 62 10000 3.1 210 17:39 09.11.2020
5662 Thunderstorm 31 1009 62 10000 3.1 210 17:21 09.11.2020
5663 Clouds 31 1009 62 10000 3.1 260 16:39 09.11.2020
5664 Clouds 31 1009 62 10000 3.1 260 16:19 09.11.2020
5665 Clouds 31 1009 62 10000 3.1 260 15:42 09.11.2020
5666 Clouds 31 1009 62 10000 3.1 260 15:24 09.11.2020
5667 Clouds 31 1010 66 10000 3.1 130 14:46 09.11.2020
5668 Clouds 31 1011 58 10000 1.44 2 14:27 09.11.2020
5669 Clouds 31 1011 58 10000 1.44 2 13:52 09.11.2020
5670 Clouds 33 1007 43 10000 1.86 11 13:24 09.11.2020
5671 Clouds 32 1008 46 10000 2.13 26 12:57 09.11.2020
5672 Clouds 32 1008 46 10000 2.13 26 12:37 09.11.2020
5673 Rain 31 1009 51 10000 2.63 36 12:19 09.11.2020
5674 Rain 31 1009 51 10000 2.63 36 11:41 09.11.2020
5675 Rain 31 1010 53 10000 1.83 30 11:22 09.11.2020
5676 Rain 31 1010 53 10000 1.83 30 10:43 09.11.2020
5677 Clouds 31 1012 54 10000 0.81 18 10:25 09.11.2020
5678 Clouds 31 1012 54 10000 0.81 18 09:52 09.11.2020
5679 Clouds 30 1013 59 10000 0.68 54 09:28 09.11.2020
5680 Clouds 30 1013 59 10000 0.68 54 08:49 09.11.2020
5681 Clouds 26 1014 77 10000 0.8 71 08:27 09.11.2020
5682 Clouds 26 1014 77 10000 0.8 71 07:43 09.11.2020
5683 Clouds 23 1014 92 10000 0.34 82 07:21 09.11.2020
5684 Clouds 24 1014 91 10000 0.68 214 06:48 09.11.2020
5685 Clouds 21 1011 97 10000 0.61 82 03:49 09.11.2020
5686 Clouds 22 1011 97 10000 0.57 40 01:56 09.11.2020
5687 Clouds 22 1011 97 10000 0.57 40 01:38 09.11.2020
5688 Clouds 22 1011 97 10000 0.86 45 00:35 09.11.2020
5689 Rain 22 1011 97 10000 0.91 99 23:39 08.11.2020
5690 Rain 22 1012 97 10000 0.32 108 23:20 08.11.2020
5691 Rain 22 1012 97 10000 0.32 108 22:42 08.11.2020
5692 Rain 22 1012 97 7876 0.52 80 22:20 08.11.2020
5693 Rain 22 1012 97 7876 0.52 80 21:43 08.11.2020
5694 Rain 22 1011 97 10000 0.91 144 21:20 08.11.2020
5695 Rain 22 1011 97 10000 0.91 144 20:55 08.11.2020
5696 Rain 22 1011 97 10000 0.91 144 20:37 08.11.2020
5697 Rain 22 1011 94 9144 0.76 144 20:19 08.11.2020
5698 Rain 22 1011 94 9144 0.76 144 19:43 08.11.2020
5699 Rain 23 1011 88 8914 0.86 67 19:21 08.11.2020
5700 Rain 23 1011 88 8914 0.86 67 18:49 08.11.2020
5701 Rain 23 1011 88 8914 0.86 67 18:49 08.11.2020
5702 Clouds 25 1010 76 10000 0.5 96 18:22 08.11.2020
5703 Clouds 25 1010 76 10000 0.5 96 17:59 08.11.2020
5704 Clouds 25 1010 76 10000 0.5 96 17:41 08.11.2020
5705 Clouds 26 1008 72 10000 0.37 67 17:20 08.11.2020
5706 Clouds 26 1008 72 10000 0.37 67 16:56 08.11.2020
5707 Clouds 26 1008 72 10000 0.37 67 16:37 08.11.2020
5708 Clouds 29 1007 66 10000 0.66 32 16:18 08.11.2020
5709 Clouds 29 1007 66 10000 0.66 32 15:43 08.11.2020
5710 Clouds 30 1007 62 10000 1 35 15:23 08.11.2020
5711 Clouds 30 1007 62 10000 1 35 14:42 08.11.2020
5712 Clouds 32 1007 47 10000 1.48 35 14:23 08.11.2020
5713 Clouds 32 1007 47 10000 1.48 35 13:47 08.11.2020
5714 Clouds 31 1013 62 10000 2.1 30 13:24 08.11.2020
5715 Clouds 31 1013 62 10000 2.1 30 12:47 08.11.2020
5716 Clouds 31 1010 52 10000 0.35 60 12:29 08.11.2020
5717 Clouds 31 1010 52 10000 0.35 60 11:58 08.11.2020
5718 Clouds 31 1010 52 10000 0.35 60 11:40 08.11.2020
5719 Clouds 30 1011 58 10000 0.48 20 11:21 08.11.2020
5720 Clouds 30 1011 58 10000 0.48 20 10:50 08.11.2020
5721 Clouds 27 1015 78 9000 0.95 321 10:20 08.11.2020
5722 Clouds 27 1015 78 9000 0.95 321 09:57 08.11.2020
5723 Clouds 28 1013 66 10000 0.95 321 09:39 08.11.2020
5724 Clouds 25 1014 81 10000 1.22 309 09:18 08.11.2020
5725 Clouds 25 1014 81 10000 1.22 309 08:39 08.11.2020
5726 Clouds 23 1014 93 10000 0.99 299 08:20 08.11.2020
5727 Clouds 23 1014 93 10000 0.99 299 07:52 08.11.2020
5728 Fog 22 1014 100 800 0.7 323 07:28 08.11.2020
5729 Rain 21 1014 98 10000 0.27 167 06:23 08.11.2020
5730 Rain 21 1014 98 10000 0.27 167 05:52 08.11.2020
5731 Rain 21 1013 98 10000 0.45 212 04:50 08.11.2020
5732 Rain 21 1012 98 10000 0.88 233 01:53 08.11.2020
5733 Rain 22 1012 98 10000 1.27 157 01:19 08.11.2020
5734 Rain 22 1013 98 10000 1.25 149 00:28 08.11.2020
5735 Rain 22 1013 98 10000 1.25 149 23:47 07.11.2020
5736 Rain 22 1013 98 3986 1.2 123 23:29 07.11.2020
5737 Rain 22 1013 98 3986 1.2 123 22:46 07.11.2020
5738 Rain 24 1014 94 7000 0.54 99 22:26 07.11.2020
5739 Rain 24 1014 94 7000 0.54 99 21:56 07.11.2020
5740 Rain 22 1012 97 10000 0.54 99 21:37 07.11.2020
5741 Clouds 22 1012 96 10000 0.77 83 21:18 07.11.2020
5742 Clouds 22 1012 96 10000 0.77 83 20:42 07.11.2020
5743 Clouds 22 1012 96 10000 0.5 78 20:23 07.11.2020
5744 Clouds 22 1012 96 10000 0.5 78 19:44 07.11.2020
5745 Clouds 22 1011 95 10000 0.3 348 19:26 07.11.2020
5746 Clouds 22 1011 92 10000 0.64 217 18:41 07.11.2020
5747 Clouds 23 1010 90 10000 0.92 234 18:22 07.11.2020
5748 Clouds 23 1010 90 10000 0.92 234 17:46 07.11.2020
5749 Clouds 24 1009 87 10000 1.06 234 17:28 07.11.2020
5750 Clouds 24 1009 87 10000 1.06 234 16:46 07.11.2020
5751 Clouds 30 1011 66 10000 1.5 0 16:25 07.11.2020
5752 Clouds 30 1011 66 10000 1.5 0 15:53 07.11.2020
5753 Clouds 30 1011 62 10000 1.39 246 15:26 07.11.2020
5754 Clouds 30 1011 62 10000 1.39 246 15:00 07.11.2020
5755 Clouds 30 1011 62 10000 1.39 246 15:00 07.11.2020
5756 Rain 27 1008 79 10000 1.39 246 14:41 07.11.2020
5757 Clouds 29 1012 66 10000 1.75 245 14:21 07.11.2020
5758 Clouds 29 1012 66 10000 1.75 245 13:43 07.11.2020
5759 Clouds 29 1013 66 10000 4.1 300 13:23 07.11.2020
5760 Clouds 28 1010 64 10000 2.61 246 12:40 07.11.2020
5761 Clouds 27 1011 70 10000 2.37 254 11:56 07.11.2020
5762 Clouds 27 1011 70 10000 2.37 254 11:37 07.11.2020
5763 Clouds 24 1012 86 10000 1.99 247 11:18 07.11.2020
5764 Clouds 24 1012 86 10000 1.99 247 10:42 07.11.2020
5765 Clouds 25 1015 83 10000 2.1 300 10:23 07.11.2020
5766 Clouds 25 1015 83 10000 2.1 300 09:49 07.11.2020
5767 Clouds 23 1014 94 10000 1.72 237 09:24 07.11.2020
5768 Clouds 23 1014 94 10000 1.72 237 08:51 07.11.2020
5769 Clouds 23 1014 94 10000 1.72 237 08:31 07.11.2020
5770 Rain 22 1014 97 10000 1.17 229 07:48 07.11.2020
5771 Rain 22 1014 98 10000 0.95 237 06:58 07.11.2020
5772 Rain 21 1014 98 10000 1.46 219 06:37 07.11.2020
5773 Rain 21 1012 98 10000 0.99 227 04:32 07.11.2020
5774 Rain 21 1011 98 10000 0.48 212 02:53 07.11.2020
5775 Rain 22 1011 98 7677 0.26 188 01:28 07.11.2020
5776 Rain 21 1011 98 10000 0.55 303 00:40 07.11.2020
5777 Rain 21 1011 98 10000 0.69 281 23:45 06.11.2020
5778 Rain 21 1012 97 10000 0.12 189 23:19 06.11.2020
5779 Rain 21 1012 97 10000 0.12 189 22:40 06.11.2020
5780 Rain 22 1012 96 10000 0.32 139 22:19 06.11.2020
5781 Rain 22 1012 96 10000 0.32 139 21:43 06.11.2020
5782 Rain 22 1012 95 10000 0.47 203 21:21 06.11.2020
5783 Rain 22 1012 95 10000 0.47 203 20:51 06.11.2020
5784 Rain 22 1011 95 10000 0.53 183 20:20 06.11.2020
5785 Rain 22 1011 95 10000 0.53 183 20:20 06.11.2020
5786 Rain 22 1011 95 10000 0.53 183 19:47 06.11.2020
5787 Rain 22 1010 94 10000 0.93 189 19:29 06.11.2020
5788 Rain 22 1010 94 10000 0.93 189 18:59 06.11.2020
5789 Rain 22 1010 94 10000 0.99 172 18:40 06.11.2020
5790 Clouds 23 1009 93 10000 1.05 205 18:22 06.11.2020
5791 Clouds 23 1009 93 10000 1.05 205 17:50 06.11.2020
5792 Rain 24 1008 92 10000 0.96 210 17:25 06.11.2020
5793 Rain 24 1008 92 10000 0.96 210 16:48 06.11.2020
5794 Rain 26 1007 91 10000 0.92 208 16:25 06.11.2020
5795 Rain 26 1007 91 10000 0.92 208 15:47 06.11.2020
5796 Clouds 31 1010 62 10000 3.1 250 15:28 06.11.2020
5797 Clouds 31 1010 62 10000 3.1 250 14:53 06.11.2020
5798 Clouds 30 1011 66 10000 4.1 250 14:24 06.11.2020
5799 Clouds 30 1011 66 10000 4.1 250 13:44 06.11.2020
5800 Rain 28 1007 81 6451 1.82 199 13:23 06.11.2020
5801 Rain 27 1008 81 10000 1.29 247 12:45 06.11.2020
5802 Rain 27 1009 86 9497 1.16 279 12:23 06.11.2020
5803 Rain 27 1009 86 9497 1.16 279 11:46 06.11.2020
5804 Clouds 27 1014 74 10000 3.1 250 11:27 06.11.2020
5805 Rain 27 1011 76 10000 1.39 316 10:41 06.11.2020
5806 Clouds 26 1014 83 8000 3.1 250 10:23 06.11.2020
5807 Clouds 26 1014 83 8000 3.1 250 09:48 06.11.2020
5808 Clouds 25 1015 88 8000 3.1 300 09:22 06.11.2020
5809 Clouds 25 1015 88 8000 3.1 300 08:50 06.11.2020
5810 Clouds 23 1013 96 10000 0.95 230 08:29 06.11.2020
5811 Clouds 23 1013 96 10000 0.95 230 07:50 06.11.2020
5812 Clouds 23 1013 96 10000 0.95 230 07:31 06.11.2020
5813 Clouds 22 1013 97 10000 1.05 181 06:57 06.11.2020
5814 Clouds 21 1013 98 10000 0.88 198 06:22 06.11.2020
5815 Rain 21 1011 98 10000 1.6 241 03:48 06.11.2020
5816 Rain 22 1012 98 9827 0.53 166 00:51 06.11.2020
5817 Rain 22 1012 98 8440 0.54 346 00:21 06.11.2020
5818 Rain 22 1012 98 8440 0.54 346 23:31 05.11.2020
5819 Rain 22 1012 98 8647 0.7 282 22:58 05.11.2020
5820 Rain 22 1012 98 8647 0.7 282 22:37 05.11.2020
5821 Clouds 22 1012 97 10000 0.98 240 22:19 05.11.2020
5822 Clouds 22 1012 97 10000 0.98 240 21:43 05.11.2020
5823 Clouds 22 1012 97 10000 1.3 237 21:22 05.11.2020
5824 Clouds 22 1012 97 10000 1.3 237 20:55 05.11.2020
5825 Clouds 22 1012 97 10000 1.3 237 20:37 05.11.2020
5826 Clouds 22 1011 97 10000 1.51 238 20:18 05.11.2020
5827 Clouds 22 1011 97 10000 1.51 238 19:41 05.11.2020
5828 Clouds 22 1010 96 10000 1.17 237 19:23 05.11.2020
5829 Clouds 23 1009 96 10000 1 217 18:46 05.11.2020
5830 Rain 23 1008 95 10000 0.52 228 18:26 05.11.2020
5831 Rain 23 1008 95 10000 0.52 228 17:52 05.11.2020
5832 Rain 23 1008 95 10000 0.52 228 17:31 05.11.2020
5833 Rain 24 1007 95 10000 0.71 260 16:59 05.11.2020
5834 Rain 24 1007 95 10000 0.71 260 16:41 05.11.2020
5835 Rain 25 1006 94 10000 0.91 267 16:20 05.11.2020
5836 Rain 25 1006 94 10000 0.91 267 15:46 05.11.2020
5837 Thunderstorm 30 1007 66 7000 7.7 270 15:22 05.11.2020
5838 Thunderstorm 30 1007 66 7000 7.7 270 14:46 05.11.2020
5839 Rain 27 1006 91 7801 1.56 293 14:27 05.11.2020
5840 Rain 27 1006 91 7801 1.56 293 13:45 05.11.2020
5841 Rain 30 1007 66 10000 1.5 286 13:26 05.11.2020
5842 Rain 30 1007 60 10000 1.6 294 12:53 05.11.2020
5843 Clouds 29 1012 70 10000 3.1 250 12:29 05.11.2020
5844 Clouds 29 1008 62 10000 1.76 275 11:55 05.11.2020
5845 Clouds 29 1008 62 10000 1.76 275 11:37 05.11.2020
5846 Clouds 25 1010 82 10000 1.45 270 11:18 05.11.2020
5847 Clouds 25 1010 82 10000 1.45 270 10:41 05.11.2020
5848 Clouds 23 1011 95 10000 1.47 269 10:22 05.11.2020
5849 Clouds 23 1011 95 10000 1.47 269 09:45 05.11.2020
5850 Clouds 26 1012 78 8000 4.1 140 09:22 05.11.2020
5851 Clouds 26 1012 78 8000 4.1 140 08:44 05.11.2020
5852 Rain 22 1012 97 10000 1.89 204 08:25 05.11.2020
5853 Rain 22 1012 97 10000 1.89 204 07:40 05.11.2020
5854 Rain 22 1012 98 10000 1.34 189 07:20 05.11.2020
5855 Rain 23 1012 97 6204 0.86 192 06:34 05.11.2020
5856 Rain 23 1012 97 6204 0.86 192 06:34 05.11.2020
5857 Rain 22 1010 98 10000 0.43 279 05:23 05.11.2020
5858 Rain 22 1008 98 5782 0.75 78 01:35 05.11.2020
5859 Rain 21 1009 97 7610 0.32 308 00:33 05.11.2020
5860 Rain 22 1009 94 10000 0.55 310 23:44 04.11.2020
5861 Rain 23 1009 87 10000 0.29 355 23:26 04.11.2020
5862 Rain 23 1009 87 10000 0.29 355 22:52 04.11.2020
5863 Clouds 24 1011 94 7000 1.5 0 22:26 04.11.2020
5864 Clouds 24 1011 94 7000 1.5 0 21:58 04.11.2020
5865 Clouds 23 1009 85 10000 0.47 185 21:37 04.11.2020
5866 Clouds 24 1009 82 10000 0.82 135 21:18 04.11.2020
5867 Clouds 24 1009 82 10000 0.82 135 20:43 04.11.2020
5868 Clouds 24 1008 80 10000 1.01 104 20:25 04.11.2020
5869 Clouds 24 1008 80 10000 1.01 104 19:49 04.11.2020
5870 Clouds 25 1008 80 10000 1.26 77 19:29 04.11.2020
5871 Clouds 25 1008 80 10000 1.26 77 18:55 04.11.2020
5872 Clouds 24 1007 84 10000 0.95 105 18:37 04.11.2020
5873 Rain 25 1006 83 10000 1.33 74 18:18 04.11.2020
5874 Rain 25 1006 83 10000 1.33 74 17:40 04.11.2020
5875 Clouds 30 1008 58 10000 2.1 90 17:21 04.11.2020
5876 Clouds 29 1009 66 10000 2.1 90 16:38 04.11.2020
5877 Clouds 29 1009 66 10000 2.1 90 16:20 04.11.2020
5878 Clouds 29 1009 66 10000 2.1 90 15:47 04.11.2020
5879 Clouds 32 1004 52 10000 1.27 56 15:25 04.11.2020
5880 Clouds 32 1004 52 10000 1.27 56 14:57 04.11.2020
5881 Clouds 28 1010 61 10000 2.1 90 14:39 04.11.2020
5882 Clouds 28 1010 61 10000 2.1 90 14:19 04.11.2020
5883 Clouds 28 1011 65 10000 1.5 0 13:42 04.11.2020
5884 Clouds 28 1011 65 10000 1.5 0 13:20 04.11.2020
5885 Clouds 28 1011 65 10000 1.5 0 12:51 04.11.2020
5886 Clouds 29 1012 62 10000 3.1 110 12:27 04.11.2020
5887 Clouds 29 1012 62 10000 3.1 110 11:56 04.11.2020
5888 Clouds 29 1012 62 10000 3.1 110 11:56 04.11.2020
5889 Clouds 35 1007 43 10000 1.77 48 11:37 04.11.2020
5890 Clouds 35 1007 43 10000 1.77 48 11:37 04.11.2020
5891 Clouds 34 1009 46 10000 1.44 49 11:18 04.11.2020
5892 Clouds 34 1009 46 10000 1.44 49 10:43 04.11.2020
5893 Clouds 29 1014 62 10000 2.1 40 10:22 04.11.2020
5894 Clouds 29 1014 62 10000 2.1 40 09:50 04.11.2020
5895 Clouds 23 1014 94 8000 3.1 70 09:22 04.11.2020
5896 Clouds 23 1014 94 8000 3.1 70 08:45 04.11.2020
5897 Clouds 27 1011 78 10000 0.43 53 08:19 04.11.2020
5898 Clouds 27 1011 78 10000 0.43 53 07:48 04.11.2020
5899 Mist 23 1013 94 3000 2.1 360 07:27 04.11.2020
5900 Clouds 24 1012 93 10000 0.37 51 06:42 04.11.2020
5901 Clouds 22 1011 98 10000 0.56 55 06:18 04.11.2020
5902 Rain 22 1009 97 10000 0.61 349 02:32 04.11.2020
5903 Rain 22 1009 97 10000 0.29 285 01:42 04.11.2020
5904 Rain 22 1011 97 10000 0.48 265 00:41 04.11.2020
5905 Rain 22 1011 97 10000 0.52 213 23:38 03.11.2020
5906 Rain 22 1011 96 10000 0.77 238 23:20 03.11.2020
5907 Rain 22 1011 96 10000 0.77 238 22:41 03.11.2020
5908 Clouds 23 1011 96 10000 0.62 240 22:20 03.11.2020
5909 Clouds 23 1011 96 10000 0.62 240 21:55 03.11.2020
5910 Clouds 23 1011 96 10000 0.62 240 21:37 03.11.2020
5911 Clouds 23 1011 96 10000 0.43 211 21:18 03.11.2020
5912 Clouds 23 1011 96 10000 0.43 211 20:42 03.11.2020
5913 Clouds 23 1011 95 10000 0.54 174 20:21 03.11.2020
5914 Clouds 23 1011 95 10000 0.54 174 19:43 03.11.2020
5915 Rain 23 1010 94 10000 0.76 141 19:20 03.11.2020
5916 Rain 23 1010 94 10000 0.76 141 18:44 03.11.2020
5917 Rain 24 1009 95 10000 0.92 100 18:20 03.11.2020
5918 Rain 24 1009 95 10000 0.92 100 17:55 03.11.2020
5919 Clouds 29 1010 70 10000 2.1 240 17:37 03.11.2020
5920 Clouds 29 1010 70 10000 2.1 240 17:37 03.11.2020
5921 Clouds 29 1010 70 10000 2.1 240 16:55 03.11.2020
5922 Clouds 29 1010 70 10000 3.1 260 16:36 03.11.2020
5923 Clouds 29 1010 70 10000 3.1 260 16:18 03.11.2020
5924 Rain 27 1006 89 10000 0.72 157 15:41 03.11.2020
5925 Clouds 30 1010 66 10000 3.1 290 15:22 03.11.2020
5926 Clouds 30 1010 66 10000 3.1 290 14:46 03.11.2020
5927 Rain 30 1006 66 10000 1.06 180 14:27 03.11.2020
5928 Rain 30 1006 66 10000 1.06 180 14:27 03.11.2020
5929 Rain 30 1006 66 10000 1.06 180 13:44 03.11.2020
5930 Clouds 28 1012 74 10000 2.1 300 13:23 03.11.2020
5931 Clouds 28 1012 74 10000 2.1 300 12:49 03.11.2020
5932 Clouds 34 1009 46 10000 1.13 41 12:28 03.11.2020
5933 Clouds 34 1009 46 10000 1.13 41 11:59 03.11.2020
5934 Clouds 34 1009 46 10000 1.13 41 11:40 03.11.2020
5935 Clouds 27 1014 78 10000 1.1 24 11:18 03.11.2020
5936 Clouds 27 1014 74 10000 1.5 0 10:39 03.11.2020
5937 Clouds 27 1014 74 10000 1.5 0 10:39 03.11.2020
5938 Clouds 27 1014 74 10000 1.5 0 10:20 03.11.2020
5939 Clouds 27 1014 74 10000 1.5 0 09:49 03.11.2020
5940 Clouds 32 1011 54 10000 0.78 13 09:31 03.11.2020
5941 Clouds 30 1012 63 10000 0.3 15 08:55 03.11.2020
5942 Clouds 30 1012 63 10000 0.3 15 08:34 03.11.2020
5943 Clouds 28 1012 72 10000 0.29 243 07:49 03.11.2020
5944 Clouds 24 1012 85 10000 0.52 297 07:22 03.11.2020
5945 Clouds 24 1012 85 10000 0.52 297 06:44 03.11.2020
5946 Clouds 21 1011 97 10000 0.26 320 05:19 03.11.2020
5947 Clouds 21 1010 96 10000 0.39 226 01:51 03.11.2020
5948 Rain 21 1011 96 10000 0.32 211 00:40 03.11.2020
5949 Rain 21 1011 96 10000 0.7 219 23:48 02.11.2020
5950 Rain 21 1011 94 10000 0.92 218 23:29 02.11.2020
5951 Rain 21 1011 94 10000 0.92 218 22:49 02.11.2020
5952 Rain 21 1011 94 10000 0.92 218 22:30 02.11.2020
5953 Rain 21 1011 94 10000 0.92 218 22:30 02.11.2020
5954 Rain 21 1012 93 10000 0.87 231 21:58 02.11.2020
5955 Rain 21 1012 93 10000 0.87 231 21:58 02.11.2020
5956 Rain 21 1012 93 10000 0.87 231 21:37 02.11.2020
5957 Clouds 21 1011 91 10000 0.67 233 21:19 02.11.2020
5958 Clouds 21 1011 91 10000 0.67 233 20:39 02.11.2020
5959 Clouds 22 1011 91 10000 0.56 225 20:20 02.11.2020
5960 Clouds 22 1011 91 10000 0.56 225 19:44 02.11.2020
5961 Clouds 22 1010 89 10000 0.59 224 19:26 02.11.2020
5962 Clouds 22 1010 89 10000 0.59 224 18:55 02.11.2020
5963 Clouds 22 1009 90 10000 0.73 100 18:36 02.11.2020
5964 Clouds 22 1008 89 10000 0.73 203 18:18 02.11.2020
5965 Clouds 22 1008 89 10000 0.73 203 17:40 02.11.2020
5966 Clouds 26 1009 74 8000 0.98 234 17:21 02.11.2020
5967 Clouds 26 1009 74 8000 0.98 234 16:49 02.11.2020
5968 Rain 26 1007 77 10000 1.31 247 16:28 02.11.2020
5969 Rain 26 1007 77 10000 1.31 247 15:55 02.11.2020
5970 Rain 26 1007 77 10000 1.31 247 15:36 02.11.2020
5971 Clouds 29 1007 59 10000 1.39 239 15:18 02.11.2020
5972 Clouds 29 1007 59 10000 1.39 239 14:41 02.11.2020
5973 Clouds 31 1008 54 10000 1.35 236 14:19 02.11.2020
5974 Clouds 31 1008 54 10000 1.35 236 13:46 02.11.2020
5975 Clouds 32 1009 51 10000 1.26 244 13:21 02.11.2020
5976 Rain 32 1008 51 10000 0.78 27 12:43 02.11.2020
5977 Rain 32 1009 52 10000 0.77 279 12:21 02.11.2020
5978 Rain 32 1009 52 10000 0.77 279 11:45 02.11.2020
5979 Rain 30 1011 59 10000 1.55 246 11:20 02.11.2020
5980 Rain 30 1011 59 10000 1.55 246 10:46 02.11.2020
5981 Clouds 28 1012 66 10000 1.99 215 10:24 02.11.2020
5982 Clouds 28 1012 66 10000 1.99 215 09:55 02.11.2020
5983 Rain 22 1015 88 7000 3.1 30 09:27 02.11.2020
5984 Rain 22 1015 88 7000 3.1 30 08:50 02.11.2020
5985 Clouds 23 1013 95 10000 1.57 185 08:29 02.11.2020
5986 Clouds 23 1013 95 10000 1.57 185 07:59 02.11.2020
5987 Clouds 25 1013 78 7000 4.1 100 07:38 02.11.2020
5988 Clouds 25 1013 78 7000 4.1 100 06:44 02.11.2020
5989 Rain 21 1011 98 4865 1.27 126 04:59 02.11.2020
5990 Rain 21 1009 98 6856 0.46 285 01:27 02.11.2020
5991 Rain 21 1009 98 6856 0.46 285 01:27 02.11.2020
5992 Rain 21 1009 98 6856 0.46 285 01:27 02.11.2020
5993 Rain 21 1009 98 6856 0.46 285 01:27 02.11.2020
5994 Rain 21 1009 98 10000 0.29 285 00:37 02.11.2020
5995 Rain 21 1010 98 10000 0.81 277 23:57 01.11.2020
5996 Rain 21 1010 98 10000 0.81 277 23:38 01.11.2020
5997 Rain 22 1010 97 10000 1.12 264 23:19 01.11.2020
5998 Rain 22 1010 97 10000 1.12 264 22:41 01.11.2020
5999 Clouds 22 1010 95 10000 1.01 306 22:21 01.11.2020
6000 Clouds 22 1010 95 10000 1.01 306 21:43 01.11.2020
6001 Clouds 22 1009 93 10000 0.76 323 21:23 01.11.2020
6002 Clouds 22 1009 93 10000 0.76 323 20:47 01.11.2020
6003 Clouds 25 1010 83 7000 3.1 180 20:26 01.11.2020
6004 Clouds 23 1009 93 10000 0.63 301 19:48 01.11.2020
6005 Thunderstorm 26 1008 78 7000 2.1 120 19:29 01.11.2020
6006 Thunderstorm 26 1008 78 7000 2.1 120 18:58 01.11.2020
6007 Thunderstorm 28 1007 65 7000 2.1 40 18:38 01.11.2020
6008 Thunderstorm 28 1007 65 7000 2.1 40 18:19 01.11.2020
6009 Thunderstorm 28 1007 65 7000 2.1 40 17:45 01.11.2020
6010 Thunderstorm 30 1006 62 10000 2.1 240 17:27 01.11.2020
6011 Thunderstorm 30 1006 62 10000 2.1 240 16:45 01.11.2020
6012 Thunderstorm 32 1007 55 10000 2.1 360 16:27 01.11.2020
6013 Thunderstorm 32 1007 55 10000 2.1 360 16:27 01.11.2020
6014 Thunderstorm 32 1007 55 10000 2.1 360 15:59 01.11.2020
6015 Clouds 30 1008 58 10000 3.1 300 15:38 01.11.2020
6016 Clouds 30 1008 58 10000 3.1 300 15:20 01.11.2020
6017 Clouds 30 1008 58 10000 3.1 300 14:46 01.11.2020
6018 Clouds 31 1005 55 10000 1.47 56 14:22 01.11.2020
6019 Clouds 31 1005 55 10000 1.47 56 13:57 01.11.2020
6020 Clouds 30 1011 62 10000 2.1 320 13:39 01.11.2020
6021 Clouds 30 1011 62 10000 2.1 320 13:21 01.11.2020
6022 Clouds 30 1011 62 10000 2.1 320 12:42 01.11.2020
6023 Clouds 36 1007 37 10000 0.61 100 12:19 01.11.2020
6024 Clouds 36 1007 37 10000 0.61 100 11:48 01.11.2020
6025 Clouds 35 1009 39 10000 0.38 125 11:18 01.11.2020
6026 Clouds 35 1009 39 10000 0.38 125 10:42 01.11.2020
6027 Clouds 26 1012 83 10000 0.3 180 10:24 01.11.2020
6028 Clouds 26 1012 83 10000 0.3 180 09:49 01.11.2020
6029 Clouds 25 1012 83 10000 2.1 160 09:26 01.11.2020
6030 Clouds 32 1011 51 10000 0.21 177 08:40 01.11.2020
6031 Clouds 23 1012 94 8000 0.56 178 07:57 01.11.2020
6032 Clouds 25 1011 74 10000 0.52 140 06:52 01.11.2020
6033 Clouds 20 1009 95 10000 0.61 80 02:32 01.11.2020
6034 Clouds 20 1009 94 10000 0.58 61 01:42 01.11.2020
6035 Clouds 22 1010 85 10000 0.27 93 23:58 31.10.2020
6036 Clouds 22 1010 86 10000 0.47 101 23:24 31.10.2020
6037 Clouds 22 1010 86 10000 0.47 101 22:45 31.10.2020
6038 Clouds 22 1011 87 10000 0.65 130 22:24 31.10.2020
6039 Clouds 22 1011 87 10000 0.65 130 21:47 31.10.2020
6040 Clouds 22 1011 89 10000 0.73 147 21:23 31.10.2020
6041 Clouds 22 1011 89 10000 0.73 147 21:23 31.10.2020
6042 Clouds 22 1011 89 10000 0.73 147 20:46 31.10.2020
6043 Clear 22 1010 90 10000 0.93 148 20:21 31.10.2020
6044 Clear 22 1010 90 10000 0.93 148 19:58 31.10.2020
6045 Clear 22 1010 90 10000 0.93 148 19:38 31.10.2020
6046 Clouds 23 1010 88 10000 0.95 144 19:18 31.10.2020
6047 Clouds 23 1010 88 10000 0.95 144 18:43 31.10.2020
6048 Clouds 24 1008 83 10000 1.03 140 17:49 31.10.2020
6049 Clouds 30 1008 66 10000 0.84 137 17:29 31.10.2020
6050 Clouds 30 1008 66 10000 0.84 137 16:59 31.10.2020
6051 Clouds 25 1007 78 10000 0.84 137 16:40 31.10.2020
6052 Clouds 29 1006 66 10000 0.73 133 15:59 31.10.2020
6053 Clouds 30 1010 62 10000 3.1 320 15:38 31.10.2020
6054 Clouds 30 1010 62 10000 3.1 320 15:19 31.10.2020
6055 Clouds 30 1010 62 10000 3.1 320 14:46 31.10.2020
6056 Clouds 30 1007 54 10000 1.34 123 14:26 31.10.2020
6057 Clouds 30 1007 54 10000 1.34 123 13:50 31.10.2020
6058 Clouds 30 1008 54 10000 1.65 130 13:23 31.10.2020
6059 Clouds 29 1009 57 10000 1.77 155 12:35 31.10.2020
6060 Clouds 29 1010 59 10000 1.8 169 11:48 31.10.2020
6061 Clouds 27 1012 67 10000 1.91 169 11:28 31.10.2020
6062 Clouds 27 1012 67 10000 1.91 169 10:56 31.10.2020
6063 Clouds 27 1012 67 10000 1.91 169 10:33 31.10.2020
6064 Clouds 24 1014 86 10000 1.35 161 09:42 31.10.2020
6065 Clouds 25 1014 88 6000 1.5 0 09:22 31.10.2020
6066 Clouds 22 1014 94 10000 0.82 157 08:32 31.10.2020
6067 Clouds 22 1014 97 10000 0.67 126 07:50 31.10.2020
6068 Mist 23 1014 94 4000 2.1 0 07:27 31.10.2020
6069 Rain 22 1014 98 10000 0.34 185 06:39 31.10.2020
6070 Rain 21 1013 98 3469 1.12 213 05:20 31.10.2020
6071 Rain 21 1012 98 4063 0.92 198 03:46 31.10.2020
6072 Rain 22 1011 99 4132 0.32 263 01:29 31.10.2020
6073 Rain 22 1011 99 4132 0.32 263 00:46 31.10.2020
6074 Clouds 20 1011 96 10000 0.44 182 23:51 30.10.2020
6075 Clouds 21 1012 96 10000 0.52 169 23:24 30.10.2020
6076 Clouds 21 1012 96 10000 0.52 169 22:46 30.10.2020
6077 Rain 21 1013 96 10000 0.67 154 22:24 30.10.2020
6078 Rain 21 1013 96 10000 0.67 154 21:56 30.10.2020
6079 Rain 21 1013 96 10000 0.67 154 21:38 30.10.2020
6080 Rain 21 1013 97 10000 0.91 130 21:19 30.10.2020
6081 Rain 21 1013 97 10000 0.91 130 20:39 30.10.2020
6082 Rain 21 1012 97 10000 1.21 102 20:21 30.10.2020
6083 Rain 21 1012 97 10000 1.21 102 19:47 30.10.2020
6084 Rain 21 1012 97 10000 1.8 94 19:19 30.10.2020
6085 Rain 21 1012 97 10000 1.8 94 18:50 30.10.2020
6086 Clouds 22 1011 96 10000 1.24 61 18:28 30.10.2020
6087 Clouds 22 1011 96 10000 1.24 61 17:50 30.10.2020
6088 Rain 23 1010 95 10000 1.04 28 17:24 30.10.2020
6089 Rain 23 1010 95 10000 1.04 28 16:58 30.10.2020
6090 Rain 23 1010 95 10000 1.04 28 16:38 30.10.2020
6091 Rain 25 1009 93 10000 0.96 12 16:19 30.10.2020
6092 Rain 25 1009 93 10000 0.96 12 15:40 30.10.2020
6093 Rain 25 1008 91 10000 1.04 19 15:20 30.10.2020
6094 Rain 25 1008 91 10000 1.04 19 14:45 30.10.2020
6095 Clouds 28 1012 69 7000 4.1 330 14:25 30.10.2020
6096 Clouds 28 1012 69 7000 4.1 330 13:47 30.10.2020
6097 Clouds 28 1012 69 7000 3.1 330 13:23 30.10.2020
6098 Clouds 28 1012 69 7000 3.1 330 12:55 30.10.2020
6099 Clouds 26 1014 83 7000 3.1 270 12:23 30.10.2020
6100 Clouds 26 1014 83 7000 3.1 270 11:57 30.10.2020
6101 Rain 24 1011 89 10000 1.54 95 11:36 30.10.2020
6102 Rain 25 1013 85 10000 1.12 97 11:18 30.10.2020
6103 Rain 25 1013 85 10000 1.12 97 10:40 30.10.2020
6104 Rain 25 1014 77 10000 0.96 92 10:21 30.10.2020
6105 Rain 25 1014 77 10000 0.96 92 09:43 30.10.2020
6106 Clouds 26 1014 71 10000 1.25 84 09:22 30.10.2020
6107 Clouds 27 1014 69 10000 1.18 106 08:41 30.10.2020
6108 Clouds 26 1014 70 10000 1.09 114 08:23 30.10.2020
6109 Clouds 26 1014 70 10000 1.09 114 07:48 30.10.2020
6110 Clouds 26 1014 70 10000 1.09 114 07:30 30.10.2020
6111 Clouds 23 1014 86 10000 0.57 125 06:35 30.10.2020
6112 Clouds 23 1013 94 5000 0.29 99 04:37 30.10.2020
6113 Clouds 20 1011 97 10000 0.53 205 02:24 30.10.2020
6114 Clouds 20 1012 98 10000 0.69 204 00:39 30.10.2020
6115 Clouds 20 1012 98 10000 0.28 185 23:49 29.10.2020
6116 Clouds 20 1012 98 10000 0.28 185 23:30 29.10.2020
6117 Clouds 20 1012 98 10000 0.7 210 22:57 29.10.2020
6118 Clouds 20 1012 98 10000 0.7 210 22:38 29.10.2020
6119 Clouds 20 1013 97 10000 0.4 189 22:20 29.10.2020
6120 Clouds 20 1013 97 10000 0.4 189 21:36 29.10.2020
6121 Clouds 21 1013 96 10000 0.51 111 21:18 29.10.2020
6122 Clouds 21 1013 96 10000 0.51 111 20:40 29.10.2020
6123 Clouds 21 1012 97 10000 0.58 134 20:19 29.10.2020
6124 Clouds 21 1012 97 10000 0.58 134 19:42 29.10.2020
6125 Clouds 21 1012 97 10000 0.98 138 19:22 29.10.2020
6126 Clouds 21 1012 97 10000 0.98 138 18:49 29.10.2020
6127 Clouds 21 1010 95 10000 0.85 140 18:29 29.10.2020
6128 Clouds 21 1010 95 10000 0.85 140 17:57 29.10.2020
6129 Clouds 21 1010 95 10000 0.85 140 17:38 29.10.2020
6130 Clouds 22 1009 93 10000 0.86 144 17:19 29.10.2020
6131 Clouds 22 1009 93 10000 0.86 144 16:45 29.10.2020
6132 Clouds 28 1010 69 10000 0.49 236 16:19 29.10.2020
6133 Clouds 28 1010 69 10000 0.49 236 15:56 29.10.2020
6134 Clouds 29 1011 66 10000 0.49 236 15:37 29.10.2020
6135 Clouds 29 1011 66 10000 1.5 250 15:19 29.10.2020
6136 Clouds 23 1008 90 10000 1.5 250 14:44 29.10.2020
6137 Clouds 28 1011 69 10000 3.1 360 14:22 29.10.2020
6138 Clouds 28 1011 69 10000 3.1 360 13:47 29.10.2020
6139 Rain 22 1010 96 10000 1.15 219 13:27 29.10.2020
6140 Rain 22 1010 97 10000 1.38 246 12:44 29.10.2020
6141 Rain 21 1012 98 10000 0.84 220 12:20 29.10.2020
6142 Rain 21 1012 98 10000 0.84 220 11:56 29.10.2020
6143 Clouds 25 1013 83 10000 3.1 220 11:38 29.10.2020
6144 Clouds 25 1013 83 10000 3.1 220 11:20 29.10.2020
6145 Clouds 24 1014 83 10000 3.1 120 10:37 29.10.2020
6146 Clouds 24 1014 83 10000 3.1 120 10:37 29.10.2020
6147 Clouds 24 1014 83 10000 3.1 120 10:18 29.10.2020
6148 Clouds 24 1014 83 10000 3.1 120 09:48 29.10.2020
6149 Clouds 23 1014 94 7000 3.1 220 09:24 29.10.2020
6150 Rain 21 1014 98 1711 0.73 212 08:44 29.10.2020
6151 Clouds 22 1014 94 7000 0.74 204 08:24 29.10.2020
6152 Clouds 22 1014 94 7000 0.74 204 07:49 29.10.2020
6153 Rain 22 1013 94 7000 3.1 140 07:19 29.10.2020
6154 Rain 20 1013 99 1912 0.68 187 06:30 29.10.2020
6155 Rain 20 1011 98 4189 0.66 272 04:48 29.10.2020
6156 Rain 20 1009 98 3536 1.02 332 02:29 29.10.2020
6157 Rain 21 1010 98 10000 1.19 278 00:45 29.10.2020
6158 Rain 22 1011 98 10000 1.63 310 00:22 29.10.2020
6159 Rain 22 1011 98 10000 1.63 310 23:42 28.10.2020
6160 Rain 22 1011 98 8951 1.38 330 23:20 28.10.2020
6161 Rain 22 1011 98 8951 1.38 330 22:43 28.10.2020
6162 Rain 21 1010 98 5866 0.83 277 22:25 28.10.2020
6163 Rain 21 1010 98 5866 0.83 277 21:45 28.10.2020
6164 Rain 22 1010 98 9704 0.79 241 21:26 28.10.2020
6165 Rain 22 1010 98 9704 0.79 241 20:59 28.10.2020
6166 Rain 22 1010 98 9704 0.79 241 20:40 28.10.2020
6167 Clouds 23 1010 95 10000 1.2 228 20:18 28.10.2020
6168 Clouds 23 1010 95 10000 1.2 228 19:45 28.10.2020
6169 Clouds 23 1010 93 10000 1.31 233 19:26 28.10.2020
6170 Clouds 23 1010 93 10000 1.31 233 18:43 28.10.2020
6171 Clouds 22 1008 87 10000 1.21 204 18:20 28.10.2020
6172 Clouds 22 1008 87 10000 1.21 204 17:44 28.10.2020
6173 Clouds 24 1006 82 10000 1.32 209 17:24 28.10.2020
6174 Clouds 24 1006 82 10000 1.32 209 16:49 28.10.2020
6175 Clouds 24 1006 82 10000 1.32 209 16:30 28.10.2020
6176 Clouds 26 1005 70 10000 1.43 229 15:46 28.10.2020
6177 Clouds 27 1005 67 10000 1.47 246 15:20 28.10.2020
6178 Clouds 27 1005 67 10000 1.47 246 14:58 28.10.2020
6179 Clouds 27 1005 67 10000 1.47 246 14:38 28.10.2020
6180 Clouds 27 1005 65 10000 1.4 228 14:19 28.10.2020
6181 Clouds 26 1007 71 10000 1.57 208 12:39 28.10.2020
6182 Clouds 27 1009 69 10000 1.84 177 12:21 28.10.2020
6183 Clouds 27 1009 69 10000 1.84 177 11:44 28.10.2020
6184 Clouds 27 1010 69 10000 1.85 152 11:23 28.10.2020
6185 Clouds 27 1010 69 10000 1.85 152 10:59 28.10.2020
6186 Clouds 27 1010 69 10000 1.85 152 10:40 28.10.2020
6187 Clouds 24 1011 84 10000 1.26 98 10:22 28.10.2020
6188 Clouds 24 1011 84 10000 1.26 98 09:41 28.10.2020
6189 Clouds 23 1012 91 10000 1.2 88 09:22 28.10.2020
6190 Clouds 23 1012 91 10000 1.2 88 08:49 28.10.2020
6191 Clouds 23 1012 93 10000 1.27 83 08:27 28.10.2020
6192 Clouds 23 1012 93 10000 1.27 83 07:49 28.10.2020
6193 Clouds 23 1012 93 10000 1.27 83 07:30 28.10.2020
6194 Rain 21 1012 98 10000 1.81 96 06:42 28.10.2020
6195 Clouds 21 1011 100 6000 1.53 89 05:52 28.10.2020
6196 Rain 21 1010 98 3923 1.65 76 05:20 28.10.2020
6197 Rain 21 1009 98 5107 1.9 81 04:25 28.10.2020
6198 Rain 22 1008 98 10000 1.24 98 02:26 28.10.2020
6199 Rain 22 1008 98 10000 1.24 98 01:50 28.10.2020
6200 Clouds 23 1009 96 10000 0.06 50 00:22 28.10.2020
6201 Clouds 23 1009 96 10000 0.06 50 23:43 27.10.2020
6202 Rain 23 1009 96 10000 0.62 170 23:20 27.10.2020
6203 Rain 23 1009 96 10000 0.62 170 22:44 27.10.2020
6204 Rain 23 1009 96 10000 0.84 177 22:19 27.10.2020
6205 Rain 23 1009 96 10000 0.84 177 22:19 27.10.2020
6206 Rain 23 1009 96 10000 0.84 177 21:56 27.10.2020
6207 Rain 23 1009 96 10000 0.84 177 21:37 27.10.2020
6208 Rain 23 1009 96 10000 0.84 177 21:37 27.10.2020
6209 Rain 23 1009 96 10000 0.84 177 21:37 27.10.2020
6210 Rain 23 1009 96 10000 0.84 177 21:37 27.10.2020
6211 Rain 23 1009 95 10000 1.02 210 21:19 27.10.2020
6212 Rain 23 1009 95 10000 1.02 210 20:45 27.10.2020
6213 Clouds 23 1009 94 10000 0.9 202 20:23 27.10.2020
6214 Clouds 23 1009 94 10000 0.9 202 19:55 27.10.2020
6215 Clouds 23 1009 94 10000 0.9 202 19:36 27.10.2020
6216 Clouds 23 1008 94 10000 0.6 197 19:18 27.10.2020
6217 Clouds 23 1008 94 10000 0.6 197 18:44 27.10.2020
6218 Rain 24 1008 94 10000 0.9 318 18:21 27.10.2020
6219 Rain 24 1008 94 10000 0.9 318 17:57 27.10.2020
6220 Rain 24 1008 94 10000 0.9 318 17:36 27.10.2020
6221 Rain 24 1007 94 10000 1.15 311 17:18 27.10.2020
6222 Rain 24 1007 94 10000 1.15 311 16:41 27.10.2020
6223 Thunderstorm 24 1004 88 7000 3.1 250 16:22 27.10.2020
6224 Rain 26 1006 93 10000 1.41 311 15:41 27.10.2020
6225 Rain 26 1005 88 10000 1.99 301 15:23 27.10.2020
6226 Rain 26 1005 88 10000 1.99 301 14:48 27.10.2020
6227 Thunderstorm 28 1008 78 8000 3.1 90 14:29 27.10.2020
6228 Thunderstorm 28 1008 78 8000 3.1 90 13:58 27.10.2020
6229 Rain 33 1006 51 10000 0.33 240 13:28 27.10.2020
6230 Rain 32 1006 59 10000 0.18 322 12:44 27.10.2020
6231 Rain 32 1007 56 10000 0.71 58 12:25 27.10.2020
6232 Rain 32 1007 56 10000 0.71 58 11:58 27.10.2020
6233 Rain 32 1007 56 10000 0.71 58 11:40 27.10.2020
6234 Clouds 30 1012 66 10000 2.1 120 11:20 27.10.2020
6235 Rain 30 1009 62 10000 1.33 90 10:39 27.10.2020
6236 Clouds 28 1010 67 10000 1.42 100 10:19 27.10.2020
6237 Clouds 27 1011 72 10000 1.37 104 09:28 27.10.2020
6238 Clouds 27 1011 72 10000 1.37 104 08:56 27.10.2020
6239 Clouds 26 1012 83 10000 1.22 99 08:29 27.10.2020
6240 Clouds 26 1012 83 10000 1.22 99 07:52 27.10.2020
6241 Mist 23 1011 94 4000 1.22 99 07:34 27.10.2020
6242 Mist 23 1011 94 4000 0.94 106 06:52 27.10.2020
6243 Rain 22 1011 97 5534 1.03 92 06:19 27.10.2020
6244 Rain 22 1011 97 5534 1.03 92 05:44 27.10.2020
6245 Rain 21 1010 98 5653 0.96 77 04:58 27.10.2020
6246 Rain 21 1008 96 10000 0.46 22 02:49 27.10.2020
6247 Rain 22 1008 92 10000 0.62 309 01:18 27.10.2020
6248 Clouds 23 1009 89 10000 0.9 318 23:59 26.10.2020
6249 Clouds 23 1009 89 10000 0.9 318 23:36 26.10.2020
6250 Clouds 23 1009 86 10000 0.99 322 22:57 26.10.2020
6251 Clouds 23 1009 86 10000 0.99 322 22:31 26.10.2020
6252 Clouds 24 1009 82 10000 0.84 326 21:57 26.10.2020
6253 Clouds 25 1011 88 8000 1.5 0 21:36 26.10.2020
6254 Clouds 25 1011 88 8000 1.5 0 21:18 26.10.2020
6255 Clouds 25 1011 88 8000 1.5 0 20:49 26.10.2020
6256 Clouds 25 1008 79 10000 0.61 306 20:27 26.10.2020
6257 Clouds 25 1008 79 10000 0.61 306 19:49 26.10.2020
6258 Clouds 25 1007 78 10000 0.75 328 19:28 26.10.2020
6259 Clouds 25 1007 78 10000 0.75 328 18:58 26.10.2020
6260 Clouds 25 1007 71 10000 0.88 353 18:39 26.10.2020
6261 Clouds 26 1006 67 10000 0.93 16 18:19 26.10.2020
6262 Clouds 26 1006 67 10000 0.93 16 17:41 26.10.2020
6263 Clouds 30 1008 58 10000 0.83 19 17:23 26.10.2020
6264 Clouds 30 1008 58 10000 0.83 19 16:45 26.10.2020
6265 Clouds 30 1008 58 10000 0.67 10 16:22 26.10.2020
6266 Clouds 30 1008 58 10000 0.67 10 15:55 26.10.2020
6267 Clouds 30 1008 58 10000 0.67 10 15:55 26.10.2020
6268 Clouds 30 1004 59 10000 0.67 10 15:36 26.10.2020
6269 Clouds 32 1003 44 10000 0.62 8 15:18 26.10.2020
6270 Clouds 32 1003 44 10000 0.62 8 14:44 26.10.2020
6271 Clouds 29 1010 66 10000 0.63 325 14:18 26.10.2020
6272 Clouds 29 1011 62 10000 0.63 325 13:38 26.10.2020
6273 Clouds 29 1011 62 10000 0.88 310 13:20 26.10.2020
6274 Clouds 29 1011 62 10000 0.88 310 12:44 26.10.2020
6275 Clouds 28 1012 69 10000 1.5 0 12:23 26.10.2020
6276 Clouds 28 1012 69 10000 1.5 0 11:48 26.10.2020
6277 Clouds 26 1013 78 10000 2.1 240 11:25 26.10.2020
6278 Clouds 26 1013 78 10000 2.1 240 10:58 26.10.2020
6279 Clouds 33 1009 46 10000 0.84 334 10:40 26.10.2020
6280 Clouds 25 1013 83 10000 1.5 0 10:20 26.10.2020
6281 Clouds 25 1013 83 10000 1.5 0 09:43 26.10.2020
6282 Clouds 29 1011 60 10000 0.47 82 09:21 26.10.2020
6283 Clouds 26 1012 74 10000 0.83 106 08:29 26.10.2020
6284 Clouds 26 1012 74 10000 0.83 106 07:53 26.10.2020
6285 Mist 22 1012 100 3000 0.83 106 07:34 26.10.2020
6286 Clouds 22 1012 90 10000 0.69 104 06:37 26.10.2020
6287 Clouds 20 1010 98 10000 0.9 109 04:22 26.10.2020
6288 Clouds 20 1010 98 10000 0.9 109 03:42 26.10.2020
6289 Clouds 20 1010 98 10000 0.92 110 01:40 26.10.2020
6290 Clouds 20 1010 98 10000 1.16 124 00:57 26.10.2020
6291 Clouds 20 1010 98 10000 1.12 132 00:32 26.10.2020
6292 Clouds 20 1010 98 10000 1.02 103 23:41 25.10.2020
6293 Clouds 20 1010 98 10000 1.11 93 23:21 25.10.2020
6294 Clouds 20 1010 98 10000 1.11 93 22:40 25.10.2020
6295 Clouds 21 1011 98 10000 0.79 47 22:20 25.10.2020
6296 Clouds 21 1011 98 10000 0.79 47 21:41 25.10.2020
6297 Clouds 21 1011 98 10000 1.12 299 21:22 25.10.2020
6298 Clouds 21 1011 98 10000 1.12 299 20:46 25.10.2020
6299 Clouds 21 1011 98 10000 2.35 268 20:28 25.10.2020
6300 Clouds 21 1011 98 10000 2.35 268 19:59 25.10.2020
6301 Clouds 21 1011 98 10000 2.35 268 19:41 25.10.2020
6302 Rain 20 1010 98 10000 1.64 226 19:21 25.10.2020
6303 Clouds 21 1010 98 10000 1.48 283 18:55 25.10.2020
6304 Clouds 21 1010 98 10000 1.48 283 18:36 25.10.2020
6305 Rain 21 1010 98 10000 2.16 257 18:18 25.10.2020
6306 Rain 21 1010 98 10000 2.16 257 17:39 25.10.2020
6307 Rain 21 1009 98 10000 1.71 262 17:21 25.10.2020
6308 Rain 21 1009 98 10000 1.71 262 16:55 25.10.2020
6309 Clouds 26 1009 74 7000 2.1 120 16:37 25.10.2020
6310 Clouds 26 1009 74 7000 2.1 120 16:18 25.10.2020
6311 Rain 21 1009 98 10000 1.43 204 15:41 25.10.2020
6312 Clouds 25 1010 83 7000 2.1 160 15:23 25.10.2020
6313 Rain 20 1009 98 10000 1.41 136 14:40 25.10.2020
6314 Rain 20 1009 98 9924 2.36 130 14:21 25.10.2020
6315 Rain 20 1009 98 9924 2.36 130 13:42 25.10.2020
6316 Rain 23 1012 94 6000 3.1 300 13:20 25.10.2020
6317 Rain 23 1012 94 6000 3.1 300 12:46 25.10.2020
6318 Rain 20 1009 97 3365 3.27 133 12:26 25.10.2020
6319 Rain 20 1009 97 3365 3.27 133 11:54 25.10.2020
6320 Rain 22 1014 94 6000 1.5 0 11:36 25.10.2020
6321 Rain 22 1014 94 6000 1.5 0 11:18 25.10.2020
6322 Rain 22 1014 94 6000 1.5 0 10:43 25.10.2020
6323 Rain 23 1010 97 2899 1.45 113 10:21 25.10.2020
6324 Rain 23 1010 97 2899 1.45 113 09:43 25.10.2020
6325 Rain 23 1011 97 5650 0.74 44 09:19 25.10.2020
6326 Rain 23 1011 97 5650 0.74 44 08:44 25.10.2020
6327 Rain 23 1011 97 5650 0.74 44 08:44 25.10.2020
6328 Rain 23 1011 97 10000 0.85 96 08:26 25.10.2020
6329 Rain 23 1011 97 10000 0.85 96 07:48 25.10.2020
6330 Rain 23 1011 97 10000 0.66 93 07:25 25.10.2020
6331 Rain 23 1011 97 10000 0.66 93 06:46 25.10.2020
6332 Rain 22 1011 98 10000 0.17 4 05:43 25.10.2020
6333 Rain 21 1010 98 7472 0.75 2 04:52 25.10.2020
6334 Rain 22 1008 97 9911 0.89 330 02:58 25.10.2020
6335 Rain 22 1008 95 10000 1.07 319 01:20 25.10.2020
6336 Rain 22 1008 95 10000 1.07 319 00:42 25.10.2020
6337 Clouds 22 1009 95 10000 0.83 324 00:18 25.10.2020
6338 Clouds 22 1009 95 10000 0.83 324 23:43 24.10.2020
6339 Rain 23 1009 95 10000 0.93 324 23:24 24.10.2020
6340 Rain 23 1009 95 10000 0.93 324 22:42 24.10.2020
6341 Rain 23 1009 96 10000 0.75 303 22:23 24.10.2020
6342 Rain 23 1009 96 10000 0.75 303 21:57 24.10.2020
6343 Rain 23 1009 96 10000 0.75 303 21:38 24.10.2020
6344 Rain 23 1008 95 10000 0.84 308 21:19 24.10.2020
6345 Rain 23 1008 95 10000 0.84 308 20:45 24.10.2020
6346 Rain 24 1008 92 10000 0.84 297 20:22 24.10.2020
6347 Rain 25 1007 82 10000 1.06 9 19:45 24.10.2020
6348 Rain 26 1007 75 10000 0.46 61 19:25 24.10.2020
6349 Rain 26 1007 75 10000 0.46 61 18:55 24.10.2020
6350 Clouds 32 1008 59 10000 2.1 250 18:36 24.10.2020
6351 Clouds 32 1008 59 10000 2.1 250 17:56 24.10.2020
6352 Clouds 31 1005 59 10000 0.73 247 17:27 24.10.2020
6353 Clouds 31 1005 59 10000 0.73 247 16:59 24.10.2020
6354 Clouds 31 1005 59 10000 0.73 247 16:41 24.10.2020
6355 Clouds 32 1008 59 10000 3.1 210 15:59 24.10.2020
6356 Clouds 32 1009 59 10000 3.1 180 15:38 24.10.2020
6357 Clouds 32 1009 59 10000 3.1 180 15:38 24.10.2020
6358 Clouds 32 1009 59 10000 3.1 180 15:19 24.10.2020
6359 Clouds 32 1009 59 10000 3.1 180 14:43 24.10.2020
6360 Clouds 36 1005 41 10000 0.56 61 14:23 24.10.2020
6361 Clouds 35 1006 40 10000 0.93 24 13:44 24.10.2020
6362 Clouds 31 1011 58 8000 2.1 330 13:20 24.10.2020
6363 Clear 36 1007 41 10000 0.77 46 12:42 24.10.2020
6364 Clouds 31 1012 55 8000 2.1 330 12:21 24.10.2020
6365 Clouds 31 1012 55 8000 2.1 330 11:51 24.10.2020
6366 Clouds 30 1013 66 8000 2.1 0 11:27 24.10.2020
6367 Clouds 30 1013 66 8000 2.1 0 10:52 24.10.2020
6368 Clear 33 1010 50 10000 1.13 19 10:32 24.10.2020
6369 Clear 31 1011 57 10000 1.08 43 09:50 24.10.2020
6370 Clear 31 1011 57 10000 1.08 43 09:32 24.10.2020
6371 Clear 28 1012 65 10000 0.91 59 08:58 24.10.2020
6372 Clouds 25 1012 77 10000 0.36 100 08:19 24.10.2020
6373 Clouds 25 1012 77 10000 0.36 100 07:53 24.10.2020
6374 Clouds 22 1011 90 10000 0.36 169 07:24 24.10.2020
6375 Clouds 22 1011 90 10000 0.36 169 06:53 24.10.2020
6376 Clouds 22 1011 90 10000 0.36 169 06:53 24.10.2020
6377 Clouds 20 1011 95 10000 0.34 148 06:22 24.10.2020
6378 Clouds 21 1010 93 10000 0.41 118 02:56 24.10.2020
6379 Clouds 21 1011 92 10000 0.37 90 01:20 24.10.2020
6380 Clouds 21 1011 92 10000 0.37 90 00:40 24.10.2020
6381 Clouds 21 1011 92 10000 0.55 110 00:21 24.10.2020
6382 Clouds 21 1011 92 10000 0.55 110 23:49 23.10.2020
6383 Clouds 21 1011 92 10000 0.78 99 23:26 23.10.2020
6384 Clouds 21 1011 92 10000 0.78 99 22:57 23.10.2020
6385 Clouds 21 1011 92 10000 0.78 99 22:37 23.10.2020
6386 Clouds 22 1011 92 10000 0.94 78 22:18 23.10.2020
6387 Clouds 22 1011 92 10000 0.94 78 21:45 23.10.2020
6388 Clouds 22 1011 91 10000 1.03 97 21:24 23.10.2020
6389 Clouds 22 1011 91 10000 1.03 97 20:41 23.10.2020
6390 Clouds 26 1011 83 8000 1.1 119 20:23 23.10.2020
6391 Clouds 26 1011 83 8000 1.1 119 19:52 23.10.2020
6392 Rain 23 1010 89 10000 0.45 176 19:32 23.10.2020
6393 Rain 24 1009 87 10000 0.11 278 18:55 23.10.2020
6394 Clouds 30 1010 66 10000 0.11 278 18:34 23.10.2020
6395 Clouds 30 1010 66 10000 0.1 86 17:51 23.10.2020
6396 Clouds 30 1010 70 10000 3.1 220 17:26 23.10.2020
6397 Clouds 29 1007 67 10000 0.11 107 16:56 23.10.2020
6398 Clouds 29 1007 67 10000 0.11 107 16:56 23.10.2020
6399 Clouds 28 1011 78 10000 2.1 270 16:37 23.10.2020
6400 Clouds 28 1011 78 10000 2.1 270 16:37 23.10.2020
6401 Clouds 28 1011 78 10000 2.1 270 16:19 23.10.2020
6402 Clouds 28 1011 78 10000 2.1 270 15:42 23.10.2020
6403 Clouds 28 1012 78 10000 4.1 100 15:23 23.10.2020
6404 Clouds 28 1012 78 10000 4.1 100 14:53 23.10.2020
6405 Clouds 29 1013 79 10000 3.1 180 14:34 23.10.2020
6406 Clouds 29 1013 79 10000 3.1 180 13:56 23.10.2020
6407 Clouds 29 1013 70 10000 3.1 120 13:37 23.10.2020
6408 Clouds 29 1013 70 10000 3.1 120 13:37 23.10.2020
6409 Clouds 29 1013 70 10000 3.1 120 13:18 23.10.2020
6410 Clouds 25 1011 76 10000 0.81 165 12:42 23.10.2020
6411 Clouds 25 1012 76 10000 1.62 151 12:23 23.10.2020
6412 Clouds 25 1012 76 10000 1.62 151 11:46 23.10.2020
6413 Clouds 25 1013 75 10000 2.14 143 11:21 23.10.2020
6414 Clouds 25 1013 75 10000 2.14 143 10:43 23.10.2020
6415 Clouds 25 1015 83 8000 1.81 146 10:25 23.10.2020
6416 Clouds 24 1014 83 10000 1.81 146 09:44 23.10.2020
6417 Rain 23 1015 94 7000 1.42 143 09:26 23.10.2020
6418 Rain 23 1015 94 7000 1.42 143 08:52 23.10.2020
6419 Clouds 23 1014 91 10000 1.42 143 08:30 23.10.2020
6420 Rain 22 1015 97 6759 1.06 78 07:33 23.10.2020
6421 Rain 22 1014 97 10000 0.82 71 06:57 23.10.2020
6422 Rain 21 1013 98 10000 0.69 55 06:20 23.10.2020
6423 Rain 21 1011 98 10000 0.87 61 04:56 23.10.2020
6424 Clouds 22 1010 97 10000 0.66 31 02:32 23.10.2020
6425 Clouds 22 1011 96 10000 0.73 78 01:23 23.10.2020
6426 Clouds 22 1011 96 10000 0.73 78 00:36 23.10.2020
6427 Clouds 22 1012 96 10000 0.75 85 23:40 22.10.2020
6428 Clouds 22 1012 96 10000 0.66 88 23:22 22.10.2020
6429 Clouds 22 1012 96 10000 0.66 88 22:48 22.10.2020
6430 Clouds 22 1012 96 10000 0.33 100 22:26 22.10.2020
6431 Clouds 22 1012 96 10000 0.33 100 21:58 22.10.2020
6432 Clouds 22 1012 96 10000 0.33 100 21:40 22.10.2020
6433 Clouds 22 1012 96 10000 0.06 221 21:20 22.10.2020
6434 Clouds 22 1012 96 10000 0.06 221 20:44 22.10.2020
6435 Clouds 23 1011 96 10000 0.26 284 20:25 22.10.2020
6436 Clouds 23 1011 96 10000 0.26 284 19:44 22.10.2020
6437 Clouds 23 1010 96 10000 0.49 303 19:21 22.10.2020
6438 Clouds 23 1010 96 10000 0.49 303 18:59 22.10.2020
6439 Clouds 23 1010 96 10000 0.49 303 18:39 22.10.2020
6440 Rain 23 1008 96 10000 0.74 304 18:19 22.10.2020
6441 Rain 23 1008 96 10000 0.74 304 17:44 22.10.2020
6442 Rain 25 1008 95 9476 1.1 311 17:21 22.10.2020
6443 Rain 25 1008 95 9476 1.1 311 16:45 22.10.2020
6444 Rain 26 1008 93 7636 1.4 295 16:25 22.10.2020
6445 Rain 26 1008 93 7636 1.4 295 15:50 22.10.2020
6446 Rain 26 1008 92 6605 1.57 274 15:27 22.10.2020
6447 Rain 26 1008 92 6605 1.57 274 14:56 22.10.2020
6448 Rain 26 1008 92 6605 1.57 274 14:37 22.10.2020
6449 Rain 27 1009 89 10000 1.83 269 14:19 22.10.2020
6450 Rain 27 1009 89 10000 1.83 269 13:41 22.10.2020
6451 Rain 22 1014 94 8000 1.5 0 13:22 22.10.2020
6452 Rain 28 1010 76 4402 1.25 279 12:41 22.10.2020
6453 Rain 29 1011 62 10000 1.17 315 12:22 22.10.2020
6454 Rain 29 1011 62 10000 1.17 315 11:42 22.10.2020
6455 Clouds 27 1013 72 10000 1.2 313 11:18 22.10.2020
6456 Clouds 27 1013 72 10000 1.2 313 10:47 22.10.2020
6457 Clouds 26 1014 79 10000 1.13 323 10:25 22.10.2020
6458 Clouds 26 1014 79 10000 1.13 323 09:43 22.10.2020
6459 Clouds 25 1014 87 10000 1.15 330 09:21 22.10.2020
6460 Clouds 25 1014 87 10000 1.15 330 08:41 22.10.2020
6461 Clouds 23 1014 94 10000 0.93 352 08:23 22.10.2020
6462 Clouds 23 1014 93 10000 1.13 329 07:43 22.10.2020
6463 Clouds 22 1013 97 10000 1.13 345 07:18 22.10.2020
6464 Clouds 22 1013 97 10000 1.13 345 06:41 22.10.2020
6465 Clouds 21 1012 98 10000 1.15 356 06:23 22.10.2020
6466 Clouds 21 1012 98 10000 1.15 356 05:38 22.10.2020
6467 Clouds 21 1012 98 10000 1.15 356 05:38 22.10.2020
6468 Rain 21 1010 98 10000 0.98 271 03:25 22.10.2020
6469 Clouds 22 1011 96 10000 0.8 234 00:55 22.10.2020
6470 Clouds 22 1012 96 10000 0.91 195 00:22 22.10.2020
6471 Clouds 22 1012 96 10000 0.91 195 23:43 21.10.2020
6472 Rain 22 1012 95 10000 1.15 172 23:19 21.10.2020
6473 Rain 22 1012 95 10000 1.15 172 22:38 21.10.2020
6474 Rain 23 1011 94 10000 0.42 211 22:19 21.10.2020
6475 Rain 23 1011 94 10000 0.42 211 22:19 21.10.2020
6476 Rain 23 1011 94 10000 0.42 211 21:46 21.10.2020
6477 Rain 23 1011 95 10000 0.67 273 21:20 21.10.2020
6478 Rain 23 1011 95 10000 0.67 273 20:57 21.10.2020
6479 Rain 23 1011 95 10000 0.67 273 20:39 21.10.2020
6480 Rain 23 1010 94 10000 1.1 285 20:18 21.10.2020
6481 Clouds 22 1010 96 10000 0.62 305 19:40 21.10.2020
6482 Clouds 23 1009 96 10000 0.98 290 19:22 21.10.2020
6483 Clouds 23 1009 96 10000 0.98 290 18:52 21.10.2020
6484 Rain 24 1008 95 10000 1.14 296 18:30 21.10.2020
6485 Rain 24 1008 95 10000 1.14 296 17:50 21.10.2020
6486 Rain 26 1007 94 10000 1.25 306 17:22 21.10.2020
6487 Rain 26 1007 94 10000 1.25 306 16:59 21.10.2020
6488 Rain 26 1007 94 10000 1.25 306 16:39 21.10.2020
6489 Rain 27 1006 88 10000 1.59 298 16:20 21.10.2020
6490 Rain 27 1006 88 10000 1.59 298 15:45 21.10.2020
6491 Rain 27 1006 88 10000 1.55 290 15:22 21.10.2020
6492 Rain 27 1006 88 10000 1.55 290 14:49 21.10.2020
6493 Clouds 30 1012 62 10000 4.1 210 14:29 21.10.2020
6494 Clouds 30 1012 62 10000 4.1 210 13:57 21.10.2020
6495 Clouds 30 1012 62 10000 4.1 210 13:39 21.10.2020
6496 Clouds 30 1012 62 10000 4.1 210 13:20 21.10.2020
6497 Clouds 28 1013 69 10000 3.1 210 12:38 21.10.2020
6498 Clouds 26 1014 78 10000 4.1 210 12:20 21.10.2020
6499 Clouds 26 1014 78 10000 4.1 210 11:46 21.10.2020
6500 Clouds 26 1014 78 10000 4.1 210 11:20 21.10.2020
6501 Rain 29 1012 64 10000 1.33 181 10:47 21.10.2020
6502 Rain 28 1013 69 10000 1.49 176 10:26 21.10.2020
6503 Rain 28 1013 69 10000 1.49 176 09:57 21.10.2020
6504 Mist 23 1014 94 4000 3.1 180 09:38 21.10.2020
6505 Mist 23 1014 94 4000 3.1 180 08:57 21.10.2020
6506 Mist 22 1013 94 2000 1.36 181 08:39 21.10.2020
6507 Mist 22 1013 94 2000 1.05 183 08:21 21.10.2020
6508 Clouds 23 1012 91 10000 0.96 153 07:41 21.10.2020
6509 Clouds 21 1012 96 10000 0.74 149 06:59 21.10.2020
6510 Clouds 21 1012 96 10000 0.74 149 06:33 21.10.2020
6511 Clouds 20 1010 98 10000 0.79 206 04:48 21.10.2020
6512 Clouds 21 1009 98 10000 0.69 195 02:37 21.10.2020
6513 Clouds 22 1011 97 10000 1.01 155 00:24 21.10.2020
6514 Clouds 22 1013 94 6000 4.1 110 23:25 20.10.2020
6515 Clouds 22 1012 97 10000 1.16 131 22:37 20.10.2020
6516 Clouds 22 1011 97 10000 1.38 132 22:19 20.10.2020
6517 Clouds 22 1011 97 10000 1.38 132 21:47 20.10.2020
6518 Clouds 23 1011 94 7000 3.1 180 21:18 20.10.2020
6519 Clouds 23 1011 94 7000 3.1 180 20:42 20.10.2020
6520 Clouds 23 1011 94 7000 3.1 180 20:23 20.10.2020
6521 Clouds 23 1010 94 8000 4.1 180 19:45 20.10.2020
6522 Clouds 23 1010 94 8000 4.1 180 19:22 20.10.2020
6523 Rain 23 1009 94 10000 0.82 124 18:57 20.10.2020
6524 Rain 23 1009 94 10000 0.82 124 18:37 20.10.2020
6525 Rain 24 1008 94 10000 0.47 115 17:51 20.10.2020
6526 Rain 24 1008 94 10000 0.47 115 17:32 20.10.2020
6527 Rain 26 1007 94 10000 0.19 117 16:56 20.10.2020
6528 Clouds 26 1010 78 10000 0.19 117 16:38 20.10.2020
6529 Clouds 26 1010 78 10000 0.8 299 16:20 20.10.2020
6530 Rain 27 1006 88 10000 0.8 299 15:44 20.10.2020
6531 Clouds 25 1012 78 8000 1.47 285 15:23 20.10.2020
6532 Clouds 25 1012 78 8000 1.47 285 14:44 20.10.2020
6533 Clouds 25 1012 78 8000 1.76 277 14:25 20.10.2020
6534 Clouds 24 1013 83 8000 1.81 288 13:58 20.10.2020
6535 Clouds 24 1014 78 8000 4.1 320 13:39 20.10.2020
6536 Clouds 24 1014 78 8000 4.1 320 13:19 20.10.2020
6537 Rain 27 1008 85 10000 2.09 291 12:48 20.10.2020
6538 Rain 28 1010 88 6765 1.8 292 12:29 20.10.2020
6539 Rain 28 1010 88 6765 1.8 292 11:47 20.10.2020
6540 Clouds 23 1015 88 7000 4.1 90 11:27 20.10.2020
6541 Rain 30 1011 64 10000 0.79 315 10:40 20.10.2020
6542 Rain 22 1014 94 3000 4.1 120 10:22 20.10.2020
6543 Rain 22 1014 94 3000 4.1 120 09:44 20.10.2020
6544 Rain 22 1014 94 3000 4.1 120 09:19 20.10.2020
6545 Clouds 23 1013 94 8000 3.1 160 08:39 20.10.2020
6546 Clouds 23 1013 94 8000 3.1 160 08:19 20.10.2020
6547 Rain 23 1012 96 10000 0.44 263 07:42 20.10.2020
6548 Rain 21 1011 98 8570 0.55 38 07:21 20.10.2020
6549 Rain 21 1010 98 10000 0.68 351 06:19 20.10.2020
6550 Rain 21 1008 97 10000 0.42 346 04:26 20.10.2020
6551 Clouds 21 1008 96 10000 0.28 193 02:30 20.10.2020
6552 Rain 21 1009 96 10000 0.09 228 01:22 20.10.2020
6553 Rain 21 1009 96 10000 0.09 228 00:51 20.10.2020
6554 Rain 21 1009 94 10000 0.61 319 00:26 20.10.2020
6555 Rain 21 1009 94 10000 0.61 319 23:51 19.10.2020
6556 Clouds 22 1010 92 10000 0.78 3 23:24 19.10.2020
6557 Clouds 22 1010 92 10000 0.78 3 22:54 19.10.2020
6558 Clouds 22 1009 92 10000 0.8 39 22:26 19.10.2020
6559 Clouds 22 1009 92 10000 0.8 39 21:50 19.10.2020
6560 Rain 23 1009 92 10000 0.96 62 21:24 19.10.2020
6561 Rain 23 1009 92 10000 0.96 62 20:59 19.10.2020
6562 Rain 23 1009 92 10000 0.96 62 20:39 19.10.2020
6563 Rain 23 1009 92 10000 0.96 62 20:39 19.10.2020
6564 Clouds 23 1008 89 10000 1.14 63 20:18 19.10.2020
6565 Rain 23 1008 91 10000 0.95 24 19:42 19.10.2020
6566 Clouds 29 1008 62 8000 1.5 0 19:19 19.10.2020
6567 Clouds 29 1008 62 8000 1.5 0 18:49 19.10.2020
6568 Clouds 29 1008 62 8000 1.5 0 18:20 19.10.2020
6569 Rain 26 1005 81 10000 1.36 24 17:47 19.10.2020
6570 Rain 28 1005 73 10000 1.08 355 17:26 19.10.2020
6571 Rain 28 1005 73 10000 1.08 355 16:53 19.10.2020
6572 Clouds 32 1008 52 10000 2.1 320 16:29 19.10.2020
6573 Clouds 32 1008 52 10000 2.1 320 15:47 19.10.2020
6574 Clouds 32 1005 54 10000 0.45 14 15:26 19.10.2020
6575 Clouds 32 1005 54 10000 0.45 14 14:57 19.10.2020
6576 Clouds 32 1005 54 10000 0.45 14 14:57 19.10.2020
6577 Clouds 32 1005 54 10000 0.45 14 14:36 19.10.2020
6578 Clouds 34 1006 45 10000 0.47 12 14:18 19.10.2020
6579 Rain 33 1006 47 10000 0.08 45 13:42 19.10.2020
6580 Clouds 33 1007 47 10000 0.59 142 13:22 19.10.2020
6581 Clouds 33 1007 47 10000 0.59 142 12:43 19.10.2020
6582 Clouds 30 1009 57 10000 0.66 136 12:25 19.10.2020
6583 Clouds 30 1009 57 10000 0.66 136 11:48 19.10.2020
6584 Clouds 27 1010 70 10000 0.63 117 11:22 19.10.2020
6585 Clouds 27 1010 70 10000 0.63 117 10:44 19.10.2020
6586 Clouds 26 1011 77 10000 0.62 102 10:23 19.10.2020
6587 Clouds 26 1011 77 10000 0.62 102 09:56 19.10.2020
6588 Rain 23 1012 90 10000 0.57 62 09:25 19.10.2020
6589 Rain 23 1012 90 10000 0.57 62 08:59 19.10.2020
6590 Rain 23 1012 90 10000 0.57 62 08:41 19.10.2020
6591 Rain 22 1012 96 10000 0.2 302 08:20 19.10.2020
6592 Mist 22 1012 100 3000 0.53 260 07:20 19.10.2020
6593 Rain 21 1011 97 5956 0.53 260 06:36 19.10.2020
6594 Rain 21 1009 97 10000 0.69 130 04:47 19.10.2020
6595 Rain 21 1008 97 9019 0.54 103 03:45 19.10.2020
6596 Clouds 22 1009 96 10000 0.51 151 01:33 19.10.2020
6597 Clouds 22 1010 96 10000 0.71 210 00:28 19.10.2020
6598 Clouds 22 1010 96 10000 0.71 210 23:56 18.10.2020
6599 Clouds 22 1010 96 10000 0.71 210 23:37 18.10.2020
6600 Clouds 22 1011 96 10000 0.16 263 23:18 18.10.2020
6601 Clouds 22 1011 96 10000 0.16 263 22:43 18.10.2020
6602 Clouds 22 1010 96 10000 0.5 120 22:18 18.10.2020
6603 Clouds 22 1010 96 10000 0.5 120 21:38 18.10.2020
6604 Rain 22 1009 97 10000 0.89 142 21:20 18.10.2020
6605 Rain 22 1009 97 10000 0.89 142 20:43 18.10.2020
6606 Clouds 27 1010 69 7000 4.1 30 20:22 18.10.2020
6607 Clouds 27 1010 69 7000 4.1 30 19:49 18.10.2020
6608 Clouds 28 1009 65 7000 4.1 330 19:26 18.10.2020
6609 Clouds 28 1009 65 7000 4.1 330 18:51 18.10.2020
6610 Clouds 24 1008 83 10000 0.54 27 18:30 18.10.2020
6611 Clouds 24 1008 81 10000 0.37 328 17:59 18.10.2020
6612 Clouds 24 1008 81 10000 0.37 328 17:40 18.10.2020
6613 Clouds 27 1007 73 10000 0.49 255 17:21 18.10.2020
6614 Clouds 27 1007 73 10000 0.49 255 17:21 18.10.2020
6615 Clouds 27 1007 73 10000 0.49 255 16:41 18.10.2020
6616 Clouds 28 1007 64 10000 0.96 211 16:21 18.10.2020
6617 Clouds 28 1007 64 10000 0.96 211 15:42 18.10.2020
6618 Clouds 28 1010 69 10000 4.1 180 15:19 18.10.2020
6619 Clouds 28 1010 69 10000 4.1 180 14:57 18.10.2020
6620 Clouds 28 1012 74 10000 4.1 180 14:31 18.10.2020
6621 Clouds 28 1012 74 10000 4.1 180 13:58 18.10.2020
6622 Clouds 29 1008 59 10000 1.11 174 13:40 18.10.2020
6623 Clouds 28 1013 74 10000 3.1 180 13:21 18.10.2020
6624 Clouds 28 1013 74 10000 3.1 180 12:43 18.10.2020
6625 Clouds 27 1014 74 9000 3.1 30 12:22 18.10.2020
6626 Rain 25 1011 84 10000 1.23 157 11:42 18.10.2020
6627 Clouds 26 1014 78 8000 4.1 230 11:23 18.10.2020
6628 Clouds 26 1014 78 8000 4.1 230 10:45 18.10.2020
6629 Rain 22 1012 98 10000 1.36 119 10:21 18.10.2020
6630 Rain 22 1012 98 10000 1.36 119 09:58 18.10.2020
6631 Rain 22 1012 98 10000 1.36 119 09:3